<?xml version="1.0" encoding="UTF-8" standalone="no"?>
<gpx version="1.1" creator="arnoldrimtrail.org" xmlns="http://www.topografix.com/GPX/1/1" xmlns:xsi="http://www.w3.org/2001/XMLSchema-instance" xmlns:gpxtpx="http://www.garmin.com/xmlschemas/TrackPointExtension/v1" xsi:schemaLocation="http://www.topografix.com/GPX/1/1 http://www.topografix.com/GPX/1/1/gpx.xsd http://www.garmin.com/xmlschemas/TrackPointExtension/v1 http://www.garmin.com/xmlschemas/TrackPointExtensionv1.xsd">
<metadata>
<name>Run the Rim 50K ARTA Route</name>
<link href="https://www.arnoldrimtrail.org/">
<text>ARTA</text>
</link>
</metadata>
<wpt lat="38.266624" lon="-120.342876">
<name>FINISH</name>
</wpt>
<wpt lat="38.264916" lon="-120.343024">
</wpt>
<wpt lat="38.183921" lon="-120.377757">
<name>Helispot Aid Station</name>
</wpt>
<wpt lat="38.196493" lon="-120.399719">
<name>Lost Souls Aid Station</name>
</wpt>
<wpt lat="38.219395" lon="-120.378576">
<name>Sunset Aid Station</name>
</wpt>
<wpt lat="38.208684" lon="-120.386744">
</wpt>
<wpt lat="38.25803" lon="-120.369338">
<name>Equine Aid Station</name>
</wpt>
<wpt lat="38.232291" lon="-120.389187">
<name>Cougar Rock Aid Station</name>
</wpt>
<wpt lat="38.208043" lon="-120.389386">
<name>Dusty Corners Aid Station</name>
</wpt>
<wpt lat="38.233007" lon="-120.387825">
<name>Marshal</name>
</wpt>
<wpt lat="38.233011" lon="-120.38783">
</wpt>
<wpt lat="38.185697" lon="-120.411081">
<name>START</name>
</wpt>
<wpt lat="38.185704" lon="-120.411075">
</wpt>
<trk>
<name>
Run the Rim 50K
</name>
<link href="https://www.arnoldrimtrail.org/runtherim/">
</link>
<trkseg>
<trkpt lat="38.18574" lon="-120.41106">
<ele>1002.1</ele>
<time>2026-04-22T09:57:42-07:00</time>
</trkpt>
<trkpt lat="38.18551" lon="-120.4106">
<ele>1001.3</ele>
<time>2026-04-22T09:57:43-07:00</time>
</trkpt>
<trkpt lat="38.18545" lon="-120.41054">
<ele>999.1</ele>
<time>2026-04-22T09:57:44-07:00</time>
</trkpt>
<trkpt lat="38.18531" lon="-120.4103">
<ele>998.5</ele>
<time>2026-04-22T09:57:45-07:00</time>
</trkpt>
<trkpt lat="38.18526" lon="-120.41015">
<ele>996.6</ele>
<time>2026-04-22T09:57:46-07:00</time>
</trkpt>
<trkpt lat="38.18527" lon="-120.41001">
<ele>996.1</ele>
<time>2026-04-22T09:57:47-07:00</time>
</trkpt>
<trkpt lat="38.18533" lon="-120.40975">
<ele>992.8</ele>
<time>2026-04-22T09:57:48-07:00</time>
</trkpt>
<trkpt lat="38.18531" lon="-120.40927">
<ele>987.8</ele>
<time>2026-04-22T09:57:49-07:00</time>
</trkpt>
<trkpt lat="38.18533" lon="-120.40904">
<ele>983.9</ele>
<time>2026-04-22T09:57:50-07:00</time>
</trkpt>
<trkpt lat="38.18538" lon="-120.40889">
<ele>984.6</ele>
<time>2026-04-22T09:57:51-07:00</time>
</trkpt>
<trkpt lat="38.18545" lon="-120.40876">
<ele>980.8</ele>
<time>2026-04-22T09:57:52-07:00</time>
</trkpt>
<trkpt lat="38.18557" lon="-120.40865">
<ele>979.2</ele>
<time>2026-04-22T09:57:53-07:00</time>
</trkpt>
<trkpt lat="38.18576" lon="-120.40842">
<ele>973.1</ele>
<time>2026-04-22T09:57:54-07:00</time>
</trkpt>
<trkpt lat="38.18585" lon="-120.40836">
<ele>973</ele>
<time>2026-04-22T09:57:55-07:00</time>
</trkpt>
<trkpt lat="38.18601" lon="-120.40836">
<ele>971.9</ele>
<time>2026-04-22T09:57:56-07:00</time>
</trkpt>
<trkpt lat="38.18616" lon="-120.40842">
<ele>967.3</ele>
<time>2026-04-22T09:57:57-07:00</time>
</trkpt>
<trkpt lat="38.18636" lon="-120.40854">
<ele>967.4</ele>
<time>2026-04-22T09:57:58-07:00</time>
</trkpt>
<trkpt lat="38.18641" lon="-120.40854">
<ele>963.8</ele>
<time>2026-04-22T09:57:59-07:00</time>
</trkpt>
<trkpt lat="38.18648" lon="-120.4085">
<ele>962.6</ele>
<time>2026-04-22T09:58:00-07:00</time>
</trkpt>
<trkpt lat="38.18652" lon="-120.40845">
<ele>963.8</ele>
<time>2026-04-22T09:58:01-07:00</time>
</trkpt>
<trkpt lat="38.18658" lon="-120.40833">
<ele>963.4</ele>
<time>2026-04-22T09:58:02-07:00</time>
</trkpt>
<trkpt lat="38.18658" lon="-120.40824">
<ele>963.9</ele>
<time>2026-04-22T09:58:03-07:00</time>
</trkpt>
<trkpt lat="38.18656" lon="-120.40818">
<ele>960.5</ele>
<time>2026-04-22T09:58:04-07:00</time>
</trkpt>
<trkpt lat="38.18634" lon="-120.40788">
<ele>956</ele>
<time>2026-04-22T09:58:05-07:00</time>
</trkpt>
<trkpt lat="38.18625" lon="-120.40752">
<ele>950.8</ele>
<time>2026-04-22T09:58:06-07:00</time>
</trkpt>
<trkpt lat="38.18625" lon="-120.40734">
<ele>949</ele>
<time>2026-04-22T09:58:07-07:00</time>
</trkpt>
<trkpt lat="38.18623" lon="-120.40726">
<ele>948.2</ele>
<time>2026-04-22T09:58:08-07:00</time>
</trkpt>
<trkpt lat="38.18616" lon="-120.40717">
<ele>946.4</ele>
<time>2026-04-22T09:58:09-07:00</time>
</trkpt>
<trkpt lat="38.18593" lon="-120.40697">
<ele>942.4</ele>
<time>2026-04-22T09:58:10-07:00</time>
</trkpt>
<trkpt lat="38.18573" lon="-120.40694">
<ele>937.5</ele>
<time>2026-04-22T09:58:11-07:00</time>
</trkpt>
<trkpt lat="38.18559" lon="-120.40687">
<ele>934.7</ele>
<time>2026-04-22T09:58:12-07:00</time>
</trkpt>
<trkpt lat="38.18549" lon="-120.40679">
<ele>932.2</ele>
<time>2026-04-22T09:58:13-07:00</time>
</trkpt>
<trkpt lat="38.18542" lon="-120.4067">
<ele>929.2</ele>
<time>2026-04-22T09:58:14-07:00</time>
</trkpt>
<trkpt lat="38.18538" lon="-120.40646">
<ele>927.7</ele>
<time>2026-04-22T09:58:15-07:00</time>
</trkpt>
<trkpt lat="38.1853" lon="-120.40624">
<ele>922</ele>
<time>2026-04-22T09:58:16-07:00</time>
</trkpt>
<trkpt lat="38.18526" lon="-120.40591">
<ele>915.4</ele>
<time>2026-04-22T09:58:17-07:00</time>
</trkpt>
<trkpt lat="38.18518" lon="-120.40567">
<ele>910.5</ele>
<time>2026-04-22T09:58:18-07:00</time>
</trkpt>
<trkpt lat="38.18507" lon="-120.40544">
<ele>908.7</ele>
<time>2026-04-22T09:58:19-07:00</time>
</trkpt>
<trkpt lat="38.18491" lon="-120.40521">
<ele>905.8</ele>
<time>2026-04-22T09:58:20-07:00</time>
</trkpt>
<trkpt lat="38.18483" lon="-120.40503">
<ele>901.5</ele>
<time>2026-04-22T09:58:21-07:00</time>
</trkpt>
<trkpt lat="38.18481" lon="-120.40493">
<ele>900</ele>
<time>2026-04-22T09:58:22-07:00</time>
</trkpt>
<trkpt lat="38.18482" lon="-120.40479">
<ele>899.2</ele>
<time>2026-04-22T09:58:23-07:00</time>
</trkpt>
<trkpt lat="38.18481" lon="-120.40452">
<ele>892.3</ele>
<time>2026-04-22T09:58:24-07:00</time>
</trkpt>
<trkpt lat="38.18486" lon="-120.40447">
<ele>893.3</ele>
<time>2026-04-22T09:58:25-07:00</time>
</trkpt>
<trkpt lat="38.18498" lon="-120.40446">
<ele>893.3</ele>
<time>2026-04-22T09:58:26-07:00</time>
</trkpt>
<trkpt lat="38.18509" lon="-120.40448">
<ele>892.2</ele>
<time>2026-04-22T09:58:27-07:00</time>
</trkpt>
<trkpt lat="38.18531" lon="-120.40441">
<ele>885.9</ele>
<time>2026-04-22T09:58:28-07:00</time>
</trkpt>
<trkpt lat="38.18545" lon="-120.40442">
<ele>883.5</ele>
<time>2026-04-22T09:58:29-07:00</time>
</trkpt>
<trkpt lat="38.18551" lon="-120.40445">
<ele>885.6</ele>
<time>2026-04-22T09:58:30-07:00</time>
</trkpt>
<trkpt lat="38.1856" lon="-120.40446">
<ele>881.8</ele>
<time>2026-04-22T09:58:31-07:00</time>
</trkpt>
<trkpt lat="38.18571" lon="-120.40452">
<ele>877.2</ele>
<time>2026-04-22T09:58:32-07:00</time>
</trkpt>
<trkpt lat="38.18578" lon="-120.40454">
<ele>879.4</ele>
<time>2026-04-22T09:58:33-07:00</time>
</trkpt>
<trkpt lat="38.18591" lon="-120.40453">
<ele>873.4</ele>
<time>2026-04-22T09:58:34-07:00</time>
</trkpt>
<trkpt lat="38.1861" lon="-120.40447">
<ele>871</ele>
<time>2026-04-22T09:58:35-07:00</time>
</trkpt>
<trkpt lat="38.18625" lon="-120.4045">
<ele>864.1</ele>
<time>2026-04-22T09:58:36-07:00</time>
</trkpt>
<trkpt lat="38.18645" lon="-120.40461">
<ele>861</ele>
<time>2026-04-22T09:58:37-07:00</time>
</trkpt>
<trkpt lat="38.18652" lon="-120.40461">
<ele>861.7</ele>
<time>2026-04-22T09:58:38-07:00</time>
</trkpt>
<trkpt lat="38.18659" lon="-120.40458">
<ele>861.9</ele>
<time>2026-04-22T09:58:39-07:00</time>
</trkpt>
<trkpt lat="38.1867" lon="-120.40456">
<ele>860.4</ele>
<time>2026-04-22T09:58:40-07:00</time>
</trkpt>
<trkpt lat="38.18687" lon="-120.40459">
<ele>856.2</ele>
<time>2026-04-22T09:58:41-07:00</time>
</trkpt>
<trkpt lat="38.1871" lon="-120.40445">
<ele>854.5</ele>
<time>2026-04-22T09:58:42-07:00</time>
</trkpt>
<trkpt lat="38.1871" lon="-120.40439">
<ele>852.4</ele>
<time>2026-04-22T09:58:43-07:00</time>
</trkpt>
<trkpt lat="38.18703" lon="-120.40427">
<ele>850.3</ele>
<time>2026-04-22T09:58:44-07:00</time>
</trkpt>
<trkpt lat="38.18701" lon="-120.40419">
<ele>848.2</ele>
<time>2026-04-22T09:58:45-07:00</time>
</trkpt>
<trkpt lat="38.18692" lon="-120.40413">
<ele>846.2</ele>
<time>2026-04-22T09:58:46-07:00</time>
</trkpt>
<trkpt lat="38.1869" lon="-120.40409">
<ele>846.2</ele>
<time>2026-04-22T09:58:47-07:00</time>
</trkpt>
<trkpt lat="38.18692" lon="-120.40406">
<ele>845.1</ele>
<time>2026-04-22T09:58:48-07:00</time>
</trkpt>
<trkpt lat="38.18701" lon="-120.404">
<ele>845.8</ele>
<time>2026-04-22T09:58:49-07:00</time>
</trkpt>
<trkpt lat="38.18709" lon="-120.40399">
<ele>845.8</ele>
<time>2026-04-22T09:58:50-07:00</time>
</trkpt>
<trkpt lat="38.18723" lon="-120.40406">
<ele>841</ele>
<time>2026-04-22T09:58:51-07:00</time>
</trkpt>
<trkpt lat="38.18722" lon="-120.40401">
<ele>842</ele>
<time>2026-04-22T09:58:52-07:00</time>
</trkpt>
<trkpt lat="38.18718" lon="-120.40397">
<ele>839.5</ele>
<time>2026-04-22T09:58:53-07:00</time>
</trkpt>
<trkpt lat="38.1871" lon="-120.40381">
<ele>839.1</ele>
<time>2026-04-22T09:58:54-07:00</time>
</trkpt>
<trkpt lat="38.18701" lon="-120.40378">
<ele>836.1</ele>
<time>2026-04-22T09:58:55-07:00</time>
</trkpt>
<trkpt lat="38.18674" lon="-120.4038">
<ele>835.6</ele>
<time>2026-04-22T09:58:56-07:00</time>
</trkpt>
<trkpt lat="38.18651" lon="-120.40372">
<ele>832.9</ele>
<time>2026-04-22T09:58:57-07:00</time>
</trkpt>
<trkpt lat="38.1862" lon="-120.40343">
<ele>827.5</ele>
<time>2026-04-22T09:58:58-07:00</time>
</trkpt>
<trkpt lat="38.18587" lon="-120.4034">
<ele>821.2</ele>
<time>2026-04-22T09:58:59-07:00</time>
</trkpt>
<trkpt lat="38.18578" lon="-120.40335">
<ele>821.4</ele>
<time>2026-04-22T09:59:00-07:00</time>
</trkpt>
<trkpt lat="38.18575" lon="-120.40327">
<ele>818.4</ele>
<time>2026-04-22T09:59:01-07:00</time>
</trkpt>
<trkpt lat="38.18553" lon="-120.40311">
<ele>817.2</ele>
<time>2026-04-22T09:59:02-07:00</time>
</trkpt>
<trkpt lat="38.18537" lon="-120.40278">
<ele>818.4</ele>
<time>2026-04-22T09:59:03-07:00</time>
</trkpt>
<trkpt lat="38.18507" lon="-120.40246">
<ele>815.8</ele>
<time>2026-04-22T09:59:04-07:00</time>
</trkpt>
<trkpt lat="38.1849" lon="-120.40222">
<ele>812</ele>
<time>2026-04-22T09:59:05-07:00</time>
</trkpt>
<trkpt lat="38.18473" lon="-120.40192">
<ele>807</ele>
<time>2026-04-22T09:59:06-07:00</time>
</trkpt>
<trkpt lat="38.18471" lon="-120.40182">
<ele>806.3</ele>
<time>2026-04-22T09:59:07-07:00</time>
</trkpt>
<trkpt lat="38.18461" lon="-120.40159">
<ele>802.1</ele>
<time>2026-04-22T09:59:08-07:00</time>
</trkpt>
<trkpt lat="38.18453" lon="-120.40146">
<ele>797.1</ele>
<time>2026-04-22T09:59:09-07:00</time>
</trkpt>
<trkpt lat="38.18419" lon="-120.40141">
<ele>797.1</ele>
<time>2026-04-22T09:59:10-07:00</time>
</trkpt>
<trkpt lat="38.18386" lon="-120.40142">
<ele>794.2</ele>
<time>2026-04-22T09:59:11-07:00</time>
</trkpt>
<trkpt lat="38.18273" lon="-120.40304">
<ele>788</ele>
<time>2026-04-22T09:59:12-07:00</time>
</trkpt>
<trkpt lat="38.18248" lon="-120.40324">
<ele>781.6</ele>
<time>2026-04-22T09:59:13-07:00</time>
</trkpt>
<trkpt lat="38.18237" lon="-120.40355">
<ele>779.3</ele>
<time>2026-04-22T09:59:14-07:00</time>
</trkpt>
<trkpt lat="38.18233" lon="-120.40355">
<ele>779.3</ele>
<time>2026-04-22T09:59:15-07:00</time>
</trkpt>
<trkpt lat="38.18231" lon="-120.4035">
<ele>781</ele>
<time>2026-04-22T09:59:16-07:00</time>
</trkpt>
<trkpt lat="38.1823" lon="-120.40337">
<ele>781.9</ele>
<time>2026-04-22T09:59:17-07:00</time>
</trkpt>
<trkpt lat="38.18227" lon="-120.40326">
<ele>783</ele>
<time>2026-04-22T09:59:18-07:00</time>
</trkpt>
<trkpt lat="38.18219" lon="-120.40348">
<ele>788.1</ele>
<time>2026-04-22T09:59:19-07:00</time>
</trkpt>
<trkpt lat="38.18222" lon="-120.40424">
<ele>792.2</ele>
<time>2026-04-22T09:59:20-07:00</time>
</trkpt>
<trkpt lat="38.18219" lon="-120.40433">
<ele>791.6</ele>
<time>2026-04-22T09:59:21-07:00</time>
</trkpt>
<trkpt lat="38.18213" lon="-120.40441">
<ele>789.4</ele>
<time>2026-04-22T09:59:22-07:00</time>
</trkpt>
<trkpt lat="38.18209" lon="-120.40461">
<ele>795.4</ele>
<time>2026-04-22T09:59:23-07:00</time>
</trkpt>
<trkpt lat="38.18195" lon="-120.40491">
<ele>792.8</ele>
<time>2026-04-22T09:59:24-07:00</time>
</trkpt>
<trkpt lat="38.18186" lon="-120.40505">
<ele>796</ele>
<time>2026-04-22T09:59:25-07:00</time>
</trkpt>
<trkpt lat="38.18175" lon="-120.40515">
<ele>806.7</ele>
<time>2026-04-22T09:59:26-07:00</time>
</trkpt>
<trkpt lat="38.18159" lon="-120.40543">
<ele>805.2</ele>
<time>2026-04-22T09:59:27-07:00</time>
</trkpt>
<trkpt lat="38.18148" lon="-120.40555">
<ele>816.2</ele>
<time>2026-04-22T09:59:28-07:00</time>
</trkpt>
<trkpt lat="38.18137" lon="-120.40574">
<ele>813.8</ele>
<time>2026-04-22T09:59:29-07:00</time>
</trkpt>
<trkpt lat="38.18131" lon="-120.4058">
<ele>809.9</ele>
<time>2026-04-22T09:59:30-07:00</time>
</trkpt>
<trkpt lat="38.18117" lon="-120.40585">
<ele>813.2</ele>
<time>2026-04-22T09:59:31-07:00</time>
</trkpt>
<trkpt lat="38.18108" lon="-120.40582">
<ele>820.7</ele>
<time>2026-04-22T09:59:32-07:00</time>
</trkpt>
<trkpt lat="38.18118" lon="-120.40573">
<ele>821.8</ele>
<time>2026-04-22T09:59:33-07:00</time>
</trkpt>
<trkpt lat="38.18115" lon="-120.40572">
<ele>821.8</ele>
<time>2026-04-22T09:59:34-07:00</time>
</trkpt>
<trkpt lat="38.18105" lon="-120.40574">
<ele>824.8</ele>
<time>2026-04-22T09:59:35-07:00</time>
</trkpt>
<trkpt lat="38.18106" lon="-120.40568">
<ele>824.8</ele>
<time>2026-04-22T09:59:36-07:00</time>
</trkpt>
<trkpt lat="38.18112" lon="-120.40561">
<ele>827.2</ele>
<time>2026-04-22T09:59:37-07:00</time>
</trkpt>
<trkpt lat="38.18116" lon="-120.40551">
<ele>831</ele>
<time>2026-04-22T09:59:38-07:00</time>
</trkpt>
<trkpt lat="38.18103" lon="-120.40551">
<ele>833.8</ele>
<time>2026-04-22T09:59:39-07:00</time>
</trkpt>
<trkpt lat="38.18088" lon="-120.40543">
<ele>840.8</ele>
<time>2026-04-22T09:59:40-07:00</time>
</trkpt>
<trkpt lat="38.18076" lon="-120.40539">
<ele>841.8</ele>
<time>2026-04-22T09:59:41-07:00</time>
</trkpt>
<trkpt lat="38.18075" lon="-120.40536">
<ele>845.3</ele>
<time>2026-04-22T09:59:42-07:00</time>
</trkpt>
<trkpt lat="38.18079" lon="-120.40532">
<ele>845.3</ele>
<time>2026-04-22T09:59:43-07:00</time>
</trkpt>
<trkpt lat="38.18092" lon="-120.40528">
<ele>845.3</ele>
<time>2026-04-22T09:59:44-07:00</time>
</trkpt>
<trkpt lat="38.18072" lon="-120.40517">
<ele>852.4</ele>
<time>2026-04-22T09:59:45-07:00</time>
</trkpt>
<trkpt lat="38.18061" lon="-120.40504">
<ele>853.3</ele>
<time>2026-04-22T09:59:46-07:00</time>
</trkpt>
<trkpt lat="38.18065" lon="-120.40501">
<ele>855.9</ele>
<time>2026-04-22T09:59:47-07:00</time>
</trkpt>
<trkpt lat="38.18075" lon="-120.40504">
<ele>856.9</ele>
<time>2026-04-22T09:59:48-07:00</time>
</trkpt>
<trkpt lat="38.18086" lon="-120.40503">
<ele>857</ele>
<time>2026-04-22T09:59:49-07:00</time>
</trkpt>
<trkpt lat="38.18101" lon="-120.40492">
<ele>858.7</ele>
<time>2026-04-22T09:59:50-07:00</time>
</trkpt>
<trkpt lat="38.18099" lon="-120.40488">
<ele>861.4</ele>
<time>2026-04-22T09:59:51-07:00</time>
</trkpt>
<trkpt lat="38.18089" lon="-120.40488">
<ele>863.3</ele>
<time>2026-04-22T09:59:52-07:00</time>
</trkpt>
<trkpt lat="38.18083" lon="-120.40484">
<ele>863.5</ele>
<time>2026-04-22T09:59:53-07:00</time>
</trkpt>
<trkpt lat="38.18078" lon="-120.40477">
<ele>866.2</ele>
<time>2026-04-22T09:59:54-07:00</time>
</trkpt>
<trkpt lat="38.18071" lon="-120.40472">
<ele>867.8</ele>
<time>2026-04-22T09:59:55-07:00</time>
</trkpt>
<trkpt lat="38.18057" lon="-120.4045">
<ele>871.4</ele>
<time>2026-04-22T09:59:56-07:00</time>
</trkpt>
<trkpt lat="38.18072" lon="-120.40452">
<ele>872.6</ele>
<time>2026-04-22T09:59:57-07:00</time>
</trkpt>
<trkpt lat="38.18081" lon="-120.40447">
<ele>873.5</ele>
<time>2026-04-22T09:59:58-07:00</time>
</trkpt>
<trkpt lat="38.1809" lon="-120.40437">
<ele>874.6</ele>
<time>2026-04-22T09:59:59-07:00</time>
</trkpt>
<trkpt lat="38.18092" lon="-120.40432">
<ele>876</ele>
<time>2026-04-22T10:00:00-07:00</time>
</trkpt>
<trkpt lat="38.18087" lon="-120.40423">
<ele>877.5</ele>
<time>2026-04-22T10:00:01-07:00</time>
</trkpt>
<trkpt lat="38.18083" lon="-120.40403">
<ele>880.5</ele>
<time>2026-04-22T10:00:02-07:00</time>
</trkpt>
<trkpt lat="38.18075" lon="-120.40388">
<ele>881.2</ele>
<time>2026-04-22T10:00:03-07:00</time>
</trkpt>
<trkpt lat="38.18076" lon="-120.40378">
<ele>881.2</ele>
<time>2026-04-22T10:00:04-07:00</time>
</trkpt>
<trkpt lat="38.18061" lon="-120.40335">
<ele>884.8</ele>
<time>2026-04-22T10:00:05-07:00</time>
</trkpt>
<trkpt lat="38.18057" lon="-120.40304">
<ele>888</ele>
<time>2026-04-22T10:00:06-07:00</time>
</trkpt>
<trkpt lat="38.18049" lon="-120.40287">
<ele>891.7</ele>
<time>2026-04-22T10:00:07-07:00</time>
</trkpt>
<trkpt lat="38.18041" lon="-120.40276">
<ele>893.4</ele>
<time>2026-04-22T10:00:08-07:00</time>
</trkpt>
<trkpt lat="38.18037" lon="-120.40266">
<ele>892.7</ele>
<time>2026-04-22T10:00:09-07:00</time>
</trkpt>
<trkpt lat="38.1803" lon="-120.40258">
<ele>896.1</ele>
<time>2026-04-22T10:00:10-07:00</time>
</trkpt>
<trkpt lat="38.18028" lon="-120.40257">
<ele>896.1</ele>
<time>2026-04-22T10:00:11-07:00</time>
</trkpt>
<trkpt lat="38.18025" lon="-120.40258">
<ele>895.7</ele>
<time>2026-04-22T10:00:12-07:00</time>
</trkpt>
<trkpt lat="38.18025" lon="-120.40254">
<ele>895.7</ele>
<time>2026-04-22T10:00:13-07:00</time>
</trkpt>
<trkpt lat="38.18037" lon="-120.40245">
<ele>899.1</ele>
<time>2026-04-22T10:00:14-07:00</time>
</trkpt>
<trkpt lat="38.18045" lon="-120.40225">
<ele>903.3</ele>
<time>2026-04-22T10:00:15-07:00</time>
</trkpt>
<trkpt lat="38.18048" lon="-120.40215">
<ele>902.4</ele>
<time>2026-04-22T10:00:16-07:00</time>
</trkpt>
<trkpt lat="38.18047" lon="-120.40198">
<ele>905.3</ele>
<time>2026-04-22T10:00:17-07:00</time>
</trkpt>
<trkpt lat="38.18043" lon="-120.40195">
<ele>909.3</ele>
<time>2026-04-22T10:00:18-07:00</time>
</trkpt>
<trkpt lat="38.18033" lon="-120.40204">
<ele>909.6</ele>
<time>2026-04-22T10:00:19-07:00</time>
</trkpt>
<trkpt lat="38.18024" lon="-120.40206">
<ele>910.4</ele>
<time>2026-04-22T10:00:20-07:00</time>
</trkpt>
<trkpt lat="38.18016" lon="-120.40199">
<ele>913</ele>
<time>2026-04-22T10:00:21-07:00</time>
</trkpt>
<trkpt lat="38.18012" lon="-120.40193">
<ele>915</ele>
<time>2026-04-22T10:00:22-07:00</time>
</trkpt>
<trkpt lat="38.18011" lon="-120.40186">
<ele>915</ele>
<time>2026-04-22T10:00:23-07:00</time>
</trkpt>
<trkpt lat="38.18012" lon="-120.4017">
<ele>917.2</ele>
<time>2026-04-22T10:00:24-07:00</time>
</trkpt>
<trkpt lat="38.18002" lon="-120.40152">
<ele>917.6</ele>
<time>2026-04-22T10:00:25-07:00</time>
</trkpt>
<trkpt lat="38.17998" lon="-120.40138">
<ele>917.4</ele>
<time>2026-04-22T10:00:26-07:00</time>
</trkpt>
<trkpt lat="38.17998" lon="-120.40131">
<ele>917.4</ele>
<time>2026-04-22T10:00:27-07:00</time>
</trkpt>
<trkpt lat="38.18" lon="-120.40125">
<ele>916.2</ele>
<time>2026-04-22T10:00:28-07:00</time>
</trkpt>
<trkpt lat="38.17998" lon="-120.40113">
<ele>917</ele>
<time>2026-04-22T10:00:29-07:00</time>
</trkpt>
<trkpt lat="38.17984" lon="-120.40083">
<ele>919.2</ele>
<time>2026-04-22T10:00:30-07:00</time>
</trkpt>
<trkpt lat="38.17971" lon="-120.4007">
<ele>917.8</ele>
<time>2026-04-22T10:00:31-07:00</time>
</trkpt>
<trkpt lat="38.17957" lon="-120.40052">
<ele>919.6</ele>
<time>2026-04-22T10:00:32-07:00</time>
</trkpt>
<trkpt lat="38.17949" lon="-120.40037">
<ele>922.6</ele>
<time>2026-04-22T10:00:33-07:00</time>
</trkpt>
<trkpt lat="38.17944" lon="-120.40015">
<ele>925.3</ele>
<time>2026-04-22T10:00:34-07:00</time>
</trkpt>
<trkpt lat="38.17942" lon="-120.39994">
<ele>928.2</ele>
<time>2026-04-22T10:00:35-07:00</time>
</trkpt>
<trkpt lat="38.1793" lon="-120.39953">
<ele>935.8</ele>
<time>2026-04-22T10:00:36-07:00</time>
</trkpt>
<trkpt lat="38.17928" lon="-120.39939">
<ele>936.9</ele>
<time>2026-04-22T10:00:37-07:00</time>
</trkpt>
<trkpt lat="38.17918" lon="-120.39909">
<ele>938.2</ele>
<time>2026-04-22T10:00:38-07:00</time>
</trkpt>
<trkpt lat="38.1791" lon="-120.39846">
<ele>939.6</ele>
<time>2026-04-22T10:00:39-07:00</time>
</trkpt>
<trkpt lat="38.17913" lon="-120.39818">
<ele>940.5</ele>
<time>2026-04-22T10:00:40-07:00</time>
</trkpt>
<trkpt lat="38.17909" lon="-120.39793">
<ele>942.8</ele>
<time>2026-04-22T10:00:41-07:00</time>
</trkpt>
<trkpt lat="38.17904" lon="-120.39782">
<ele>945.7</ele>
<time>2026-04-22T10:00:42-07:00</time>
</trkpt>
<trkpt lat="38.17904" lon="-120.39768">
<ele>947.5</ele>
<time>2026-04-22T10:00:43-07:00</time>
</trkpt>
<trkpt lat="38.17909" lon="-120.39754">
<ele>948.4</ele>
<time>2026-04-22T10:00:44-07:00</time>
</trkpt>
<trkpt lat="38.17913" lon="-120.39749">
<ele>950</ele>
<time>2026-04-22T10:00:45-07:00</time>
</trkpt>
<trkpt lat="38.1792" lon="-120.39723">
<ele>952.4</ele>
<time>2026-04-22T10:00:46-07:00</time>
</trkpt>
<trkpt lat="38.17934" lon="-120.39717">
<ele>953.6</ele>
<time>2026-04-22T10:00:47-07:00</time>
</trkpt>
<trkpt lat="38.17948" lon="-120.39701">
<ele>956.2</ele>
<time>2026-04-22T10:00:48-07:00</time>
</trkpt>
<trkpt lat="38.17954" lon="-120.39689">
<ele>957.4</ele>
<time>2026-04-22T10:00:49-07:00</time>
</trkpt>
<trkpt lat="38.17958" lon="-120.39685">
<ele>958.3</ele>
<time>2026-04-22T10:00:50-07:00</time>
</trkpt>
<trkpt lat="38.17962" lon="-120.39684">
<ele>958.3</ele>
<time>2026-04-22T10:00:51-07:00</time>
</trkpt>
<trkpt lat="38.17965" lon="-120.39685">
<ele>957.6</ele>
<time>2026-04-22T10:00:52-07:00</time>
</trkpt>
<trkpt lat="38.17971" lon="-120.39682">
<ele>957.6</ele>
<time>2026-04-22T10:00:53-07:00</time>
</trkpt>
<trkpt lat="38.17978" lon="-120.39674">
<ele>956.8</ele>
<time>2026-04-22T10:00:54-07:00</time>
</trkpt>
<trkpt lat="38.17995" lon="-120.39669">
<ele>954.2</ele>
<time>2026-04-22T10:00:55-07:00</time>
</trkpt>
<trkpt lat="38.18005" lon="-120.39672">
<ele>953.2</ele>
<time>2026-04-22T10:00:56-07:00</time>
</trkpt>
<trkpt lat="38.18028" lon="-120.39692">
<ele>947.6</ele>
<time>2026-04-22T10:00:57-07:00</time>
</trkpt>
<trkpt lat="38.18063" lon="-120.3971">
<ele>943.6</ele>
<time>2026-04-22T10:00:58-07:00</time>
</trkpt>
<trkpt lat="38.18072" lon="-120.39706">
<ele>941.5</ele>
<time>2026-04-22T10:00:59-07:00</time>
</trkpt>
<trkpt lat="38.18074" lon="-120.39699">
<ele>940.7</ele>
<time>2026-04-22T10:01:00-07:00</time>
</trkpt>
<trkpt lat="38.18066" lon="-120.39674">
<ele>933.8</ele>
<time>2026-04-22T10:01:01-07:00</time>
</trkpt>
<trkpt lat="38.18065" lon="-120.39661">
<ele>931.9</ele>
<time>2026-04-22T10:01:02-07:00</time>
</trkpt>
<trkpt lat="38.18068" lon="-120.39657">
<ele>936</ele>
<time>2026-04-22T10:01:03-07:00</time>
</trkpt>
<trkpt lat="38.18072" lon="-120.39655">
<ele>936</ele>
<time>2026-04-22T10:01:04-07:00</time>
</trkpt>
<trkpt lat="38.18076" lon="-120.39656">
<ele>937.8</ele>
<time>2026-04-22T10:01:05-07:00</time>
</trkpt>
<trkpt lat="38.18088" lon="-120.39665">
<ele>936.5</ele>
<time>2026-04-22T10:01:06-07:00</time>
</trkpt>
<trkpt lat="38.18115" lon="-120.39677">
<ele>937.6</ele>
<time>2026-04-22T10:01:07-07:00</time>
</trkpt>
<trkpt lat="38.18121" lon="-120.39679">
<ele>938.3</ele>
<time>2026-04-22T10:01:08-07:00</time>
</trkpt>
<trkpt lat="38.18132" lon="-120.39679">
<ele>938.4</ele>
<time>2026-04-22T10:01:09-07:00</time>
</trkpt>
<trkpt lat="38.18144" lon="-120.39674">
<ele>941.4</ele>
<time>2026-04-22T10:01:10-07:00</time>
</trkpt>
<trkpt lat="38.18148" lon="-120.39669">
<ele>941.4</ele>
<time>2026-04-22T10:01:11-07:00</time>
</trkpt>
<trkpt lat="38.18169" lon="-120.39657">
<ele>945.1</ele>
<time>2026-04-22T10:01:12-07:00</time>
</trkpt>
<trkpt lat="38.18187" lon="-120.39649">
<ele>941.7</ele>
<time>2026-04-22T10:01:13-07:00</time>
</trkpt>
<trkpt lat="38.18193" lon="-120.39649">
<ele>941.7</ele>
<time>2026-04-22T10:01:14-07:00</time>
</trkpt>
<trkpt lat="38.18202" lon="-120.39642">
<ele>940</ele>
<time>2026-04-22T10:01:15-07:00</time>
</trkpt>
<trkpt lat="38.18207" lon="-120.3963">
<ele>936.6</ele>
<time>2026-04-22T10:01:16-07:00</time>
</trkpt>
<trkpt lat="38.18207" lon="-120.39609">
<ele>936.9</ele>
<time>2026-04-22T10:01:17-07:00</time>
</trkpt>
<trkpt lat="38.18211" lon="-120.39592">
<ele>939</ele>
<time>2026-04-22T10:01:18-07:00</time>
</trkpt>
<trkpt lat="38.18219" lon="-120.39586">
<ele>937.1</ele>
<time>2026-04-22T10:01:19-07:00</time>
</trkpt>
<trkpt lat="38.18235" lon="-120.39582">
<ele>936.5</ele>
<time>2026-04-22T10:01:20-07:00</time>
</trkpt>
<trkpt lat="38.18242" lon="-120.39573">
<ele>935.4</ele>
<time>2026-04-22T10:01:21-07:00</time>
</trkpt>
<trkpt lat="38.18253" lon="-120.39547">
<ele>935.4</ele>
<time>2026-04-22T10:01:22-07:00</time>
</trkpt>
<trkpt lat="38.18258" lon="-120.39542">
<ele>938.6</ele>
<time>2026-04-22T10:01:23-07:00</time>
</trkpt>
<trkpt lat="38.18283" lon="-120.39532">
<ele>933.7</ele>
<time>2026-04-22T10:01:24-07:00</time>
</trkpt>
<trkpt lat="38.18294" lon="-120.39522">
<ele>933.4</ele>
<time>2026-04-22T10:01:25-07:00</time>
</trkpt>
<trkpt lat="38.18318" lon="-120.39479">
<ele>929.6</ele>
<time>2026-04-22T10:01:26-07:00</time>
</trkpt>
<trkpt lat="38.18325" lon="-120.39449">
<ele>932.4</ele>
<time>2026-04-22T10:01:27-07:00</time>
</trkpt>
<trkpt lat="38.18324" lon="-120.39429">
<ele>936.4</ele>
<time>2026-04-22T10:01:28-07:00</time>
</trkpt>
<trkpt lat="38.1832" lon="-120.39421">
<ele>935</ele>
<time>2026-04-22T10:01:29-07:00</time>
</trkpt>
<trkpt lat="38.1831" lon="-120.39411">
<ele>937.4</ele>
<time>2026-04-22T10:01:30-07:00</time>
</trkpt>
<trkpt lat="38.18305" lon="-120.39397">
<ele>939.4</ele>
<time>2026-04-22T10:01:31-07:00</time>
</trkpt>
<trkpt lat="38.18305" lon="-120.39384">
<ele>938.8</ele>
<time>2026-04-22T10:01:32-07:00</time>
</trkpt>
<trkpt lat="38.1832" lon="-120.39353">
<ele>927.3</ele>
<time>2026-04-22T10:01:33-07:00</time>
</trkpt>
<trkpt lat="38.18319" lon="-120.39346">
<ele>927.5</ele>
<time>2026-04-22T10:01:34-07:00</time>
</trkpt>
<trkpt lat="38.18323" lon="-120.39326">
<ele>925.4</ele>
<time>2026-04-22T10:01:35-07:00</time>
</trkpt>
<trkpt lat="38.18322" lon="-120.39321">
<ele>922.9</ele>
<time>2026-04-22T10:01:36-07:00</time>
</trkpt>
<trkpt lat="38.18324" lon="-120.39315">
<ele>922.9</ele>
<time>2026-04-22T10:01:37-07:00</time>
</trkpt>
<trkpt lat="38.18322" lon="-120.39305">
<ele>915.4</ele>
<time>2026-04-22T10:01:38-07:00</time>
</trkpt>
<trkpt lat="38.18315" lon="-120.39293">
<ele>912.6</ele>
<time>2026-04-22T10:01:39-07:00</time>
</trkpt>
<trkpt lat="38.18315" lon="-120.39282">
<ele>909.5</ele>
<time>2026-04-22T10:01:40-07:00</time>
</trkpt>
<trkpt lat="38.18338" lon="-120.39258">
<ele>908.9</ele>
<time>2026-04-22T10:01:41-07:00</time>
</trkpt>
<trkpt lat="38.18348" lon="-120.39238">
<ele>910.8</ele>
<time>2026-04-22T10:01:42-07:00</time>
</trkpt>
<trkpt lat="38.18372" lon="-120.39217">
<ele>905.9</ele>
<time>2026-04-22T10:01:43-07:00</time>
</trkpt>
<trkpt lat="38.18383" lon="-120.39201">
<ele>905.8</ele>
<time>2026-04-22T10:01:44-07:00</time>
</trkpt>
<trkpt lat="38.18404" lon="-120.39179">
<ele>900.1</ele>
<time>2026-04-22T10:01:45-07:00</time>
</trkpt>
<trkpt lat="38.18404" lon="-120.3917">
<ele>899.7</ele>
<time>2026-04-22T10:01:46-07:00</time>
</trkpt>
<trkpt lat="38.18399" lon="-120.39161">
<ele>898.8</ele>
<time>2026-04-22T10:01:47-07:00</time>
</trkpt>
<trkpt lat="38.18374" lon="-120.39136">
<ele>894.1</ele>
<time>2026-04-22T10:01:48-07:00</time>
</trkpt>
<trkpt lat="38.18374" lon="-120.39134">
<ele>894.1</ele>
<time>2026-04-22T10:01:49-07:00</time>
</trkpt>
<trkpt lat="38.18376" lon="-120.39133">
<ele>894.1</ele>
<time>2026-04-22T10:01:50-07:00</time>
</trkpt>
<trkpt lat="38.18405" lon="-120.39147">
<ele>891.1</ele>
<time>2026-04-22T10:01:51-07:00</time>
</trkpt>
<trkpt lat="38.18408" lon="-120.39147">
<ele>889.5</ele>
<time>2026-04-22T10:01:52-07:00</time>
</trkpt>
<trkpt lat="38.18389" lon="-120.39131">
<ele>889.4</ele>
<time>2026-04-22T10:01:53-07:00</time>
</trkpt>
<trkpt lat="38.1838" lon="-120.39119">
<ele>883</ele>
<time>2026-04-22T10:01:54-07:00</time>
</trkpt>
<trkpt lat="38.18381" lon="-120.39117">
<ele>883</ele>
<time>2026-04-22T10:01:55-07:00</time>
</trkpt>
<trkpt lat="38.18389" lon="-120.39122">
<ele>884.8</ele>
<time>2026-04-22T10:01:56-07:00</time>
</trkpt>
<trkpt lat="38.18401" lon="-120.39125">
<ele>881.8</ele>
<time>2026-04-22T10:01:57-07:00</time>
</trkpt>
<trkpt lat="38.18401" lon="-120.39123">
<ele>881.8</ele>
<time>2026-04-22T10:01:58-07:00</time>
</trkpt>
<trkpt lat="38.18387" lon="-120.39114">
<ele>883</ele>
<time>2026-04-22T10:01:59-07:00</time>
</trkpt>
<trkpt lat="38.1838" lon="-120.39107">
<ele>878.5</ele>
<time>2026-04-22T10:02:00-07:00</time>
</trkpt>
<trkpt lat="38.18361" lon="-120.39075">
<ele>877.7</ele>
<time>2026-04-22T10:02:01-07:00</time>
</trkpt>
<trkpt lat="38.18354" lon="-120.39058">
<ele>872.7</ele>
<time>2026-04-22T10:02:02-07:00</time>
</trkpt>
<trkpt lat="38.18341" lon="-120.39042">
<ele>873.3</ele>
<time>2026-04-22T10:02:03-07:00</time>
</trkpt>
<trkpt lat="38.1833" lon="-120.39037">
<ele>872.3</ele>
<time>2026-04-22T10:02:04-07:00</time>
</trkpt>
<trkpt lat="38.18313" lon="-120.39037">
<ele>872.7</ele>
<time>2026-04-22T10:02:05-07:00</time>
</trkpt>
<trkpt lat="38.18309" lon="-120.39034">
<ele>872.7</ele>
<time>2026-04-22T10:02:06-07:00</time>
</trkpt>
<trkpt lat="38.18315" lon="-120.39014">
<ele>870</ele>
<time>2026-04-22T10:02:07-07:00</time>
</trkpt>
<trkpt lat="38.1831" lon="-120.39003">
<ele>873.9</ele>
<time>2026-04-22T10:02:08-07:00</time>
</trkpt>
<trkpt lat="38.1831" lon="-120.39">
<ele>872.6</ele>
<time>2026-04-22T10:02:09-07:00</time>
</trkpt>
<trkpt lat="38.18301" lon="-120.38985">
<ele>873.9</ele>
<time>2026-04-22T10:02:10-07:00</time>
</trkpt>
<trkpt lat="38.18298" lon="-120.38977">
<ele>872.2</ele>
<time>2026-04-22T10:02:11-07:00</time>
</trkpt>
<trkpt lat="38.18294" lon="-120.38974">
<ele>875.1</ele>
<time>2026-04-22T10:02:12-07:00</time>
</trkpt>
<trkpt lat="38.18292" lon="-120.38968">
<ele>872.3</ele>
<time>2026-04-22T10:02:13-07:00</time>
</trkpt>
<trkpt lat="38.18316" lon="-120.38912">
<ele>876.1</ele>
<time>2026-04-22T10:02:14-07:00</time>
</trkpt>
<trkpt lat="38.18316" lon="-120.38908">
<ele>876.1</ele>
<time>2026-04-22T10:02:15-07:00</time>
</trkpt>
<trkpt lat="38.18302" lon="-120.38927">
<ele>882.2</ele>
<time>2026-04-22T10:02:16-07:00</time>
</trkpt>
<trkpt lat="38.18292" lon="-120.38937">
<ele>883.4</ele>
<time>2026-04-22T10:02:17-07:00</time>
</trkpt>
<trkpt lat="38.18268" lon="-120.38956">
<ele>889.3</ele>
<time>2026-04-22T10:02:18-07:00</time>
</trkpt>
<trkpt lat="38.1826" lon="-120.38959">
<ele>889.3</ele>
<time>2026-04-22T10:02:19-07:00</time>
</trkpt>
<trkpt lat="38.18262" lon="-120.3895">
<ele>892.7</ele>
<time>2026-04-22T10:02:20-07:00</time>
</trkpt>
<trkpt lat="38.18269" lon="-120.3894">
<ele>893.6</ele>
<time>2026-04-22T10:02:21-07:00</time>
</trkpt>
<trkpt lat="38.18274" lon="-120.38936">
<ele>893.6</ele>
<time>2026-04-22T10:02:22-07:00</time>
</trkpt>
<trkpt lat="38.18281" lon="-120.38923">
<ele>896.2</ele>
<time>2026-04-22T10:02:23-07:00</time>
</trkpt>
<trkpt lat="38.18285" lon="-120.38904">
<ele>901.1</ele>
<time>2026-04-22T10:02:24-07:00</time>
</trkpt>
<trkpt lat="38.18286" lon="-120.38883">
<ele>904.6</ele>
<time>2026-04-22T10:02:25-07:00</time>
</trkpt>
<trkpt lat="38.18284" lon="-120.38867">
<ele>905.1</ele>
<time>2026-04-22T10:02:26-07:00</time>
</trkpt>
<trkpt lat="38.18267" lon="-120.3879">
<ele>912.7</ele>
<time>2026-04-22T10:02:27-07:00</time>
</trkpt>
<trkpt lat="38.18263" lon="-120.38758">
<ele>913.6</ele>
<time>2026-04-22T10:02:28-07:00</time>
</trkpt>
<trkpt lat="38.18258" lon="-120.38742">
<ele>919.1</ele>
<time>2026-04-22T10:02:29-07:00</time>
</trkpt>
<trkpt lat="38.18258" lon="-120.38735">
<ele>919</ele>
<time>2026-04-22T10:02:30-07:00</time>
</trkpt>
<trkpt lat="38.18263" lon="-120.38723">
<ele>917.4</ele>
<time>2026-04-22T10:02:31-07:00</time>
</trkpt>
<trkpt lat="38.18263" lon="-120.38717">
<ele>918.9</ele>
<time>2026-04-22T10:02:32-07:00</time>
</trkpt>
<trkpt lat="38.18265" lon="-120.38712">
<ele>920.8</ele>
<time>2026-04-22T10:02:33-07:00</time>
</trkpt>
<trkpt lat="38.18268" lon="-120.38711">
<ele>920.8</ele>
<time>2026-04-22T10:02:34-07:00</time>
</trkpt>
<trkpt lat="38.18278" lon="-120.38712">
<ele>925.3</ele>
<time>2026-04-22T10:02:35-07:00</time>
</trkpt>
<trkpt lat="38.18296" lon="-120.38723">
<ele>921.9</ele>
<time>2026-04-22T10:02:36-07:00</time>
</trkpt>
<trkpt lat="38.18309" lon="-120.38727">
<ele>925.1</ele>
<time>2026-04-22T10:02:37-07:00</time>
</trkpt>
<trkpt lat="38.18318" lon="-120.38726">
<ele>925.7</ele>
<time>2026-04-22T10:02:38-07:00</time>
</trkpt>
<trkpt lat="38.18309" lon="-120.38717">
<ele>927.9</ele>
<time>2026-04-22T10:02:39-07:00</time>
</trkpt>
<trkpt lat="38.18301" lon="-120.38704">
<ele>929.3</ele>
<time>2026-04-22T10:02:40-07:00</time>
</trkpt>
<trkpt lat="38.18304" lon="-120.38701">
<ele>932.4</ele>
<time>2026-04-22T10:02:41-07:00</time>
</trkpt>
<trkpt lat="38.18318" lon="-120.38709">
<ele>932.7</ele>
<time>2026-04-22T10:02:42-07:00</time>
</trkpt>
<trkpt lat="38.18321" lon="-120.38706">
<ele>932.7</ele>
<time>2026-04-22T10:02:43-07:00</time>
</trkpt>
<trkpt lat="38.1832" lon="-120.38704">
<ele>932.7</ele>
<time>2026-04-22T10:02:44-07:00</time>
</trkpt>
<trkpt lat="38.18311" lon="-120.38695">
<ele>934.4</ele>
<time>2026-04-22T10:02:45-07:00</time>
</trkpt>
<trkpt lat="38.18296" lon="-120.38684">
<ele>936.1</ele>
<time>2026-04-22T10:02:46-07:00</time>
</trkpt>
<trkpt lat="38.18301" lon="-120.38681">
<ele>938.5</ele>
<time>2026-04-22T10:02:47-07:00</time>
</trkpt>
<trkpt lat="38.18327" lon="-120.38688">
<ele>940.4</ele>
<time>2026-04-22T10:02:48-07:00</time>
</trkpt>
<trkpt lat="38.18343" lon="-120.38689">
<ele>941.2</ele>
<time>2026-04-22T10:02:49-07:00</time>
</trkpt>
<trkpt lat="38.18343" lon="-120.38686">
<ele>941.2</ele>
<time>2026-04-22T10:02:50-07:00</time>
</trkpt>
<trkpt lat="38.18323" lon="-120.38677">
<ele>942.3</ele>
<time>2026-04-22T10:02:51-07:00</time>
</trkpt>
<trkpt lat="38.18316" lon="-120.38669">
<ele>945.1</ele>
<time>2026-04-22T10:02:52-07:00</time>
</trkpt>
<trkpt lat="38.18316" lon="-120.38667">
<ele>945.1</ele>
<time>2026-04-22T10:02:53-07:00</time>
</trkpt>
<trkpt lat="38.18321" lon="-120.38665">
<ele>948.1</ele>
<time>2026-04-22T10:02:54-07:00</time>
</trkpt>
<trkpt lat="38.18334" lon="-120.38668">
<ele>948.1</ele>
<time>2026-04-22T10:02:55-07:00</time>
</trkpt>
<trkpt lat="38.18347" lon="-120.38667">
<ele>948.7</ele>
<time>2026-04-22T10:02:56-07:00</time>
</trkpt>
<trkpt lat="38.18343" lon="-120.38663">
<ele>952.1</ele>
<time>2026-04-22T10:02:57-07:00</time>
</trkpt>
<trkpt lat="38.18332" lon="-120.38659">
<ele>950.4</ele>
<time>2026-04-22T10:02:58-07:00</time>
</trkpt>
<trkpt lat="38.18333" lon="-120.38656">
<ele>952.9</ele>
<time>2026-04-22T10:02:59-07:00</time>
</trkpt>
<trkpt lat="38.18359" lon="-120.38648">
<ele>958.3</ele>
<time>2026-04-22T10:03:00-07:00</time>
</trkpt>
<trkpt lat="38.18365" lon="-120.38648">
<ele>957.4</ele>
<time>2026-04-22T10:03:01-07:00</time>
</trkpt>
<trkpt lat="38.18376" lon="-120.38653">
<ele>956.5</ele>
<time>2026-04-22T10:03:02-07:00</time>
</trkpt>
<trkpt lat="38.18387" lon="-120.38653">
<ele>957.4</ele>
<time>2026-04-22T10:03:03-07:00</time>
</trkpt>
<trkpt lat="38.18398" lon="-120.38642">
<ele>958.9</ele>
<time>2026-04-22T10:03:04-07:00</time>
</trkpt>
<trkpt lat="38.18417" lon="-120.38602">
<ele>960</ele>
<time>2026-04-22T10:03:05-07:00</time>
</trkpt>
<trkpt lat="38.18418" lon="-120.38587">
<ele>964</ele>
<time>2026-04-22T10:03:06-07:00</time>
</trkpt>
<trkpt lat="38.18413" lon="-120.38567">
<ele>966.8</ele>
<time>2026-04-22T10:03:07-07:00</time>
</trkpt>
<trkpt lat="38.18406" lon="-120.3855">
<ele>969.5</ele>
<time>2026-04-22T10:03:08-07:00</time>
</trkpt>
<trkpt lat="38.18404" lon="-120.38538">
<ele>968.8</ele>
<time>2026-04-22T10:03:09-07:00</time>
</trkpt>
<trkpt lat="38.1841" lon="-120.38518">
<ele>968.5</ele>
<time>2026-04-22T10:03:10-07:00</time>
</trkpt>
<trkpt lat="38.18408" lon="-120.38509">
<ele>968.7</ele>
<time>2026-04-22T10:03:11-07:00</time>
</trkpt>
<trkpt lat="38.18401" lon="-120.38501">
<ele>971.3</ele>
<time>2026-04-22T10:03:12-07:00</time>
</trkpt>
<trkpt lat="38.1839" lon="-120.38494">
<ele>971.9</ele>
<time>2026-04-22T10:03:13-07:00</time>
</trkpt>
<trkpt lat="38.18383" lon="-120.38485">
<ele>973.7</ele>
<time>2026-04-22T10:03:14-07:00</time>
</trkpt>
<trkpt lat="38.18376" lon="-120.38467">
<ele>976.1</ele>
<time>2026-04-22T10:03:15-07:00</time>
</trkpt>
<trkpt lat="38.18362" lon="-120.38445">
<ele>979.1</ele>
<time>2026-04-22T10:03:16-07:00</time>
</trkpt>
<trkpt lat="38.18352" lon="-120.38437">
<ele>981.1</ele>
<time>2026-04-22T10:03:17-07:00</time>
</trkpt>
<trkpt lat="38.18334" lon="-120.38429">
<ele>982.2</ele>
<time>2026-04-22T10:03:18-07:00</time>
</trkpt>
<trkpt lat="38.18318" lon="-120.38403">
<ele>982.6</ele>
<time>2026-04-22T10:03:19-07:00</time>
</trkpt>
<trkpt lat="38.18281" lon="-120.38371">
<ele>984.3</ele>
<time>2026-04-22T10:03:20-07:00</time>
</trkpt>
<trkpt lat="38.18275" lon="-120.38359">
<ele>982.8</ele>
<time>2026-04-22T10:03:21-07:00</time>
</trkpt>
<trkpt lat="38.18272" lon="-120.38345">
<ele>980.7</ele>
<time>2026-04-22T10:03:22-07:00</time>
</trkpt>
<trkpt lat="38.18273" lon="-120.3833">
<ele>980.7</ele>
<time>2026-04-22T10:03:23-07:00</time>
</trkpt>
<trkpt lat="38.18284" lon="-120.38308">
<ele>979.9</ele>
<time>2026-04-22T10:03:24-07:00</time>
</trkpt>
<trkpt lat="38.18287" lon="-120.38286">
<ele>980.3</ele>
<time>2026-04-22T10:03:25-07:00</time>
</trkpt>
<trkpt lat="38.18276" lon="-120.38242">
<ele>977.1</ele>
<time>2026-04-22T10:03:26-07:00</time>
</trkpt>
<trkpt lat="38.18275" lon="-120.38222">
<ele>974.7</ele>
<time>2026-04-22T10:03:27-07:00</time>
</trkpt>
<trkpt lat="38.18278" lon="-120.38203">
<ele>969.9</ele>
<time>2026-04-22T10:03:28-07:00</time>
</trkpt>
<trkpt lat="38.18278" lon="-120.38177">
<ele>969</ele>
<time>2026-04-22T10:03:29-07:00</time>
</trkpt>
<trkpt lat="38.18269" lon="-120.38145">
<ele>968.9</ele>
<time>2026-04-22T10:03:30-07:00</time>
</trkpt>
<trkpt lat="38.18268" lon="-120.38132">
<ele>969.6</ele>
<time>2026-04-22T10:03:31-07:00</time>
</trkpt>
<trkpt lat="38.18269" lon="-120.3812">
<ele>966.5</ele>
<time>2026-04-22T10:03:32-07:00</time>
</trkpt>
<trkpt lat="38.18273" lon="-120.38109">
<ele>968</ele>
<time>2026-04-22T10:03:33-07:00</time>
</trkpt>
<trkpt lat="38.18278" lon="-120.38078">
<ele>967.7</ele>
<time>2026-04-22T10:03:34-07:00</time>
</trkpt>
<trkpt lat="38.18278" lon="-120.38065">
<ele>968.5</ele>
<time>2026-04-22T10:03:35-07:00</time>
</trkpt>
<trkpt lat="38.18273" lon="-120.38039">
<ele>971.8</ele>
<time>2026-04-22T10:03:36-07:00</time>
</trkpt>
<trkpt lat="38.18275" lon="-120.38009">
<ele>977.3</ele>
<time>2026-04-22T10:03:37-07:00</time>
</trkpt>
<trkpt lat="38.18282" lon="-120.37987">
<ele>976.2</ele>
<time>2026-04-22T10:03:38-07:00</time>
</trkpt>
<trkpt lat="38.18286" lon="-120.37981">
<ele>977.4</ele>
<time>2026-04-22T10:03:39-07:00</time>
</trkpt>
<trkpt lat="38.18291" lon="-120.37977">
<ele>976.6</ele>
<time>2026-04-22T10:03:40-07:00</time>
</trkpt>
<trkpt lat="38.18298" lon="-120.37975">
<ele>977.9</ele>
<time>2026-04-22T10:03:41-07:00</time>
</trkpt>
<trkpt lat="38.18304" lon="-120.37976">
<ele>977.9</ele>
<time>2026-04-22T10:03:42-07:00</time>
</trkpt>
<trkpt lat="38.18336" lon="-120.38005">
<ele>984</ele>
<time>2026-04-22T10:03:43-07:00</time>
</trkpt>
<trkpt lat="38.18347" lon="-120.3802">
<ele>983.9</ele>
<time>2026-04-22T10:03:44-07:00</time>
</trkpt>
<trkpt lat="38.18375" lon="-120.38032">
<ele>986.6</ele>
<time>2026-04-22T10:03:45-07:00</time>
</trkpt>
<trkpt lat="38.18386" lon="-120.38045">
<ele>988.1</ele>
<time>2026-04-22T10:03:46-07:00</time>
</trkpt>
<trkpt lat="38.18396" lon="-120.38062">
<ele>989.4</ele>
<time>2026-04-22T10:03:47-07:00</time>
</trkpt>
<trkpt lat="38.18404" lon="-120.38069">
<ele>990.3</ele>
<time>2026-04-22T10:03:48-07:00</time>
</trkpt>
<trkpt lat="38.18413" lon="-120.38072">
<ele>991.5</ele>
<time>2026-04-22T10:03:49-07:00</time>
</trkpt>
<trkpt lat="38.18422" lon="-120.38067">
<ele>991.4</ele>
<time>2026-04-22T10:03:50-07:00</time>
</trkpt>
<trkpt lat="38.18428" lon="-120.38059">
<ele>992.5</ele>
<time>2026-04-22T10:03:51-07:00</time>
</trkpt>
<trkpt lat="38.18432" lon="-120.38049">
<ele>993.5</ele>
<time>2026-04-22T10:03:52-07:00</time>
</trkpt>
<trkpt lat="38.18446" lon="-120.37991">
<ele>997.8</ele>
<time>2026-04-22T10:03:53-07:00</time>
</trkpt>
<trkpt lat="38.18445" lon="-120.37921">
<ele>1003.1</ele>
<time>2026-04-22T10:03:54-07:00</time>
</trkpt>
<trkpt lat="38.18428" lon="-120.37872">
<ele>1006.4</ele>
<time>2026-04-22T10:03:55-07:00</time>
</trkpt>
<trkpt lat="38.18419" lon="-120.37813">
<ele>1011.9</ele>
<time>2026-04-22T10:03:56-07:00</time>
</trkpt>
<trkpt lat="38.18413" lon="-120.37799">
<ele>1013.3</ele>
<time>2026-04-22T10:03:57-07:00</time>
</trkpt>
<trkpt lat="38.18399" lon="-120.37778">
<ele>1014.9</ele>
<time>2026-04-22T10:03:58-07:00</time>
</trkpt>
<trkpt lat="38.18399" lon="-120.37769">
<ele>1015.7</ele>
<time>2026-04-22T10:03:59-07:00</time>
</trkpt>
<trkpt lat="38.1841" lon="-120.37765">
<ele>1014.3</ele>
<time>2026-04-22T10:04:00-07:00</time>
</trkpt>
<trkpt lat="38.18434" lon="-120.37763">
<ele>1012.5</ele>
<time>2026-04-22T10:04:01-07:00</time>
</trkpt>
<trkpt lat="38.1845" lon="-120.37758">
<ele>1010.7</ele>
<time>2026-04-22T10:04:02-07:00</time>
</trkpt>
<trkpt lat="38.1846" lon="-120.3775">
<ele>1009.5</ele>
<time>2026-04-22T10:04:03-07:00</time>
</trkpt>
<trkpt lat="38.18469" lon="-120.37738">
<ele>1008.4</ele>
<time>2026-04-22T10:04:04-07:00</time>
</trkpt>
<trkpt lat="38.18475" lon="-120.37724">
<ele>1006.5</ele>
<time>2026-04-22T10:04:05-07:00</time>
</trkpt>
<trkpt lat="38.18483" lon="-120.37715">
<ele>1003.5</ele>
<time>2026-04-22T10:04:06-07:00</time>
</trkpt>
<trkpt lat="38.18506" lon="-120.37702">
<ele>1003.2</ele>
<time>2026-04-22T10:04:07-07:00</time>
</trkpt>
<trkpt lat="38.1852" lon="-120.37683">
<ele>1000.3</ele>
<time>2026-04-22T10:04:08-07:00</time>
</trkpt>
<trkpt lat="38.18521" lon="-120.37659">
<ele>1000</ele>
<time>2026-04-22T10:04:09-07:00</time>
</trkpt>
<trkpt lat="38.18529" lon="-120.37596">
<ele>994.2</ele>
<time>2026-04-22T10:04:10-07:00</time>
</trkpt>
<trkpt lat="38.18537" lon="-120.37559">
<ele>993.3</ele>
<time>2026-04-22T10:04:11-07:00</time>
</trkpt>
<trkpt lat="38.18539" lon="-120.37555">
<ele>991.4</ele>
<time>2026-04-22T10:04:12-07:00</time>
</trkpt>
<trkpt lat="38.18547" lon="-120.37548">
<ele>991.4</ele>
<time>2026-04-22T10:04:13-07:00</time>
</trkpt>
<trkpt lat="38.18555" lon="-120.37554">
<ele>991.4</ele>
<time>2026-04-22T10:04:14-07:00</time>
</trkpt>
<trkpt lat="38.18569" lon="-120.37583">
<ele>994.7</ele>
<time>2026-04-22T10:04:15-07:00</time>
</trkpt>
<trkpt lat="38.18596" lon="-120.37618">
<ele>997.3</ele>
<time>2026-04-22T10:04:16-07:00</time>
</trkpt>
<trkpt lat="38.18616" lon="-120.37653">
<ele>998.3</ele>
<time>2026-04-22T10:04:17-07:00</time>
</trkpt>
<trkpt lat="38.18654" lon="-120.37679">
<ele>997.8</ele>
<time>2026-04-22T10:04:18-07:00</time>
</trkpt>
<trkpt lat="38.18685" lon="-120.37692">
<ele>999.4</ele>
<time>2026-04-22T10:04:19-07:00</time>
</trkpt>
<trkpt lat="38.18737" lon="-120.37697">
<ele>996.2</ele>
<time>2026-04-22T10:04:20-07:00</time>
</trkpt>
<trkpt lat="38.18746" lon="-120.37705">
<ele>996.7</ele>
<time>2026-04-22T10:04:21-07:00</time>
</trkpt>
<trkpt lat="38.18751" lon="-120.37717">
<ele>1000.2</ele>
<time>2026-04-22T10:04:22-07:00</time>
</trkpt>
<trkpt lat="38.18751" lon="-120.37778">
<ele>997.9</ele>
<time>2026-04-22T10:04:23-07:00</time>
</trkpt>
<trkpt lat="38.18753" lon="-120.3779">
<ele>998</ele>
<time>2026-04-22T10:04:24-07:00</time>
</trkpt>
<trkpt lat="38.18757" lon="-120.37797">
<ele>998.2</ele>
<time>2026-04-22T10:04:25-07:00</time>
</trkpt>
<trkpt lat="38.18762" lon="-120.37795">
<ele>996</ele>
<time>2026-04-22T10:04:26-07:00</time>
</trkpt>
<trkpt lat="38.18774" lon="-120.37784">
<ele>993.6</ele>
<time>2026-04-22T10:04:27-07:00</time>
</trkpt>
<trkpt lat="38.18783" lon="-120.37783">
<ele>992.2</ele>
<time>2026-04-22T10:04:28-07:00</time>
</trkpt>
<trkpt lat="38.18799" lon="-120.37774">
<ele>992.3</ele>
<time>2026-04-22T10:04:29-07:00</time>
</trkpt>
<trkpt lat="38.18824" lon="-120.37756">
<ele>992.6</ele>
<time>2026-04-22T10:04:30-07:00</time>
</trkpt>
<trkpt lat="38.18831" lon="-120.37734">
<ele>991.6</ele>
<time>2026-04-22T10:04:31-07:00</time>
</trkpt>
<trkpt lat="38.18838" lon="-120.37738">
<ele>992.1</ele>
<time>2026-04-22T10:04:32-07:00</time>
</trkpt>
<trkpt lat="38.18847" lon="-120.37748">
<ele>988.7</ele>
<time>2026-04-22T10:04:33-07:00</time>
</trkpt>
<trkpt lat="38.18864" lon="-120.3775">
<ele>985.3</ele>
<time>2026-04-22T10:04:34-07:00</time>
</trkpt>
<trkpt lat="38.18885" lon="-120.37734">
<ele>982.6</ele>
<time>2026-04-22T10:04:35-07:00</time>
</trkpt>
<trkpt lat="38.18895" lon="-120.37722">
<ele>983.6</ele>
<time>2026-04-22T10:04:36-07:00</time>
</trkpt>
<trkpt lat="38.18912" lon="-120.3771">
<ele>980</ele>
<time>2026-04-22T10:04:37-07:00</time>
</trkpt>
<trkpt lat="38.18936" lon="-120.37677">
<ele>974.3</ele>
<time>2026-04-22T10:04:38-07:00</time>
</trkpt>
<trkpt lat="38.18942" lon="-120.37691">
<ele>972.9</ele>
<time>2026-04-22T10:04:39-07:00</time>
</trkpt>
<trkpt lat="38.18942" lon="-120.37699">
<ele>970.4</ele>
<time>2026-04-22T10:04:40-07:00</time>
</trkpt>
<trkpt lat="38.18936" lon="-120.37711">
<ele>968.6</ele>
<time>2026-04-22T10:04:41-07:00</time>
</trkpt>
<trkpt lat="38.18938" lon="-120.37715">
<ele>964.9</ele>
<time>2026-04-22T10:04:42-07:00</time>
</trkpt>
<trkpt lat="38.18943" lon="-120.37715">
<ele>964.9</ele>
<time>2026-04-22T10:04:43-07:00</time>
</trkpt>
<trkpt lat="38.18951" lon="-120.3771">
<ele>964</ele>
<time>2026-04-22T10:04:44-07:00</time>
</trkpt>
<trkpt lat="38.18957" lon="-120.37701">
<ele>962.5</ele>
<time>2026-04-22T10:04:45-07:00</time>
</trkpt>
<trkpt lat="38.18963" lon="-120.37687">
<ele>958.6</ele>
<time>2026-04-22T10:04:46-07:00</time>
</trkpt>
<trkpt lat="38.18966" lon="-120.37669">
<ele>957.6</ele>
<time>2026-04-22T10:04:47-07:00</time>
</trkpt>
<trkpt lat="38.1897" lon="-120.3767">
<ele>957.6</ele>
<time>2026-04-22T10:04:48-07:00</time>
</trkpt>
<trkpt lat="38.1898" lon="-120.37699">
<ele>952.4</ele>
<time>2026-04-22T10:04:49-07:00</time>
</trkpt>
<trkpt lat="38.18977" lon="-120.37717">
<ele>949.5</ele>
<time>2026-04-22T10:04:50-07:00</time>
</trkpt>
<trkpt lat="38.1898" lon="-120.3772">
<ele>949.5</ele>
<time>2026-04-22T10:04:51-07:00</time>
</trkpt>
<trkpt lat="38.18985" lon="-120.37715">
<ele>945.3</ele>
<time>2026-04-22T10:04:52-07:00</time>
</trkpt>
<trkpt lat="38.18999" lon="-120.37685">
<ele>940.9</ele>
<time>2026-04-22T10:04:53-07:00</time>
</trkpt>
<trkpt lat="38.18999" lon="-120.37676">
<ele>940.9</ele>
<time>2026-04-22T10:04:54-07:00</time>
</trkpt>
<trkpt lat="38.19001" lon="-120.37672">
<ele>933.7</ele>
<time>2026-04-22T10:04:55-07:00</time>
</trkpt>
<trkpt lat="38.19009" lon="-120.37688">
<ele>935.5</ele>
<time>2026-04-22T10:04:56-07:00</time>
</trkpt>
<trkpt lat="38.19013" lon="-120.37688">
<ele>929.6</ele>
<time>2026-04-22T10:04:57-07:00</time>
</trkpt>
<trkpt lat="38.1901" lon="-120.37671">
<ele>927</ele>
<time>2026-04-22T10:04:58-07:00</time>
</trkpt>
<trkpt lat="38.1901" lon="-120.37648">
<ele>922.7</ele>
<time>2026-04-22T10:04:59-07:00</time>
</trkpt>
<trkpt lat="38.19013" lon="-120.37649">
<ele>924.6</ele>
<time>2026-04-22T10:05:00-07:00</time>
</trkpt>
<trkpt lat="38.19015" lon="-120.37654">
<ele>924.6</ele>
<time>2026-04-22T10:05:01-07:00</time>
</trkpt>
<trkpt lat="38.19015" lon="-120.37661">
<ele>925</ele>
<time>2026-04-22T10:05:02-07:00</time>
</trkpt>
<trkpt lat="38.19018" lon="-120.37666">
<ele>925</ele>
<time>2026-04-22T10:05:03-07:00</time>
</trkpt>
<trkpt lat="38.19021" lon="-120.37664">
<ele>919.7</ele>
<time>2026-04-22T10:05:04-07:00</time>
</trkpt>
<trkpt lat="38.19021" lon="-120.3766">
<ele>919.7</ele>
<time>2026-04-22T10:05:05-07:00</time>
</trkpt>
<trkpt lat="38.19016" lon="-120.37639">
<ele>922.7</ele>
<time>2026-04-22T10:05:06-07:00</time>
</trkpt>
<trkpt lat="38.19017" lon="-120.37637">
<ele>920.5</ele>
<time>2026-04-22T10:05:07-07:00</time>
</trkpt>
<trkpt lat="38.19019" lon="-120.37637">
<ele>915.2</ele>
<time>2026-04-22T10:05:08-07:00</time>
</trkpt>
<trkpt lat="38.19036" lon="-120.37658">
<ele>912.3</ele>
<time>2026-04-22T10:05:09-07:00</time>
</trkpt>
<trkpt lat="38.19035" lon="-120.37642">
<ele>910.5</ele>
<time>2026-04-22T10:05:10-07:00</time>
</trkpt>
<trkpt lat="38.19037" lon="-120.37639">
<ele>910.5</ele>
<time>2026-04-22T10:05:11-07:00</time>
</trkpt>
<trkpt lat="38.19047" lon="-120.3767">
<ele>898.2</ele>
<time>2026-04-22T10:05:12-07:00</time>
</trkpt>
<trkpt lat="38.19054" lon="-120.37651">
<ele>898.7</ele>
<time>2026-04-22T10:05:13-07:00</time>
</trkpt>
<trkpt lat="38.1906" lon="-120.3766">
<ele>895.5</ele>
<time>2026-04-22T10:05:14-07:00</time>
</trkpt>
<trkpt lat="38.19068" lon="-120.37663">
<ele>897.8</ele>
<time>2026-04-22T10:05:15-07:00</time>
</trkpt>
<trkpt lat="38.19079" lon="-120.37676">
<ele>896</ele>
<time>2026-04-22T10:05:16-07:00</time>
</trkpt>
<trkpt lat="38.19093" lon="-120.37708">
<ele>895.9</ele>
<time>2026-04-22T10:05:17-07:00</time>
</trkpt>
<trkpt lat="38.19104" lon="-120.37709">
<ele>898.9</ele>
<time>2026-04-22T10:05:18-07:00</time>
</trkpt>
<trkpt lat="38.19107" lon="-120.37713">
<ele>900.1</ele>
<time>2026-04-22T10:05:19-07:00</time>
</trkpt>
<trkpt lat="38.19111" lon="-120.37735">
<ele>898.3</ele>
<time>2026-04-22T10:05:20-07:00</time>
</trkpt>
<trkpt lat="38.19122" lon="-120.37743">
<ele>904.1</ele>
<time>2026-04-22T10:05:21-07:00</time>
</trkpt>
<trkpt lat="38.19138" lon="-120.37769">
<ele>904</ele>
<time>2026-04-22T10:05:22-07:00</time>
</trkpt>
<trkpt lat="38.19156" lon="-120.37791">
<ele>906.5</ele>
<time>2026-04-22T10:05:23-07:00</time>
</trkpt>
<trkpt lat="38.19159" lon="-120.37811">
<ele>909.6</ele>
<time>2026-04-22T10:05:24-07:00</time>
</trkpt>
<trkpt lat="38.19173" lon="-120.37837">
<ele>908.6</ele>
<time>2026-04-22T10:05:25-07:00</time>
</trkpt>
<trkpt lat="38.19191" lon="-120.37857">
<ele>911.8</ele>
<time>2026-04-22T10:05:26-07:00</time>
</trkpt>
<trkpt lat="38.19205" lon="-120.37863">
<ele>915.2</ele>
<time>2026-04-22T10:05:27-07:00</time>
</trkpt>
<trkpt lat="38.19211" lon="-120.37867">
<ele>915.2</ele>
<time>2026-04-22T10:05:28-07:00</time>
</trkpt>
<trkpt lat="38.19216" lon="-120.37873">
<ele>916.8</ele>
<time>2026-04-22T10:05:29-07:00</time>
</trkpt>
<trkpt lat="38.1922" lon="-120.379">
<ele>914.6</ele>
<time>2026-04-22T10:05:30-07:00</time>
</trkpt>
<trkpt lat="38.19216" lon="-120.37926">
<ele>915.5</ele>
<time>2026-04-22T10:05:31-07:00</time>
</trkpt>
<trkpt lat="38.19218" lon="-120.37939">
<ele>914.7</ele>
<time>2026-04-22T10:05:32-07:00</time>
</trkpt>
<trkpt lat="38.19227" lon="-120.37945">
<ele>915.1</ele>
<time>2026-04-22T10:05:33-07:00</time>
</trkpt>
<trkpt lat="38.19236" lon="-120.37942">
<ele>917.9</ele>
<time>2026-04-22T10:05:34-07:00</time>
</trkpt>
<trkpt lat="38.19243" lon="-120.37936">
<ele>916.6</ele>
<time>2026-04-22T10:05:35-07:00</time>
</trkpt>
<trkpt lat="38.19248" lon="-120.37898">
<ele>927.6</ele>
<time>2026-04-22T10:05:36-07:00</time>
</trkpt>
<trkpt lat="38.19245" lon="-120.37879">
<ele>931.7</ele>
<time>2026-04-22T10:05:37-07:00</time>
</trkpt>
<trkpt lat="38.19221" lon="-120.37842">
<ele>929.9</ele>
<time>2026-04-22T10:05:38-07:00</time>
</trkpt>
<trkpt lat="38.1922" lon="-120.37838">
<ele>929.9</ele>
<time>2026-04-22T10:05:39-07:00</time>
</trkpt>
<trkpt lat="38.19223" lon="-120.37836">
<ele>933.5</ele>
<time>2026-04-22T10:05:40-07:00</time>
</trkpt>
<trkpt lat="38.19229" lon="-120.37837">
<ele>933.5</ele>
<time>2026-04-22T10:05:41-07:00</time>
</trkpt>
<trkpt lat="38.19254" lon="-120.37865">
<ele>937.3</ele>
<time>2026-04-22T10:05:42-07:00</time>
</trkpt>
<trkpt lat="38.19259" lon="-120.37863">
<ele>937.3</ele>
<time>2026-04-22T10:05:43-07:00</time>
</trkpt>
<trkpt lat="38.19263" lon="-120.3786">
<ele>940.6</ele>
<time>2026-04-22T10:05:44-07:00</time>
</trkpt>
<trkpt lat="38.19265" lon="-120.37853">
<ele>940.6</ele>
<time>2026-04-22T10:05:45-07:00</time>
</trkpt>
<trkpt lat="38.19251" lon="-120.37838">
<ele>945.5</ele>
<time>2026-04-22T10:05:46-07:00</time>
</trkpt>
<trkpt lat="38.19244" lon="-120.37827">
<ele>944.6</ele>
<time>2026-04-22T10:05:47-07:00</time>
</trkpt>
<trkpt lat="38.19236" lon="-120.37807">
<ele>947.4</ele>
<time>2026-04-22T10:05:48-07:00</time>
</trkpt>
<trkpt lat="38.19242" lon="-120.3781">
<ele>950.7</ele>
<time>2026-04-22T10:05:49-07:00</time>
</trkpt>
<trkpt lat="38.19247" lon="-120.37815">
<ele>947.4</ele>
<time>2026-04-22T10:05:50-07:00</time>
</trkpt>
<trkpt lat="38.19263" lon="-120.37822">
<ele>952.6</ele>
<time>2026-04-22T10:05:51-07:00</time>
</trkpt>
<trkpt lat="38.19272" lon="-120.37814">
<ele>954.7</ele>
<time>2026-04-22T10:05:52-07:00</time>
</trkpt>
<trkpt lat="38.19283" lon="-120.37809">
<ele>951.6</ele>
<time>2026-04-22T10:05:53-07:00</time>
</trkpt>
<trkpt lat="38.19312" lon="-120.37774">
<ele>958.1</ele>
<time>2026-04-22T10:05:54-07:00</time>
</trkpt>
<trkpt lat="38.19312" lon="-120.37772">
<ele>958.1</ele>
<time>2026-04-22T10:05:55-07:00</time>
</trkpt>
<trkpt lat="38.19281" lon="-120.37781">
<ele>963.9</ele>
<time>2026-04-22T10:05:56-07:00</time>
</trkpt>
<trkpt lat="38.1927" lon="-120.37779">
<ele>965.6</ele>
<time>2026-04-22T10:05:57-07:00</time>
</trkpt>
<trkpt lat="38.19254" lon="-120.37769">
<ele>967.1</ele>
<time>2026-04-22T10:05:58-07:00</time>
</trkpt>
<trkpt lat="38.19247" lon="-120.37761">
<ele>966.8</ele>
<time>2026-04-22T10:05:59-07:00</time>
</trkpt>
<trkpt lat="38.19238" lon="-120.37734">
<ele>968.6</ele>
<time>2026-04-22T10:06:00-07:00</time>
</trkpt>
<trkpt lat="38.19233" lon="-120.37677">
<ele>974</ele>
<time>2026-04-22T10:06:01-07:00</time>
</trkpt>
<trkpt lat="38.19234" lon="-120.3765">
<ele>974.7</ele>
<time>2026-04-22T10:06:02-07:00</time>
</trkpt>
<trkpt lat="38.19231" lon="-120.37631">
<ele>969.5</ele>
<time>2026-04-22T10:06:03-07:00</time>
</trkpt>
<trkpt lat="38.1922" lon="-120.37612">
<ele>973.3</ele>
<time>2026-04-22T10:06:04-07:00</time>
</trkpt>
<trkpt lat="38.19214" lon="-120.37606">
<ele>977</ele>
<time>2026-04-22T10:06:05-07:00</time>
</trkpt>
<trkpt lat="38.19206" lon="-120.37593">
<ele>977.8</ele>
<time>2026-04-22T10:06:06-07:00</time>
</trkpt>
<trkpt lat="38.19209" lon="-120.37589">
<ele>980.9</ele>
<time>2026-04-22T10:06:07-07:00</time>
</trkpt>
<trkpt lat="38.19234" lon="-120.37603">
<ele>983.9</ele>
<time>2026-04-22T10:06:08-07:00</time>
</trkpt>
<trkpt lat="38.19245" lon="-120.37605">
<ele>984.7</ele>
<time>2026-04-22T10:06:09-07:00</time>
</trkpt>
<trkpt lat="38.19251" lon="-120.37619">
<ele>990.2</ele>
<time>2026-04-22T10:06:10-07:00</time>
</trkpt>
<trkpt lat="38.1926" lon="-120.37677">
<ele>991.7</ele>
<time>2026-04-22T10:06:11-07:00</time>
</trkpt>
<trkpt lat="38.19265" lon="-120.3769">
<ele>991</ele>
<time>2026-04-22T10:06:12-07:00</time>
</trkpt>
<trkpt lat="38.19271" lon="-120.37701">
<ele>993.6</ele>
<time>2026-04-22T10:06:13-07:00</time>
</trkpt>
<trkpt lat="38.19281" lon="-120.3771">
<ele>993.8</ele>
<time>2026-04-22T10:06:14-07:00</time>
</trkpt>
<trkpt lat="38.19285" lon="-120.37712">
<ele>993.8</ele>
<time>2026-04-22T10:06:15-07:00</time>
</trkpt>
<trkpt lat="38.1929" lon="-120.37709">
<ele>993.4</ele>
<time>2026-04-22T10:06:16-07:00</time>
</trkpt>
<trkpt lat="38.19274" lon="-120.37684">
<ele>996.7</ele>
<time>2026-04-22T10:06:17-07:00</time>
</trkpt>
<trkpt lat="38.19272" lon="-120.37669">
<ele>997.4</ele>
<time>2026-04-22T10:06:18-07:00</time>
</trkpt>
<trkpt lat="38.19271" lon="-120.37603">
<ele>1002.9</ele>
<time>2026-04-22T10:06:19-07:00</time>
</trkpt>
<trkpt lat="38.19272" lon="-120.37573">
<ele>1006.6</ele>
<time>2026-04-22T10:06:20-07:00</time>
</trkpt>
<trkpt lat="38.19257" lon="-120.37564">
<ele>1007.5</ele>
<time>2026-04-22T10:06:21-07:00</time>
</trkpt>
<trkpt lat="38.19251" lon="-120.37556">
<ele>1007.5</ele>
<time>2026-04-22T10:06:22-07:00</time>
</trkpt>
<trkpt lat="38.19262" lon="-120.37559">
<ele>1008.2</ele>
<time>2026-04-22T10:06:23-07:00</time>
</trkpt>
<trkpt lat="38.19272" lon="-120.37559">
<ele>1010.2</ele>
<time>2026-04-22T10:06:24-07:00</time>
</trkpt>
<trkpt lat="38.19281" lon="-120.37567">
<ele>1012.4</ele>
<time>2026-04-22T10:06:25-07:00</time>
</trkpt>
<trkpt lat="38.19283" lon="-120.37577">
<ele>1012.9</ele>
<time>2026-04-22T10:06:26-07:00</time>
</trkpt>
<trkpt lat="38.19304" lon="-120.37618">
<ele>1017.6</ele>
<time>2026-04-22T10:06:27-07:00</time>
</trkpt>
<trkpt lat="38.19315" lon="-120.37634">
<ele>1020.8</ele>
<time>2026-04-22T10:06:28-07:00</time>
</trkpt>
<trkpt lat="38.19319" lon="-120.37636">
<ele>1020.8</ele>
<time>2026-04-22T10:06:29-07:00</time>
</trkpt>
<trkpt lat="38.19323" lon="-120.3763">
<ele>1020.8</ele>
<time>2026-04-22T10:06:30-07:00</time>
</trkpt>
<trkpt lat="38.1931" lon="-120.37582">
<ele>1026.8</ele>
<time>2026-04-22T10:06:31-07:00</time>
</trkpt>
<trkpt lat="38.19285" lon="-120.37526">
<ele>1030.5</ele>
<time>2026-04-22T10:06:32-07:00</time>
</trkpt>
<trkpt lat="38.19272" lon="-120.37517">
<ele>1032.1</ele>
<time>2026-04-22T10:06:33-07:00</time>
</trkpt>
<trkpt lat="38.1928" lon="-120.37517">
<ele>1034.9</ele>
<time>2026-04-22T10:06:34-07:00</time>
</trkpt>
<trkpt lat="38.19291" lon="-120.37522">
<ele>1034.5</ele>
<time>2026-04-22T10:06:35-07:00</time>
</trkpt>
<trkpt lat="38.19317" lon="-120.37553">
<ele>1039.5</ele>
<time>2026-04-22T10:06:36-07:00</time>
</trkpt>
<trkpt lat="38.19321" lon="-120.3755">
<ele>1039.5</ele>
<time>2026-04-22T10:06:37-07:00</time>
</trkpt>
<trkpt lat="38.19292" lon="-120.37499">
<ele>1045</ele>
<time>2026-04-22T10:06:38-07:00</time>
</trkpt>
<trkpt lat="38.19291" lon="-120.37476">
<ele>1047.9</ele>
<time>2026-04-22T10:06:39-07:00</time>
</trkpt>
<trkpt lat="38.19296" lon="-120.3746">
<ele>1046.8</ele>
<time>2026-04-22T10:06:40-07:00</time>
</trkpt>
<trkpt lat="38.19286" lon="-120.37455">
<ele>1045.9</ele>
<time>2026-04-22T10:06:41-07:00</time>
</trkpt>
<trkpt lat="38.19278" lon="-120.37445">
<ele>1049.8</ele>
<time>2026-04-22T10:06:42-07:00</time>
</trkpt>
<trkpt lat="38.19285" lon="-120.37443">
<ele>1053.2</ele>
<time>2026-04-22T10:06:43-07:00</time>
</trkpt>
<trkpt lat="38.19304" lon="-120.37446">
<ele>1052.5</ele>
<time>2026-04-22T10:06:44-07:00</time>
</trkpt>
<trkpt lat="38.19312" lon="-120.37465">
<ele>1056.4</ele>
<time>2026-04-22T10:06:45-07:00</time>
</trkpt>
<trkpt lat="38.19325" lon="-120.37465">
<ele>1058.6</ele>
<time>2026-04-22T10:06:46-07:00</time>
</trkpt>
<trkpt lat="38.19374" lon="-120.37408">
<ele>1058.3</ele>
<time>2026-04-22T10:06:47-07:00</time>
</trkpt>
<trkpt lat="38.1943" lon="-120.37388">
<ele>1056.2</ele>
<time>2026-04-22T10:06:48-07:00</time>
</trkpt>
<trkpt lat="38.19437" lon="-120.37384">
<ele>1053.4</ele>
<time>2026-04-22T10:06:49-07:00</time>
</trkpt>
<trkpt lat="38.19442" lon="-120.37372">
<ele>1054.1</ele>
<time>2026-04-22T10:06:50-07:00</time>
</trkpt>
<trkpt lat="38.19456" lon="-120.3732">
<ele>1053</ele>
<time>2026-04-22T10:06:51-07:00</time>
</trkpt>
<trkpt lat="38.19509" lon="-120.37221">
<ele>1050.1</ele>
<time>2026-04-22T10:06:52-07:00</time>
</trkpt>
<trkpt lat="38.19534" lon="-120.37222">
<ele>1052.4</ele>
<time>2026-04-22T10:06:53-07:00</time>
</trkpt>
<trkpt lat="38.19547" lon="-120.37212">
<ele>1051.3</ele>
<time>2026-04-22T10:06:54-07:00</time>
</trkpt>
<trkpt lat="38.19556" lon="-120.37202">
<ele>1051.3</ele>
<time>2026-04-22T10:06:55-07:00</time>
</trkpt>
<trkpt lat="38.19589" lon="-120.37121">
<ele>1052.8</ele>
<time>2026-04-22T10:06:56-07:00</time>
</trkpt>
<trkpt lat="38.1961" lon="-120.37095">
<ele>1055.7</ele>
<time>2026-04-22T10:06:57-07:00</time>
</trkpt>
<trkpt lat="38.19633" lon="-120.37079">
<ele>1056.1</ele>
<time>2026-04-22T10:06:58-07:00</time>
</trkpt>
<trkpt lat="38.19656" lon="-120.37077">
<ele>1056.8</ele>
<time>2026-04-22T10:06:59-07:00</time>
</trkpt>
<trkpt lat="38.19663" lon="-120.37081">
<ele>1058.1</ele>
<time>2026-04-22T10:07:00-07:00</time>
</trkpt>
<trkpt lat="38.19665" lon="-120.37087">
<ele>1058.1</ele>
<time>2026-04-22T10:07:01-07:00</time>
</trkpt>
<trkpt lat="38.19662" lon="-120.37095">
<ele>1057.6</ele>
<time>2026-04-22T10:07:02-07:00</time>
</trkpt>
<trkpt lat="38.1965" lon="-120.37103">
<ele>1055.7</ele>
<time>2026-04-22T10:07:03-07:00</time>
</trkpt>
<trkpt lat="38.19645" lon="-120.37112">
<ele>1056.5</ele>
<time>2026-04-22T10:07:04-07:00</time>
</trkpt>
<trkpt lat="38.19643" lon="-120.37122">
<ele>1057.6</ele>
<time>2026-04-22T10:07:05-07:00</time>
</trkpt>
<trkpt lat="38.19646" lon="-120.37138">
<ele>1058.5</ele>
<time>2026-04-22T10:07:06-07:00</time>
</trkpt>
<trkpt lat="38.19644" lon="-120.37156">
<ele>1060.1</ele>
<time>2026-04-22T10:07:07-07:00</time>
</trkpt>
<trkpt lat="38.19647" lon="-120.37169">
<ele>1061.8</ele>
<time>2026-04-22T10:07:08-07:00</time>
</trkpt>
<trkpt lat="38.19647" lon="-120.37199">
<ele>1063.1</ele>
<time>2026-04-22T10:07:09-07:00</time>
</trkpt>
<trkpt lat="38.19654" lon="-120.37212">
<ele>1064.8</ele>
<time>2026-04-22T10:07:10-07:00</time>
</trkpt>
<trkpt lat="38.19668" lon="-120.37206">
<ele>1069.1</ele>
<time>2026-04-22T10:07:11-07:00</time>
</trkpt>
<trkpt lat="38.19704" lon="-120.37179">
<ele>1072.8</ele>
<time>2026-04-22T10:07:12-07:00</time>
</trkpt>
<trkpt lat="38.19735" lon="-120.3717">
<ele>1072.2</ele>
<time>2026-04-22T10:07:13-07:00</time>
</trkpt>
<trkpt lat="38.19745" lon="-120.37158">
<ele>1075.2</ele>
<time>2026-04-22T10:07:14-07:00</time>
</trkpt>
<trkpt lat="38.19753" lon="-120.37143">
<ele>1077</ele>
<time>2026-04-22T10:07:15-07:00</time>
</trkpt>
<trkpt lat="38.19759" lon="-120.37126">
<ele>1076.7</ele>
<time>2026-04-22T10:07:16-07:00</time>
</trkpt>
<trkpt lat="38.1978" lon="-120.37095">
<ele>1081.3</ele>
<time>2026-04-22T10:07:17-07:00</time>
</trkpt>
<trkpt lat="38.19807" lon="-120.37093">
<ele>1082.3</ele>
<time>2026-04-22T10:07:18-07:00</time>
</trkpt>
<trkpt lat="38.19827" lon="-120.37097">
<ele>1082.7</ele>
<time>2026-04-22T10:07:19-07:00</time>
</trkpt>
<trkpt lat="38.1985" lon="-120.37095">
<ele>1083</ele>
<time>2026-04-22T10:07:20-07:00</time>
</trkpt>
<trkpt lat="38.19861" lon="-120.37092">
<ele>1081.2</ele>
<time>2026-04-22T10:07:21-07:00</time>
</trkpt>
<trkpt lat="38.19874" lon="-120.37096">
<ele>1082.3</ele>
<time>2026-04-22T10:07:22-07:00</time>
</trkpt>
<trkpt lat="38.19886" lon="-120.37104">
<ele>1081.8</ele>
<time>2026-04-22T10:07:23-07:00</time>
</trkpt>
<trkpt lat="38.19917" lon="-120.37189">
<ele>1080.2</ele>
<time>2026-04-22T10:07:24-07:00</time>
</trkpt>
<trkpt lat="38.19933" lon="-120.372">
<ele>1078.9</ele>
<time>2026-04-22T10:07:25-07:00</time>
</trkpt>
<trkpt lat="38.19946" lon="-120.37216">
<ele>1076.4</ele>
<time>2026-04-22T10:07:26-07:00</time>
</trkpt>
<trkpt lat="38.19968" lon="-120.37262">
<ele>1074.3</ele>
<time>2026-04-22T10:07:27-07:00</time>
</trkpt>
<trkpt lat="38.20011" lon="-120.37367">
<ele>1064.8</ele>
<time>2026-04-22T10:07:28-07:00</time>
</trkpt>
<trkpt lat="38.20021" lon="-120.37415">
<ele>1059.9</ele>
<time>2026-04-22T10:07:29-07:00</time>
</trkpt>
<trkpt lat="38.20019" lon="-120.37442">
<ele>1057.6</ele>
<time>2026-04-22T10:07:30-07:00</time>
</trkpt>
<trkpt lat="38.20021" lon="-120.37456">
<ele>1055.6</ele>
<time>2026-04-22T10:07:31-07:00</time>
</trkpt>
<trkpt lat="38.2003" lon="-120.37487">
<ele>1052.5</ele>
<time>2026-04-22T10:07:32-07:00</time>
</trkpt>
<trkpt lat="38.20026" lon="-120.375">
<ele>1052.1</ele>
<time>2026-04-22T10:07:33-07:00</time>
</trkpt>
<trkpt lat="38.20011" lon="-120.37519">
<ele>1045.9</ele>
<time>2026-04-22T10:07:34-07:00</time>
</trkpt>
<trkpt lat="38.20011" lon="-120.37522">
<ele>1045.9</ele>
<time>2026-04-22T10:07:35-07:00</time>
</trkpt>
<trkpt lat="38.20009" lon="-120.37524">
<ele>1044.3</ele>
<time>2026-04-22T10:07:36-07:00</time>
</trkpt>
<trkpt lat="38.2" lon="-120.37517">
<ele>1046</ele>
<time>2026-04-22T10:07:37-07:00</time>
</trkpt>
<trkpt lat="38.19981" lon="-120.37484">
<ele>1040.5</ele>
<time>2026-04-22T10:07:38-07:00</time>
</trkpt>
<trkpt lat="38.19974" lon="-120.37476">
<ele>1042.7</ele>
<time>2026-04-22T10:07:39-07:00</time>
</trkpt>
<trkpt lat="38.19975" lon="-120.37484">
<ele>1040.5</ele>
<time>2026-04-22T10:07:40-07:00</time>
</trkpt>
<trkpt lat="38.19986" lon="-120.37517">
<ele>1038</ele>
<time>2026-04-22T10:07:41-07:00</time>
</trkpt>
<trkpt lat="38.19992" lon="-120.37542">
<ele>1037.4</ele>
<time>2026-04-22T10:07:42-07:00</time>
</trkpt>
<trkpt lat="38.19991" lon="-120.37549">
<ele>1035.4</ele>
<time>2026-04-22T10:07:43-07:00</time>
</trkpt>
<trkpt lat="38.19988" lon="-120.37551">
<ele>1032.1</ele>
<time>2026-04-22T10:07:44-07:00</time>
</trkpt>
<trkpt lat="38.19976" lon="-120.37527">
<ele>1032.4</ele>
<time>2026-04-22T10:07:45-07:00</time>
</trkpt>
<trkpt lat="38.19971" lon="-120.37521">
<ele>1028.1</ele>
<time>2026-04-22T10:07:46-07:00</time>
</trkpt>
<trkpt lat="38.19973" lon="-120.37548">
<ele>1028.1</ele>
<time>2026-04-22T10:07:47-07:00</time>
</trkpt>
<trkpt lat="38.19971" lon="-120.37589">
<ele>1019</ele>
<time>2026-04-22T10:07:48-07:00</time>
</trkpt>
<trkpt lat="38.19963" lon="-120.37611">
<ele>1015.2</ele>
<time>2026-04-22T10:07:49-07:00</time>
</trkpt>
<trkpt lat="38.19977" lon="-120.37649">
<ele>1014.2</ele>
<time>2026-04-22T10:07:50-07:00</time>
</trkpt>
<trkpt lat="38.19977" lon="-120.37654">
<ele>1014.2</ele>
<time>2026-04-22T10:07:51-07:00</time>
</trkpt>
<trkpt lat="38.19971" lon="-120.37665">
<ele>1012.3</ele>
<time>2026-04-22T10:07:52-07:00</time>
</trkpt>
<trkpt lat="38.19976" lon="-120.37679">
<ele>1013.3</ele>
<time>2026-04-22T10:07:53-07:00</time>
</trkpt>
<trkpt lat="38.19966" lon="-120.37692">
<ele>1013.1</ele>
<time>2026-04-22T10:07:54-07:00</time>
</trkpt>
<trkpt lat="38.19961" lon="-120.37695">
<ele>1015.9</ele>
<time>2026-04-22T10:07:55-07:00</time>
</trkpt>
<trkpt lat="38.19955" lon="-120.37694">
<ele>1011.6</ele>
<time>2026-04-22T10:07:56-07:00</time>
</trkpt>
<trkpt lat="38.19948" lon="-120.3769">
<ele>1013.1</ele>
<time>2026-04-22T10:07:57-07:00</time>
</trkpt>
<trkpt lat="38.19938" lon="-120.37681">
<ele>1012.7</ele>
<time>2026-04-22T10:07:58-07:00</time>
</trkpt>
<trkpt lat="38.19935" lon="-120.37681">
<ele>1015.6</ele>
<time>2026-04-22T10:07:59-07:00</time>
</trkpt>
<trkpt lat="38.19941" lon="-120.37693">
<ele>1015.9</ele>
<time>2026-04-22T10:08:00-07:00</time>
</trkpt>
<trkpt lat="38.1995" lon="-120.37701">
<ele>1017.7</ele>
<time>2026-04-22T10:08:01-07:00</time>
</trkpt>
<trkpt lat="38.19933" lon="-120.37698">
<ele>1021.5</ele>
<time>2026-04-22T10:08:02-07:00</time>
</trkpt>
<trkpt lat="38.19929" lon="-120.37698">
<ele>1021.5</ele>
<time>2026-04-22T10:08:03-07:00</time>
</trkpt>
<trkpt lat="38.19927" lon="-120.37701">
<ele>1021.5</ele>
<time>2026-04-22T10:08:04-07:00</time>
</trkpt>
<trkpt lat="38.19945" lon="-120.3771">
<ele>1022</ele>
<time>2026-04-22T10:08:05-07:00</time>
</trkpt>
<trkpt lat="38.19948" lon="-120.37714">
<ele>1026.2</ele>
<time>2026-04-22T10:08:06-07:00</time>
</trkpt>
<trkpt lat="38.19932" lon="-120.37712">
<ele>1025</ele>
<time>2026-04-22T10:08:07-07:00</time>
</trkpt>
<trkpt lat="38.19927" lon="-120.37713">
<ele>1028.1</ele>
<time>2026-04-22T10:08:08-07:00</time>
</trkpt>
<trkpt lat="38.19926" lon="-120.37716">
<ele>1028.1</ele>
<time>2026-04-22T10:08:09-07:00</time>
</trkpt>
<trkpt lat="38.19929" lon="-120.3772">
<ele>1028.1</ele>
<time>2026-04-22T10:08:10-07:00</time>
</trkpt>
<trkpt lat="38.19937" lon="-120.37721">
<ele>1027.2</ele>
<time>2026-04-22T10:08:11-07:00</time>
</trkpt>
<trkpt lat="38.19943" lon="-120.37724">
<ele>1031.2</ele>
<time>2026-04-22T10:08:12-07:00</time>
</trkpt>
<trkpt lat="38.1995" lon="-120.37731">
<ele>1030.2</ele>
<time>2026-04-22T10:08:13-07:00</time>
</trkpt>
<trkpt lat="38.19912" lon="-120.3774">
<ele>1031.9</ele>
<time>2026-04-22T10:08:14-07:00</time>
</trkpt>
<trkpt lat="38.19903" lon="-120.37753">
<ele>1033.7</ele>
<time>2026-04-22T10:08:15-07:00</time>
</trkpt>
<trkpt lat="38.19888" lon="-120.37769">
<ele>1029.4</ele>
<time>2026-04-22T10:08:16-07:00</time>
</trkpt>
<trkpt lat="38.1988" lon="-120.37783">
<ele>1032.6</ele>
<time>2026-04-22T10:08:17-07:00</time>
</trkpt>
<trkpt lat="38.19856" lon="-120.37808">
<ele>1027.8</ele>
<time>2026-04-22T10:08:18-07:00</time>
</trkpt>
<trkpt lat="38.19834" lon="-120.37839">
<ele>1027.3</ele>
<time>2026-04-22T10:08:19-07:00</time>
</trkpt>
<trkpt lat="38.19807" lon="-120.37867">
<ele>1024.1</ele>
<time>2026-04-22T10:08:20-07:00</time>
</trkpt>
<trkpt lat="38.19788" lon="-120.37883">
<ele>1020.9</ele>
<time>2026-04-22T10:08:21-07:00</time>
</trkpt>
<trkpt lat="38.1978" lon="-120.37893">
<ele>1016.1</ele>
<time>2026-04-22T10:08:22-07:00</time>
</trkpt>
<trkpt lat="38.19771" lon="-120.37915">
<ele>1010.3</ele>
<time>2026-04-22T10:08:23-07:00</time>
</trkpt>
<trkpt lat="38.19773" lon="-120.37935">
<ele>1008.9</ele>
<time>2026-04-22T10:08:24-07:00</time>
</trkpt>
<trkpt lat="38.19762" lon="-120.37924">
<ele>1009</ele>
<time>2026-04-22T10:08:25-07:00</time>
</trkpt>
<trkpt lat="38.19753" lon="-120.37905">
<ele>1009.2</ele>
<time>2026-04-22T10:08:26-07:00</time>
</trkpt>
<trkpt lat="38.19724" lon="-120.37872">
<ele>1007</ele>
<time>2026-04-22T10:08:27-07:00</time>
</trkpt>
<trkpt lat="38.19717" lon="-120.37869">
<ele>1003.4</ele>
<time>2026-04-22T10:08:28-07:00</time>
</trkpt>
<trkpt lat="38.19694" lon="-120.37874">
<ele>1005.8</ele>
<time>2026-04-22T10:08:29-07:00</time>
</trkpt>
<trkpt lat="38.19677" lon="-120.37911">
<ele>1007.7</ele>
<time>2026-04-22T10:08:30-07:00</time>
</trkpt>
<trkpt lat="38.19684" lon="-120.37946">
<ele>1005.9</ele>
<time>2026-04-22T10:08:31-07:00</time>
</trkpt>
<trkpt lat="38.19695" lon="-120.37971">
<ele>1008.3</ele>
<time>2026-04-22T10:08:32-07:00</time>
</trkpt>
<trkpt lat="38.19715" lon="-120.38003">
<ele>1008.6</ele>
<time>2026-04-22T10:08:33-07:00</time>
</trkpt>
<trkpt lat="38.19713" lon="-120.38031">
<ele>1008</ele>
<time>2026-04-22T10:08:34-07:00</time>
</trkpt>
<trkpt lat="38.19706" lon="-120.38049">
<ele>1007.4</ele>
<time>2026-04-22T10:08:35-07:00</time>
</trkpt>
<trkpt lat="38.19704" lon="-120.3805">
<ele>1007.4</ele>
<time>2026-04-22T10:08:36-07:00</time>
</trkpt>
<trkpt lat="38.19693" lon="-120.38042">
<ele>1006.5</ele>
<time>2026-04-22T10:08:37-07:00</time>
</trkpt>
<trkpt lat="38.19684" lon="-120.38039">
<ele>1006.8</ele>
<time>2026-04-22T10:08:38-07:00</time>
</trkpt>
<trkpt lat="38.19668" lon="-120.38037">
<ele>1002.4</ele>
<time>2026-04-22T10:08:39-07:00</time>
</trkpt>
<trkpt lat="38.19657" lon="-120.38041">
<ele>1004</ele>
<time>2026-04-22T10:08:40-07:00</time>
</trkpt>
<trkpt lat="38.19648" lon="-120.38038">
<ele>1004.7</ele>
<time>2026-04-22T10:08:41-07:00</time>
</trkpt>
<trkpt lat="38.19603" lon="-120.38048">
<ele>1000.3</ele>
<time>2026-04-22T10:08:42-07:00</time>
</trkpt>
<trkpt lat="38.19592" lon="-120.38066">
<ele>1001.3</ele>
<time>2026-04-22T10:08:43-07:00</time>
</trkpt>
<trkpt lat="38.19554" lon="-120.38062">
<ele>993.3</ele>
<time>2026-04-22T10:08:44-07:00</time>
</trkpt>
<trkpt lat="38.19518" lon="-120.38079">
<ele>988.1</ele>
<time>2026-04-22T10:08:45-07:00</time>
</trkpt>
<trkpt lat="38.19504" lon="-120.38103">
<ele>993.9</ele>
<time>2026-04-22T10:08:46-07:00</time>
</trkpt>
<trkpt lat="38.19478" lon="-120.38115">
<ele>995.6</ele>
<time>2026-04-22T10:08:47-07:00</time>
</trkpt>
<trkpt lat="38.19469" lon="-120.38123">
<ele>997.4</ele>
<time>2026-04-22T10:08:48-07:00</time>
</trkpt>
<trkpt lat="38.19462" lon="-120.38139">
<ele>997.8</ele>
<time>2026-04-22T10:08:49-07:00</time>
</trkpt>
<trkpt lat="38.19464" lon="-120.38148">
<ele>1001</ele>
<time>2026-04-22T10:08:50-07:00</time>
</trkpt>
<trkpt lat="38.19488" lon="-120.38167">
<ele>1002.3</ele>
<time>2026-04-22T10:08:51-07:00</time>
</trkpt>
<trkpt lat="38.19507" lon="-120.38175">
<ele>1005</ele>
<time>2026-04-22T10:08:52-07:00</time>
</trkpt>
<trkpt lat="38.19523" lon="-120.38185">
<ele>1004.5</ele>
<time>2026-04-22T10:08:53-07:00</time>
</trkpt>
<trkpt lat="38.19549" lon="-120.38212">
<ele>1007.2</ele>
<time>2026-04-22T10:08:54-07:00</time>
</trkpt>
<trkpt lat="38.19576" lon="-120.38226">
<ele>1009.5</ele>
<time>2026-04-22T10:08:55-07:00</time>
</trkpt>
<trkpt lat="38.19594" lon="-120.38256">
<ele>1008.6</ele>
<time>2026-04-22T10:08:56-07:00</time>
</trkpt>
<trkpt lat="38.19612" lon="-120.38276">
<ele>1013.6</ele>
<time>2026-04-22T10:08:57-07:00</time>
</trkpt>
<trkpt lat="38.19635" lon="-120.38292">
<ele>1016.8</ele>
<time>2026-04-22T10:08:58-07:00</time>
</trkpt>
<trkpt lat="38.19648" lon="-120.38322">
<ele>1014.7</ele>
<time>2026-04-22T10:08:59-07:00</time>
</trkpt>
<trkpt lat="38.1965" lon="-120.38333">
<ele>1017.4</ele>
<time>2026-04-22T10:09:00-07:00</time>
</trkpt>
<trkpt lat="38.19636" lon="-120.38357">
<ele>1021</ele>
<time>2026-04-22T10:09:01-07:00</time>
</trkpt>
<trkpt lat="38.19609" lon="-120.38365">
<ele>1023.1</ele>
<time>2026-04-22T10:09:02-07:00</time>
</trkpt>
<trkpt lat="38.19591" lon="-120.38367">
<ele>1024.2</ele>
<time>2026-04-22T10:09:03-07:00</time>
</trkpt>
<trkpt lat="38.19574" lon="-120.38364">
<ele>1024.4</ele>
<time>2026-04-22T10:09:04-07:00</time>
</trkpt>
<trkpt lat="38.19556" lon="-120.38371">
<ele>1026.5</ele>
<time>2026-04-22T10:09:05-07:00</time>
</trkpt>
<trkpt lat="38.19503" lon="-120.38376">
<ele>1025.6</ele>
<time>2026-04-22T10:09:06-07:00</time>
</trkpt>
<trkpt lat="38.19471" lon="-120.38389">
<ele>1025.5</ele>
<time>2026-04-22T10:09:07-07:00</time>
</trkpt>
<trkpt lat="38.19438" lon="-120.38413">
<ele>1023.9</ele>
<time>2026-04-22T10:09:08-07:00</time>
</trkpt>
<trkpt lat="38.19431" lon="-120.38421">
<ele>1022.3</ele>
<time>2026-04-22T10:09:09-07:00</time>
</trkpt>
<trkpt lat="38.1944" lon="-120.38484">
<ele>1021.8</ele>
<time>2026-04-22T10:09:10-07:00</time>
</trkpt>
<trkpt lat="38.19442" lon="-120.3849">
<ele>1021.8</ele>
<time>2026-04-22T10:09:11-07:00</time>
</trkpt>
<trkpt lat="38.19422" lon="-120.38532">
<ele>1019.5</ele>
<time>2026-04-22T10:09:12-07:00</time>
</trkpt>
<trkpt lat="38.19429" lon="-120.38599">
<ele>1020.8</ele>
<time>2026-04-22T10:09:13-07:00</time>
</trkpt>
<trkpt lat="38.19418" lon="-120.38609">
<ele>1021.8</ele>
<time>2026-04-22T10:09:14-07:00</time>
</trkpt>
<trkpt lat="38.19377" lon="-120.38562">
<ele>1023.2</ele>
<time>2026-04-22T10:09:15-07:00</time>
</trkpt>
<trkpt lat="38.19361" lon="-120.38547">
<ele>1026.2</ele>
<time>2026-04-22T10:09:16-07:00</time>
</trkpt>
<trkpt lat="38.19334" lon="-120.38527">
<ele>1018.6</ele>
<time>2026-04-22T10:09:17-07:00</time>
</trkpt>
<trkpt lat="38.19325" lon="-120.38522">
<ele>1020.4</ele>
<time>2026-04-22T10:09:18-07:00</time>
</trkpt>
<trkpt lat="38.19299" lon="-120.38514">
<ele>1020.8</ele>
<time>2026-04-22T10:09:19-07:00</time>
</trkpt>
<trkpt lat="38.19281" lon="-120.38504">
<ele>1023.7</ele>
<time>2026-04-22T10:09:20-07:00</time>
</trkpt>
<trkpt lat="38.1927" lon="-120.38492">
<ele>1027.4</ele>
<time>2026-04-22T10:09:21-07:00</time>
</trkpt>
<trkpt lat="38.19259" lon="-120.38474">
<ele>1031.1</ele>
<time>2026-04-22T10:09:22-07:00</time>
</trkpt>
<trkpt lat="38.19239" lon="-120.38454">
<ele>1032</ele>
<time>2026-04-22T10:09:23-07:00</time>
</trkpt>
<trkpt lat="38.19225" lon="-120.38444">
<ele>1031.6</ele>
<time>2026-04-22T10:09:24-07:00</time>
</trkpt>
<trkpt lat="38.19215" lon="-120.38432">
<ele>1032.3</ele>
<time>2026-04-22T10:09:25-07:00</time>
</trkpt>
<trkpt lat="38.19209" lon="-120.38429">
<ele>1035</ele>
<time>2026-04-22T10:09:26-07:00</time>
</trkpt>
<trkpt lat="38.19198" lon="-120.3843">
<ele>1035.1</ele>
<time>2026-04-22T10:09:27-07:00</time>
</trkpt>
<trkpt lat="38.19192" lon="-120.38436">
<ele>1037.5</ele>
<time>2026-04-22T10:09:28-07:00</time>
</trkpt>
<trkpt lat="38.19173" lon="-120.38467">
<ele>1042</ele>
<time>2026-04-22T10:09:29-07:00</time>
</trkpt>
<trkpt lat="38.19171" lon="-120.38473">
<ele>1045.2</ele>
<time>2026-04-22T10:09:30-07:00</time>
</trkpt>
<trkpt lat="38.19189" lon="-120.38468">
<ele>1046.3</ele>
<time>2026-04-22T10:09:31-07:00</time>
</trkpt>
<trkpt lat="38.19192" lon="-120.38468">
<ele>1046.3</ele>
<time>2026-04-22T10:09:32-07:00</time>
</trkpt>
<trkpt lat="38.19194" lon="-120.3847">
<ele>1046.3</ele>
<time>2026-04-22T10:09:33-07:00</time>
</trkpt>
<trkpt lat="38.19158" lon="-120.38495">
<ele>1051.2</ele>
<time>2026-04-22T10:09:34-07:00</time>
</trkpt>
<trkpt lat="38.19167" lon="-120.38497">
<ele>1052.8</ele>
<time>2026-04-22T10:09:35-07:00</time>
</trkpt>
<trkpt lat="38.19171" lon="-120.38496">
<ele>1052.8</ele>
<time>2026-04-22T10:09:36-07:00</time>
</trkpt>
<trkpt lat="38.19187" lon="-120.38502">
<ele>1059</ele>
<time>2026-04-22T10:09:37-07:00</time>
</trkpt>
<trkpt lat="38.19115" lon="-120.38576">
<ele>1062.1</ele>
<time>2026-04-22T10:09:38-07:00</time>
</trkpt>
<trkpt lat="38.19101" lon="-120.38583">
<ele>1054.3</ele>
<time>2026-04-22T10:09:39-07:00</time>
</trkpt>
<trkpt lat="38.19084" lon="-120.38599">
<ele>1057.3</ele>
<time>2026-04-22T10:09:40-07:00</time>
</trkpt>
<trkpt lat="38.19064" lon="-120.38627">
<ele>1055</ele>
<time>2026-04-22T10:09:41-07:00</time>
</trkpt>
<trkpt lat="38.19052" lon="-120.38664">
<ele>1055.2</ele>
<time>2026-04-22T10:09:42-07:00</time>
</trkpt>
<trkpt lat="38.19054" lon="-120.38696">
<ele>1050.9</ele>
<time>2026-04-22T10:09:43-07:00</time>
</trkpt>
<trkpt lat="38.19062" lon="-120.38764">
<ele>1046.5</ele>
<time>2026-04-22T10:09:44-07:00</time>
</trkpt>
<trkpt lat="38.19068" lon="-120.3877">
<ele>1044.6</ele>
<time>2026-04-22T10:09:45-07:00</time>
</trkpt>
<trkpt lat="38.19071" lon="-120.3877">
<ele>1044.6</ele>
<time>2026-04-22T10:09:46-07:00</time>
</trkpt>
<trkpt lat="38.19086" lon="-120.3878">
<ele>1041.8</ele>
<time>2026-04-22T10:09:47-07:00</time>
</trkpt>
<trkpt lat="38.1913" lon="-120.38788">
<ele>1047.9</ele>
<time>2026-04-22T10:09:48-07:00</time>
</trkpt>
<trkpt lat="38.19133" lon="-120.38809">
<ele>1045.2</ele>
<time>2026-04-22T10:09:49-07:00</time>
</trkpt>
<trkpt lat="38.19131" lon="-120.3882">
<ele>1043.6</ele>
<time>2026-04-22T10:09:50-07:00</time>
</trkpt>
<trkpt lat="38.19128" lon="-120.38893">
<ele>1035.9</ele>
<time>2026-04-22T10:09:51-07:00</time>
</trkpt>
<trkpt lat="38.1911" lon="-120.3896">
<ele>1030.7</ele>
<time>2026-04-22T10:09:52-07:00</time>
</trkpt>
<trkpt lat="38.1911" lon="-120.38965">
<ele>1030.3</ele>
<time>2026-04-22T10:09:53-07:00</time>
</trkpt>
<trkpt lat="38.19142" lon="-120.39014">
<ele>1029.1</ele>
<time>2026-04-22T10:09:54-07:00</time>
</trkpt>
<trkpt lat="38.19194" lon="-120.3901">
<ele>1028.4</ele>
<time>2026-04-22T10:09:55-07:00</time>
</trkpt>
<trkpt lat="38.19221" lon="-120.3902">
<ele>1028.7</ele>
<time>2026-04-22T10:09:56-07:00</time>
</trkpt>
<trkpt lat="38.19265" lon="-120.39029">
<ele>1036.6</ele>
<time>2026-04-22T10:09:57-07:00</time>
</trkpt>
<trkpt lat="38.1931" lon="-120.3904">
<ele>1040.1</ele>
<time>2026-04-22T10:09:58-07:00</time>
</trkpt>
<trkpt lat="38.19317" lon="-120.39043">
<ele>1041.3</ele>
<time>2026-04-22T10:09:59-07:00</time>
</trkpt>
<trkpt lat="38.19339" lon="-120.39041">
<ele>1041.7</ele>
<time>2026-04-22T10:10:00-07:00</time>
</trkpt>
<trkpt lat="38.19412" lon="-120.39014">
<ele>1041.6</ele>
<time>2026-04-22T10:10:01-07:00</time>
</trkpt>
<trkpt lat="38.1943" lon="-120.39017">
<ele>1038.4</ele>
<time>2026-04-22T10:10:02-07:00</time>
</trkpt>
<trkpt lat="38.1946" lon="-120.3903">
<ele>1038.2</ele>
<time>2026-04-22T10:10:03-07:00</time>
</trkpt>
<trkpt lat="38.19445" lon="-120.39073">
<ele>1044.1</ele>
<time>2026-04-22T10:10:04-07:00</time>
</trkpt>
<trkpt lat="38.19441" lon="-120.39091">
<ele>1042.8</ele>
<time>2026-04-22T10:10:05-07:00</time>
</trkpt>
<trkpt lat="38.19441" lon="-120.39103">
<ele>1043.8</ele>
<time>2026-04-22T10:10:06-07:00</time>
</trkpt>
<trkpt lat="38.19437" lon="-120.39122">
<ele>1045.3</ele>
<time>2026-04-22T10:10:07-07:00</time>
</trkpt>
<trkpt lat="38.1941" lon="-120.39153">
<ele>1046.5</ele>
<time>2026-04-22T10:10:08-07:00</time>
</trkpt>
<trkpt lat="38.19397" lon="-120.39165">
<ele>1044.5</ele>
<time>2026-04-22T10:10:09-07:00</time>
</trkpt>
<trkpt lat="38.19351" lon="-120.39244">
<ele>1044.7</ele>
<time>2026-04-22T10:10:10-07:00</time>
</trkpt>
<trkpt lat="38.19319" lon="-120.39273">
<ele>1046.6</ele>
<time>2026-04-22T10:10:11-07:00</time>
</trkpt>
<trkpt lat="38.1931" lon="-120.39295">
<ele>1045.3</ele>
<time>2026-04-22T10:10:12-07:00</time>
</trkpt>
<trkpt lat="38.19312" lon="-120.39333">
<ele>1044.3</ele>
<time>2026-04-22T10:10:13-07:00</time>
</trkpt>
<trkpt lat="38.19312" lon="-120.39396">
<ele>1045</ele>
<time>2026-04-22T10:10:14-07:00</time>
</trkpt>
<trkpt lat="38.193" lon="-120.39433">
<ele>1048.5</ele>
<time>2026-04-22T10:10:15-07:00</time>
</trkpt>
<trkpt lat="38.19279" lon="-120.39483">
<ele>1046.3</ele>
<time>2026-04-22T10:10:16-07:00</time>
</trkpt>
<trkpt lat="38.19271" lon="-120.39494">
<ele>1044.1</ele>
<time>2026-04-22T10:10:17-07:00</time>
</trkpt>
<trkpt lat="38.19254" lon="-120.39504">
<ele>1038.8</ele>
<time>2026-04-22T10:10:18-07:00</time>
</trkpt>
<trkpt lat="38.19213" lon="-120.39537">
<ele>1032.1</ele>
<time>2026-04-22T10:10:19-07:00</time>
</trkpt>
<trkpt lat="38.19215" lon="-120.3954">
<ele>1031.9</ele>
<time>2026-04-22T10:10:20-07:00</time>
</trkpt>
<trkpt lat="38.19245" lon="-120.3955">
<ele>1034.9</ele>
<time>2026-04-22T10:10:21-07:00</time>
</trkpt>
<trkpt lat="38.19281" lon="-120.39567">
<ele>1038.2</ele>
<time>2026-04-22T10:10:22-07:00</time>
</trkpt>
<trkpt lat="38.19333" lon="-120.39579">
<ele>1038.9</ele>
<time>2026-04-22T10:10:23-07:00</time>
</trkpt>
<trkpt lat="38.19361" lon="-120.3958">
<ele>1039.3</ele>
<time>2026-04-22T10:10:24-07:00</time>
</trkpt>
<trkpt lat="38.19399" lon="-120.39588">
<ele>1041.8</ele>
<time>2026-04-22T10:10:25-07:00</time>
</trkpt>
<trkpt lat="38.19422" lon="-120.39596">
<ele>1042.8</ele>
<time>2026-04-22T10:10:26-07:00</time>
</trkpt>
<trkpt lat="38.19442" lon="-120.39608">
<ele>1043.7</ele>
<time>2026-04-22T10:10:27-07:00</time>
</trkpt>
<trkpt lat="38.19451" lon="-120.3961">
<ele>1045.1</ele>
<time>2026-04-22T10:10:28-07:00</time>
</trkpt>
<trkpt lat="38.19467" lon="-120.39609">
<ele>1045.7</ele>
<time>2026-04-22T10:10:29-07:00</time>
</trkpt>
<trkpt lat="38.19484" lon="-120.39604">
<ele>1047.1</ele>
<time>2026-04-22T10:10:30-07:00</time>
</trkpt>
<trkpt lat="38.19523" lon="-120.39586">
<ele>1049.9</ele>
<time>2026-04-22T10:10:31-07:00</time>
</trkpt>
<trkpt lat="38.19535" lon="-120.39578">
<ele>1050.6</ele>
<time>2026-04-22T10:10:32-07:00</time>
</trkpt>
<trkpt lat="38.19574" lon="-120.39561">
<ele>1050.5</ele>
<time>2026-04-22T10:10:33-07:00</time>
</trkpt>
<trkpt lat="38.19628" lon="-120.39532">
<ele>1055.2</ele>
<time>2026-04-22T10:10:34-07:00</time>
</trkpt>
<trkpt lat="38.19677" lon="-120.39547">
<ele>1056.4</ele>
<time>2026-04-22T10:10:35-07:00</time>
</trkpt>
<trkpt lat="38.197" lon="-120.39571">
<ele>1056.3</ele>
<time>2026-04-22T10:10:36-07:00</time>
</trkpt>
<trkpt lat="38.19715" lon="-120.3959">
<ele>1055.7</ele>
<time>2026-04-22T10:10:37-07:00</time>
</trkpt>
<trkpt lat="38.19718" lon="-120.39599">
<ele>1054.9</ele>
<time>2026-04-22T10:10:38-07:00</time>
</trkpt>
<trkpt lat="38.19718" lon="-120.39608">
<ele>1055.4</ele>
<time>2026-04-22T10:10:39-07:00</time>
</trkpt>
<trkpt lat="38.19704" lon="-120.39657">
<ele>1057.9</ele>
<time>2026-04-22T10:10:40-07:00</time>
</trkpt>
<trkpt lat="38.19704" lon="-120.39702">
<ele>1061.9</ele>
<time>2026-04-22T10:10:41-07:00</time>
</trkpt>
<trkpt lat="38.197" lon="-120.3974">
<ele>1065.2</ele>
<time>2026-04-22T10:10:42-07:00</time>
</trkpt>
<trkpt lat="38.19693" lon="-120.39766">
<ele>1067.6</ele>
<time>2026-04-22T10:10:43-07:00</time>
</trkpt>
<trkpt lat="38.19659" lon="-120.39816">
<ele>1073.8</ele>
<time>2026-04-22T10:10:44-07:00</time>
</trkpt>
<trkpt lat="38.19648" lon="-120.39829">
<ele>1073.5</ele>
<time>2026-04-22T10:10:45-07:00</time>
</trkpt>
<trkpt lat="38.1961" lon="-120.39864">
<ele>1077.3</ele>
<time>2026-04-22T10:10:46-07:00</time>
</trkpt>
<trkpt lat="38.19586" lon="-120.39882">
<ele>1081.3</ele>
<time>2026-04-22T10:10:47-07:00</time>
</trkpt>
<trkpt lat="38.19561" lon="-120.39897">
<ele>1080.6</ele>
<time>2026-04-22T10:10:48-07:00</time>
</trkpt>
<trkpt lat="38.1954" lon="-120.39915">
<ele>1083.5</ele>
<time>2026-04-22T10:10:49-07:00</time>
</trkpt>
<trkpt lat="38.19531" lon="-120.39935">
<ele>1085.3</ele>
<time>2026-04-22T10:10:50-07:00</time>
</trkpt>
<trkpt lat="38.19532" lon="-120.39946">
<ele>1086.1</ele>
<time>2026-04-22T10:10:51-07:00</time>
</trkpt>
<trkpt lat="38.19543" lon="-120.39962">
<ele>1085.7</ele>
<time>2026-04-22T10:10:52-07:00</time>
</trkpt>
<trkpt lat="38.19559" lon="-120.39971">
<ele>1085.5</ele>
<time>2026-04-22T10:10:53-07:00</time>
</trkpt>
<trkpt lat="38.19608" lon="-120.39955">
<ele>1091.3</ele>
<time>2026-04-22T10:10:54-07:00</time>
</trkpt>
<trkpt lat="38.19646" lon="-120.39977">
<ele>1095.4</ele>
<time>2026-04-22T10:10:55-07:00</time>
</trkpt>
<trkpt lat="38.19662" lon="-120.39984">
<ele>1097.8</ele>
<time>2026-04-22T10:10:56-07:00</time>
</trkpt>
<trkpt lat="38.19679" lon="-120.39997">
<ele>1099.5</ele>
<time>2026-04-22T10:10:57-07:00</time>
</trkpt>
<trkpt lat="38.19683" lon="-120.39991">
<ele>1099.5</ele>
<time>2026-04-22T10:10:58-07:00</time>
</trkpt>
<trkpt lat="38.19698" lon="-120.39996">
<ele>1101.4</ele>
<time>2026-04-22T10:10:59-07:00</time>
</trkpt>
<trkpt lat="38.19706" lon="-120.40001">
<ele>1102.9</ele>
<time>2026-04-22T10:11:00-07:00</time>
</trkpt>
<trkpt lat="38.19715" lon="-120.4001">
<ele>1102.9</ele>
<time>2026-04-22T10:11:01-07:00</time>
</trkpt>
<trkpt lat="38.19719" lon="-120.40008">
<ele>1103.2</ele>
<time>2026-04-22T10:11:02-07:00</time>
</trkpt>
<trkpt lat="38.19727" lon="-120.39999">
<ele>1104.4</ele>
<time>2026-04-22T10:11:03-07:00</time>
</trkpt>
<trkpt lat="38.19738" lon="-120.39999">
<ele>1104.8</ele>
<time>2026-04-22T10:11:04-07:00</time>
</trkpt>
<trkpt lat="38.19748" lon="-120.39994">
<ele>1105</ele>
<time>2026-04-22T10:11:05-07:00</time>
</trkpt>
<trkpt lat="38.19767" lon="-120.39967">
<ele>1106.2</ele>
<time>2026-04-22T10:11:06-07:00</time>
</trkpt>
<trkpt lat="38.19775" lon="-120.39962">
<ele>1106.1</ele>
<time>2026-04-22T10:11:07-07:00</time>
</trkpt>
<trkpt lat="38.19777" lon="-120.39959">
<ele>1106.1</ele>
<time>2026-04-22T10:11:08-07:00</time>
</trkpt>
<trkpt lat="38.19803" lon="-120.3995">
<ele>1106.4</ele>
<time>2026-04-22T10:11:09-07:00</time>
</trkpt>
<trkpt lat="38.19825" lon="-120.39948">
<ele>1106.3</ele>
<time>2026-04-22T10:11:10-07:00</time>
</trkpt>
<trkpt lat="38.19832" lon="-120.39951">
<ele>1106.3</ele>
<time>2026-04-22T10:11:11-07:00</time>
</trkpt>
<trkpt lat="38.19851" lon="-120.39969">
<ele>1104.1</ele>
<time>2026-04-22T10:11:12-07:00</time>
</trkpt>
<trkpt lat="38.19868" lon="-120.39978">
<ele>1102.1</ele>
<time>2026-04-22T10:11:13-07:00</time>
</trkpt>
<trkpt lat="38.19872" lon="-120.39994">
<ele>1100.1</ele>
<time>2026-04-22T10:11:14-07:00</time>
</trkpt>
<trkpt lat="38.19883" lon="-120.40011">
<ele>1097.9</ele>
<time>2026-04-22T10:11:15-07:00</time>
</trkpt>
<trkpt lat="38.19887" lon="-120.40013">
<ele>1097.9</ele>
<time>2026-04-22T10:11:16-07:00</time>
</trkpt>
<trkpt lat="38.19895" lon="-120.40013">
<ele>1097.2</ele>
<time>2026-04-22T10:11:17-07:00</time>
</trkpt>
<trkpt lat="38.19903" lon="-120.40017">
<ele>1096.1</ele>
<time>2026-04-22T10:11:18-07:00</time>
</trkpt>
<trkpt lat="38.19906" lon="-120.40023">
<ele>1095.9</ele>
<time>2026-04-22T10:11:19-07:00</time>
</trkpt>
<trkpt lat="38.19903" lon="-120.40037">
<ele>1095.5</ele>
<time>2026-04-22T10:11:20-07:00</time>
</trkpt>
<trkpt lat="38.19919" lon="-120.40054">
<ele>1092.7</ele>
<time>2026-04-22T10:11:21-07:00</time>
</trkpt>
<trkpt lat="38.19926" lon="-120.40054">
<ele>1091.3</ele>
<time>2026-04-22T10:11:22-07:00</time>
</trkpt>
<trkpt lat="38.19944" lon="-120.40033">
<ele>1090</ele>
<time>2026-04-22T10:11:23-07:00</time>
</trkpt>
<trkpt lat="38.19946" lon="-120.40032">
<ele>1088</ele>
<time>2026-04-22T10:11:24-07:00</time>
</trkpt>
<trkpt lat="38.19948" lon="-120.40033">
<ele>1088</ele>
<time>2026-04-22T10:11:25-07:00</time>
</trkpt>
<trkpt lat="38.19953" lon="-120.40041">
<ele>1088.1</ele>
<time>2026-04-22T10:11:26-07:00</time>
</trkpt>
<trkpt lat="38.19955" lon="-120.40053">
<ele>1085.7</ele>
<time>2026-04-22T10:11:27-07:00</time>
</trkpt>
<trkpt lat="38.19947" lon="-120.40072">
<ele>1085.7</ele>
<time>2026-04-22T10:11:28-07:00</time>
</trkpt>
<trkpt lat="38.19943" lon="-120.40084">
<ele>1083.2</ele>
<time>2026-04-22T10:11:29-07:00</time>
</trkpt>
<trkpt lat="38.19943" lon="-120.40089">
<ele>1083.2</ele>
<time>2026-04-22T10:11:30-07:00</time>
</trkpt>
<trkpt lat="38.19937" lon="-120.40101">
<ele>1080.3</ele>
<time>2026-04-22T10:11:31-07:00</time>
</trkpt>
<trkpt lat="38.19926" lon="-120.40115">
<ele>1076</ele>
<time>2026-04-22T10:11:32-07:00</time>
</trkpt>
<trkpt lat="38.19927" lon="-120.40117">
<ele>1076</ele>
<time>2026-04-22T10:11:33-07:00</time>
</trkpt>
<trkpt lat="38.19916" lon="-120.40123">
<ele>1074.2</ele>
<time>2026-04-22T10:11:34-07:00</time>
</trkpt>
<trkpt lat="38.19905" lon="-120.40135">
<ele>1071.3</ele>
<time>2026-04-22T10:11:35-07:00</time>
</trkpt>
<trkpt lat="38.19901" lon="-120.40137">
<ele>1071.3</ele>
<time>2026-04-22T10:11:36-07:00</time>
</trkpt>
<trkpt lat="38.19885" lon="-120.4014">
<ele>1068</ele>
<time>2026-04-22T10:11:37-07:00</time>
</trkpt>
<trkpt lat="38.19868" lon="-120.40132">
<ele>1068.7</ele>
<time>2026-04-22T10:11:38-07:00</time>
</trkpt>
<trkpt lat="38.19865" lon="-120.40132">
<ele>1068.7</ele>
<time>2026-04-22T10:11:39-07:00</time>
</trkpt>
<trkpt lat="38.19865" lon="-120.40134">
<ele>1068.7</ele>
<time>2026-04-22T10:11:40-07:00</time>
</trkpt>
<trkpt lat="38.19871" lon="-120.40146">
<ele>1067.1</ele>
<time>2026-04-22T10:11:41-07:00</time>
</trkpt>
<trkpt lat="38.1988" lon="-120.40153">
<ele>1064.8</ele>
<time>2026-04-22T10:11:42-07:00</time>
</trkpt>
<trkpt lat="38.19888" lon="-120.40155">
<ele>1064.8</ele>
<time>2026-04-22T10:11:43-07:00</time>
</trkpt>
<trkpt lat="38.19906" lon="-120.40155">
<ele>1064.4</ele>
<time>2026-04-22T10:11:44-07:00</time>
</trkpt>
<trkpt lat="38.19926" lon="-120.40163">
<ele>1061.9</ele>
<time>2026-04-22T10:11:45-07:00</time>
</trkpt>
<trkpt lat="38.19932" lon="-120.40168">
<ele>1060.3</ele>
<time>2026-04-22T10:11:46-07:00</time>
</trkpt>
<trkpt lat="38.19946" lon="-120.40174">
<ele>1059.6</ele>
<time>2026-04-22T10:11:47-07:00</time>
</trkpt>
<trkpt lat="38.19966" lon="-120.40175">
<ele>1058.6</ele>
<time>2026-04-22T10:11:48-07:00</time>
</trkpt>
<trkpt lat="38.19976" lon="-120.40173">
<ele>1058.8</ele>
<time>2026-04-22T10:11:49-07:00</time>
</trkpt>
<trkpt lat="38.19985" lon="-120.40175">
<ele>1058.2</ele>
<time>2026-04-22T10:11:50-07:00</time>
</trkpt>
<trkpt lat="38.1999" lon="-120.40179">
<ele>1057.3</ele>
<time>2026-04-22T10:11:51-07:00</time>
</trkpt>
<trkpt lat="38.19992" lon="-120.40188">
<ele>1054.4</ele>
<time>2026-04-22T10:11:52-07:00</time>
</trkpt>
<trkpt lat="38.19986" lon="-120.40213">
<ele>1052.8</ele>
<time>2026-04-22T10:11:53-07:00</time>
</trkpt>
<trkpt lat="38.1999" lon="-120.40222">
<ele>1052.8</ele>
<time>2026-04-22T10:11:54-07:00</time>
</trkpt>
<trkpt lat="38.1999" lon="-120.40231">
<ele>1051.1</ele>
<time>2026-04-22T10:11:55-07:00</time>
</trkpt>
<trkpt lat="38.19983" lon="-120.4026">
<ele>1043.6</ele>
<time>2026-04-22T10:11:56-07:00</time>
</trkpt>
<trkpt lat="38.19977" lon="-120.40269">
<ele>1041.9</ele>
<time>2026-04-22T10:11:57-07:00</time>
</trkpt>
<trkpt lat="38.19983" lon="-120.40277">
<ele>1041.9</ele>
<time>2026-04-22T10:11:58-07:00</time>
</trkpt>
<trkpt lat="38.1999" lon="-120.40282">
<ele>1040.6</ele>
<time>2026-04-22T10:11:59-07:00</time>
</trkpt>
<trkpt lat="38.2002" lon="-120.40278">
<ele>1039.3</ele>
<time>2026-04-22T10:12:00-07:00</time>
</trkpt>
<trkpt lat="38.20024" lon="-120.40276">
<ele>1039.9</ele>
<time>2026-04-22T10:12:01-07:00</time>
</trkpt>
<trkpt lat="38.20044" lon="-120.40257">
<ele>1039.6</ele>
<time>2026-04-22T10:12:02-07:00</time>
</trkpt>
<trkpt lat="38.20055" lon="-120.40253">
<ele>1039</ele>
<time>2026-04-22T10:12:03-07:00</time>
</trkpt>
<trkpt lat="38.2006" lon="-120.40247">
<ele>1038.7</ele>
<time>2026-04-22T10:12:04-07:00</time>
</trkpt>
<trkpt lat="38.20066" lon="-120.4023">
<ele>1037.3</ele>
<time>2026-04-22T10:12:05-07:00</time>
</trkpt>
<trkpt lat="38.20076" lon="-120.40214">
<ele>1035</ele>
<time>2026-04-22T10:12:06-07:00</time>
</trkpt>
<trkpt lat="38.20078" lon="-120.402">
<ele>1034.2</ele>
<time>2026-04-22T10:12:07-07:00</time>
</trkpt>
<trkpt lat="38.20082" lon="-120.40191">
<ele>1034</ele>
<time>2026-04-22T10:12:08-07:00</time>
</trkpt>
<trkpt lat="38.20083" lon="-120.40169">
<ele>1034.8</ele>
<time>2026-04-22T10:12:09-07:00</time>
</trkpt>
<trkpt lat="38.2008" lon="-120.4016">
<ele>1035.2</ele>
<time>2026-04-22T10:12:10-07:00</time>
</trkpt>
<trkpt lat="38.20084" lon="-120.40148">
<ele>1036.5</ele>
<time>2026-04-22T10:12:11-07:00</time>
</trkpt>
<trkpt lat="38.20092" lon="-120.40138">
<ele>1037.8</ele>
<time>2026-04-22T10:12:12-07:00</time>
</trkpt>
<trkpt lat="38.20095" lon="-120.40131">
<ele>1036.9</ele>
<time>2026-04-22T10:12:13-07:00</time>
</trkpt>
<trkpt lat="38.201" lon="-120.40127">
<ele>1037.9</ele>
<time>2026-04-22T10:12:14-07:00</time>
</trkpt>
<trkpt lat="38.20106" lon="-120.40126">
<ele>1036.9</ele>
<time>2026-04-22T10:12:15-07:00</time>
</trkpt>
<trkpt lat="38.20123" lon="-120.40156">
<ele>1032.9</ele>
<time>2026-04-22T10:12:16-07:00</time>
</trkpt>
<trkpt lat="38.20125" lon="-120.40157">
<ele>1032.9</ele>
<time>2026-04-22T10:12:17-07:00</time>
</trkpt>
<trkpt lat="38.20142" lon="-120.40151">
<ele>1030.4</ele>
<time>2026-04-22T10:12:18-07:00</time>
</trkpt>
<trkpt lat="38.20147" lon="-120.40136">
<ele>1031.4</ele>
<time>2026-04-22T10:12:19-07:00</time>
</trkpt>
<trkpt lat="38.20147" lon="-120.40132">
<ele>1031.4</ele>
<time>2026-04-22T10:12:20-07:00</time>
</trkpt>
<trkpt lat="38.20151" lon="-120.4013">
<ele>1028.8</ele>
<time>2026-04-22T10:12:21-07:00</time>
</trkpt>
<trkpt lat="38.20156" lon="-120.40132">
<ele>1028.8</ele>
<time>2026-04-22T10:12:22-07:00</time>
</trkpt>
<trkpt lat="38.20161" lon="-120.40144">
<ele>1025.7</ele>
<time>2026-04-22T10:12:23-07:00</time>
</trkpt>
<trkpt lat="38.20161" lon="-120.4016">
<ele>1024.3</ele>
<time>2026-04-22T10:12:24-07:00</time>
</trkpt>
<trkpt lat="38.20159" lon="-120.40168">
<ele>1023</ele>
<time>2026-04-22T10:12:25-07:00</time>
</trkpt>
<trkpt lat="38.20156" lon="-120.40173">
<ele>1025.8</ele>
<time>2026-04-22T10:12:26-07:00</time>
</trkpt>
<trkpt lat="38.20156" lon="-120.40175">
<ele>1025.8</ele>
<time>2026-04-22T10:12:27-07:00</time>
</trkpt>
<trkpt lat="38.20158" lon="-120.40176">
<ele>1021.3</ele>
<time>2026-04-22T10:12:28-07:00</time>
</trkpt>
<trkpt lat="38.20169" lon="-120.40171">
<ele>1020.1</ele>
<time>2026-04-22T10:12:29-07:00</time>
</trkpt>
<trkpt lat="38.20176" lon="-120.4017">
<ele>1017.2</ele>
<time>2026-04-22T10:12:30-07:00</time>
</trkpt>
<trkpt lat="38.2018" lon="-120.40166">
<ele>1018.2</ele>
<time>2026-04-22T10:12:31-07:00</time>
</trkpt>
<trkpt lat="38.20191" lon="-120.40162">
<ele>1015.3</ele>
<time>2026-04-22T10:12:32-07:00</time>
</trkpt>
<trkpt lat="38.20199" lon="-120.40155">
<ele>1014.7</ele>
<time>2026-04-22T10:12:33-07:00</time>
</trkpt>
<trkpt lat="38.20208" lon="-120.40157">
<ele>1016</ele>
<time>2026-04-22T10:12:34-07:00</time>
</trkpt>
<trkpt lat="38.20212" lon="-120.40164">
<ele>1016.1</ele>
<time>2026-04-22T10:12:35-07:00</time>
</trkpt>
<trkpt lat="38.20216" lon="-120.40187">
<ele>1015.9</ele>
<time>2026-04-22T10:12:36-07:00</time>
</trkpt>
<trkpt lat="38.20208" lon="-120.40196">
<ele>1014</ele>
<time>2026-04-22T10:12:37-07:00</time>
</trkpt>
<trkpt lat="38.20207" lon="-120.40201">
<ele>1014</ele>
<time>2026-04-22T10:12:38-07:00</time>
</trkpt>
<trkpt lat="38.20219" lon="-120.40208">
<ele>1014.1</ele>
<time>2026-04-22T10:12:39-07:00</time>
</trkpt>
<trkpt lat="38.20223" lon="-120.40208">
<ele>1014.5</ele>
<time>2026-04-22T10:12:40-07:00</time>
</trkpt>
<trkpt lat="38.2023" lon="-120.40212">
<ele>1014.5</ele>
<time>2026-04-22T10:12:41-07:00</time>
</trkpt>
<trkpt lat="38.20238" lon="-120.40219">
<ele>1013.8</ele>
<time>2026-04-22T10:12:42-07:00</time>
</trkpt>
<trkpt lat="38.20248" lon="-120.40236">
<ele>1013.3</ele>
<time>2026-04-22T10:12:43-07:00</time>
</trkpt>
<trkpt lat="38.20253" lon="-120.40239">
<ele>1012.8</ele>
<time>2026-04-22T10:12:44-07:00</time>
</trkpt>
<trkpt lat="38.20257" lon="-120.4024">
<ele>1012.8</ele>
<time>2026-04-22T10:12:45-07:00</time>
</trkpt>
<trkpt lat="38.20268" lon="-120.40237">
<ele>1012.5</ele>
<time>2026-04-22T10:12:46-07:00</time>
</trkpt>
<trkpt lat="38.20275" lon="-120.40239">
<ele>1011.8</ele>
<time>2026-04-22T10:12:47-07:00</time>
</trkpt>
<trkpt lat="38.20277" lon="-120.40238">
<ele>1011.8</ele>
<time>2026-04-22T10:12:48-07:00</time>
</trkpt>
<trkpt lat="38.2029" lon="-120.4024">
<ele>1011.5</ele>
<time>2026-04-22T10:12:49-07:00</time>
</trkpt>
<trkpt lat="38.20291" lon="-120.40248">
<ele>1010.4</ele>
<time>2026-04-22T10:12:50-07:00</time>
</trkpt>
<trkpt lat="38.20288" lon="-120.40257">
<ele>1009.1</ele>
<time>2026-04-22T10:12:51-07:00</time>
</trkpt>
<trkpt lat="38.20293" lon="-120.40267">
<ele>1007.6</ele>
<time>2026-04-22T10:12:52-07:00</time>
</trkpt>
<trkpt lat="38.20294" lon="-120.40277">
<ele>1006.3</ele>
<time>2026-04-22T10:12:53-07:00</time>
</trkpt>
<trkpt lat="38.20292" lon="-120.40294">
<ele>1004.4</ele>
<time>2026-04-22T10:12:54-07:00</time>
</trkpt>
<trkpt lat="38.20295" lon="-120.40303">
<ele>1003.4</ele>
<time>2026-04-22T10:12:55-07:00</time>
</trkpt>
<trkpt lat="38.20302" lon="-120.40308">
<ele>1003.3</ele>
<time>2026-04-22T10:12:56-07:00</time>
</trkpt>
<trkpt lat="38.20308" lon="-120.40321">
<ele>1001.9</ele>
<time>2026-04-22T10:12:57-07:00</time>
</trkpt>
<trkpt lat="38.20315" lon="-120.40327">
<ele>1000.2</ele>
<time>2026-04-22T10:12:58-07:00</time>
</trkpt>
<trkpt lat="38.20324" lon="-120.4033">
<ele>1000.2</ele>
<time>2026-04-22T10:12:59-07:00</time>
</trkpt>
<trkpt lat="38.20339" lon="-120.40338">
<ele>998</ele>
<time>2026-04-22T10:13:00-07:00</time>
</trkpt>
<trkpt lat="38.20351" lon="-120.40349">
<ele>996</ele>
<time>2026-04-22T10:13:01-07:00</time>
</trkpt>
<trkpt lat="38.20351" lon="-120.40368">
<ele>993.9</ele>
<time>2026-04-22T10:13:02-07:00</time>
</trkpt>
<trkpt lat="38.20355" lon="-120.40368">
<ele>992.9</ele>
<time>2026-04-22T10:13:03-07:00</time>
</trkpt>
<trkpt lat="38.20362" lon="-120.40361">
<ele>990.9</ele>
<time>2026-04-22T10:13:04-07:00</time>
</trkpt>
<trkpt lat="38.2037" lon="-120.4036">
<ele>990.9</ele>
<time>2026-04-22T10:13:05-07:00</time>
</trkpt>
<trkpt lat="38.20374" lon="-120.40362">
<ele>989.3</ele>
<time>2026-04-22T10:13:06-07:00</time>
</trkpt>
<trkpt lat="38.20384" lon="-120.40363">
<ele>991.5</ele>
<time>2026-04-22T10:13:07-07:00</time>
</trkpt>
<trkpt lat="38.20398" lon="-120.40372">
<ele>992.8</ele>
<time>2026-04-22T10:13:08-07:00</time>
</trkpt>
<trkpt lat="38.20406" lon="-120.40386">
<ele>993.7</ele>
<time>2026-04-22T10:13:09-07:00</time>
</trkpt>
<trkpt lat="38.20407" lon="-120.40393">
<ele>993.5</ele>
<time>2026-04-22T10:13:10-07:00</time>
</trkpt>
<trkpt lat="38.20406" lon="-120.40438">
<ele>990.5</ele>
<time>2026-04-22T10:13:11-07:00</time>
</trkpt>
<trkpt lat="38.20413" lon="-120.40467">
<ele>989.9</ele>
<time>2026-04-22T10:13:12-07:00</time>
</trkpt>
<trkpt lat="38.20429" lon="-120.40487">
<ele>990</ele>
<time>2026-04-22T10:13:13-07:00</time>
</trkpt>
<trkpt lat="38.2044" lon="-120.40497">
<ele>990.1</ele>
<time>2026-04-22T10:13:14-07:00</time>
</trkpt>
<trkpt lat="38.20462" lon="-120.40504">
<ele>989.5</ele>
<time>2026-04-22T10:13:15-07:00</time>
</trkpt>
<trkpt lat="38.2047" lon="-120.40505">
<ele>989.5</ele>
<time>2026-04-22T10:13:16-07:00</time>
</trkpt>
<trkpt lat="38.20482" lon="-120.40501">
<ele>989.2</ele>
<time>2026-04-22T10:13:17-07:00</time>
</trkpt>
<trkpt lat="38.20489" lon="-120.40495">
<ele>990.1</ele>
<time>2026-04-22T10:13:18-07:00</time>
</trkpt>
<trkpt lat="38.20506" lon="-120.40491">
<ele>990.2</ele>
<time>2026-04-22T10:13:19-07:00</time>
</trkpt>
<trkpt lat="38.20514" lon="-120.40483">
<ele>991.9</ele>
<time>2026-04-22T10:13:20-07:00</time>
</trkpt>
<trkpt lat="38.20526" lon="-120.40465">
<ele>994.8</ele>
<time>2026-04-22T10:13:21-07:00</time>
</trkpt>
<trkpt lat="38.2053" lon="-120.40451">
<ele>997.7</ele>
<time>2026-04-22T10:13:22-07:00</time>
</trkpt>
<trkpt lat="38.20546" lon="-120.40433">
<ele>1000.2</ele>
<time>2026-04-22T10:13:23-07:00</time>
</trkpt>
<trkpt lat="38.2055" lon="-120.40423">
<ele>1003.4</ele>
<time>2026-04-22T10:13:24-07:00</time>
</trkpt>
<trkpt lat="38.20561" lon="-120.4041">
<ele>1006.4</ele>
<time>2026-04-22T10:13:25-07:00</time>
</trkpt>
<trkpt lat="38.20563" lon="-120.404">
<ele>1008.4</ele>
<time>2026-04-22T10:13:26-07:00</time>
</trkpt>
<trkpt lat="38.20561" lon="-120.40399">
<ele>1008.4</ele>
<time>2026-04-22T10:13:27-07:00</time>
</trkpt>
<trkpt lat="38.20548" lon="-120.40402">
<ele>1009.8</ele>
<time>2026-04-22T10:13:28-07:00</time>
</trkpt>
<trkpt lat="38.20537" lon="-120.40397">
<ele>1010.4</ele>
<time>2026-04-22T10:13:29-07:00</time>
</trkpt>
<trkpt lat="38.20516" lon="-120.40383">
<ele>1010.6</ele>
<time>2026-04-22T10:13:30-07:00</time>
</trkpt>
<trkpt lat="38.20509" lon="-120.40388">
<ele>1012.1</ele>
<time>2026-04-22T10:13:31-07:00</time>
</trkpt>
<trkpt lat="38.20503" lon="-120.40402">
<ele>1010.4</ele>
<time>2026-04-22T10:13:32-07:00</time>
</trkpt>
<trkpt lat="38.20494" lon="-120.40413">
<ele>1011.1</ele>
<time>2026-04-22T10:13:33-07:00</time>
</trkpt>
<trkpt lat="38.20489" lon="-120.40414">
<ele>1011.4</ele>
<time>2026-04-22T10:13:34-07:00</time>
</trkpt>
<trkpt lat="38.20476" lon="-120.4041">
<ele>1010.6</ele>
<time>2026-04-22T10:13:35-07:00</time>
</trkpt>
<trkpt lat="38.20468" lon="-120.404">
<ele>1010.8</ele>
<time>2026-04-22T10:13:36-07:00</time>
</trkpt>
<trkpt lat="38.20451" lon="-120.40368">
<ele>1010.5</ele>
<time>2026-04-22T10:13:37-07:00</time>
</trkpt>
<trkpt lat="38.20445" lon="-120.40349">
<ele>1012.2</ele>
<time>2026-04-22T10:13:38-07:00</time>
</trkpt>
<trkpt lat="38.20442" lon="-120.40344">
<ele>1008.5</ele>
<time>2026-04-22T10:13:39-07:00</time>
</trkpt>
<trkpt lat="38.20426" lon="-120.40294">
<ele>1011</ele>
<time>2026-04-22T10:13:40-07:00</time>
</trkpt>
<trkpt lat="38.20423" lon="-120.40277">
<ele>1009.8</ele>
<time>2026-04-22T10:13:41-07:00</time>
</trkpt>
<trkpt lat="38.20412" lon="-120.40247">
<ele>1009.3</ele>
<time>2026-04-22T10:13:42-07:00</time>
</trkpt>
<trkpt lat="38.20409" lon="-120.40235">
<ele>1009.5</ele>
<time>2026-04-22T10:13:43-07:00</time>
</trkpt>
<trkpt lat="38.20411" lon="-120.40176">
<ele>1010.5</ele>
<time>2026-04-22T10:13:44-07:00</time>
</trkpt>
<trkpt lat="38.20409" lon="-120.40172">
<ele>1013.7</ele>
<time>2026-04-22T10:13:45-07:00</time>
</trkpt>
<trkpt lat="38.20415" lon="-120.40158">
<ele>1016.4</ele>
<time>2026-04-22T10:13:46-07:00</time>
</trkpt>
<trkpt lat="38.20417" lon="-120.40147">
<ele>1020.2</ele>
<time>2026-04-22T10:13:47-07:00</time>
</trkpt>
<trkpt lat="38.20433" lon="-120.40136">
<ele>1021.7</ele>
<time>2026-04-22T10:13:48-07:00</time>
</trkpt>
<trkpt lat="38.20436" lon="-120.4013">
<ele>1020.1</ele>
<time>2026-04-22T10:13:49-07:00</time>
</trkpt>
<trkpt lat="38.20441" lon="-120.40125">
<ele>1023.4</ele>
<time>2026-04-22T10:13:50-07:00</time>
</trkpt>
<trkpt lat="38.20452" lon="-120.40118">
<ele>1026.3</ele>
<time>2026-04-22T10:13:51-07:00</time>
</trkpt>
<trkpt lat="38.20454" lon="-120.40113">
<ele>1027.4</ele>
<time>2026-04-22T10:13:52-07:00</time>
</trkpt>
<trkpt lat="38.20462" lon="-120.40109">
<ele>1028.8</ele>
<time>2026-04-22T10:13:53-07:00</time>
</trkpt>
<trkpt lat="38.20465" lon="-120.40112">
<ele>1028.1</ele>
<time>2026-04-22T10:13:54-07:00</time>
</trkpt>
<trkpt lat="38.20477" lon="-120.40115">
<ele>1030</ele>
<time>2026-04-22T10:13:55-07:00</time>
</trkpt>
<trkpt lat="38.20479" lon="-120.4012">
<ele>1030</ele>
<time>2026-04-22T10:13:56-07:00</time>
</trkpt>
<trkpt lat="38.20478" lon="-120.40128">
<ele>1032.1</ele>
<time>2026-04-22T10:13:57-07:00</time>
</trkpt>
<trkpt lat="38.20479" lon="-120.4013">
<ele>1033.3</ele>
<time>2026-04-22T10:13:58-07:00</time>
</trkpt>
<trkpt lat="38.20474" lon="-120.40162">
<ele>1034.1</ele>
<time>2026-04-22T10:13:59-07:00</time>
</trkpt>
<trkpt lat="38.20476" lon="-120.40177">
<ele>1034.1</ele>
<time>2026-04-22T10:14:00-07:00</time>
</trkpt>
<trkpt lat="38.20476" lon="-120.40205">
<ele>1033.7</ele>
<time>2026-04-22T10:14:01-07:00</time>
</trkpt>
<trkpt lat="38.20483" lon="-120.40242">
<ele>1033</ele>
<time>2026-04-22T10:14:02-07:00</time>
</trkpt>
<trkpt lat="38.2049" lon="-120.40254">
<ele>1032.8</ele>
<time>2026-04-22T10:14:03-07:00</time>
</trkpt>
<trkpt lat="38.20494" lon="-120.40257">
<ele>1032.8</ele>
<time>2026-04-22T10:14:04-07:00</time>
</trkpt>
<trkpt lat="38.20498" lon="-120.40257">
<ele>1032.8</ele>
<time>2026-04-22T10:14:05-07:00</time>
</trkpt>
<trkpt lat="38.20506" lon="-120.40248">
<ele>1032.8</ele>
<time>2026-04-22T10:14:06-07:00</time>
</trkpt>
<trkpt lat="38.20516" lon="-120.40201">
<ele>1036.1</ele>
<time>2026-04-22T10:14:07-07:00</time>
</trkpt>
<trkpt lat="38.20517" lon="-120.40182">
<ele>1037.6</ele>
<time>2026-04-22T10:14:08-07:00</time>
</trkpt>
<trkpt lat="38.20516" lon="-120.40167">
<ele>1038.1</ele>
<time>2026-04-22T10:14:09-07:00</time>
</trkpt>
<trkpt lat="38.2051" lon="-120.40154">
<ele>1039.1</ele>
<time>2026-04-22T10:14:10-07:00</time>
</trkpt>
<trkpt lat="38.20509" lon="-120.40146">
<ele>1038.9</ele>
<time>2026-04-22T10:14:11-07:00</time>
</trkpt>
<trkpt lat="38.20511" lon="-120.40135">
<ele>1040.2</ele>
<time>2026-04-22T10:14:12-07:00</time>
</trkpt>
<trkpt lat="38.20518" lon="-120.40122">
<ele>1040.7</ele>
<time>2026-04-22T10:14:13-07:00</time>
</trkpt>
<trkpt lat="38.20525" lon="-120.40117">
<ele>1042.2</ele>
<time>2026-04-22T10:14:14-07:00</time>
</trkpt>
<trkpt lat="38.20539" lon="-120.40115">
<ele>1045.2</ele>
<time>2026-04-22T10:14:15-07:00</time>
</trkpt>
<trkpt lat="38.20559" lon="-120.40107">
<ele>1048.3</ele>
<time>2026-04-22T10:14:16-07:00</time>
</trkpt>
<trkpt lat="38.20568" lon="-120.40106">
<ele>1049.1</ele>
<time>2026-04-22T10:14:17-07:00</time>
</trkpt>
<trkpt lat="38.20571" lon="-120.40102">
<ele>1049.1</ele>
<time>2026-04-22T10:14:18-07:00</time>
</trkpt>
<trkpt lat="38.20574" lon="-120.40087">
<ele>1051.9</ele>
<time>2026-04-22T10:14:19-07:00</time>
</trkpt>
<trkpt lat="38.2058" lon="-120.40077">
<ele>1053.6</ele>
<time>2026-04-22T10:14:20-07:00</time>
</trkpt>
<trkpt lat="38.20588" lon="-120.40068">
<ele>1054.8</ele>
<time>2026-04-22T10:14:21-07:00</time>
</trkpt>
<trkpt lat="38.20591" lon="-120.40067">
<ele>1054.8</ele>
<time>2026-04-22T10:14:22-07:00</time>
</trkpt>
<trkpt lat="38.20599" lon="-120.40059">
<ele>1056.6</ele>
<time>2026-04-22T10:14:23-07:00</time>
</trkpt>
<trkpt lat="38.20623" lon="-120.40061">
<ele>1056.9</ele>
<time>2026-04-22T10:14:24-07:00</time>
</trkpt>
<trkpt lat="38.20628" lon="-120.40058">
<ele>1056.9</ele>
<time>2026-04-22T10:14:25-07:00</time>
</trkpt>
<trkpt lat="38.2063" lon="-120.40054">
<ele>1057.7</ele>
<time>2026-04-22T10:14:26-07:00</time>
</trkpt>
<trkpt lat="38.20641" lon="-120.40049">
<ele>1058.3</ele>
<time>2026-04-22T10:14:27-07:00</time>
</trkpt>
<trkpt lat="38.20651" lon="-120.40042">
<ele>1060.6</ele>
<time>2026-04-22T10:14:28-07:00</time>
</trkpt>
<trkpt lat="38.20658" lon="-120.4004">
<ele>1060</ele>
<time>2026-04-22T10:14:29-07:00</time>
</trkpt>
<trkpt lat="38.20657" lon="-120.40035">
<ele>1063</ele>
<time>2026-04-22T10:14:30-07:00</time>
</trkpt>
<trkpt lat="38.2065" lon="-120.40027">
<ele>1065.4</ele>
<time>2026-04-22T10:14:31-07:00</time>
</trkpt>
<trkpt lat="38.20642" lon="-120.40019">
<ele>1064.9</ele>
<time>2026-04-22T10:14:32-07:00</time>
</trkpt>
<trkpt lat="38.20635" lon="-120.40016">
<ele>1068.2</ele>
<time>2026-04-22T10:14:33-07:00</time>
</trkpt>
<trkpt lat="38.20635" lon="-120.40013">
<ele>1068.2</ele>
<time>2026-04-22T10:14:34-07:00</time>
</trkpt>
<trkpt lat="38.20637" lon="-120.40011">
<ele>1068.2</ele>
<time>2026-04-22T10:14:35-07:00</time>
</trkpt>
<trkpt lat="38.20648" lon="-120.40005">
<ele>1070.2</ele>
<time>2026-04-22T10:14:36-07:00</time>
</trkpt>
<trkpt lat="38.20656" lon="-120.39998">
<ele>1072.9</ele>
<time>2026-04-22T10:14:37-07:00</time>
</trkpt>
<trkpt lat="38.20655" lon="-120.39996">
<ele>1072.9</ele>
<time>2026-04-22T10:14:38-07:00</time>
</trkpt>
<trkpt lat="38.20623" lon="-120.39993">
<ele>1074.6</ele>
<time>2026-04-22T10:14:39-07:00</time>
</trkpt>
<trkpt lat="38.20621" lon="-120.39991">
<ele>1074.6</ele>
<time>2026-04-22T10:14:40-07:00</time>
</trkpt>
<trkpt lat="38.20624" lon="-120.39986">
<ele>1077.9</ele>
<time>2026-04-22T10:14:41-07:00</time>
</trkpt>
<trkpt lat="38.20644" lon="-120.39976">
<ele>1081</ele>
<time>2026-04-22T10:14:42-07:00</time>
</trkpt>
<trkpt lat="38.20612" lon="-120.39961">
<ele>1087.9</ele>
<time>2026-04-22T10:14:43-07:00</time>
</trkpt>
<trkpt lat="38.20608" lon="-120.39956">
<ele>1086.4</ele>
<time>2026-04-22T10:14:44-07:00</time>
</trkpt>
<trkpt lat="38.20597" lon="-120.39932">
<ele>1090.2</ele>
<time>2026-04-22T10:14:45-07:00</time>
</trkpt>
<trkpt lat="38.2059" lon="-120.39922">
<ele>1090.8</ele>
<time>2026-04-22T10:14:46-07:00</time>
</trkpt>
<trkpt lat="38.20592" lon="-120.39921">
<ele>1090.8</ele>
<time>2026-04-22T10:14:47-07:00</time>
</trkpt>
<trkpt lat="38.206" lon="-120.39924">
<ele>1093.2</ele>
<time>2026-04-22T10:14:48-07:00</time>
</trkpt>
<trkpt lat="38.20612" lon="-120.39934">
<ele>1096.4</ele>
<time>2026-04-22T10:14:49-07:00</time>
</trkpt>
<trkpt lat="38.20628" lon="-120.3994">
<ele>1095.2</ele>
<time>2026-04-22T10:14:50-07:00</time>
</trkpt>
<trkpt lat="38.20638" lon="-120.39941">
<ele>1096.1</ele>
<time>2026-04-22T10:14:51-07:00</time>
</trkpt>
<trkpt lat="38.2064" lon="-120.3994">
<ele>1096.6</ele>
<time>2026-04-22T10:14:52-07:00</time>
</trkpt>
<trkpt lat="38.2064" lon="-120.39938">
<ele>1096.6</ele>
<time>2026-04-22T10:14:53-07:00</time>
</trkpt>
<trkpt lat="38.20635" lon="-120.39936">
<ele>1096.1</ele>
<time>2026-04-22T10:14:54-07:00</time>
</trkpt>
<trkpt lat="38.20623" lon="-120.39922">
<ele>1101</ele>
<time>2026-04-22T10:14:55-07:00</time>
</trkpt>
<trkpt lat="38.20617" lon="-120.399">
<ele>1104.1</ele>
<time>2026-04-22T10:14:56-07:00</time>
</trkpt>
<trkpt lat="38.20611" lon="-120.3989">
<ele>1104.1</ele>
<time>2026-04-22T10:14:57-07:00</time>
</trkpt>
<trkpt lat="38.20613" lon="-120.39888">
<ele>1109</ele>
<time>2026-04-22T10:14:58-07:00</time>
</trkpt>
<trkpt lat="38.20635" lon="-120.39899">
<ele>1107.6</ele>
<time>2026-04-22T10:14:59-07:00</time>
</trkpt>
<trkpt lat="38.20644" lon="-120.39899">
<ele>1109.2</ele>
<time>2026-04-22T10:15:00-07:00</time>
</trkpt>
<trkpt lat="38.20661" lon="-120.39897">
<ele>1113.7</ele>
<time>2026-04-22T10:15:01-07:00</time>
</trkpt>
<trkpt lat="38.20674" lon="-120.39892">
<ele>1115.1</ele>
<time>2026-04-22T10:15:02-07:00</time>
</trkpt>
<trkpt lat="38.20675" lon="-120.39889">
<ele>1115.1</ele>
<time>2026-04-22T10:15:03-07:00</time>
</trkpt>
<trkpt lat="38.20666" lon="-120.39877">
<ele>1118.3</ele>
<time>2026-04-22T10:15:04-07:00</time>
</trkpt>
<trkpt lat="38.20642" lon="-120.39853">
<ele>1120.9</ele>
<time>2026-04-22T10:15:05-07:00</time>
</trkpt>
<trkpt lat="38.20635" lon="-120.39838">
<ele>1123.7</ele>
<time>2026-04-22T10:15:06-07:00</time>
</trkpt>
<trkpt lat="38.20639" lon="-120.39833">
<ele>1126.8</ele>
<time>2026-04-22T10:15:07-07:00</time>
</trkpt>
<trkpt lat="38.20646" lon="-120.39833">
<ele>1126.8</ele>
<time>2026-04-22T10:15:08-07:00</time>
</trkpt>
<trkpt lat="38.20662" lon="-120.39841">
<ele>1127.3</ele>
<time>2026-04-22T10:15:09-07:00</time>
</trkpt>
<trkpt lat="38.2067" lon="-120.39843">
<ele>1125.6</ele>
<time>2026-04-22T10:15:10-07:00</time>
</trkpt>
<trkpt lat="38.20697" lon="-120.39843">
<ele>1127.3</ele>
<time>2026-04-22T10:15:11-07:00</time>
</trkpt>
<trkpt lat="38.20708" lon="-120.39837">
<ele>1129.4</ele>
<time>2026-04-22T10:15:12-07:00</time>
</trkpt>
<trkpt lat="38.20714" lon="-120.39828">
<ele>1129.7</ele>
<time>2026-04-22T10:15:13-07:00</time>
</trkpt>
<trkpt lat="38.20715" lon="-120.3982">
<ele>1131.6</ele>
<time>2026-04-22T10:15:14-07:00</time>
</trkpt>
<trkpt lat="38.20711" lon="-120.39817">
<ele>1133.3</ele>
<time>2026-04-22T10:15:15-07:00</time>
</trkpt>
<trkpt lat="38.20694" lon="-120.39811">
<ele>1135.9</ele>
<time>2026-04-22T10:15:16-07:00</time>
</trkpt>
<trkpt lat="38.2068" lon="-120.39809">
<ele>1135.4</ele>
<time>2026-04-22T10:15:17-07:00</time>
</trkpt>
<trkpt lat="38.20675" lon="-120.398">
<ele>1136.5</ele>
<time>2026-04-22T10:15:18-07:00</time>
</trkpt>
<trkpt lat="38.20676" lon="-120.39793">
<ele>1138.8</ele>
<time>2026-04-22T10:15:19-07:00</time>
</trkpt>
<trkpt lat="38.20684" lon="-120.39787">
<ele>1140.1</ele>
<time>2026-04-22T10:15:20-07:00</time>
</trkpt>
<trkpt lat="38.20691" lon="-120.39764">
<ele>1142.6</ele>
<time>2026-04-22T10:15:21-07:00</time>
</trkpt>
<trkpt lat="38.20697" lon="-120.39758">
<ele>1143.4</ele>
<time>2026-04-22T10:15:22-07:00</time>
</trkpt>
<trkpt lat="38.20698" lon="-120.39752">
<ele>1143.4</ele>
<time>2026-04-22T10:15:23-07:00</time>
</trkpt>
<trkpt lat="38.20697" lon="-120.39748">
<ele>1144.4</ele>
<time>2026-04-22T10:15:24-07:00</time>
</trkpt>
<trkpt lat="38.20685" lon="-120.3974">
<ele>1147</ele>
<time>2026-04-22T10:15:25-07:00</time>
</trkpt>
<trkpt lat="38.20673" lon="-120.39739">
<ele>1147.4</ele>
<time>2026-04-22T10:15:26-07:00</time>
</trkpt>
<trkpt lat="38.20658" lon="-120.39734">
<ele>1147.5</ele>
<time>2026-04-22T10:15:27-07:00</time>
</trkpt>
<trkpt lat="38.2065" lon="-120.39727">
<ele>1149.3</ele>
<time>2026-04-22T10:15:28-07:00</time>
</trkpt>
<trkpt lat="38.20628" lon="-120.39716">
<ele>1150.1</ele>
<time>2026-04-22T10:15:29-07:00</time>
</trkpt>
<trkpt lat="38.20624" lon="-120.3971">
<ele>1152.4</ele>
<time>2026-04-22T10:15:30-07:00</time>
</trkpt>
<trkpt lat="38.20622" lon="-120.39703">
<ele>1154.6</ele>
<time>2026-04-22T10:15:31-07:00</time>
</trkpt>
<trkpt lat="38.20623" lon="-120.39696">
<ele>1154.6</ele>
<time>2026-04-22T10:15:32-07:00</time>
</trkpt>
<trkpt lat="38.2062" lon="-120.3968">
<ele>1157.2</ele>
<time>2026-04-22T10:15:33-07:00</time>
</trkpt>
<trkpt lat="38.2061" lon="-120.39669">
<ele>1158.2</ele>
<time>2026-04-22T10:15:34-07:00</time>
</trkpt>
<trkpt lat="38.20591" lon="-120.39656">
<ele>1159.5</ele>
<time>2026-04-22T10:15:35-07:00</time>
</trkpt>
<trkpt lat="38.20588" lon="-120.3965">
<ele>1159.5</ele>
<time>2026-04-22T10:15:36-07:00</time>
</trkpt>
<trkpt lat="38.2057" lon="-120.39627">
<ele>1162.6</ele>
<time>2026-04-22T10:15:37-07:00</time>
</trkpt>
<trkpt lat="38.20568" lon="-120.39617">
<ele>1163.5</ele>
<time>2026-04-22T10:15:38-07:00</time>
</trkpt>
<trkpt lat="38.20579" lon="-120.39595">
<ele>1164.8</ele>
<time>2026-04-22T10:15:39-07:00</time>
</trkpt>
<trkpt lat="38.20581" lon="-120.39588">
<ele>1165.4</ele>
<time>2026-04-22T10:15:40-07:00</time>
</trkpt>
<trkpt lat="38.20597" lon="-120.39573">
<ele>1166.5</ele>
<time>2026-04-22T10:15:41-07:00</time>
</trkpt>
<trkpt lat="38.20608" lon="-120.39555">
<ele>1167.3</ele>
<time>2026-04-22T10:15:42-07:00</time>
</trkpt>
<trkpt lat="38.2061" lon="-120.39543">
<ele>1167.8</ele>
<time>2026-04-22T10:15:43-07:00</time>
</trkpt>
<trkpt lat="38.20617" lon="-120.39527">
<ele>1167.8</ele>
<time>2026-04-22T10:15:44-07:00</time>
</trkpt>
<trkpt lat="38.20621" lon="-120.39511">
<ele>1167.4</ele>
<time>2026-04-22T10:15:45-07:00</time>
</trkpt>
<trkpt lat="38.20635" lon="-120.3948">
<ele>1167.9</ele>
<time>2026-04-22T10:15:46-07:00</time>
</trkpt>
<trkpt lat="38.20644" lon="-120.39476">
<ele>1167.6</ele>
<time>2026-04-22T10:15:47-07:00</time>
</trkpt>
<trkpt lat="38.20661" lon="-120.39474">
<ele>1167.7</ele>
<time>2026-04-22T10:15:48-07:00</time>
</trkpt>
<trkpt lat="38.20695" lon="-120.39486">
<ele>1168.4</ele>
<time>2026-04-22T10:15:49-07:00</time>
</trkpt>
<trkpt lat="38.20713" lon="-120.39494">
<ele>1168.5</ele>
<time>2026-04-22T10:15:50-07:00</time>
</trkpt>
<trkpt lat="38.20727" lon="-120.39495">
<ele>1168.7</ele>
<time>2026-04-22T10:15:51-07:00</time>
</trkpt>
<trkpt lat="38.20745" lon="-120.39493">
<ele>1168.9</ele>
<time>2026-04-22T10:15:52-07:00</time>
</trkpt>
<trkpt lat="38.20749" lon="-120.39491">
<ele>1168.9</ele>
<time>2026-04-22T10:15:53-07:00</time>
</trkpt>
<trkpt lat="38.20753" lon="-120.39486">
<ele>1169.1</ele>
<time>2026-04-22T10:15:54-07:00</time>
</trkpt>
<trkpt lat="38.20758" lon="-120.39468">
<ele>1170.3</ele>
<time>2026-04-22T10:15:55-07:00</time>
</trkpt>
<trkpt lat="38.20762" lon="-120.39462">
<ele>1169.9</ele>
<time>2026-04-22T10:15:56-07:00</time>
</trkpt>
<trkpt lat="38.20767" lon="-120.39449">
<ele>1170.5</ele>
<time>2026-04-22T10:15:57-07:00</time>
</trkpt>
<trkpt lat="38.20776" lon="-120.39402">
<ele>1170.8</ele>
<time>2026-04-22T10:15:58-07:00</time>
</trkpt>
<trkpt lat="38.20776" lon="-120.39394">
<ele>1170.9</ele>
<time>2026-04-22T10:15:59-07:00</time>
</trkpt>
<trkpt lat="38.20772" lon="-120.3938">
<ele>1170.9</ele>
<time>2026-04-22T10:16:00-07:00</time>
</trkpt>
<trkpt lat="38.20772" lon="-120.39347">
<ele>1171.1</ele>
<time>2026-04-22T10:16:01-07:00</time>
</trkpt>
<trkpt lat="38.20774" lon="-120.39318">
<ele>1171.5</ele>
<time>2026-04-22T10:16:02-07:00</time>
</trkpt>
<trkpt lat="38.20781" lon="-120.39287">
<ele>1172.6</ele>
<time>2026-04-22T10:16:03-07:00</time>
</trkpt>
<trkpt lat="38.20781" lon="-120.39272">
<ele>1172.8</ele>
<time>2026-04-22T10:16:04-07:00</time>
</trkpt>
<trkpt lat="38.20776" lon="-120.39245">
<ele>1175.2</ele>
<time>2026-04-22T10:16:05-07:00</time>
</trkpt>
<trkpt lat="38.20778" lon="-120.39201">
<ele>1176.7</ele>
<time>2026-04-22T10:16:06-07:00</time>
</trkpt>
<trkpt lat="38.20779" lon="-120.39197">
<ele>1176.7</ele>
<time>2026-04-22T10:16:07-07:00</time>
</trkpt>
<trkpt lat="38.20787" lon="-120.39188">
<ele>1177</ele>
<time>2026-04-22T10:16:08-07:00</time>
</trkpt>
<trkpt lat="38.20792" lon="-120.39176">
<ele>1176.7</ele>
<time>2026-04-22T10:16:09-07:00</time>
</trkpt>
<trkpt lat="38.20805" lon="-120.39167">
<ele>1176.8</ele>
<time>2026-04-22T10:16:10-07:00</time>
</trkpt>
<trkpt lat="38.2081" lon="-120.39158">
<ele>1176.9</ele>
<time>2026-04-22T10:16:11-07:00</time>
</trkpt>
<trkpt lat="38.20819" lon="-120.3913">
<ele>1178.2</ele>
<time>2026-04-22T10:16:12-07:00</time>
</trkpt>
<trkpt lat="38.2082" lon="-120.39111">
<ele>1180.1</ele>
<time>2026-04-22T10:16:13-07:00</time>
</trkpt>
<trkpt lat="38.20832" lon="-120.39075">
<ele>1180.2</ele>
<time>2026-04-22T10:16:14-07:00</time>
</trkpt>
<trkpt lat="38.20832" lon="-120.39059">
<ele>1181.3</ele>
<time>2026-04-22T10:16:15-07:00</time>
</trkpt>
<trkpt lat="38.2083" lon="-120.39051">
<ele>1182</ele>
<time>2026-04-22T10:16:16-07:00</time>
</trkpt>
<trkpt lat="38.20832" lon="-120.39033">
<ele>1183.1</ele>
<time>2026-04-22T10:16:17-07:00</time>
</trkpt>
<trkpt lat="38.2083" lon="-120.39025">
<ele>1183.9</ele>
<time>2026-04-22T10:16:18-07:00</time>
</trkpt>
<trkpt lat="38.20824" lon="-120.39014">
<ele>1184.9</ele>
<time>2026-04-22T10:16:19-07:00</time>
</trkpt>
<trkpt lat="38.20816" lon="-120.39007">
<ele>1185.4</ele>
<time>2026-04-22T10:16:20-07:00</time>
</trkpt>
<trkpt lat="38.20812" lon="-120.39001">
<ele>1186.1</ele>
<time>2026-04-22T10:16:21-07:00</time>
</trkpt>
<trkpt lat="38.20819" lon="-120.38982">
<ele>1186.7</ele>
<time>2026-04-22T10:16:22-07:00</time>
</trkpt>
<trkpt lat="38.2082" lon="-120.38975">
<ele>1187.3</ele>
<time>2026-04-22T10:16:23-07:00</time>
</trkpt>
<trkpt lat="38.20819" lon="-120.38964">
<ele>1187.9</ele>
<time>2026-04-22T10:16:24-07:00</time>
</trkpt>
<trkpt lat="38.20815" lon="-120.38952">
<ele>1188.9</ele>
<time>2026-04-22T10:16:25-07:00</time>
</trkpt>
<trkpt lat="38.20811" lon="-120.38947">
<ele>1189</ele>
<time>2026-04-22T10:16:26-07:00</time>
</trkpt>
<trkpt lat="38.20803" lon="-120.38942">
<ele>1189.2</ele>
<time>2026-04-22T10:16:27-07:00</time>
</trkpt>
<trkpt lat="38.20794" lon="-120.3894">
<ele>1189.1</ele>
<time>2026-04-22T10:16:28-07:00</time>
</trkpt>
<trkpt lat="38.20785" lon="-120.3895">
<ele>1189</ele>
<time>2026-04-22T10:16:29-07:00</time>
</trkpt>
<trkpt lat="38.20779" lon="-120.3896">
<ele>1188.7</ele>
<time>2026-04-22T10:16:30-07:00</time>
</trkpt>
<trkpt lat="38.20765" lon="-120.38973">
<ele>1188.4</ele>
<time>2026-04-22T10:16:31-07:00</time>
</trkpt>
<trkpt lat="38.20753" lon="-120.38998">
<ele>1188.5</ele>
<time>2026-04-22T10:16:32-07:00</time>
</trkpt>
<trkpt lat="38.20752" lon="-120.39014">
<ele>1188.4</ele>
<time>2026-04-22T10:16:33-07:00</time>
</trkpt>
<trkpt lat="38.20754" lon="-120.39024">
<ele>1188.4</ele>
<time>2026-04-22T10:16:34-07:00</time>
</trkpt>
<trkpt lat="38.20764" lon="-120.39044">
<ele>1187.7</ele>
<time>2026-04-22T10:16:35-07:00</time>
</trkpt>
<trkpt lat="38.20762" lon="-120.39053">
<ele>1187.4</ele>
<time>2026-04-22T10:16:36-07:00</time>
</trkpt>
<trkpt lat="38.20768" lon="-120.39064">
<ele>1187.1</ele>
<time>2026-04-22T10:16:37-07:00</time>
</trkpt>
<trkpt lat="38.20767" lon="-120.39083">
<ele>1186.3</ele>
<time>2026-04-22T10:16:38-07:00</time>
</trkpt>
<trkpt lat="38.20763" lon="-120.39091">
<ele>1186.1</ele>
<time>2026-04-22T10:16:39-07:00</time>
</trkpt>
<trkpt lat="38.2076" lon="-120.39093">
<ele>1185.8</ele>
<time>2026-04-22T10:16:40-07:00</time>
</trkpt>
<trkpt lat="38.20756" lon="-120.39102">
<ele>1185.2</ele>
<time>2026-04-22T10:16:41-07:00</time>
</trkpt>
<trkpt lat="38.20756" lon="-120.39131">
<ele>1183.3</ele>
<time>2026-04-22T10:16:42-07:00</time>
</trkpt>
<trkpt lat="38.20754" lon="-120.39141">
<ele>1182.5</ele>
<time>2026-04-22T10:16:43-07:00</time>
</trkpt>
<trkpt lat="38.20747" lon="-120.39155">
<ele>1182.6</ele>
<time>2026-04-22T10:16:44-07:00</time>
</trkpt>
<trkpt lat="38.20741" lon="-120.3916">
<ele>1182.2</ele>
<time>2026-04-22T10:16:45-07:00</time>
</trkpt>
<trkpt lat="38.20736" lon="-120.39167">
<ele>1182.6</ele>
<time>2026-04-22T10:16:46-07:00</time>
</trkpt>
<trkpt lat="38.20729" lon="-120.39171">
<ele>1183.9</ele>
<time>2026-04-22T10:16:47-07:00</time>
</trkpt>
<trkpt lat="38.20726" lon="-120.39184">
<ele>1183.2</ele>
<time>2026-04-22T10:16:48-07:00</time>
</trkpt>
<trkpt lat="38.20721" lon="-120.39188">
<ele>1183.7</ele>
<time>2026-04-22T10:16:49-07:00</time>
</trkpt>
<trkpt lat="38.20706" lon="-120.39191">
<ele>1184.6</ele>
<time>2026-04-22T10:16:50-07:00</time>
</trkpt>
<trkpt lat="38.20702" lon="-120.39195">
<ele>1185</ele>
<time>2026-04-22T10:16:51-07:00</time>
</trkpt>
<trkpt lat="38.20688" lon="-120.39214">
<ele>1184.7</ele>
<time>2026-04-22T10:16:52-07:00</time>
</trkpt>
<trkpt lat="38.20682" lon="-120.39227">
<ele>1184.6</ele>
<time>2026-04-22T10:16:53-07:00</time>
</trkpt>
<trkpt lat="38.20677" lon="-120.39234">
<ele>1184</ele>
<time>2026-04-22T10:16:54-07:00</time>
</trkpt>
<trkpt lat="38.20666" lon="-120.39235">
<ele>1184.9</ele>
<time>2026-04-22T10:16:55-07:00</time>
</trkpt>
<trkpt lat="38.20662" lon="-120.39231">
<ele>1185.3</ele>
<time>2026-04-22T10:16:56-07:00</time>
</trkpt>
<trkpt lat="38.20656" lon="-120.39229">
<ele>1185.4</ele>
<time>2026-04-22T10:16:57-07:00</time>
</trkpt>
<trkpt lat="38.20633" lon="-120.39235">
<ele>1184.9</ele>
<time>2026-04-22T10:16:58-07:00</time>
</trkpt>
<trkpt lat="38.20618" lon="-120.39233">
<ele>1185.2</ele>
<time>2026-04-22T10:16:59-07:00</time>
</trkpt>
<trkpt lat="38.20615" lon="-120.39241">
<ele>1184.8</ele>
<time>2026-04-22T10:17:00-07:00</time>
</trkpt>
<trkpt lat="38.20615" lon="-120.39248">
<ele>1184.8</ele>
<time>2026-04-22T10:17:01-07:00</time>
</trkpt>
<trkpt lat="38.20617" lon="-120.39253">
<ele>1184.2</ele>
<time>2026-04-22T10:17:02-07:00</time>
</trkpt>
<trkpt lat="38.20615" lon="-120.39259">
<ele>1184.2</ele>
<time>2026-04-22T10:17:03-07:00</time>
</trkpt>
<trkpt lat="38.20606" lon="-120.39274">
<ele>1182.8</ele>
<time>2026-04-22T10:17:04-07:00</time>
</trkpt>
<trkpt lat="38.20588" lon="-120.39287">
<ele>1181.9</ele>
<time>2026-04-22T10:17:05-07:00</time>
</trkpt>
<trkpt lat="38.20579" lon="-120.3929">
<ele>1181.2</ele>
<time>2026-04-22T10:17:06-07:00</time>
</trkpt>
<trkpt lat="38.20565" lon="-120.3929">
<ele>1180.8</ele>
<time>2026-04-22T10:17:07-07:00</time>
</trkpt>
<trkpt lat="38.20548" lon="-120.39285">
<ele>1181.1</ele>
<time>2026-04-22T10:17:08-07:00</time>
</trkpt>
<trkpt lat="38.20532" lon="-120.39276">
<ele>1181.6</ele>
<time>2026-04-22T10:17:09-07:00</time>
</trkpt>
<trkpt lat="38.20523" lon="-120.39277">
<ele>1181.7</ele>
<time>2026-04-22T10:17:10-07:00</time>
</trkpt>
<trkpt lat="38.20518" lon="-120.39275">
<ele>1182</ele>
<time>2026-04-22T10:17:11-07:00</time>
</trkpt>
<trkpt lat="38.20514" lon="-120.39277">
<ele>1182</ele>
<time>2026-04-22T10:17:12-07:00</time>
</trkpt>
<trkpt lat="38.20505" lon="-120.39295">
<ele>1182.3</ele>
<time>2026-04-22T10:17:13-07:00</time>
</trkpt>
<trkpt lat="38.20496" lon="-120.39307">
<ele>1183.6</ele>
<time>2026-04-22T10:17:14-07:00</time>
</trkpt>
<trkpt lat="38.20488" lon="-120.39312">
<ele>1184.2</ele>
<time>2026-04-22T10:17:15-07:00</time>
</trkpt>
<trkpt lat="38.20482" lon="-120.39313">
<ele>1184.2</ele>
<time>2026-04-22T10:17:16-07:00</time>
</trkpt>
<trkpt lat="38.20472" lon="-120.39309">
<ele>1185.7</ele>
<time>2026-04-22T10:17:17-07:00</time>
</trkpt>
<trkpt lat="38.20468" lon="-120.39313">
<ele>1185.7</ele>
<time>2026-04-22T10:17:18-07:00</time>
</trkpt>
<trkpt lat="38.20463" lon="-120.39325">
<ele>1185.8</ele>
<time>2026-04-22T10:17:19-07:00</time>
</trkpt>
<trkpt lat="38.20454" lon="-120.39332">
<ele>1186.5</ele>
<time>2026-04-22T10:17:20-07:00</time>
</trkpt>
<trkpt lat="38.20436" lon="-120.39336">
<ele>1187.5</ele>
<time>2026-04-22T10:17:21-07:00</time>
</trkpt>
<trkpt lat="38.20431" lon="-120.39339">
<ele>1187.8</ele>
<time>2026-04-22T10:17:22-07:00</time>
</trkpt>
<trkpt lat="38.20424" lon="-120.3935">
<ele>1188.3</ele>
<time>2026-04-22T10:17:23-07:00</time>
</trkpt>
<trkpt lat="38.2042" lon="-120.39365">
<ele>1188.3</ele>
<time>2026-04-22T10:17:24-07:00</time>
</trkpt>
<trkpt lat="38.20414" lon="-120.39378">
<ele>1188.6</ele>
<time>2026-04-22T10:17:25-07:00</time>
</trkpt>
<trkpt lat="38.20406" lon="-120.39388">
<ele>1189.3</ele>
<time>2026-04-22T10:17:26-07:00</time>
</trkpt>
<trkpt lat="38.20393" lon="-120.39394">
<ele>1189.7</ele>
<time>2026-04-22T10:17:27-07:00</time>
</trkpt>
<trkpt lat="38.2038" lon="-120.39394">
<ele>1190.2</ele>
<time>2026-04-22T10:17:28-07:00</time>
</trkpt>
<trkpt lat="38.20371" lon="-120.3939">
<ele>1190.7</ele>
<time>2026-04-22T10:17:29-07:00</time>
</trkpt>
<trkpt lat="38.2036" lon="-120.3938">
<ele>1190.1</ele>
<time>2026-04-22T10:17:30-07:00</time>
</trkpt>
<trkpt lat="38.20353" lon="-120.39377">
<ele>1188.9</ele>
<time>2026-04-22T10:17:31-07:00</time>
</trkpt>
<trkpt lat="38.20342" lon="-120.39383">
<ele>1188.7</ele>
<time>2026-04-22T10:17:32-07:00</time>
</trkpt>
<trkpt lat="38.20336" lon="-120.3939">
<ele>1190</ele>
<time>2026-04-22T10:17:33-07:00</time>
</trkpt>
<trkpt lat="38.2033" lon="-120.39392">
<ele>1189.2</ele>
<time>2026-04-22T10:17:34-07:00</time>
</trkpt>
<trkpt lat="38.20319" lon="-120.3939">
<ele>1188.1</ele>
<time>2026-04-22T10:17:35-07:00</time>
</trkpt>
<trkpt lat="38.2031" lon="-120.39392">
<ele>1186.5</ele>
<time>2026-04-22T10:17:36-07:00</time>
</trkpt>
<trkpt lat="38.20301" lon="-120.39389">
<ele>1184.5</ele>
<time>2026-04-22T10:17:37-07:00</time>
</trkpt>
<trkpt lat="38.20297" lon="-120.39381">
<ele>1183.8</ele>
<time>2026-04-22T10:17:38-07:00</time>
</trkpt>
<trkpt lat="38.20295" lon="-120.39368">
<ele>1181.1</ele>
<time>2026-04-22T10:17:39-07:00</time>
</trkpt>
<trkpt lat="38.20304" lon="-120.39351">
<ele>1180.4</ele>
<time>2026-04-22T10:17:40-07:00</time>
</trkpt>
<trkpt lat="38.20304" lon="-120.39347">
<ele>1180.4</ele>
<time>2026-04-22T10:17:41-07:00</time>
</trkpt>
<trkpt lat="38.20313" lon="-120.39344">
<ele>1182.1</ele>
<time>2026-04-22T10:17:42-07:00</time>
</trkpt>
<trkpt lat="38.20328" lon="-120.39343">
<ele>1184.2</ele>
<time>2026-04-22T10:17:43-07:00</time>
</trkpt>
<trkpt lat="38.20351" lon="-120.39338">
<ele>1185.1</ele>
<time>2026-04-22T10:17:44-07:00</time>
</trkpt>
<trkpt lat="38.20398" lon="-120.39299">
<ele>1187.5</ele>
<time>2026-04-22T10:17:45-07:00</time>
</trkpt>
<trkpt lat="38.20426" lon="-120.39282">
<ele>1186.7</ele>
<time>2026-04-22T10:17:46-07:00</time>
</trkpt>
<trkpt lat="38.20443" lon="-120.39275">
<ele>1185.7</ele>
<time>2026-04-22T10:17:47-07:00</time>
</trkpt>
<trkpt lat="38.20467" lon="-120.39258">
<ele>1184.3</ele>
<time>2026-04-22T10:17:48-07:00</time>
</trkpt>
<trkpt lat="38.20472" lon="-120.3925">
<ele>1184.6</ele>
<time>2026-04-22T10:17:49-07:00</time>
</trkpt>
<trkpt lat="38.20478" lon="-120.39232">
<ele>1183.6</ele>
<time>2026-04-22T10:17:50-07:00</time>
</trkpt>
<trkpt lat="38.20488" lon="-120.39216">
<ele>1182.9</ele>
<time>2026-04-22T10:17:51-07:00</time>
</trkpt>
<trkpt lat="38.20492" lon="-120.39194">
<ele>1183</ele>
<time>2026-04-22T10:17:52-07:00</time>
</trkpt>
<trkpt lat="38.20491" lon="-120.39177">
<ele>1182.9</ele>
<time>2026-04-22T10:17:53-07:00</time>
</trkpt>
<trkpt lat="38.20487" lon="-120.39165">
<ele>1183.1</ele>
<time>2026-04-22T10:17:54-07:00</time>
</trkpt>
<trkpt lat="38.20489" lon="-120.39156">
<ele>1183.2</ele>
<time>2026-04-22T10:17:55-07:00</time>
</trkpt>
<trkpt lat="38.20488" lon="-120.39151">
<ele>1183.2</ele>
<time>2026-04-22T10:17:56-07:00</time>
</trkpt>
<trkpt lat="38.2049" lon="-120.39143">
<ele>1182.9</ele>
<time>2026-04-22T10:17:57-07:00</time>
</trkpt>
<trkpt lat="38.2049" lon="-120.39134">
<ele>1183.2</ele>
<time>2026-04-22T10:17:58-07:00</time>
</trkpt>
<trkpt lat="38.20485" lon="-120.39126">
<ele>1183</ele>
<time>2026-04-22T10:17:59-07:00</time>
</trkpt>
<trkpt lat="38.20492" lon="-120.39113">
<ele>1183</ele>
<time>2026-04-22T10:18:00-07:00</time>
</trkpt>
<trkpt lat="38.20512" lon="-120.39101">
<ele>1182.5</ele>
<time>2026-04-22T10:18:01-07:00</time>
</trkpt>
<trkpt lat="38.20524" lon="-120.39103">
<ele>1183.4</ele>
<time>2026-04-22T10:18:02-07:00</time>
</trkpt>
<trkpt lat="38.2053" lon="-120.39095">
<ele>1183.2</ele>
<time>2026-04-22T10:18:03-07:00</time>
</trkpt>
<trkpt lat="38.20538" lon="-120.39096">
<ele>1183.3</ele>
<time>2026-04-22T10:18:04-07:00</time>
</trkpt>
<trkpt lat="38.20545" lon="-120.3909">
<ele>1182.9</ele>
<time>2026-04-22T10:18:05-07:00</time>
</trkpt>
<trkpt lat="38.20554" lon="-120.39088">
<ele>1183.2</ele>
<time>2026-04-22T10:18:06-07:00</time>
</trkpt>
<trkpt lat="38.20556" lon="-120.39086">
<ele>1183.3</ele>
<time>2026-04-22T10:18:07-07:00</time>
</trkpt>
<trkpt lat="38.20557" lon="-120.39076">
<ele>1182.7</ele>
<time>2026-04-22T10:18:08-07:00</time>
</trkpt>
<trkpt lat="38.20567" lon="-120.39065">
<ele>1182.6</ele>
<time>2026-04-22T10:18:09-07:00</time>
</trkpt>
<trkpt lat="38.20575" lon="-120.39064">
<ele>1182.3</ele>
<time>2026-04-22T10:18:10-07:00</time>
</trkpt>
<trkpt lat="38.20588" lon="-120.3907">
<ele>1183.2</ele>
<time>2026-04-22T10:18:11-07:00</time>
</trkpt>
<trkpt lat="38.20592" lon="-120.39069">
<ele>1183.2</ele>
<time>2026-04-22T10:18:12-07:00</time>
</trkpt>
<trkpt lat="38.20595" lon="-120.39066">
<ele>1184</ele>
<time>2026-04-22T10:18:13-07:00</time>
</trkpt>
<trkpt lat="38.20604" lon="-120.39045">
<ele>1182.6</ele>
<time>2026-04-22T10:18:14-07:00</time>
</trkpt>
<trkpt lat="38.20604" lon="-120.39031">
<ele>1182.1</ele>
<time>2026-04-22T10:18:15-07:00</time>
</trkpt>
<trkpt lat="38.20608" lon="-120.39022">
<ele>1181.4</ele>
<time>2026-04-22T10:18:16-07:00</time>
</trkpt>
<trkpt lat="38.20632" lon="-120.39015">
<ele>1183.7</ele>
<time>2026-04-22T10:18:17-07:00</time>
</trkpt>
<trkpt lat="38.20639" lon="-120.39009">
<ele>1184.4</ele>
<time>2026-04-22T10:18:18-07:00</time>
</trkpt>
<trkpt lat="38.20646" lon="-120.38997">
<ele>1184</ele>
<time>2026-04-22T10:18:19-07:00</time>
</trkpt>
<trkpt lat="38.20657" lon="-120.38994">
<ele>1185</ele>
<time>2026-04-22T10:18:20-07:00</time>
</trkpt>
<trkpt lat="38.20664" lon="-120.38985">
<ele>1185.7</ele>
<time>2026-04-22T10:18:21-07:00</time>
</trkpt>
<trkpt lat="38.20674" lon="-120.38983">
<ele>1186.3</ele>
<time>2026-04-22T10:18:22-07:00</time>
</trkpt>
<trkpt lat="38.20685" lon="-120.38976">
<ele>1186.7</ele>
<time>2026-04-22T10:18:23-07:00</time>
</trkpt>
<trkpt lat="38.20684" lon="-120.3896">
<ele>1186.2</ele>
<time>2026-04-22T10:18:24-07:00</time>
</trkpt>
<trkpt lat="38.20686" lon="-120.38948">
<ele>1186.4</ele>
<time>2026-04-22T10:18:25-07:00</time>
</trkpt>
<trkpt lat="38.20698" lon="-120.3894">
<ele>1186.6</ele>
<time>2026-04-22T10:18:26-07:00</time>
</trkpt>
<trkpt lat="38.20702" lon="-120.38935">
<ele>1186.3</ele>
<time>2026-04-22T10:18:27-07:00</time>
</trkpt>
<trkpt lat="38.20703" lon="-120.38918">
<ele>1185.9</ele>
<time>2026-04-22T10:18:28-07:00</time>
</trkpt>
<trkpt lat="38.20706" lon="-120.38915">
<ele>1186.2</ele>
<time>2026-04-22T10:18:29-07:00</time>
</trkpt>
<trkpt lat="38.20713" lon="-120.38913">
<ele>1186.8</ele>
<time>2026-04-22T10:18:30-07:00</time>
</trkpt>
<trkpt lat="38.20717" lon="-120.3891">
<ele>1186.8</ele>
<time>2026-04-22T10:18:31-07:00</time>
</trkpt>
<trkpt lat="38.20721" lon="-120.38901">
<ele>1186.8</ele>
<time>2026-04-22T10:18:32-07:00</time>
</trkpt>
<trkpt lat="38.2072" lon="-120.38892">
<ele>1186.9</ele>
<time>2026-04-22T10:18:33-07:00</time>
</trkpt>
<trkpt lat="38.20715" lon="-120.38879">
<ele>1187</ele>
<time>2026-04-22T10:18:34-07:00</time>
</trkpt>
<trkpt lat="38.20718" lon="-120.38873">
<ele>1187</ele>
<time>2026-04-22T10:18:35-07:00</time>
</trkpt>
<trkpt lat="38.20735" lon="-120.38856">
<ele>1188.7</ele>
<time>2026-04-22T10:18:36-07:00</time>
</trkpt>
<trkpt lat="38.20736" lon="-120.38847">
<ele>1188.8</ele>
<time>2026-04-22T10:18:37-07:00</time>
</trkpt>
<trkpt lat="38.20731" lon="-120.38837">
<ele>1187.7</ele>
<time>2026-04-22T10:18:38-07:00</time>
</trkpt>
<trkpt lat="38.20731" lon="-120.38832">
<ele>1187.8</ele>
<time>2026-04-22T10:18:39-07:00</time>
</trkpt>
<trkpt lat="38.20738" lon="-120.38815">
<ele>1188.6</ele>
<time>2026-04-22T10:18:40-07:00</time>
</trkpt>
<trkpt lat="38.20747" lon="-120.38806">
<ele>1189.3</ele>
<time>2026-04-22T10:18:41-07:00</time>
</trkpt>
<trkpt lat="38.20756" lon="-120.38804">
<ele>1190.3</ele>
<time>2026-04-22T10:18:42-07:00</time>
</trkpt>
<trkpt lat="38.20772" lon="-120.38788">
<ele>1191.8</ele>
<time>2026-04-22T10:18:43-07:00</time>
</trkpt>
<trkpt lat="38.20782" lon="-120.38759">
<ele>1193.1</ele>
<time>2026-04-22T10:18:44-07:00</time>
</trkpt>
<trkpt lat="38.20792" lon="-120.38746">
<ele>1194.1</ele>
<time>2026-04-22T10:18:45-07:00</time>
</trkpt>
<trkpt lat="38.20801" lon="-120.38725">
<ele>1195.1</ele>
<time>2026-04-22T10:18:46-07:00</time>
</trkpt>
<trkpt lat="38.20807" lon="-120.38717">
<ele>1196</ele>
<time>2026-04-22T10:18:47-07:00</time>
</trkpt>
<trkpt lat="38.20812" lon="-120.38706">
<ele>1196</ele>
<time>2026-04-22T10:18:48-07:00</time>
</trkpt>
<trkpt lat="38.20821" lon="-120.38698">
<ele>1197.1</ele>
<time>2026-04-22T10:18:49-07:00</time>
</trkpt>
<trkpt lat="38.2083" lon="-120.38679">
<ele>1198.3</ele>
<time>2026-04-22T10:18:50-07:00</time>
</trkpt>
<trkpt lat="38.20848" lon="-120.38666">
<ele>1199.3</ele>
<time>2026-04-22T10:18:51-07:00</time>
</trkpt>
<trkpt lat="38.20859" lon="-120.38667">
<ele>1200.3</ele>
<time>2026-04-22T10:18:52-07:00</time>
</trkpt>
<trkpt lat="38.2091" lon="-120.38646">
<ele>1201.4</ele>
<time>2026-04-22T10:18:53-07:00</time>
</trkpt>
<trkpt lat="38.20908" lon="-120.38644">
<ele>1201.4</ele>
<time>2026-04-22T10:18:54-07:00</time>
</trkpt>
<trkpt lat="38.2091" lon="-120.38639">
<ele>1201.4</ele>
<time>2026-04-22T10:18:55-07:00</time>
</trkpt>
<trkpt lat="38.20921" lon="-120.38625">
<ele>1200.3</ele>
<time>2026-04-22T10:18:56-07:00</time>
</trkpt>
<trkpt lat="38.20933" lon="-120.38602">
<ele>1199.8</ele>
<time>2026-04-22T10:18:57-07:00</time>
</trkpt>
<trkpt lat="38.20948" lon="-120.38584">
<ele>1199</ele>
<time>2026-04-22T10:18:58-07:00</time>
</trkpt>
<trkpt lat="38.20951" lon="-120.38571">
<ele>1199.1</ele>
<time>2026-04-22T10:18:59-07:00</time>
</trkpt>
<trkpt lat="38.20962" lon="-120.3856">
<ele>1199.1</ele>
<time>2026-04-22T10:19:00-07:00</time>
</trkpt>
<trkpt lat="38.20969" lon="-120.3855">
<ele>1199.3</ele>
<time>2026-04-22T10:19:01-07:00</time>
</trkpt>
<trkpt lat="38.20979" lon="-120.38545">
<ele>1199.8</ele>
<time>2026-04-22T10:19:02-07:00</time>
</trkpt>
<trkpt lat="38.20991" lon="-120.38535">
<ele>1199.4</ele>
<time>2026-04-22T10:19:03-07:00</time>
</trkpt>
<trkpt lat="38.20999" lon="-120.38526">
<ele>1199.1</ele>
<time>2026-04-22T10:19:04-07:00</time>
</trkpt>
<trkpt lat="38.21003" lon="-120.38515">
<ele>1199</ele>
<time>2026-04-22T10:19:05-07:00</time>
</trkpt>
<trkpt lat="38.21005" lon="-120.38496">
<ele>1199.4</ele>
<time>2026-04-22T10:19:06-07:00</time>
</trkpt>
<trkpt lat="38.21007" lon="-120.3849">
<ele>1199.5</ele>
<time>2026-04-22T10:19:07-07:00</time>
</trkpt>
<trkpt lat="38.21025" lon="-120.38465">
<ele>1198.5</ele>
<time>2026-04-22T10:19:08-07:00</time>
</trkpt>
<trkpt lat="38.21029" lon="-120.38454">
<ele>1197.9</ele>
<time>2026-04-22T10:19:09-07:00</time>
</trkpt>
<trkpt lat="38.21038" lon="-120.38445">
<ele>1197.3</ele>
<time>2026-04-22T10:19:10-07:00</time>
</trkpt>
<trkpt lat="38.21045" lon="-120.38429">
<ele>1197.1</ele>
<time>2026-04-22T10:19:11-07:00</time>
</trkpt>
<trkpt lat="38.21056" lon="-120.38414">
<ele>1195.9</ele>
<time>2026-04-22T10:19:12-07:00</time>
</trkpt>
<trkpt lat="38.21056" lon="-120.38401">
<ele>1195.5</ele>
<time>2026-04-22T10:19:13-07:00</time>
</trkpt>
<trkpt lat="38.21065" lon="-120.38394">
<ele>1194.8</ele>
<time>2026-04-22T10:19:14-07:00</time>
</trkpt>
<trkpt lat="38.21065" lon="-120.38387">
<ele>1195.5</ele>
<time>2026-04-22T10:19:15-07:00</time>
</trkpt>
<trkpt lat="38.2107" lon="-120.38384">
<ele>1195.5</ele>
<time>2026-04-22T10:19:16-07:00</time>
</trkpt>
<trkpt lat="38.21074" lon="-120.38384">
<ele>1195.5</ele>
<time>2026-04-22T10:19:17-07:00</time>
</trkpt>
<trkpt lat="38.21074" lon="-120.38377">
<ele>1195.9</ele>
<time>2026-04-22T10:19:18-07:00</time>
</trkpt>
<trkpt lat="38.2108" lon="-120.38376">
<ele>1195</ele>
<time>2026-04-22T10:19:19-07:00</time>
</trkpt>
<trkpt lat="38.21088" lon="-120.38381">
<ele>1194.1</ele>
<time>2026-04-22T10:19:20-07:00</time>
</trkpt>
<trkpt lat="38.21097" lon="-120.38377">
<ele>1193.8</ele>
<time>2026-04-22T10:19:21-07:00</time>
</trkpt>
<trkpt lat="38.21101" lon="-120.3837">
<ele>1193.9</ele>
<time>2026-04-22T10:19:22-07:00</time>
</trkpt>
<trkpt lat="38.21103" lon="-120.38358">
<ele>1194</ele>
<time>2026-04-22T10:19:23-07:00</time>
</trkpt>
<trkpt lat="38.21106" lon="-120.38351">
<ele>1194</ele>
<time>2026-04-22T10:19:24-07:00</time>
</trkpt>
<trkpt lat="38.21114" lon="-120.38344">
<ele>1193.7</ele>
<time>2026-04-22T10:19:25-07:00</time>
</trkpt>
<trkpt lat="38.2113" lon="-120.38319">
<ele>1193</ele>
<time>2026-04-22T10:19:26-07:00</time>
</trkpt>
<trkpt lat="38.21132" lon="-120.38313">
<ele>1192.8</ele>
<time>2026-04-22T10:19:27-07:00</time>
</trkpt>
<trkpt lat="38.21137" lon="-120.38309">
<ele>1192.8</ele>
<time>2026-04-22T10:19:28-07:00</time>
</trkpt>
<trkpt lat="38.21148" lon="-120.38287">
<ele>1193.4</ele>
<time>2026-04-22T10:19:29-07:00</time>
</trkpt>
<trkpt lat="38.21157" lon="-120.38256">
<ele>1194.6</ele>
<time>2026-04-22T10:19:30-07:00</time>
</trkpt>
<trkpt lat="38.21164" lon="-120.38247">
<ele>1195.6</ele>
<time>2026-04-22T10:19:31-07:00</time>
</trkpt>
<trkpt lat="38.2117" lon="-120.38228">
<ele>1195.9</ele>
<time>2026-04-22T10:19:32-07:00</time>
</trkpt>
<trkpt lat="38.21177" lon="-120.38219">
<ele>1196.5</ele>
<time>2026-04-22T10:19:33-07:00</time>
</trkpt>
<trkpt lat="38.21179" lon="-120.38205">
<ele>1196.5</ele>
<time>2026-04-22T10:19:34-07:00</time>
</trkpt>
<trkpt lat="38.21183" lon="-120.38194">
<ele>1197.3</ele>
<time>2026-04-22T10:19:35-07:00</time>
</trkpt>
<trkpt lat="38.21182" lon="-120.3818">
<ele>1197.4</ele>
<time>2026-04-22T10:19:36-07:00</time>
</trkpt>
<trkpt lat="38.21186" lon="-120.38168">
<ele>1199.2</ele>
<time>2026-04-22T10:19:37-07:00</time>
</trkpt>
<trkpt lat="38.21195" lon="-120.38161">
<ele>1200.1</ele>
<time>2026-04-22T10:19:38-07:00</time>
</trkpt>
<trkpt lat="38.212" lon="-120.38159">
<ele>1200.1</ele>
<time>2026-04-22T10:19:39-07:00</time>
</trkpt>
<trkpt lat="38.21212" lon="-120.38148">
<ele>1200.2</ele>
<time>2026-04-22T10:19:40-07:00</time>
</trkpt>
<trkpt lat="38.21214" lon="-120.38141">
<ele>1201.2</ele>
<time>2026-04-22T10:19:41-07:00</time>
</trkpt>
<trkpt lat="38.21221" lon="-120.3813">
<ele>1200.6</ele>
<time>2026-04-22T10:19:42-07:00</time>
</trkpt>
<trkpt lat="38.21235" lon="-120.38123">
<ele>1202.8</ele>
<time>2026-04-22T10:19:43-07:00</time>
</trkpt>
<trkpt lat="38.21241" lon="-120.38109">
<ele>1204</ele>
<time>2026-04-22T10:19:44-07:00</time>
</trkpt>
<trkpt lat="38.21257" lon="-120.38091">
<ele>1204.9</ele>
<time>2026-04-22T10:19:45-07:00</time>
</trkpt>
<trkpt lat="38.21271" lon="-120.3807">
<ele>1205</ele>
<time>2026-04-22T10:19:46-07:00</time>
</trkpt>
<trkpt lat="38.21277" lon="-120.38054">
<ele>1202.7</ele>
<time>2026-04-22T10:19:47-07:00</time>
</trkpt>
<trkpt lat="38.21282" lon="-120.38034">
<ele>1201</ele>
<time>2026-04-22T10:19:48-07:00</time>
</trkpt>
<trkpt lat="38.21294" lon="-120.38022">
<ele>1200.4</ele>
<time>2026-04-22T10:19:49-07:00</time>
</trkpt>
<trkpt lat="38.21303" lon="-120.38018">
<ele>1199.2</ele>
<time>2026-04-22T10:19:50-07:00</time>
</trkpt>
<trkpt lat="38.21311" lon="-120.3801">
<ele>1198.6</ele>
<time>2026-04-22T10:19:51-07:00</time>
</trkpt>
<trkpt lat="38.2132" lon="-120.38007">
<ele>1197.1</ele>
<time>2026-04-22T10:19:52-07:00</time>
</trkpt>
<trkpt lat="38.21329" lon="-120.38">
<ele>1195.6</ele>
<time>2026-04-22T10:19:53-07:00</time>
</trkpt>
<trkpt lat="38.21335" lon="-120.37989">
<ele>1195.4</ele>
<time>2026-04-22T10:19:54-07:00</time>
</trkpt>
<trkpt lat="38.2134" lon="-120.37984">
<ele>1195.4</ele>
<time>2026-04-22T10:19:55-07:00</time>
</trkpt>
<trkpt lat="38.21353" lon="-120.37976">
<ele>1196</ele>
<time>2026-04-22T10:19:56-07:00</time>
</trkpt>
<trkpt lat="38.21356" lon="-120.3797">
<ele>1195.3</ele>
<time>2026-04-22T10:19:57-07:00</time>
</trkpt>
<trkpt lat="38.21372" lon="-120.37952">
<ele>1195.2</ele>
<time>2026-04-22T10:19:58-07:00</time>
</trkpt>
<trkpt lat="38.21372" lon="-120.37939">
<ele>1195.4</ele>
<time>2026-04-22T10:19:59-07:00</time>
</trkpt>
<trkpt lat="38.21391" lon="-120.37932">
<ele>1193.3</ele>
<time>2026-04-22T10:20:00-07:00</time>
</trkpt>
<trkpt lat="38.21406" lon="-120.37929">
<ele>1192.4</ele>
<time>2026-04-22T10:20:01-07:00</time>
</trkpt>
<trkpt lat="38.21409" lon="-120.37938">
<ele>1192.6</ele>
<time>2026-04-22T10:20:02-07:00</time>
</trkpt>
<trkpt lat="38.21414" lon="-120.37934">
<ele>1192.5</ele>
<time>2026-04-22T10:20:03-07:00</time>
</trkpt>
<trkpt lat="38.21418" lon="-120.37928">
<ele>1192.6</ele>
<time>2026-04-22T10:20:04-07:00</time>
</trkpt>
<trkpt lat="38.2142" lon="-120.37921">
<ele>1192.5</ele>
<time>2026-04-22T10:20:05-07:00</time>
</trkpt>
<trkpt lat="38.21432" lon="-120.3791">
<ele>1192.8</ele>
<time>2026-04-22T10:20:06-07:00</time>
</trkpt>
<trkpt lat="38.21444" lon="-120.37895">
<ele>1192.1</ele>
<time>2026-04-22T10:20:07-07:00</time>
</trkpt>
<trkpt lat="38.21449" lon="-120.37893">
<ele>1191.5</ele>
<time>2026-04-22T10:20:08-07:00</time>
</trkpt>
<trkpt lat="38.21454" lon="-120.37894">
<ele>1190.3</ele>
<time>2026-04-22T10:20:09-07:00</time>
</trkpt>
<trkpt lat="38.21461" lon="-120.37901">
<ele>1191.3</ele>
<time>2026-04-22T10:20:10-07:00</time>
</trkpt>
<trkpt lat="38.2147" lon="-120.37904">
<ele>1191.4</ele>
<time>2026-04-22T10:20:11-07:00</time>
</trkpt>
<trkpt lat="38.21476" lon="-120.37901">
<ele>1191.9</ele>
<time>2026-04-22T10:20:12-07:00</time>
</trkpt>
<trkpt lat="38.21479" lon="-120.37896">
<ele>1190.3</ele>
<time>2026-04-22T10:20:13-07:00</time>
</trkpt>
<trkpt lat="38.2149" lon="-120.37893">
<ele>1190.4</ele>
<time>2026-04-22T10:20:14-07:00</time>
</trkpt>
<trkpt lat="38.21505" lon="-120.37872">
<ele>1188.4</ele>
<time>2026-04-22T10:20:15-07:00</time>
</trkpt>
<trkpt lat="38.21514" lon="-120.37869">
<ele>1187</ele>
<time>2026-04-22T10:20:16-07:00</time>
</trkpt>
<trkpt lat="38.21524" lon="-120.37862">
<ele>1187.1</ele>
<time>2026-04-22T10:20:17-07:00</time>
</trkpt>
<trkpt lat="38.2153" lon="-120.37862">
<ele>1187.1</ele>
<time>2026-04-22T10:20:18-07:00</time>
</trkpt>
<trkpt lat="38.21535" lon="-120.3786">
<ele>1185.8</ele>
<time>2026-04-22T10:20:19-07:00</time>
</trkpt>
<trkpt lat="38.21543" lon="-120.37853">
<ele>1186.5</ele>
<time>2026-04-22T10:20:20-07:00</time>
</trkpt>
<trkpt lat="38.21553" lon="-120.37849">
<ele>1186.1</ele>
<time>2026-04-22T10:20:21-07:00</time>
</trkpt>
<trkpt lat="38.21566" lon="-120.3784">
<ele>1185.5</ele>
<time>2026-04-22T10:20:22-07:00</time>
</trkpt>
<trkpt lat="38.21571" lon="-120.37841">
<ele>1185.5</ele>
<time>2026-04-22T10:20:23-07:00</time>
</trkpt>
<trkpt lat="38.21579" lon="-120.37831">
<ele>1184.6</ele>
<time>2026-04-22T10:20:24-07:00</time>
</trkpt>
<trkpt lat="38.21584" lon="-120.3783">
<ele>1184.1</ele>
<time>2026-04-22T10:20:25-07:00</time>
</trkpt>
<trkpt lat="38.21593" lon="-120.37823">
<ele>1182.8</ele>
<time>2026-04-22T10:20:26-07:00</time>
</trkpt>
<trkpt lat="38.21609" lon="-120.37825">
<ele>1183.6</ele>
<time>2026-04-22T10:20:27-07:00</time>
</trkpt>
<trkpt lat="38.21633" lon="-120.37825">
<ele>1181.9</ele>
<time>2026-04-22T10:20:28-07:00</time>
</trkpt>
<trkpt lat="38.21638" lon="-120.37823">
<ele>1180.9</ele>
<time>2026-04-22T10:20:29-07:00</time>
</trkpt>
<trkpt lat="38.21653" lon="-120.37823">
<ele>1180.1</ele>
<time>2026-04-22T10:20:30-07:00</time>
</trkpt>
<trkpt lat="38.21664" lon="-120.37834">
<ele>1181.2</ele>
<time>2026-04-22T10:20:31-07:00</time>
</trkpt>
<trkpt lat="38.21669" lon="-120.37833">
<ele>1180.1</ele>
<time>2026-04-22T10:20:32-07:00</time>
</trkpt>
<trkpt lat="38.21673" lon="-120.3783">
<ele>1180.1</ele>
<time>2026-04-22T10:20:33-07:00</time>
</trkpt>
<trkpt lat="38.21679" lon="-120.3783">
<ele>1179.8</ele>
<time>2026-04-22T10:20:34-07:00</time>
</trkpt>
<trkpt lat="38.21683" lon="-120.37834">
<ele>1180.7</ele>
<time>2026-04-22T10:20:35-07:00</time>
</trkpt>
<trkpt lat="38.21688" lon="-120.37836">
<ele>1180.4</ele>
<time>2026-04-22T10:20:36-07:00</time>
</trkpt>
<trkpt lat="38.21694" lon="-120.37835">
<ele>1180.4</ele>
<time>2026-04-22T10:20:37-07:00</time>
</trkpt>
<trkpt lat="38.21703" lon="-120.37828">
<ele>1179</ele>
<time>2026-04-22T10:20:38-07:00</time>
</trkpt>
<trkpt lat="38.21718" lon="-120.37821">
<ele>1177.5</ele>
<time>2026-04-22T10:20:39-07:00</time>
</trkpt>
<trkpt lat="38.21732" lon="-120.37817">
<ele>1178.1</ele>
<time>2026-04-22T10:20:40-07:00</time>
</trkpt>
<trkpt lat="38.21741" lon="-120.37819">
<ele>1178.2</ele>
<time>2026-04-22T10:20:41-07:00</time>
</trkpt>
<trkpt lat="38.21756" lon="-120.37814">
<ele>1177.8</ele>
<time>2026-04-22T10:20:42-07:00</time>
</trkpt>
<trkpt lat="38.21765" lon="-120.37817">
<ele>1178.9</ele>
<time>2026-04-22T10:20:43-07:00</time>
</trkpt>
<trkpt lat="38.21775" lon="-120.37816">
<ele>1179.4</ele>
<time>2026-04-22T10:20:44-07:00</time>
</trkpt>
<trkpt lat="38.21779" lon="-120.37818">
<ele>1179.5</ele>
<time>2026-04-22T10:20:45-07:00</time>
</trkpt>
<trkpt lat="38.21788" lon="-120.37816">
<ele>1179.7</ele>
<time>2026-04-22T10:20:46-07:00</time>
</trkpt>
<trkpt lat="38.21803" lon="-120.37821">
<ele>1180.2</ele>
<time>2026-04-22T10:20:47-07:00</time>
</trkpt>
<trkpt lat="38.21808" lon="-120.37827">
<ele>1180.3</ele>
<time>2026-04-22T10:20:48-07:00</time>
</trkpt>
<trkpt lat="38.2181" lon="-120.3784">
<ele>1181.1</ele>
<time>2026-04-22T10:20:49-07:00</time>
</trkpt>
<trkpt lat="38.21813" lon="-120.37846">
<ele>1181.1</ele>
<time>2026-04-22T10:20:50-07:00</time>
</trkpt>
<trkpt lat="38.21806" lon="-120.37857">
<ele>1181.9</ele>
<time>2026-04-22T10:20:51-07:00</time>
</trkpt>
<trkpt lat="38.21806" lon="-120.37863">
<ele>1181.8</ele>
<time>2026-04-22T10:20:52-07:00</time>
</trkpt>
<trkpt lat="38.218" lon="-120.37873">
<ele>1181.6</ele>
<time>2026-04-22T10:20:53-07:00</time>
</trkpt>
<trkpt lat="38.21804" lon="-120.37877">
<ele>1181.6</ele>
<time>2026-04-22T10:20:54-07:00</time>
</trkpt>
<trkpt lat="38.21808" lon="-120.37875">
<ele>1182.2</ele>
<time>2026-04-22T10:20:55-07:00</time>
</trkpt>
<trkpt lat="38.21817" lon="-120.37877">
<ele>1182.2</ele>
<time>2026-04-22T10:20:56-07:00</time>
</trkpt>
<trkpt lat="38.21834" lon="-120.37873">
<ele>1182.6</ele>
<time>2026-04-22T10:20:57-07:00</time>
</trkpt>
<trkpt lat="38.21839" lon="-120.37874">
<ele>1182.6</ele>
<time>2026-04-22T10:20:58-07:00</time>
</trkpt>
<trkpt lat="38.21844" lon="-120.37871">
<ele>1183.2</ele>
<time>2026-04-22T10:20:59-07:00</time>
</trkpt>
<trkpt lat="38.21859" lon="-120.37868">
<ele>1183.6</ele>
<time>2026-04-22T10:21:00-07:00</time>
</trkpt>
<trkpt lat="38.21864" lon="-120.37869">
<ele>1184</ele>
<time>2026-04-22T10:21:01-07:00</time>
</trkpt>
<trkpt lat="38.21873" lon="-120.37876">
<ele>1184.1</ele>
<time>2026-04-22T10:21:02-07:00</time>
</trkpt>
<trkpt lat="38.21888" lon="-120.3788">
<ele>1184.5</ele>
<time>2026-04-22T10:21:03-07:00</time>
</trkpt>
<trkpt lat="38.21893" lon="-120.37879">
<ele>1184.7</ele>
<time>2026-04-22T10:21:04-07:00</time>
</trkpt>
<trkpt lat="38.21897" lon="-120.37876">
<ele>1184.7</ele>
<time>2026-04-22T10:21:05-07:00</time>
</trkpt>
<trkpt lat="38.21906" lon="-120.37877">
<ele>1184.8</ele>
<time>2026-04-22T10:21:06-07:00</time>
</trkpt>
<trkpt lat="38.21932" lon="-120.37871">
<ele>1185.2</ele>
<time>2026-04-22T10:21:07-07:00</time>
</trkpt>
<trkpt lat="38.21936" lon="-120.37874">
<ele>1185.3</ele>
<time>2026-04-22T10:21:08-07:00</time>
</trkpt>
<trkpt lat="38.21935" lon="-120.37903">
<ele>1182.9</ele>
<time>2026-04-22T10:21:09-07:00</time>
</trkpt>
<trkpt lat="38.21942" lon="-120.37922">
<ele>1180.9</ele>
<time>2026-04-22T10:21:10-07:00</time>
</trkpt>
<trkpt lat="38.21942" lon="-120.37942">
<ele>1178.4</ele>
<time>2026-04-22T10:21:11-07:00</time>
</trkpt>
<trkpt lat="38.21938" lon="-120.37954">
<ele>1175.7</ele>
<time>2026-04-22T10:21:12-07:00</time>
</trkpt>
<trkpt lat="38.2194" lon="-120.37964">
<ele>1174.5</ele>
<time>2026-04-22T10:21:13-07:00</time>
</trkpt>
<trkpt lat="38.21945" lon="-120.3797">
<ele>1174</ele>
<time>2026-04-22T10:21:14-07:00</time>
</trkpt>
<trkpt lat="38.21955" lon="-120.37974">
<ele>1171.8</ele>
<time>2026-04-22T10:21:15-07:00</time>
</trkpt>
<trkpt lat="38.21937" lon="-120.37981">
<ele>1172.9</ele>
<time>2026-04-22T10:21:16-07:00</time>
</trkpt>
<trkpt lat="38.21918" lon="-120.37984">
<ele>1173.3</ele>
<time>2026-04-22T10:21:17-07:00</time>
</trkpt>
<trkpt lat="38.21889" lon="-120.37994">
<ele>1174.5</ele>
<time>2026-04-22T10:21:18-07:00</time>
</trkpt>
<trkpt lat="38.21858" lon="-120.38002">
<ele>1177</ele>
<time>2026-04-22T10:21:19-07:00</time>
</trkpt>
<trkpt lat="38.21844" lon="-120.3801">
<ele>1176.8</ele>
<time>2026-04-22T10:21:20-07:00</time>
</trkpt>
<trkpt lat="38.21833" lon="-120.38021">
<ele>1176.6</ele>
<time>2026-04-22T10:21:21-07:00</time>
</trkpt>
<trkpt lat="38.21821" lon="-120.3803">
<ele>1175.9</ele>
<time>2026-04-22T10:21:22-07:00</time>
</trkpt>
<trkpt lat="38.2181" lon="-120.38026">
<ele>1177.8</ele>
<time>2026-04-22T10:21:23-07:00</time>
</trkpt>
<trkpt lat="38.21797" lon="-120.38005">
<ele>1179.4</ele>
<time>2026-04-22T10:21:24-07:00</time>
</trkpt>
<trkpt lat="38.21792" lon="-120.38002">
<ele>1178.9</ele>
<time>2026-04-22T10:21:25-07:00</time>
</trkpt>
<trkpt lat="38.2179" lon="-120.37992">
<ele>1179.4</ele>
<time>2026-04-22T10:21:26-07:00</time>
</trkpt>
<trkpt lat="38.21777" lon="-120.37966">
<ele>1179.7</ele>
<time>2026-04-22T10:21:27-07:00</time>
</trkpt>
<trkpt lat="38.21772" lon="-120.3796">
<ele>1179.6</ele>
<time>2026-04-22T10:21:28-07:00</time>
</trkpt>
<trkpt lat="38.21766" lon="-120.37957">
<ele>1179.2</ele>
<time>2026-04-22T10:21:29-07:00</time>
</trkpt>
<trkpt lat="38.21759" lon="-120.37956">
<ele>1179.1</ele>
<time>2026-04-22T10:21:30-07:00</time>
</trkpt>
<trkpt lat="38.21747" lon="-120.37957">
<ele>1178.8</ele>
<time>2026-04-22T10:21:31-07:00</time>
</trkpt>
<trkpt lat="38.2174" lon="-120.37956">
<ele>1179.3</ele>
<time>2026-04-22T10:21:32-07:00</time>
</trkpt>
<trkpt lat="38.21738" lon="-120.3796">
<ele>1179.3</ele>
<time>2026-04-22T10:21:33-07:00</time>
</trkpt>
<trkpt lat="38.21734" lon="-120.37962">
<ele>1179.3</ele>
<time>2026-04-22T10:21:34-07:00</time>
</trkpt>
<trkpt lat="38.21721" lon="-120.37977">
<ele>1179.1</ele>
<time>2026-04-22T10:21:35-07:00</time>
</trkpt>
<trkpt lat="38.21705" lon="-120.37989">
<ele>1178.6</ele>
<time>2026-04-22T10:21:36-07:00</time>
</trkpt>
<trkpt lat="38.21694" lon="-120.38">
<ele>1178.7</ele>
<time>2026-04-22T10:21:37-07:00</time>
</trkpt>
<trkpt lat="38.21682" lon="-120.38009">
<ele>1177.6</ele>
<time>2026-04-22T10:21:38-07:00</time>
</trkpt>
<trkpt lat="38.2167" lon="-120.38015">
<ele>1177.1</ele>
<time>2026-04-22T10:21:39-07:00</time>
</trkpt>
<trkpt lat="38.21662" lon="-120.38017">
<ele>1177.6</ele>
<time>2026-04-22T10:21:40-07:00</time>
</trkpt>
<trkpt lat="38.21647" lon="-120.38031">
<ele>1176.2</ele>
<time>2026-04-22T10:21:41-07:00</time>
</trkpt>
<trkpt lat="38.21626" lon="-120.38042">
<ele>1175.4</ele>
<time>2026-04-22T10:21:42-07:00</time>
</trkpt>
<trkpt lat="38.21611" lon="-120.38062">
<ele>1176.3</ele>
<time>2026-04-22T10:21:43-07:00</time>
</trkpt>
<trkpt lat="38.21603" lon="-120.38086">
<ele>1175.4</ele>
<time>2026-04-22T10:21:44-07:00</time>
</trkpt>
<trkpt lat="38.2159" lon="-120.3811">
<ele>1176</ele>
<time>2026-04-22T10:21:45-07:00</time>
</trkpt>
<trkpt lat="38.2158" lon="-120.38123">
<ele>1174.1</ele>
<time>2026-04-22T10:21:46-07:00</time>
</trkpt>
<trkpt lat="38.21488" lon="-120.38186">
<ele>1170</ele>
<time>2026-04-22T10:21:47-07:00</time>
</trkpt>
<trkpt lat="38.2145" lon="-120.38217">
<ele>1170.3</ele>
<time>2026-04-22T10:21:48-07:00</time>
</trkpt>
<trkpt lat="38.21439" lon="-120.38233">
<ele>1172.9</ele>
<time>2026-04-22T10:21:49-07:00</time>
</trkpt>
<trkpt lat="38.21438" lon="-120.38249">
<ele>1172.4</ele>
<time>2026-04-22T10:21:50-07:00</time>
</trkpt>
<trkpt lat="38.21432" lon="-120.38277">
<ele>1172.8</ele>
<time>2026-04-22T10:21:51-07:00</time>
</trkpt>
<trkpt lat="38.21408" lon="-120.38255">
<ele>1176.5</ele>
<time>2026-04-22T10:21:52-07:00</time>
</trkpt>
<trkpt lat="38.21392" lon="-120.38255">
<ele>1179.6</ele>
<time>2026-04-22T10:21:53-07:00</time>
</trkpt>
<trkpt lat="38.21376" lon="-120.38242">
<ele>1182.3</ele>
<time>2026-04-22T10:21:54-07:00</time>
</trkpt>
<trkpt lat="38.21356" lon="-120.38238">
<ele>1185.1</ele>
<time>2026-04-22T10:21:55-07:00</time>
</trkpt>
<trkpt lat="38.21342" lon="-120.38245">
<ele>1187.4</ele>
<time>2026-04-22T10:21:56-07:00</time>
</trkpt>
<trkpt lat="38.21291" lon="-120.38299">
<ele>1187.7</ele>
<time>2026-04-22T10:21:57-07:00</time>
</trkpt>
<trkpt lat="38.2123" lon="-120.38331">
<ele>1194.3</ele>
<time>2026-04-22T10:21:58-07:00</time>
</trkpt>
<trkpt lat="38.21204" lon="-120.38347">
<ele>1196.2</ele>
<time>2026-04-22T10:21:59-07:00</time>
</trkpt>
<trkpt lat="38.21196" lon="-120.38367">
<ele>1195.5</ele>
<time>2026-04-22T10:22:00-07:00</time>
</trkpt>
<trkpt lat="38.21177" lon="-120.38372">
<ele>1194.7</ele>
<time>2026-04-22T10:22:01-07:00</time>
</trkpt>
<trkpt lat="38.21175" lon="-120.38385">
<ele>1194.1</ele>
<time>2026-04-22T10:22:02-07:00</time>
</trkpt>
<trkpt lat="38.21157" lon="-120.38389">
<ele>1193.1</ele>
<time>2026-04-22T10:22:03-07:00</time>
</trkpt>
<trkpt lat="38.21148" lon="-120.38399">
<ele>1192.2</ele>
<time>2026-04-22T10:22:04-07:00</time>
</trkpt>
<trkpt lat="38.21139" lon="-120.38419">
<ele>1190.7</ele>
<time>2026-04-22T10:22:05-07:00</time>
</trkpt>
<trkpt lat="38.21135" lon="-120.38459">
<ele>1187.3</ele>
<time>2026-04-22T10:22:06-07:00</time>
</trkpt>
<trkpt lat="38.21139" lon="-120.38503">
<ele>1183.8</ele>
<time>2026-04-22T10:22:07-07:00</time>
</trkpt>
<trkpt lat="38.21137" lon="-120.38551">
<ele>1181.1</ele>
<time>2026-04-22T10:22:08-07:00</time>
</trkpt>
<trkpt lat="38.21123" lon="-120.38619">
<ele>1177</ele>
<time>2026-04-22T10:22:09-07:00</time>
</trkpt>
<trkpt lat="38.21102" lon="-120.38652">
<ele>1172.3</ele>
<time>2026-04-22T10:22:10-07:00</time>
</trkpt>
<trkpt lat="38.21089" lon="-120.38677">
<ele>1178.8</ele>
<time>2026-04-22T10:22:11-07:00</time>
</trkpt>
<trkpt lat="38.21094" lon="-120.38689">
<ele>1176.9</ele>
<time>2026-04-22T10:22:12-07:00</time>
</trkpt>
<trkpt lat="38.21094" lon="-120.38722">
<ele>1177.8</ele>
<time>2026-04-22T10:22:13-07:00</time>
</trkpt>
<trkpt lat="38.21099" lon="-120.38736">
<ele>1178</ele>
<time>2026-04-22T10:22:14-07:00</time>
</trkpt>
<trkpt lat="38.21098" lon="-120.3874">
<ele>1178</ele>
<time>2026-04-22T10:22:15-07:00</time>
</trkpt>
<trkpt lat="38.21103" lon="-120.38752">
<ele>1177</ele>
<time>2026-04-22T10:22:16-07:00</time>
</trkpt>
<trkpt lat="38.21112" lon="-120.38769">
<ele>1175.8</ele>
<time>2026-04-22T10:22:17-07:00</time>
</trkpt>
<trkpt lat="38.21121" lon="-120.3878">
<ele>1174.1</ele>
<time>2026-04-22T10:22:18-07:00</time>
</trkpt>
<trkpt lat="38.21129" lon="-120.38783">
<ele>1174.1</ele>
<time>2026-04-22T10:22:19-07:00</time>
</trkpt>
<trkpt lat="38.21132" lon="-120.38787">
<ele>1172.3</ele>
<time>2026-04-22T10:22:20-07:00</time>
</trkpt>
<trkpt lat="38.21136" lon="-120.38801">
<ele>1172</ele>
<time>2026-04-22T10:22:21-07:00</time>
</trkpt>
<trkpt lat="38.21141" lon="-120.38808">
<ele>1170.1</ele>
<time>2026-04-22T10:22:22-07:00</time>
</trkpt>
<trkpt lat="38.21148" lon="-120.38829">
<ele>1168.2</ele>
<time>2026-04-22T10:22:23-07:00</time>
</trkpt>
<trkpt lat="38.21153" lon="-120.38828">
<ele>1166.4</ele>
<time>2026-04-22T10:22:24-07:00</time>
</trkpt>
<trkpt lat="38.21157" lon="-120.38823">
<ele>1167.3</ele>
<time>2026-04-22T10:22:25-07:00</time>
</trkpt>
<trkpt lat="38.21158" lon="-120.38817">
<ele>1165.7</ele>
<time>2026-04-22T10:22:26-07:00</time>
</trkpt>
<trkpt lat="38.21162" lon="-120.38811">
<ele>1166.4</ele>
<time>2026-04-22T10:22:27-07:00</time>
</trkpt>
<trkpt lat="38.21183" lon="-120.3879">
<ele>1164.4</ele>
<time>2026-04-22T10:22:28-07:00</time>
</trkpt>
<trkpt lat="38.21184" lon="-120.38784">
<ele>1164.6</ele>
<time>2026-04-22T10:22:29-07:00</time>
</trkpt>
<trkpt lat="38.21202" lon="-120.38773">
<ele>1162.3</ele>
<time>2026-04-22T10:22:30-07:00</time>
</trkpt>
<trkpt lat="38.21206" lon="-120.38757">
<ele>1160.9</ele>
<time>2026-04-22T10:22:31-07:00</time>
</trkpt>
<trkpt lat="38.2121" lon="-120.38755">
<ele>1160.9</ele>
<time>2026-04-22T10:22:32-07:00</time>
</trkpt>
<trkpt lat="38.21214" lon="-120.38758">
<ele>1158.9</ele>
<time>2026-04-22T10:22:33-07:00</time>
</trkpt>
<trkpt lat="38.21224" lon="-120.388">
<ele>1155.9</ele>
<time>2026-04-22T10:22:34-07:00</time>
</trkpt>
<trkpt lat="38.21233" lon="-120.38814">
<ele>1153.8</ele>
<time>2026-04-22T10:22:35-07:00</time>
</trkpt>
<trkpt lat="38.21231" lon="-120.3883">
<ele>1155.2</ele>
<time>2026-04-22T10:22:36-07:00</time>
</trkpt>
<trkpt lat="38.21235" lon="-120.38838">
<ele>1154.2</ele>
<time>2026-04-22T10:22:37-07:00</time>
</trkpt>
<trkpt lat="38.21235" lon="-120.38858">
<ele>1152.9</ele>
<time>2026-04-22T10:22:38-07:00</time>
</trkpt>
<trkpt lat="38.21239" lon="-120.38864">
<ele>1152</ele>
<time>2026-04-22T10:22:39-07:00</time>
</trkpt>
<trkpt lat="38.21244" lon="-120.38867">
<ele>1151.6</ele>
<time>2026-04-22T10:22:40-07:00</time>
</trkpt>
<trkpt lat="38.21255" lon="-120.3886">
<ele>1151.1</ele>
<time>2026-04-22T10:22:41-07:00</time>
</trkpt>
<trkpt lat="38.21264" lon="-120.38848">
<ele>1149.8</ele>
<time>2026-04-22T10:22:42-07:00</time>
</trkpt>
<trkpt lat="38.21269" lon="-120.38854">
<ele>1148.1</ele>
<time>2026-04-22T10:22:43-07:00</time>
</trkpt>
<trkpt lat="38.21268" lon="-120.38883">
<ele>1146.8</ele>
<time>2026-04-22T10:22:44-07:00</time>
</trkpt>
<trkpt lat="38.2125" lon="-120.38899">
<ele>1144.9</ele>
<time>2026-04-22T10:22:45-07:00</time>
</trkpt>
<trkpt lat="38.21235" lon="-120.38917">
<ele>1143.7</ele>
<time>2026-04-22T10:22:46-07:00</time>
</trkpt>
<trkpt lat="38.21233" lon="-120.38925">
<ele>1143.7</ele>
<time>2026-04-22T10:22:47-07:00</time>
</trkpt>
<trkpt lat="38.2124" lon="-120.38923">
<ele>1143.7</ele>
<time>2026-04-22T10:22:48-07:00</time>
</trkpt>
<trkpt lat="38.21243" lon="-120.38918">
<ele>1142.6</ele>
<time>2026-04-22T10:22:49-07:00</time>
</trkpt>
<trkpt lat="38.21249" lon="-120.38913">
<ele>1143.3</ele>
<time>2026-04-22T10:22:50-07:00</time>
</trkpt>
<trkpt lat="38.21253" lon="-120.38912">
<ele>1142.1</ele>
<time>2026-04-22T10:22:51-07:00</time>
</trkpt>
<trkpt lat="38.2126" lon="-120.38916">
<ele>1141.6</ele>
<time>2026-04-22T10:22:52-07:00</time>
</trkpt>
<trkpt lat="38.21266" lon="-120.38917">
<ele>1139.7</ele>
<time>2026-04-22T10:22:53-07:00</time>
</trkpt>
<trkpt lat="38.21277" lon="-120.38914">
<ele>1139.8</ele>
<time>2026-04-22T10:22:54-07:00</time>
</trkpt>
<trkpt lat="38.21282" lon="-120.38915">
<ele>1138</ele>
<time>2026-04-22T10:22:55-07:00</time>
</trkpt>
<trkpt lat="38.2128" lon="-120.38922">
<ele>1136.9</ele>
<time>2026-04-22T10:22:56-07:00</time>
</trkpt>
<trkpt lat="38.21271" lon="-120.38933">
<ele>1136.8</ele>
<time>2026-04-22T10:22:57-07:00</time>
</trkpt>
<trkpt lat="38.21269" lon="-120.38956">
<ele>1132.7</ele>
<time>2026-04-22T10:22:58-07:00</time>
</trkpt>
<trkpt lat="38.21267" lon="-120.38962">
<ele>1134.8</ele>
<time>2026-04-22T10:22:59-07:00</time>
</trkpt>
<trkpt lat="38.21267" lon="-120.38976">
<ele>1132.7</ele>
<time>2026-04-22T10:23:00-07:00</time>
</trkpt>
<trkpt lat="38.21249" lon="-120.38985">
<ele>1130.3</ele>
<time>2026-04-22T10:23:01-07:00</time>
</trkpt>
<trkpt lat="38.21252" lon="-120.38985">
<ele>1130.9</ele>
<time>2026-04-22T10:23:02-07:00</time>
</trkpt>
<trkpt lat="38.21258" lon="-120.38989">
<ele>1130.9</ele>
<time>2026-04-22T10:23:03-07:00</time>
</trkpt>
<trkpt lat="38.21264" lon="-120.39007">
<ele>1128.6</ele>
<time>2026-04-22T10:23:04-07:00</time>
</trkpt>
<trkpt lat="38.21271" lon="-120.39008">
<ele>1128.1</ele>
<time>2026-04-22T10:23:05-07:00</time>
</trkpt>
<trkpt lat="38.21279" lon="-120.39013">
<ele>1125.9</ele>
<time>2026-04-22T10:23:06-07:00</time>
</trkpt>
<trkpt lat="38.21295" lon="-120.39015">
<ele>1125.6</ele>
<time>2026-04-22T10:23:07-07:00</time>
</trkpt>
<trkpt lat="38.213" lon="-120.39017">
<ele>1125.5</ele>
<time>2026-04-22T10:23:08-07:00</time>
</trkpt>
<trkpt lat="38.21309" lon="-120.39014">
<ele>1124.2</ele>
<time>2026-04-22T10:23:09-07:00</time>
</trkpt>
<trkpt lat="38.21315" lon="-120.39019">
<ele>1121.2</ele>
<time>2026-04-22T10:23:10-07:00</time>
</trkpt>
<trkpt lat="38.21305" lon="-120.39035">
<ele>1122.3</ele>
<time>2026-04-22T10:23:11-07:00</time>
</trkpt>
<trkpt lat="38.213" lon="-120.39038">
<ele>1120.2</ele>
<time>2026-04-22T10:23:12-07:00</time>
</trkpt>
<trkpt lat="38.21299" lon="-120.39042">
<ele>1120.2</ele>
<time>2026-04-22T10:23:13-07:00</time>
</trkpt>
<trkpt lat="38.21305" lon="-120.39042">
<ele>1120.2</ele>
<time>2026-04-22T10:23:14-07:00</time>
</trkpt>
<trkpt lat="38.21311" lon="-120.39038">
<ele>1119.7</ele>
<time>2026-04-22T10:23:15-07:00</time>
</trkpt>
<trkpt lat="38.21315" lon="-120.39038">
<ele>1118.5</ele>
<time>2026-04-22T10:23:16-07:00</time>
</trkpt>
<trkpt lat="38.21323" lon="-120.39034">
<ele>1119.9</ele>
<time>2026-04-22T10:23:17-07:00</time>
</trkpt>
<trkpt lat="38.21329" lon="-120.39035">
<ele>1118.5</ele>
<time>2026-04-22T10:23:18-07:00</time>
</trkpt>
<trkpt lat="38.21334" lon="-120.39031">
<ele>1117.7</ele>
<time>2026-04-22T10:23:19-07:00</time>
</trkpt>
<trkpt lat="38.21336" lon="-120.39033">
<ele>1117.7</ele>
<time>2026-04-22T10:23:20-07:00</time>
</trkpt>
<trkpt lat="38.21335" lon="-120.39047">
<ele>1115.3</ele>
<time>2026-04-22T10:23:21-07:00</time>
</trkpt>
<trkpt lat="38.21327" lon="-120.39063">
<ele>1115.1</ele>
<time>2026-04-22T10:23:22-07:00</time>
</trkpt>
<trkpt lat="38.21307" lon="-120.39075">
<ele>1112.2</ele>
<time>2026-04-22T10:23:23-07:00</time>
</trkpt>
<trkpt lat="38.213" lon="-120.39081">
<ele>1112.5</ele>
<time>2026-04-22T10:23:24-07:00</time>
</trkpt>
<trkpt lat="38.21298" lon="-120.39091">
<ele>1111.8</ele>
<time>2026-04-22T10:23:25-07:00</time>
</trkpt>
<trkpt lat="38.21298" lon="-120.39105">
<ele>1109.4</ele>
<time>2026-04-22T10:23:26-07:00</time>
</trkpt>
<trkpt lat="38.21312" lon="-120.39097">
<ele>1107.8</ele>
<time>2026-04-22T10:23:27-07:00</time>
</trkpt>
<trkpt lat="38.21342" lon="-120.39116">
<ele>1104.9</ele>
<time>2026-04-22T10:23:28-07:00</time>
</trkpt>
<trkpt lat="38.21356" lon="-120.39122">
<ele>1103.2</ele>
<time>2026-04-22T10:23:29-07:00</time>
</trkpt>
<trkpt lat="38.21367" lon="-120.39132">
<ele>1102.2</ele>
<time>2026-04-22T10:23:30-07:00</time>
</trkpt>
<trkpt lat="38.21389" lon="-120.39162">
<ele>1097.6</ele>
<time>2026-04-22T10:23:31-07:00</time>
</trkpt>
<trkpt lat="38.21411" lon="-120.39168">
<ele>1096.9</ele>
<time>2026-04-22T10:23:32-07:00</time>
</trkpt>
<trkpt lat="38.2144" lon="-120.39181">
<ele>1096</ele>
<time>2026-04-22T10:23:33-07:00</time>
</trkpt>
<trkpt lat="38.21448" lon="-120.39176">
<ele>1095.8</ele>
<time>2026-04-22T10:23:34-07:00</time>
</trkpt>
<trkpt lat="38.21457" lon="-120.39175">
<ele>1095.9</ele>
<time>2026-04-22T10:23:35-07:00</time>
</trkpt>
<trkpt lat="38.21465" lon="-120.3917">
<ele>1094.4</ele>
<time>2026-04-22T10:23:36-07:00</time>
</trkpt>
<trkpt lat="38.2147" lon="-120.39169">
<ele>1094.4</ele>
<time>2026-04-22T10:23:37-07:00</time>
</trkpt>
<trkpt lat="38.21479" lon="-120.39152">
<ele>1093.7</ele>
<time>2026-04-22T10:23:38-07:00</time>
</trkpt>
<trkpt lat="38.21481" lon="-120.39141">
<ele>1093.9</ele>
<time>2026-04-22T10:23:39-07:00</time>
</trkpt>
<trkpt lat="38.21487" lon="-120.3914">
<ele>1091</ele>
<time>2026-04-22T10:23:40-07:00</time>
</trkpt>
<trkpt lat="38.21491" lon="-120.39149">
<ele>1088</ele>
<time>2026-04-22T10:23:41-07:00</time>
</trkpt>
<trkpt lat="38.2149" lon="-120.39155">
<ele>1090.7</ele>
<time>2026-04-22T10:23:42-07:00</time>
</trkpt>
<trkpt lat="38.21492" lon="-120.39175">
<ele>1088</ele>
<time>2026-04-22T10:23:43-07:00</time>
</trkpt>
<trkpt lat="38.21495" lon="-120.39175">
<ele>1088</ele>
<time>2026-04-22T10:23:44-07:00</time>
</trkpt>
<trkpt lat="38.21499" lon="-120.3917">
<ele>1088</ele>
<time>2026-04-22T10:23:45-07:00</time>
</trkpt>
<trkpt lat="38.21499" lon="-120.39164">
<ele>1088</ele>
<time>2026-04-22T10:23:46-07:00</time>
</trkpt>
<trkpt lat="38.21502" lon="-120.39159">
<ele>1085.9</ele>
<time>2026-04-22T10:23:47-07:00</time>
</trkpt>
<trkpt lat="38.21505" lon="-120.39146">
<ele>1084.6</ele>
<time>2026-04-22T10:23:48-07:00</time>
</trkpt>
<trkpt lat="38.21505" lon="-120.39139">
<ele>1084.6</ele>
<time>2026-04-22T10:23:49-07:00</time>
</trkpt>
<trkpt lat="38.21501" lon="-120.39121">
<ele>1081.5</ele>
<time>2026-04-22T10:23:50-07:00</time>
</trkpt>
<trkpt lat="38.21502" lon="-120.39112">
<ele>1080.5</ele>
<time>2026-04-22T10:23:51-07:00</time>
</trkpt>
<trkpt lat="38.21511" lon="-120.39089">
<ele>1077.5</ele>
<time>2026-04-22T10:23:52-07:00</time>
</trkpt>
<trkpt lat="38.21522" lon="-120.39076">
<ele>1076</ele>
<time>2026-04-22T10:23:53-07:00</time>
</trkpt>
<trkpt lat="38.21528" lon="-120.39078">
<ele>1074</ele>
<time>2026-04-22T10:23:54-07:00</time>
</trkpt>
<trkpt lat="38.21535" lon="-120.39094">
<ele>1073.5</ele>
<time>2026-04-22T10:23:55-07:00</time>
</trkpt>
<trkpt lat="38.21552" lon="-120.39114">
<ele>1069.3</ele>
<time>2026-04-22T10:23:56-07:00</time>
</trkpt>
<trkpt lat="38.21559" lon="-120.39111">
<ele>1067.4</ele>
<time>2026-04-22T10:23:57-07:00</time>
</trkpt>
<trkpt lat="38.21562" lon="-120.39103">
<ele>1067.4</ele>
<time>2026-04-22T10:23:58-07:00</time>
</trkpt>
<trkpt lat="38.21562" lon="-120.39057">
<ele>1068.4</ele>
<time>2026-04-22T10:23:59-07:00</time>
</trkpt>
<trkpt lat="38.21568" lon="-120.3903">
<ele>1067.9</ele>
<time>2026-04-22T10:24:00-07:00</time>
</trkpt>
<trkpt lat="38.21573" lon="-120.38958">
<ele>1066.4</ele>
<time>2026-04-22T10:24:01-07:00</time>
</trkpt>
<trkpt lat="38.21576" lon="-120.38946">
<ele>1066.8</ele>
<time>2026-04-22T10:24:02-07:00</time>
</trkpt>
<trkpt lat="38.21585" lon="-120.38938">
<ele>1068.5</ele>
<time>2026-04-22T10:24:03-07:00</time>
</trkpt>
<trkpt lat="38.21665" lon="-120.38909">
<ele>1077.9</ele>
<time>2026-04-22T10:24:04-07:00</time>
</trkpt>
<trkpt lat="38.21676" lon="-120.38896">
<ele>1079.4</ele>
<time>2026-04-22T10:24:05-07:00</time>
</trkpt>
<trkpt lat="38.21683" lon="-120.38879">
<ele>1080.4</ele>
<time>2026-04-22T10:24:06-07:00</time>
</trkpt>
<trkpt lat="38.21673" lon="-120.38823">
<ele>1082</ele>
<time>2026-04-22T10:24:07-07:00</time>
</trkpt>
<trkpt lat="38.21665" lon="-120.38801">
<ele>1083.4</ele>
<time>2026-04-22T10:24:08-07:00</time>
</trkpt>
<trkpt lat="38.21665" lon="-120.38782">
<ele>1084.2</ele>
<time>2026-04-22T10:24:09-07:00</time>
</trkpt>
<trkpt lat="38.21682" lon="-120.38671">
<ele>1084.5</ele>
<time>2026-04-22T10:24:10-07:00</time>
</trkpt>
<trkpt lat="38.21689" lon="-120.38663">
<ele>1084.8</ele>
<time>2026-04-22T10:24:11-07:00</time>
</trkpt>
<trkpt lat="38.21714" lon="-120.38658">
<ele>1084.1</ele>
<time>2026-04-22T10:24:12-07:00</time>
</trkpt>
<trkpt lat="38.21728" lon="-120.38644">
<ele>1084.9</ele>
<time>2026-04-22T10:24:13-07:00</time>
</trkpt>
<trkpt lat="38.21737" lon="-120.38622">
<ele>1084.9</ele>
<time>2026-04-22T10:24:14-07:00</time>
</trkpt>
<trkpt lat="38.21743" lon="-120.38596">
<ele>1084.1</ele>
<time>2026-04-22T10:24:15-07:00</time>
</trkpt>
<trkpt lat="38.21745" lon="-120.38576">
<ele>1084.8</ele>
<time>2026-04-22T10:24:16-07:00</time>
</trkpt>
<trkpt lat="38.2175" lon="-120.38567">
<ele>1083.7</ele>
<time>2026-04-22T10:24:17-07:00</time>
</trkpt>
<trkpt lat="38.21775" lon="-120.38563">
<ele>1087.1</ele>
<time>2026-04-22T10:24:18-07:00</time>
</trkpt>
<trkpt lat="38.21822" lon="-120.38552">
<ele>1086.9</ele>
<time>2026-04-22T10:24:19-07:00</time>
</trkpt>
<trkpt lat="38.21835" lon="-120.38546">
<ele>1088.7</ele>
<time>2026-04-22T10:24:20-07:00</time>
</trkpt>
<trkpt lat="38.21847" lon="-120.38546">
<ele>1087.8</ele>
<time>2026-04-22T10:24:21-07:00</time>
</trkpt>
<trkpt lat="38.21862" lon="-120.38534">
<ele>1086.7</ele>
<time>2026-04-22T10:24:22-07:00</time>
</trkpt>
<trkpt lat="38.21862" lon="-120.3852">
<ele>1087.2</ele>
<time>2026-04-22T10:24:23-07:00</time>
</trkpt>
<trkpt lat="38.21868" lon="-120.38509">
<ele>1087.9</ele>
<time>2026-04-22T10:24:24-07:00</time>
</trkpt>
<trkpt lat="38.21882" lon="-120.38495">
<ele>1086.3</ele>
<time>2026-04-22T10:24:25-07:00</time>
</trkpt>
<trkpt lat="38.21915" lon="-120.38453">
<ele>1089.8</ele>
<time>2026-04-22T10:24:26-07:00</time>
</trkpt>
<trkpt lat="38.21929" lon="-120.38441">
<ele>1089</ele>
<time>2026-04-22T10:24:27-07:00</time>
</trkpt>
<trkpt lat="38.21942" lon="-120.38436">
<ele>1087.5</ele>
<time>2026-04-22T10:24:28-07:00</time>
</trkpt>
<trkpt lat="38.21956" lon="-120.38436">
<ele>1088.5</ele>
<time>2026-04-22T10:24:29-07:00</time>
</trkpt>
<trkpt lat="38.21971" lon="-120.38433">
<ele>1091.6</ele>
<time>2026-04-22T10:24:30-07:00</time>
</trkpt>
<trkpt lat="38.21985" lon="-120.38425">
<ele>1091.7</ele>
<time>2026-04-22T10:24:31-07:00</time>
</trkpt>
<trkpt lat="38.22003" lon="-120.38419">
<ele>1091.7</ele>
<time>2026-04-22T10:24:32-07:00</time>
</trkpt>
<trkpt lat="38.22021" lon="-120.38422">
<ele>1093.4</ele>
<time>2026-04-22T10:24:33-07:00</time>
</trkpt>
<trkpt lat="38.22045" lon="-120.38429">
<ele>1093.9</ele>
<time>2026-04-22T10:24:34-07:00</time>
</trkpt>
<trkpt lat="38.22072" lon="-120.38443">
<ele>1093.8</ele>
<time>2026-04-22T10:24:35-07:00</time>
</trkpt>
<trkpt lat="38.22094" lon="-120.38446">
<ele>1092.9</ele>
<time>2026-04-22T10:24:36-07:00</time>
</trkpt>
<trkpt lat="38.22123" lon="-120.38443">
<ele>1096.8</ele>
<time>2026-04-22T10:24:37-07:00</time>
</trkpt>
<trkpt lat="38.2218" lon="-120.3845">
<ele>1096.3</ele>
<time>2026-04-22T10:24:38-07:00</time>
</trkpt>
<trkpt lat="38.22191" lon="-120.38448">
<ele>1095.1</ele>
<time>2026-04-22T10:24:39-07:00</time>
</trkpt>
<trkpt lat="38.22209" lon="-120.38436">
<ele>1093.7</ele>
<time>2026-04-22T10:24:40-07:00</time>
</trkpt>
<trkpt lat="38.22253" lon="-120.38437">
<ele>1101.6</ele>
<time>2026-04-22T10:24:41-07:00</time>
</trkpt>
<trkpt lat="38.22264" lon="-120.38434">
<ele>1101</ele>
<time>2026-04-22T10:24:42-07:00</time>
</trkpt>
<trkpt lat="38.22281" lon="-120.3842">
<ele>1101.6</ele>
<time>2026-04-22T10:24:43-07:00</time>
</trkpt>
<trkpt lat="38.22288" lon="-120.38437">
<ele>1103.7</ele>
<time>2026-04-22T10:24:44-07:00</time>
</trkpt>
<trkpt lat="38.22287" lon="-120.38445">
<ele>1104.9</ele>
<time>2026-04-22T10:24:45-07:00</time>
</trkpt>
<trkpt lat="38.22283" lon="-120.38452">
<ele>1104.9</ele>
<time>2026-04-22T10:24:46-07:00</time>
</trkpt>
<trkpt lat="38.22274" lon="-120.3845">
<ele>1104.4</ele>
<time>2026-04-22T10:24:47-07:00</time>
</trkpt>
<trkpt lat="38.22273" lon="-120.38461">
<ele>1105.7</ele>
<time>2026-04-22T10:24:48-07:00</time>
</trkpt>
<trkpt lat="38.22276" lon="-120.3847">
<ele>1106.7</ele>
<time>2026-04-22T10:24:49-07:00</time>
</trkpt>
<trkpt lat="38.22284" lon="-120.38478">
<ele>1108.7</ele>
<time>2026-04-22T10:24:50-07:00</time>
</trkpt>
<trkpt lat="38.22291" lon="-120.38495">
<ele>1112.4</ele>
<time>2026-04-22T10:24:51-07:00</time>
</trkpt>
<trkpt lat="38.223" lon="-120.38543">
<ele>1118</ele>
<time>2026-04-22T10:24:52-07:00</time>
</trkpt>
<trkpt lat="38.22305" lon="-120.38557">
<ele>1122</ele>
<time>2026-04-22T10:24:53-07:00</time>
</trkpt>
<trkpt lat="38.22332" lon="-120.38586">
<ele>1126.3</ele>
<time>2026-04-22T10:24:54-07:00</time>
</trkpt>
<trkpt lat="38.22337" lon="-120.38601">
<ele>1129.2</ele>
<time>2026-04-22T10:24:55-07:00</time>
</trkpt>
<trkpt lat="38.2234" lon="-120.38617">
<ele>1130.4</ele>
<time>2026-04-22T10:24:56-07:00</time>
</trkpt>
<trkpt lat="38.22339" lon="-120.38626">
<ele>1131.1</ele>
<time>2026-04-22T10:24:57-07:00</time>
</trkpt>
<trkpt lat="38.22336" lon="-120.38636">
<ele>1132.3</ele>
<time>2026-04-22T10:24:58-07:00</time>
</trkpt>
<trkpt lat="38.2233" lon="-120.38641">
<ele>1133.5</ele>
<time>2026-04-22T10:24:59-07:00</time>
</trkpt>
<trkpt lat="38.2232" lon="-120.3864">
<ele>1133.9</ele>
<time>2026-04-22T10:25:00-07:00</time>
</trkpt>
<trkpt lat="38.22305" lon="-120.38641">
<ele>1135.1</ele>
<time>2026-04-22T10:25:01-07:00</time>
</trkpt>
<trkpt lat="38.22276" lon="-120.38634">
<ele>1135.8</ele>
<time>2026-04-22T10:25:02-07:00</time>
</trkpt>
<trkpt lat="38.22258" lon="-120.38626">
<ele>1135.9</ele>
<time>2026-04-22T10:25:03-07:00</time>
</trkpt>
<trkpt lat="38.22211" lon="-120.38628">
<ele>1138.8</ele>
<time>2026-04-22T10:25:04-07:00</time>
</trkpt>
<trkpt lat="38.22191" lon="-120.38632">
<ele>1139.9</ele>
<time>2026-04-22T10:25:05-07:00</time>
</trkpt>
<trkpt lat="38.22184" lon="-120.3864">
<ele>1139.8</ele>
<time>2026-04-22T10:25:06-07:00</time>
</trkpt>
<trkpt lat="38.22182" lon="-120.38654">
<ele>1139.9</ele>
<time>2026-04-22T10:25:07-07:00</time>
</trkpt>
<trkpt lat="38.22191" lon="-120.38711">
<ele>1141.4</ele>
<time>2026-04-22T10:25:08-07:00</time>
</trkpt>
<trkpt lat="38.22211" lon="-120.38733">
<ele>1142.6</ele>
<time>2026-04-22T10:25:09-07:00</time>
</trkpt>
<trkpt lat="38.22214" lon="-120.38748">
<ele>1142.6</ele>
<time>2026-04-22T10:25:10-07:00</time>
</trkpt>
<trkpt lat="38.22209" lon="-120.38792">
<ele>1146.1</ele>
<time>2026-04-22T10:25:11-07:00</time>
</trkpt>
<trkpt lat="38.22199" lon="-120.38831">
<ele>1147</ele>
<time>2026-04-22T10:25:12-07:00</time>
</trkpt>
<trkpt lat="38.22198" lon="-120.38848">
<ele>1147.1</ele>
<time>2026-04-22T10:25:13-07:00</time>
</trkpt>
<trkpt lat="38.22202" lon="-120.38859">
<ele>1146.1</ele>
<time>2026-04-22T10:25:14-07:00</time>
</trkpt>
<trkpt lat="38.22209" lon="-120.38867">
<ele>1146.1</ele>
<time>2026-04-22T10:25:15-07:00</time>
</trkpt>
<trkpt lat="38.22217" lon="-120.38871">
<ele>1146.2</ele>
<time>2026-04-22T10:25:16-07:00</time>
</trkpt>
<trkpt lat="38.22245" lon="-120.38893">
<ele>1145.9</ele>
<time>2026-04-22T10:25:17-07:00</time>
</trkpt>
<trkpt lat="38.22263" lon="-120.38897">
<ele>1148.7</ele>
<time>2026-04-22T10:25:18-07:00</time>
</trkpt>
<trkpt lat="38.22271" lon="-120.38928">
<ele>1148.4</ele>
<time>2026-04-22T10:25:19-07:00</time>
</trkpt>
<trkpt lat="38.22262" lon="-120.38944">
<ele>1147</ele>
<time>2026-04-22T10:25:20-07:00</time>
</trkpt>
<trkpt lat="38.22258" lon="-120.38956">
<ele>1145.4</ele>
<time>2026-04-22T10:25:21-07:00</time>
</trkpt>
<trkpt lat="38.22267" lon="-120.38968">
<ele>1145</ele>
<time>2026-04-22T10:25:22-07:00</time>
</trkpt>
<trkpt lat="38.22281" lon="-120.38971">
<ele>1145.1</ele>
<time>2026-04-22T10:25:23-07:00</time>
</trkpt>
<trkpt lat="38.22294" lon="-120.38971">
<ele>1145.4</ele>
<time>2026-04-22T10:25:24-07:00</time>
</trkpt>
<trkpt lat="38.22312" lon="-120.38978">
<ele>1147.1</ele>
<time>2026-04-22T10:25:25-07:00</time>
</trkpt>
<trkpt lat="38.22335" lon="-120.38978">
<ele>1147.1</ele>
<time>2026-04-22T10:25:26-07:00</time>
</trkpt>
<trkpt lat="38.22357" lon="-120.38968">
<ele>1147.4</ele>
<time>2026-04-22T10:25:27-07:00</time>
</trkpt>
<trkpt lat="38.2237" lon="-120.38951">
<ele>1148.9</ele>
<time>2026-04-22T10:25:28-07:00</time>
</trkpt>
<trkpt lat="38.22379" lon="-120.38933">
<ele>1148.7</ele>
<time>2026-04-22T10:25:29-07:00</time>
</trkpt>
<trkpt lat="38.22381" lon="-120.38914">
<ele>1149.2</ele>
<time>2026-04-22T10:25:30-07:00</time>
</trkpt>
<trkpt lat="38.22399" lon="-120.38876">
<ele>1150.8</ele>
<time>2026-04-22T10:25:31-07:00</time>
</trkpt>
<trkpt lat="38.22406" lon="-120.38871">
<ele>1150.8</ele>
<time>2026-04-22T10:25:32-07:00</time>
</trkpt>
<trkpt lat="38.22413" lon="-120.38869">
<ele>1154.4</ele>
<time>2026-04-22T10:25:33-07:00</time>
</trkpt>
<trkpt lat="38.2242" lon="-120.38874">
<ele>1156.7</ele>
<time>2026-04-22T10:25:34-07:00</time>
</trkpt>
<trkpt lat="38.22422" lon="-120.38883">
<ele>1155.2</ele>
<time>2026-04-22T10:25:35-07:00</time>
</trkpt>
<trkpt lat="38.22426" lon="-120.38889">
<ele>1155.6</ele>
<time>2026-04-22T10:25:36-07:00</time>
</trkpt>
<trkpt lat="38.22429" lon="-120.3889">
<ele>1155.6</ele>
<time>2026-04-22T10:25:37-07:00</time>
</trkpt>
<trkpt lat="38.22443" lon="-120.38905">
<ele>1153.2</ele>
<time>2026-04-22T10:25:38-07:00</time>
</trkpt>
<trkpt lat="38.22453" lon="-120.38921">
<ele>1152.9</ele>
<time>2026-04-22T10:25:39-07:00</time>
</trkpt>
<trkpt lat="38.22455" lon="-120.38984">
<ele>1160.1</ele>
<time>2026-04-22T10:25:40-07:00</time>
</trkpt>
<trkpt lat="38.22462" lon="-120.39011">
<ele>1159.9</ele>
<time>2026-04-22T10:25:41-07:00</time>
</trkpt>
<trkpt lat="38.22489" lon="-120.39044">
<ele>1161.8</ele>
<time>2026-04-22T10:25:42-07:00</time>
</trkpt>
<trkpt lat="38.22499" lon="-120.39054">
<ele>1161.6</ele>
<time>2026-04-22T10:25:43-07:00</time>
</trkpt>
<trkpt lat="38.22505" lon="-120.39056">
<ele>1162.3</ele>
<time>2026-04-22T10:25:44-07:00</time>
</trkpt>
<trkpt lat="38.2252" lon="-120.39057">
<ele>1163.8</ele>
<time>2026-04-22T10:25:45-07:00</time>
</trkpt>
<trkpt lat="38.22528" lon="-120.3906">
<ele>1165.1</ele>
<time>2026-04-22T10:25:46-07:00</time>
</trkpt>
<trkpt lat="38.22534" lon="-120.39066">
<ele>1166</ele>
<time>2026-04-22T10:25:47-07:00</time>
</trkpt>
<trkpt lat="38.22544" lon="-120.39089">
<ele>1167.9</ele>
<time>2026-04-22T10:25:48-07:00</time>
</trkpt>
<trkpt lat="38.22551" lon="-120.39098">
<ele>1168.6</ele>
<time>2026-04-22T10:25:49-07:00</time>
</trkpt>
<trkpt lat="38.22563" lon="-120.39099">
<ele>1169.2</ele>
<time>2026-04-22T10:25:50-07:00</time>
</trkpt>
<trkpt lat="38.22589" lon="-120.39093">
<ele>1170.8</ele>
<time>2026-04-22T10:25:51-07:00</time>
</trkpt>
<trkpt lat="38.22603" lon="-120.39092">
<ele>1173.5</ele>
<time>2026-04-22T10:25:52-07:00</time>
</trkpt>
<trkpt lat="38.22609" lon="-120.39097">
<ele>1174</ele>
<time>2026-04-22T10:25:53-07:00</time>
</trkpt>
<trkpt lat="38.22623" lon="-120.39123">
<ele>1177.8</ele>
<time>2026-04-22T10:25:54-07:00</time>
</trkpt>
<trkpt lat="38.22638" lon="-120.3914">
<ele>1179</ele>
<time>2026-04-22T10:25:55-07:00</time>
</trkpt>
<trkpt lat="38.22649" lon="-120.39149">
<ele>1183.6</ele>
<time>2026-04-22T10:25:56-07:00</time>
</trkpt>
<trkpt lat="38.22656" lon="-120.39157">
<ele>1183.6</ele>
<time>2026-04-22T10:25:57-07:00</time>
</trkpt>
<trkpt lat="38.22659" lon="-120.39167">
<ele>1186.6</ele>
<time>2026-04-22T10:25:58-07:00</time>
</trkpt>
<trkpt lat="38.22658" lon="-120.39178">
<ele>1187</ele>
<time>2026-04-22T10:25:59-07:00</time>
</trkpt>
<trkpt lat="38.22661" lon="-120.39198">
<ele>1187.3</ele>
<time>2026-04-22T10:26:00-07:00</time>
</trkpt>
<trkpt lat="38.22667" lon="-120.39213">
<ele>1187.9</ele>
<time>2026-04-22T10:26:01-07:00</time>
</trkpt>
<trkpt lat="38.22672" lon="-120.39219">
<ele>1187.9</ele>
<time>2026-04-22T10:26:02-07:00</time>
</trkpt>
<trkpt lat="38.22677" lon="-120.39218">
<ele>1188.3</ele>
<time>2026-04-22T10:26:03-07:00</time>
</trkpt>
<trkpt lat="38.22688" lon="-120.3919">
<ele>1190.7</ele>
<time>2026-04-22T10:26:04-07:00</time>
</trkpt>
<trkpt lat="38.22697" lon="-120.39175">
<ele>1192.6</ele>
<time>2026-04-22T10:26:05-07:00</time>
</trkpt>
<trkpt lat="38.22704" lon="-120.39172">
<ele>1194.5</ele>
<time>2026-04-22T10:26:06-07:00</time>
</trkpt>
<trkpt lat="38.22708" lon="-120.39161">
<ele>1194.9</ele>
<time>2026-04-22T10:26:07-07:00</time>
</trkpt>
<trkpt lat="38.22708" lon="-120.39123">
<ele>1197.4</ele>
<time>2026-04-22T10:26:08-07:00</time>
</trkpt>
<trkpt lat="38.22715" lon="-120.39074">
<ele>1199.8</ele>
<time>2026-04-22T10:26:09-07:00</time>
</trkpt>
<trkpt lat="38.22712" lon="-120.39061">
<ele>1201.7</ele>
<time>2026-04-22T10:26:10-07:00</time>
</trkpt>
<trkpt lat="38.2271" lon="-120.3903">
<ele>1205.9</ele>
<time>2026-04-22T10:26:11-07:00</time>
</trkpt>
<trkpt lat="38.22712" lon="-120.39015">
<ele>1209.3</ele>
<time>2026-04-22T10:26:12-07:00</time>
</trkpt>
<trkpt lat="38.22711" lon="-120.38992">
<ele>1211.5</ele>
<time>2026-04-22T10:26:13-07:00</time>
</trkpt>
<trkpt lat="38.22713" lon="-120.38967">
<ele>1218.5</ele>
<time>2026-04-22T10:26:14-07:00</time>
</trkpt>
<trkpt lat="38.22701" lon="-120.3891">
<ele>1219.6</ele>
<time>2026-04-22T10:26:15-07:00</time>
</trkpt>
<trkpt lat="38.22704" lon="-120.38897">
<ele>1223.3</ele>
<time>2026-04-22T10:26:16-07:00</time>
</trkpt>
<trkpt lat="38.22716" lon="-120.3888">
<ele>1226.4</ele>
<time>2026-04-22T10:26:17-07:00</time>
</trkpt>
<trkpt lat="38.2273" lon="-120.38853">
<ele>1228.1</ele>
<time>2026-04-22T10:26:18-07:00</time>
</trkpt>
<trkpt lat="38.22744" lon="-120.38831">
<ele>1234.1</ele>
<time>2026-04-22T10:26:19-07:00</time>
</trkpt>
<trkpt lat="38.22751" lon="-120.38809">
<ele>1238</ele>
<time>2026-04-22T10:26:20-07:00</time>
</trkpt>
<trkpt lat="38.22752" lon="-120.38798">
<ele>1239</ele>
<time>2026-04-22T10:26:21-07:00</time>
</trkpt>
<trkpt lat="38.22744" lon="-120.38775">
<ele>1240.3</ele>
<time>2026-04-22T10:26:22-07:00</time>
</trkpt>
<trkpt lat="38.22746" lon="-120.38767">
<ele>1241.3</ele>
<time>2026-04-22T10:26:23-07:00</time>
</trkpt>
<trkpt lat="38.2275" lon="-120.38758">
<ele>1244.2</ele>
<time>2026-04-22T10:26:24-07:00</time>
</trkpt>
<trkpt lat="38.22763" lon="-120.38744">
<ele>1246.5</ele>
<time>2026-04-22T10:26:25-07:00</time>
</trkpt>
<trkpt lat="38.22779" lon="-120.38731">
<ele>1249.6</ele>
<time>2026-04-22T10:26:26-07:00</time>
</trkpt>
<trkpt lat="38.22802" lon="-120.3872">
<ele>1251.5</ele>
<time>2026-04-22T10:26:27-07:00</time>
</trkpt>
<trkpt lat="38.22828" lon="-120.38718">
<ele>1252.1</ele>
<time>2026-04-22T10:26:28-07:00</time>
</trkpt>
<trkpt lat="38.22843" lon="-120.38719">
<ele>1250</ele>
<time>2026-04-22T10:26:29-07:00</time>
</trkpt>
<trkpt lat="38.22866" lon="-120.38724">
<ele>1248.3</ele>
<time>2026-04-22T10:26:30-07:00</time>
</trkpt>
<trkpt lat="38.22891" lon="-120.3874">
<ele>1244.8</ele>
<time>2026-04-22T10:26:31-07:00</time>
</trkpt>
<trkpt lat="38.22911" lon="-120.38746">
<ele>1245.2</ele>
<time>2026-04-22T10:26:32-07:00</time>
</trkpt>
<trkpt lat="38.22928" lon="-120.38759">
<ele>1245.4</ele>
<time>2026-04-22T10:26:33-07:00</time>
</trkpt>
<trkpt lat="38.22948" lon="-120.38769">
<ele>1246.6</ele>
<time>2026-04-22T10:26:34-07:00</time>
</trkpt>
<trkpt lat="38.22955" lon="-120.3877">
<ele>1245.9</ele>
<time>2026-04-22T10:26:35-07:00</time>
</trkpt>
<trkpt lat="38.22965" lon="-120.38769">
<ele>1248.7</ele>
<time>2026-04-22T10:26:36-07:00</time>
</trkpt>
<trkpt lat="38.22985" lon="-120.38738">
<ele>1248.8</ele>
<time>2026-04-22T10:26:37-07:00</time>
</trkpt>
<trkpt lat="38.2303" lon="-120.3872">
<ele>1252.6</ele>
<time>2026-04-22T10:26:38-07:00</time>
</trkpt>
<trkpt lat="38.23046" lon="-120.38722">
<ele>1253.3</ele>
<time>2026-04-22T10:26:39-07:00</time>
</trkpt>
<trkpt lat="38.23064" lon="-120.3873">
<ele>1255.2</ele>
<time>2026-04-22T10:26:40-07:00</time>
</trkpt>
<trkpt lat="38.23082" lon="-120.38749">
<ele>1260.1</ele>
<time>2026-04-22T10:26:41-07:00</time>
</trkpt>
<trkpt lat="38.23169" lon="-120.38869">
<ele>1281.4</ele>
<time>2026-04-22T10:26:42-07:00</time>
</trkpt>
<trkpt lat="38.23204" lon="-120.38891">
<ele>1278.3</ele>
<time>2026-04-22T10:26:43-07:00</time>
</trkpt>
<trkpt lat="38.23221" lon="-120.38928">
<ele>1279.1</ele>
<time>2026-04-22T10:26:44-07:00</time>
</trkpt>
<trkpt lat="38.23236" lon="-120.38929">
<ele>1278.5</ele>
<time>2026-04-22T10:26:45-07:00</time>
</trkpt>
<trkpt lat="38.23276" lon="-120.38847">
<ele>1262.7</ele>
<time>2026-04-22T10:26:46-07:00</time>
</trkpt>
<trkpt lat="38.23287" lon="-120.38805">
<ele>1256.7</ele>
<time>2026-04-22T10:26:47-07:00</time>
</trkpt>
<trkpt lat="38.23288" lon="-120.38787">
<ele>1258.8</ele>
<time>2026-04-22T10:26:48-07:00</time>
</trkpt>
<trkpt lat="38.23292" lon="-120.38781">
<ele>1258.8</ele>
<time>2026-04-22T10:26:49-07:00</time>
</trkpt>
<trkpt lat="38.23288" lon="-120.38763">
<ele>1258.2</ele>
<time>2026-04-22T10:26:50-07:00</time>
</trkpt>
<trkpt lat="38.23294" lon="-120.38762">
<ele>1258.2</ele>
<time>2026-04-22T10:26:51-07:00</time>
</trkpt>
<trkpt lat="38.23302" lon="-120.38767">
<ele>1257.4</ele>
<time>2026-04-22T10:26:52-07:00</time>
</trkpt>
<trkpt lat="38.23311" lon="-120.38778">
<ele>1256.7</ele>
<time>2026-04-22T10:26:53-07:00</time>
</trkpt>
<trkpt lat="38.23323" lon="-120.38758">
<ele>1254.6</ele>
<time>2026-04-22T10:26:54-07:00</time>
</trkpt>
<trkpt lat="38.23332" lon="-120.38723">
<ele>1250.5</ele>
<time>2026-04-22T10:26:55-07:00</time>
</trkpt>
<trkpt lat="38.23325" lon="-120.38709">
<ele>1248</ele>
<time>2026-04-22T10:26:56-07:00</time>
</trkpt>
<trkpt lat="38.23323" lon="-120.38698">
<ele>1247.2</ele>
<time>2026-04-22T10:26:57-07:00</time>
</trkpt>
<trkpt lat="38.23326" lon="-120.38693">
<ele>1245</ele>
<time>2026-04-22T10:26:58-07:00</time>
</trkpt>
<trkpt lat="38.23332" lon="-120.38689">
<ele>1245</ele>
<time>2026-04-22T10:26:59-07:00</time>
</trkpt>
<trkpt lat="38.23335" lon="-120.38678">
<ele>1243</ele>
<time>2026-04-22T10:27:00-07:00</time>
</trkpt>
<trkpt lat="38.23326" lon="-120.38657">
<ele>1239.8</ele>
<time>2026-04-22T10:27:01-07:00</time>
</trkpt>
<trkpt lat="38.23326" lon="-120.38644">
<ele>1238.3</ele>
<time>2026-04-22T10:27:02-07:00</time>
</trkpt>
<trkpt lat="38.23321" lon="-120.38624">
<ele>1236.2</ele>
<time>2026-04-22T10:27:03-07:00</time>
</trkpt>
<trkpt lat="38.23322" lon="-120.38606">
<ele>1233.6</ele>
<time>2026-04-22T10:27:04-07:00</time>
</trkpt>
<trkpt lat="38.23315" lon="-120.38583">
<ele>1230</ele>
<time>2026-04-22T10:27:05-07:00</time>
</trkpt>
<trkpt lat="38.23316" lon="-120.38576">
<ele>1230</ele>
<time>2026-04-22T10:27:06-07:00</time>
</trkpt>
<trkpt lat="38.23313" lon="-120.38556">
<ele>1228</ele>
<time>2026-04-22T10:27:07-07:00</time>
</trkpt>
<trkpt lat="38.23279" lon="-120.38503">
<ele>1220.9</ele>
<time>2026-04-22T10:27:08-07:00</time>
</trkpt>
<trkpt lat="38.23278" lon="-120.38481">
<ele>1219.2</ele>
<time>2026-04-22T10:27:09-07:00</time>
</trkpt>
<trkpt lat="38.2327" lon="-120.38473">
<ele>1218.4</ele>
<time>2026-04-22T10:27:10-07:00</time>
</trkpt>
<trkpt lat="38.23264" lon="-120.38458">
<ele>1217.1</ele>
<time>2026-04-22T10:27:11-07:00</time>
</trkpt>
<trkpt lat="38.23256" lon="-120.38446">
<ele>1216.5</ele>
<time>2026-04-22T10:27:12-07:00</time>
</trkpt>
<trkpt lat="38.23234" lon="-120.38421">
<ele>1214.1</ele>
<time>2026-04-22T10:27:13-07:00</time>
</trkpt>
<trkpt lat="38.23219" lon="-120.38408">
<ele>1212.8</ele>
<time>2026-04-22T10:27:14-07:00</time>
</trkpt>
<trkpt lat="38.23209" lon="-120.38394">
<ele>1212</ele>
<time>2026-04-22T10:27:15-07:00</time>
</trkpt>
<trkpt lat="38.23198" lon="-120.38383">
<ele>1211.2</ele>
<time>2026-04-22T10:27:16-07:00</time>
</trkpt>
<trkpt lat="38.23193" lon="-120.38374">
<ele>1210.6</ele>
<time>2026-04-22T10:27:17-07:00</time>
</trkpt>
<trkpt lat="38.23189" lon="-120.38359">
<ele>1209.7</ele>
<time>2026-04-22T10:27:18-07:00</time>
</trkpt>
<trkpt lat="38.23192" lon="-120.38347">
<ele>1209.1</ele>
<time>2026-04-22T10:27:19-07:00</time>
</trkpt>
<trkpt lat="38.23193" lon="-120.38327">
<ele>1207.5</ele>
<time>2026-04-22T10:27:20-07:00</time>
</trkpt>
<trkpt lat="38.23185" lon="-120.38299">
<ele>1205.3</ele>
<time>2026-04-22T10:27:21-07:00</time>
</trkpt>
<trkpt lat="38.23194" lon="-120.38284">
<ele>1202.4</ele>
<time>2026-04-22T10:27:22-07:00</time>
</trkpt>
<trkpt lat="38.23198" lon="-120.38269">
<ele>1200.1</ele>
<time>2026-04-22T10:27:23-07:00</time>
</trkpt>
<trkpt lat="38.23198" lon="-120.38262">
<ele>1198.8</ele>
<time>2026-04-22T10:27:24-07:00</time>
</trkpt>
<trkpt lat="38.23187" lon="-120.38232">
<ele>1197.4</ele>
<time>2026-04-22T10:27:25-07:00</time>
</trkpt>
<trkpt lat="38.23191" lon="-120.38222">
<ele>1196.3</ele>
<time>2026-04-22T10:27:26-07:00</time>
</trkpt>
<trkpt lat="38.23194" lon="-120.38219">
<ele>1196.3</ele>
<time>2026-04-22T10:27:27-07:00</time>
</trkpt>
<trkpt lat="38.23172" lon="-120.38235">
<ele>1196</ele>
<time>2026-04-22T10:27:28-07:00</time>
</trkpt>
<trkpt lat="38.23149" lon="-120.38255">
<ele>1199.5</ele>
<time>2026-04-22T10:27:29-07:00</time>
</trkpt>
<trkpt lat="38.23138" lon="-120.3827">
<ele>1198.8</ele>
<time>2026-04-22T10:27:30-07:00</time>
</trkpt>
<trkpt lat="38.23131" lon="-120.38355">
<ele>1195.6</ele>
<time>2026-04-22T10:27:31-07:00</time>
</trkpt>
<trkpt lat="38.23127" lon="-120.38384">
<ele>1191.5</ele>
<time>2026-04-22T10:27:32-07:00</time>
</trkpt>
<trkpt lat="38.23116" lon="-120.38418">
<ele>1188.1</ele>
<time>2026-04-22T10:27:33-07:00</time>
</trkpt>
<trkpt lat="38.23111" lon="-120.38425">
<ele>1187</ele>
<time>2026-04-22T10:27:34-07:00</time>
</trkpt>
<trkpt lat="38.23108" lon="-120.38426">
<ele>1187.1</ele>
<time>2026-04-22T10:27:35-07:00</time>
</trkpt>
<trkpt lat="38.23106" lon="-120.38431">
<ele>1187.1</ele>
<time>2026-04-22T10:27:36-07:00</time>
</trkpt>
<trkpt lat="38.23099" lon="-120.3842">
<ele>1185.1</ele>
<time>2026-04-22T10:27:37-07:00</time>
</trkpt>
<trkpt lat="38.23097" lon="-120.38411">
<ele>1184.8</ele>
<time>2026-04-22T10:27:38-07:00</time>
</trkpt>
<trkpt lat="38.23063" lon="-120.38384">
<ele>1179.6</ele>
<time>2026-04-22T10:27:39-07:00</time>
</trkpt>
<trkpt lat="38.23055" lon="-120.3837">
<ele>1177.3</ele>
<time>2026-04-22T10:27:40-07:00</time>
</trkpt>
<trkpt lat="38.23044" lon="-120.38341">
<ele>1173.8</ele>
<time>2026-04-22T10:27:41-07:00</time>
</trkpt>
<trkpt lat="38.23041" lon="-120.38305">
<ele>1166.7</ele>
<time>2026-04-22T10:27:42-07:00</time>
</trkpt>
<trkpt lat="38.23033" lon="-120.38286">
<ele>1164.5</ele>
<time>2026-04-22T10:27:43-07:00</time>
</trkpt>
<trkpt lat="38.23037" lon="-120.38258">
<ele>1162</ele>
<time>2026-04-22T10:27:44-07:00</time>
</trkpt>
<trkpt lat="38.23037" lon="-120.38243">
<ele>1161.3</ele>
<time>2026-04-22T10:27:45-07:00</time>
</trkpt>
<trkpt lat="38.23026" lon="-120.38208">
<ele>1156.1</ele>
<time>2026-04-22T10:27:46-07:00</time>
</trkpt>
<trkpt lat="38.23025" lon="-120.38195">
<ele>1155.9</ele>
<time>2026-04-22T10:27:47-07:00</time>
</trkpt>
<trkpt lat="38.23026" lon="-120.38175">
<ele>1157.2</ele>
<time>2026-04-22T10:27:48-07:00</time>
</trkpt>
<trkpt lat="38.23024" lon="-120.38168">
<ele>1157.2</ele>
<time>2026-04-22T10:27:49-07:00</time>
</trkpt>
<trkpt lat="38.23015" lon="-120.38155">
<ele>1154.1</ele>
<time>2026-04-22T10:27:50-07:00</time>
</trkpt>
<trkpt lat="38.22994" lon="-120.38107">
<ele>1146.1</ele>
<time>2026-04-22T10:27:51-07:00</time>
</trkpt>
<trkpt lat="38.22992" lon="-120.38085">
<ele>1144.2</ele>
<time>2026-04-22T10:27:52-07:00</time>
</trkpt>
<trkpt lat="38.22997" lon="-120.38065">
<ele>1142</ele>
<time>2026-04-22T10:27:53-07:00</time>
</trkpt>
<trkpt lat="38.23012" lon="-120.38043">
<ele>1142.2</ele>
<time>2026-04-22T10:27:54-07:00</time>
</trkpt>
<trkpt lat="38.23015" lon="-120.37998">
<ele>1135.9</ele>
<time>2026-04-22T10:27:55-07:00</time>
</trkpt>
<trkpt lat="38.23014" lon="-120.37998">
<ele>1135.9</ele>
<time>2026-04-22T10:27:56-07:00</time>
</trkpt>
<trkpt lat="38.23017" lon="-120.37995">
<ele>1135.9</ele>
<time>2026-04-22T10:27:57-07:00</time>
</trkpt>
<trkpt lat="38.23028" lon="-120.37972">
<ele>1136.9</ele>
<time>2026-04-22T10:27:58-07:00</time>
</trkpt>
<trkpt lat="38.23046" lon="-120.37949">
<ele>1138</ele>
<time>2026-04-22T10:27:59-07:00</time>
</trkpt>
<trkpt lat="38.23054" lon="-120.37923">
<ele>1138.7</ele>
<time>2026-04-22T10:28:00-07:00</time>
</trkpt>
<trkpt lat="38.23015" lon="-120.37998">
<ele>1135.9</ele>
<time>2026-04-22T10:28:01-07:00</time>
</trkpt>
<trkpt lat="38.23053" lon="-120.37921">
<ele>1138.7</ele>
<time>2026-04-22T10:28:02-07:00</time>
</trkpt>
<trkpt lat="38.23061" lon="-120.37912">
<ele>1139.8</ele>
<time>2026-04-22T10:28:03-07:00</time>
</trkpt>
<trkpt lat="38.23091" lon="-120.37896">
<ele>1143.4</ele>
<time>2026-04-22T10:28:04-07:00</time>
</trkpt>
<trkpt lat="38.23104" lon="-120.37892">
<ele>1144.9</ele>
<time>2026-04-22T10:28:05-07:00</time>
</trkpt>
<trkpt lat="38.23118" lon="-120.3789">
<ele>1145.7</ele>
<time>2026-04-22T10:28:06-07:00</time>
</trkpt>
<trkpt lat="38.23126" lon="-120.37891">
<ele>1146.6</ele>
<time>2026-04-22T10:28:07-07:00</time>
</trkpt>
<trkpt lat="38.23136" lon="-120.37895">
<ele>1147.3</ele>
<time>2026-04-22T10:28:08-07:00</time>
</trkpt>
<trkpt lat="38.23163" lon="-120.37915">
<ele>1151</ele>
<time>2026-04-22T10:28:09-07:00</time>
</trkpt>
<trkpt lat="38.23175" lon="-120.3793">
<ele>1152.8</ele>
<time>2026-04-22T10:28:10-07:00</time>
</trkpt>
<trkpt lat="38.23204" lon="-120.37975">
<ele>1158.8</ele>
<time>2026-04-22T10:28:11-07:00</time>
</trkpt>
<trkpt lat="38.23211" lon="-120.37987">
<ele>1159.4</ele>
<time>2026-04-22T10:28:12-07:00</time>
</trkpt>
<trkpt lat="38.23228" lon="-120.38036">
<ele>1163.1</ele>
<time>2026-04-22T10:28:13-07:00</time>
</trkpt>
<trkpt lat="38.23241" lon="-120.38065">
<ele>1165.1</ele>
<time>2026-04-22T10:28:14-07:00</time>
</trkpt>
<trkpt lat="38.23245" lon="-120.38066">
<ele>1165.1</ele>
<time>2026-04-22T10:28:15-07:00</time>
</trkpt>
<trkpt lat="38.23268" lon="-120.38064">
<ele>1165.6</ele>
<time>2026-04-22T10:28:16-07:00</time>
</trkpt>
<trkpt lat="38.2327" lon="-120.38061">
<ele>1166.8</ele>
<time>2026-04-22T10:28:17-07:00</time>
</trkpt>
<trkpt lat="38.23274" lon="-120.38031">
<ele>1166.7</ele>
<time>2026-04-22T10:28:18-07:00</time>
</trkpt>
<trkpt lat="38.23268" lon="-120.37986">
<ele>1167.3</ele>
<time>2026-04-22T10:28:19-07:00</time>
</trkpt>
<trkpt lat="38.23265" lon="-120.3794">
<ele>1171.9</ele>
<time>2026-04-22T10:28:20-07:00</time>
</trkpt>
<trkpt lat="38.2327" lon="-120.37904">
<ele>1173.9</ele>
<time>2026-04-22T10:28:21-07:00</time>
</trkpt>
<trkpt lat="38.23284" lon="-120.37888">
<ele>1174.3</ele>
<time>2026-04-22T10:28:22-07:00</time>
</trkpt>
<trkpt lat="38.2331" lon="-120.37869">
<ele>1175.4</ele>
<time>2026-04-22T10:28:23-07:00</time>
</trkpt>
<trkpt lat="38.23408" lon="-120.37852">
<ele>1179.3</ele>
<time>2026-04-22T10:28:24-07:00</time>
</trkpt>
<trkpt lat="38.23453" lon="-120.3785">
<ele>1178.9</ele>
<time>2026-04-22T10:28:25-07:00</time>
</trkpt>
<trkpt lat="38.23483" lon="-120.37853">
<ele>1180.7</ele>
<time>2026-04-22T10:28:26-07:00</time>
</trkpt>
<trkpt lat="38.23527" lon="-120.37865">
<ele>1183.8</ele>
<time>2026-04-22T10:28:27-07:00</time>
</trkpt>
<trkpt lat="38.23559" lon="-120.37868">
<ele>1183.6</ele>
<time>2026-04-22T10:28:28-07:00</time>
</trkpt>
<trkpt lat="38.23581" lon="-120.37878">
<ele>1184.5</ele>
<time>2026-04-22T10:28:29-07:00</time>
</trkpt>
<trkpt lat="38.23603" lon="-120.37894">
<ele>1186</ele>
<time>2026-04-22T10:28:30-07:00</time>
</trkpt>
<trkpt lat="38.23623" lon="-120.37918">
<ele>1187.2</ele>
<time>2026-04-22T10:28:31-07:00</time>
</trkpt>
<trkpt lat="38.23666" lon="-120.38015">
<ele>1192.6</ele>
<time>2026-04-22T10:28:32-07:00</time>
</trkpt>
<trkpt lat="38.23684" lon="-120.38052">
<ele>1193.6</ele>
<time>2026-04-22T10:28:33-07:00</time>
</trkpt>
<trkpt lat="38.23697" lon="-120.38061">
<ele>1193.4</ele>
<time>2026-04-22T10:28:34-07:00</time>
</trkpt>
<trkpt lat="38.23707" lon="-120.38062">
<ele>1193.6</ele>
<time>2026-04-22T10:28:35-07:00</time>
</trkpt>
<trkpt lat="38.23716" lon="-120.38055">
<ele>1193.6</ele>
<time>2026-04-22T10:28:36-07:00</time>
</trkpt>
<trkpt lat="38.23728" lon="-120.38011">
<ele>1192.6</ele>
<time>2026-04-22T10:28:37-07:00</time>
</trkpt>
<trkpt lat="38.23734" lon="-120.38001">
<ele>1191.9</ele>
<time>2026-04-22T10:28:38-07:00</time>
</trkpt>
<trkpt lat="38.23755" lon="-120.37985">
<ele>1190.6</ele>
<time>2026-04-22T10:28:39-07:00</time>
</trkpt>
<trkpt lat="38.23767" lon="-120.37985">
<ele>1190.3</ele>
<time>2026-04-22T10:28:40-07:00</time>
</trkpt>
<trkpt lat="38.23784" lon="-120.37989">
<ele>1189.6</ele>
<time>2026-04-22T10:28:41-07:00</time>
</trkpt>
<trkpt lat="38.23818" lon="-120.38021">
<ele>1190.1</ele>
<time>2026-04-22T10:28:42-07:00</time>
</trkpt>
<trkpt lat="38.23851" lon="-120.38047">
<ele>1192.9</ele>
<time>2026-04-22T10:28:43-07:00</time>
</trkpt>
<trkpt lat="38.2386" lon="-120.38056">
<ele>1194.1</ele>
<time>2026-04-22T10:28:44-07:00</time>
</trkpt>
<trkpt lat="38.23894" lon="-120.38072">
<ele>1191.1</ele>
<time>2026-04-22T10:28:45-07:00</time>
</trkpt>
<trkpt lat="38.23936" lon="-120.38088">
<ele>1191.5</ele>
<time>2026-04-22T10:28:46-07:00</time>
</trkpt>
<trkpt lat="38.2395" lon="-120.38093">
<ele>1191.7</ele>
<time>2026-04-22T10:28:47-07:00</time>
</trkpt>
<trkpt lat="38.23969" lon="-120.38096">
<ele>1193.4</ele>
<time>2026-04-22T10:28:48-07:00</time>
</trkpt>
<trkpt lat="38.23984" lon="-120.38087">
<ele>1194.6</ele>
<time>2026-04-22T10:28:49-07:00</time>
</trkpt>
<trkpt lat="38.2399" lon="-120.38076">
<ele>1193.5</ele>
<time>2026-04-22T10:28:50-07:00</time>
</trkpt>
<trkpt lat="38.23993" lon="-120.38062">
<ele>1195.4</ele>
<time>2026-04-22T10:28:51-07:00</time>
</trkpt>
<trkpt lat="38.23992" lon="-120.38016">
<ele>1200.2</ele>
<time>2026-04-22T10:28:52-07:00</time>
</trkpt>
<trkpt lat="38.23997" lon="-120.37976">
<ele>1199.7</ele>
<time>2026-04-22T10:28:53-07:00</time>
</trkpt>
<trkpt lat="38.24006" lon="-120.37962">
<ele>1200.6</ele>
<time>2026-04-22T10:28:54-07:00</time>
</trkpt>
<trkpt lat="38.24022" lon="-120.37943">
<ele>1200.4</ele>
<time>2026-04-22T10:28:55-07:00</time>
</trkpt>
<trkpt lat="38.24031" lon="-120.37937">
<ele>1199.8</ele>
<time>2026-04-22T10:28:56-07:00</time>
</trkpt>
<trkpt lat="38.24092" lon="-120.37928">
<ele>1203.1</ele>
<time>2026-04-22T10:28:57-07:00</time>
</trkpt>
<trkpt lat="38.24111" lon="-120.37917">
<ele>1204.2</ele>
<time>2026-04-22T10:28:58-07:00</time>
</trkpt>
<trkpt lat="38.24142" lon="-120.37892">
<ele>1209.4</ele>
<time>2026-04-22T10:28:59-07:00</time>
</trkpt>
<trkpt lat="38.24152" lon="-120.37887">
<ele>1210.1</ele>
<time>2026-04-22T10:29:00-07:00</time>
</trkpt>
<trkpt lat="38.24163" lon="-120.37885">
<ele>1210.7</ele>
<time>2026-04-22T10:29:01-07:00</time>
</trkpt>
<trkpt lat="38.24194" lon="-120.37887">
<ele>1211.5</ele>
<time>2026-04-22T10:29:02-07:00</time>
</trkpt>
<trkpt lat="38.24233" lon="-120.37936">
<ele>1210.5</ele>
<time>2026-04-22T10:29:03-07:00</time>
</trkpt>
<trkpt lat="38.24232" lon="-120.37938">
<ele>1210.5</ele>
<time>2026-04-22T10:29:04-07:00</time>
</trkpt>
<trkpt lat="38.24254" lon="-120.37968">
<ele>1209.5</ele>
<time>2026-04-22T10:29:05-07:00</time>
</trkpt>
<trkpt lat="38.24261" lon="-120.37973">
<ele>1211.1</ele>
<time>2026-04-22T10:29:06-07:00</time>
</trkpt>
<trkpt lat="38.2427" lon="-120.37971">
<ele>1210.5</ele>
<time>2026-04-22T10:29:07-07:00</time>
</trkpt>
<trkpt lat="38.24283" lon="-120.37951">
<ele>1208.6</ele>
<time>2026-04-22T10:29:08-07:00</time>
</trkpt>
<trkpt lat="38.24322" lon="-120.37914">
<ele>1207.1</ele>
<time>2026-04-22T10:29:09-07:00</time>
</trkpt>
<trkpt lat="38.24339" lon="-120.37905">
<ele>1206.4</ele>
<time>2026-04-22T10:29:10-07:00</time>
</trkpt>
<trkpt lat="38.24358" lon="-120.37903">
<ele>1206.1</ele>
<time>2026-04-22T10:29:11-07:00</time>
</trkpt>
<trkpt lat="38.24385" lon="-120.37907">
<ele>1205</ele>
<time>2026-04-22T10:29:12-07:00</time>
</trkpt>
<trkpt lat="38.24425" lon="-120.37928">
<ele>1203.8</ele>
<time>2026-04-22T10:29:13-07:00</time>
</trkpt>
<trkpt lat="38.24443" lon="-120.37932">
<ele>1204.5</ele>
<time>2026-04-22T10:29:14-07:00</time>
</trkpt>
<trkpt lat="38.24481" lon="-120.37929">
<ele>1205.7</ele>
<time>2026-04-22T10:29:15-07:00</time>
</trkpt>
<trkpt lat="38.24505" lon="-120.3792">
<ele>1206</ele>
<time>2026-04-22T10:29:16-07:00</time>
</trkpt>
<trkpt lat="38.24522" lon="-120.37905">
<ele>1206.4</ele>
<time>2026-04-22T10:29:17-07:00</time>
</trkpt>
<trkpt lat="38.24545" lon="-120.37861">
<ele>1206.2</ele>
<time>2026-04-22T10:29:18-07:00</time>
</trkpt>
<trkpt lat="38.24564" lon="-120.37846">
<ele>1207.6</ele>
<time>2026-04-22T10:29:19-07:00</time>
</trkpt>
<trkpt lat="38.24586" lon="-120.37841">
<ele>1208.7</ele>
<time>2026-04-22T10:29:20-07:00</time>
</trkpt>
<trkpt lat="38.24602" lon="-120.37851">
<ele>1210.6</ele>
<time>2026-04-22T10:29:21-07:00</time>
</trkpt>
<trkpt lat="38.24631" lon="-120.37882">
<ele>1212.8</ele>
<time>2026-04-22T10:29:22-07:00</time>
</trkpt>
<trkpt lat="38.24642" lon="-120.3789">
<ele>1214</ele>
<time>2026-04-22T10:29:23-07:00</time>
</trkpt>
<trkpt lat="38.24664" lon="-120.37844">
<ele>1214.1</ele>
<time>2026-04-22T10:29:24-07:00</time>
</trkpt>
<trkpt lat="38.24673" lon="-120.37813">
<ele>1211.2</ele>
<time>2026-04-22T10:29:25-07:00</time>
</trkpt>
<trkpt lat="38.24675" lon="-120.37788">
<ele>1214.3</ele>
<time>2026-04-22T10:29:26-07:00</time>
</trkpt>
<trkpt lat="38.24663" lon="-120.3771">
<ele>1213.5</ele>
<time>2026-04-22T10:29:27-07:00</time>
</trkpt>
<trkpt lat="38.24666" lon="-120.377">
<ele>1213.5</ele>
<time>2026-04-22T10:29:28-07:00</time>
</trkpt>
<trkpt lat="38.24678" lon="-120.37678">
<ele>1214.4</ele>
<time>2026-04-22T10:29:29-07:00</time>
</trkpt>
<trkpt lat="38.24703" lon="-120.37654">
<ele>1214.9</ele>
<time>2026-04-22T10:29:30-07:00</time>
</trkpt>
<trkpt lat="38.24731" lon="-120.37642">
<ele>1218.1</ele>
<time>2026-04-22T10:29:31-07:00</time>
</trkpt>
<trkpt lat="38.24741" lon="-120.37634">
<ele>1220.8</ele>
<time>2026-04-22T10:29:32-07:00</time>
</trkpt>
<trkpt lat="38.24752" lon="-120.37629">
<ele>1222.7</ele>
<time>2026-04-22T10:29:33-07:00</time>
</trkpt>
<trkpt lat="38.24758" lon="-120.37611">
<ele>1221.6</ele>
<time>2026-04-22T10:29:34-07:00</time>
</trkpt>
<trkpt lat="38.24769" lon="-120.37599">
<ele>1226</ele>
<time>2026-04-22T10:29:35-07:00</time>
</trkpt>
<trkpt lat="38.2479" lon="-120.37617">
<ele>1229.7</ele>
<time>2026-04-22T10:29:36-07:00</time>
</trkpt>
<trkpt lat="38.24801" lon="-120.37623">
<ele>1230.8</ele>
<time>2026-04-22T10:29:37-07:00</time>
</trkpt>
<trkpt lat="38.24814" lon="-120.37643">
<ele>1231</ele>
<time>2026-04-22T10:29:38-07:00</time>
</trkpt>
<trkpt lat="38.24828" lon="-120.37654">
<ele>1232</ele>
<time>2026-04-22T10:29:39-07:00</time>
</trkpt>
<trkpt lat="38.24834" lon="-120.37653">
<ele>1232.4</ele>
<time>2026-04-22T10:29:40-07:00</time>
</trkpt>
<trkpt lat="38.24844" lon="-120.37654">
<ele>1232.6</ele>
<time>2026-04-22T10:29:41-07:00</time>
</trkpt>
<trkpt lat="38.24857" lon="-120.37652">
<ele>1232.1</ele>
<time>2026-04-22T10:29:42-07:00</time>
</trkpt>
<trkpt lat="38.24865" lon="-120.37646">
<ele>1232.5</ele>
<time>2026-04-22T10:29:43-07:00</time>
</trkpt>
<trkpt lat="38.24869" lon="-120.37646">
<ele>1232.5</ele>
<time>2026-04-22T10:29:44-07:00</time>
</trkpt>
<trkpt lat="38.24917" lon="-120.37618">
<ele>1234</ele>
<time>2026-04-22T10:29:45-07:00</time>
</trkpt>
<trkpt lat="38.24931" lon="-120.37601">
<ele>1236.3</ele>
<time>2026-04-22T10:29:46-07:00</time>
</trkpt>
<trkpt lat="38.24939" lon="-120.37596">
<ele>1235.9</ele>
<time>2026-04-22T10:29:47-07:00</time>
</trkpt>
<trkpt lat="38.24951" lon="-120.37575">
<ele>1238.4</ele>
<time>2026-04-22T10:29:48-07:00</time>
</trkpt>
<trkpt lat="38.24957" lon="-120.3756">
<ele>1241.3</ele>
<time>2026-04-22T10:29:49-07:00</time>
</trkpt>
<trkpt lat="38.2496" lon="-120.37559">
<ele>1241.3</ele>
<time>2026-04-22T10:29:50-07:00</time>
</trkpt>
<trkpt lat="38.24968" lon="-120.3756">
<ele>1241.5</ele>
<time>2026-04-22T10:29:51-07:00</time>
</trkpt>
<trkpt lat="38.24972" lon="-120.37558">
<ele>1241.5</ele>
<time>2026-04-22T10:29:52-07:00</time>
</trkpt>
<trkpt lat="38.2498" lon="-120.37547">
<ele>1243.7</ele>
<time>2026-04-22T10:29:53-07:00</time>
</trkpt>
<trkpt lat="38.24978" lon="-120.37529">
<ele>1246.5</ele>
<time>2026-04-22T10:29:54-07:00</time>
</trkpt>
<trkpt lat="38.2498" lon="-120.37524">
<ele>1247.3</ele>
<time>2026-04-22T10:29:55-07:00</time>
</trkpt>
<trkpt lat="38.24972" lon="-120.37501">
<ele>1247.7</ele>
<time>2026-04-22T10:29:56-07:00</time>
</trkpt>
<trkpt lat="38.24974" lon="-120.37467">
<ele>1249.7</ele>
<time>2026-04-22T10:29:57-07:00</time>
</trkpt>
<trkpt lat="38.24971" lon="-120.37462">
<ele>1248.5</ele>
<time>2026-04-22T10:29:58-07:00</time>
</trkpt>
<trkpt lat="38.24973" lon="-120.37451">
<ele>1249.9</ele>
<time>2026-04-22T10:29:59-07:00</time>
</trkpt>
<trkpt lat="38.24976" lon="-120.37446">
<ele>1249.9</ele>
<time>2026-04-22T10:30:00-07:00</time>
</trkpt>
<trkpt lat="38.24976" lon="-120.37442">
<ele>1249.9</ele>
<time>2026-04-22T10:30:01-07:00</time>
</trkpt>
<trkpt lat="38.2498" lon="-120.37432">
<ele>1249.9</ele>
<time>2026-04-22T10:30:02-07:00</time>
</trkpt>
<trkpt lat="38.2498" lon="-120.37422">
<ele>1249.8</ele>
<time>2026-04-22T10:30:03-07:00</time>
</trkpt>
<trkpt lat="38.24987" lon="-120.37411">
<ele>1251</ele>
<time>2026-04-22T10:30:04-07:00</time>
</trkpt>
<trkpt lat="38.24996" lon="-120.37417">
<ele>1252.3</ele>
<time>2026-04-22T10:30:05-07:00</time>
</trkpt>
<trkpt lat="38.24998" lon="-120.37416">
<ele>1252.4</ele>
<time>2026-04-22T10:30:06-07:00</time>
</trkpt>
<trkpt lat="38.24998" lon="-120.37406">
<ele>1252.4</ele>
<time>2026-04-22T10:30:07-07:00</time>
</trkpt>
<trkpt lat="38.25001" lon="-120.37405">
<ele>1253.7</ele>
<time>2026-04-22T10:30:08-07:00</time>
</trkpt>
<trkpt lat="38.25007" lon="-120.37408">
<ele>1253.6</ele>
<time>2026-04-22T10:30:09-07:00</time>
</trkpt>
<trkpt lat="38.2501" lon="-120.37406">
<ele>1255.1</ele>
<time>2026-04-22T10:30:10-07:00</time>
</trkpt>
<trkpt lat="38.25013" lon="-120.37394">
<ele>1255</ele>
<time>2026-04-22T10:30:11-07:00</time>
</trkpt>
<trkpt lat="38.25015" lon="-120.37392">
<ele>1255</ele>
<time>2026-04-22T10:30:12-07:00</time>
</trkpt>
<trkpt lat="38.25018" lon="-120.37394">
<ele>1255</ele>
<time>2026-04-22T10:30:13-07:00</time>
</trkpt>
<trkpt lat="38.25031" lon="-120.37427">
<ele>1257.7</ele>
<time>2026-04-22T10:30:14-07:00</time>
</trkpt>
<trkpt lat="38.25031" lon="-120.37433">
<ele>1257.7</ele>
<time>2026-04-22T10:30:15-07:00</time>
</trkpt>
<trkpt lat="38.25034" lon="-120.37439">
<ele>1257.6</ele>
<time>2026-04-22T10:30:16-07:00</time>
</trkpt>
<trkpt lat="38.25043" lon="-120.3745">
<ele>1258.5</ele>
<time>2026-04-22T10:30:17-07:00</time>
</trkpt>
<trkpt lat="38.25053" lon="-120.37454">
<ele>1260</ele>
<time>2026-04-22T10:30:18-07:00</time>
</trkpt>
<trkpt lat="38.25059" lon="-120.37453">
<ele>1261.1</ele>
<time>2026-04-22T10:30:19-07:00</time>
</trkpt>
<trkpt lat="38.25062" lon="-120.37449">
<ele>1261.1</ele>
<time>2026-04-22T10:30:20-07:00</time>
</trkpt>
<trkpt lat="38.25067" lon="-120.37446">
<ele>1262.4</ele>
<time>2026-04-22T10:30:21-07:00</time>
</trkpt>
<trkpt lat="38.2508" lon="-120.37441">
<ele>1263.5</ele>
<time>2026-04-22T10:30:22-07:00</time>
</trkpt>
<trkpt lat="38.25087" lon="-120.3744">
<ele>1264.8</ele>
<time>2026-04-22T10:30:23-07:00</time>
</trkpt>
<trkpt lat="38.25098" lon="-120.37443">
<ele>1265.7</ele>
<time>2026-04-22T10:30:24-07:00</time>
</trkpt>
<trkpt lat="38.25123" lon="-120.37455">
<ele>1268.9</ele>
<time>2026-04-22T10:30:25-07:00</time>
</trkpt>
<trkpt lat="38.25135" lon="-120.37456">
<ele>1269.1</ele>
<time>2026-04-22T10:30:26-07:00</time>
</trkpt>
<trkpt lat="38.25143" lon="-120.37453">
<ele>1270.1</ele>
<time>2026-04-22T10:30:27-07:00</time>
</trkpt>
<trkpt lat="38.25153" lon="-120.37445">
<ele>1271.5</ele>
<time>2026-04-22T10:30:28-07:00</time>
</trkpt>
<trkpt lat="38.25164" lon="-120.37429">
<ele>1271.6</ele>
<time>2026-04-22T10:30:29-07:00</time>
</trkpt>
<trkpt lat="38.25161" lon="-120.37371">
<ele>1272.1</ele>
<time>2026-04-22T10:30:30-07:00</time>
</trkpt>
<trkpt lat="38.25162" lon="-120.37362">
<ele>1272.2</ele>
<time>2026-04-22T10:30:31-07:00</time>
</trkpt>
<trkpt lat="38.25171" lon="-120.37343">
<ele>1272.8</ele>
<time>2026-04-22T10:30:32-07:00</time>
</trkpt>
<trkpt lat="38.25183" lon="-120.37347">
<ele>1273.1</ele>
<time>2026-04-22T10:30:33-07:00</time>
</trkpt>
<trkpt lat="38.25206" lon="-120.37349">
<ele>1272.8</ele>
<time>2026-04-22T10:30:34-07:00</time>
</trkpt>
<trkpt lat="38.25215" lon="-120.37355">
<ele>1272.1</ele>
<time>2026-04-22T10:30:35-07:00</time>
</trkpt>
<trkpt lat="38.25218" lon="-120.37363">
<ele>1272.4</ele>
<time>2026-04-22T10:30:36-07:00</time>
</trkpt>
<trkpt lat="38.25217" lon="-120.37428">
<ele>1272.6</ele>
<time>2026-04-22T10:30:37-07:00</time>
</trkpt>
<trkpt lat="38.2522" lon="-120.37443">
<ele>1271.9</ele>
<time>2026-04-22T10:30:38-07:00</time>
</trkpt>
<trkpt lat="38.25222" lon="-120.37467">
<ele>1271.1</ele>
<time>2026-04-22T10:30:39-07:00</time>
</trkpt>
<trkpt lat="38.25222" lon="-120.37544">
<ele>1267.9</ele>
<time>2026-04-22T10:30:40-07:00</time>
</trkpt>
<trkpt lat="38.25229" lon="-120.37609">
<ele>1263</ele>
<time>2026-04-22T10:30:41-07:00</time>
</trkpt>
<trkpt lat="38.25222" lon="-120.37708">
<ele>1259.2</ele>
<time>2026-04-22T10:30:42-07:00</time>
</trkpt>
<trkpt lat="38.25213" lon="-120.37735">
<ele>1257.6</ele>
<time>2026-04-22T10:30:43-07:00</time>
</trkpt>
<trkpt lat="38.25186" lon="-120.37781">
<ele>1260.2</ele>
<time>2026-04-22T10:30:44-07:00</time>
</trkpt>
<trkpt lat="38.25171" lon="-120.37817">
<ele>1262.3</ele>
<time>2026-04-22T10:30:45-07:00</time>
</trkpt>
<trkpt lat="38.25168" lon="-120.37859">
<ele>1262</ele>
<time>2026-04-22T10:30:46-07:00</time>
</trkpt>
<trkpt lat="38.25154" lon="-120.37901">
<ele>1263.3</ele>
<time>2026-04-22T10:30:47-07:00</time>
</trkpt>
<trkpt lat="38.25133" lon="-120.3793">
<ele>1264</ele>
<time>2026-04-22T10:30:48-07:00</time>
</trkpt>
<trkpt lat="38.25128" lon="-120.37941">
<ele>1264</ele>
<time>2026-04-22T10:30:49-07:00</time>
</trkpt>
<trkpt lat="38.25119" lon="-120.37955">
<ele>1263.5</ele>
<time>2026-04-22T10:30:50-07:00</time>
</trkpt>
<trkpt lat="38.2511" lon="-120.37964">
<ele>1262.9</ele>
<time>2026-04-22T10:30:51-07:00</time>
</trkpt>
<trkpt lat="38.25101" lon="-120.37969">
<ele>1262.5</ele>
<time>2026-04-22T10:30:52-07:00</time>
</trkpt>
<trkpt lat="38.25092" lon="-120.37977">
<ele>1261.3</ele>
<time>2026-04-22T10:30:53-07:00</time>
</trkpt>
<trkpt lat="38.25077" lon="-120.37996">
<ele>1258.5</ele>
<time>2026-04-22T10:30:54-07:00</time>
</trkpt>
<trkpt lat="38.25065" lon="-120.38">
<ele>1257.6</ele>
<time>2026-04-22T10:30:55-07:00</time>
</trkpt>
<trkpt lat="38.25061" lon="-120.38011">
<ele>1253.8</ele>
<time>2026-04-22T10:30:56-07:00</time>
</trkpt>
<trkpt lat="38.2505" lon="-120.38004">
<ele>1253.1</ele>
<time>2026-04-22T10:30:57-07:00</time>
</trkpt>
<trkpt lat="38.2504" lon="-120.38">
<ele>1254.7</ele>
<time>2026-04-22T10:30:58-07:00</time>
</trkpt>
<trkpt lat="38.25032" lon="-120.38003">
<ele>1253.8</ele>
<time>2026-04-22T10:30:59-07:00</time>
</trkpt>
<trkpt lat="38.25024" lon="-120.38021">
<ele>1255.1</ele>
<time>2026-04-22T10:31:00-07:00</time>
</trkpt>
<trkpt lat="38.25022" lon="-120.38037">
<ele>1254.8</ele>
<time>2026-04-22T10:31:01-07:00</time>
</trkpt>
<trkpt lat="38.25022" lon="-120.38061">
<ele>1253.7</ele>
<time>2026-04-22T10:31:02-07:00</time>
</trkpt>
<trkpt lat="38.25019" lon="-120.38078">
<ele>1252.9</ele>
<time>2026-04-22T10:31:03-07:00</time>
</trkpt>
<trkpt lat="38.25012" lon="-120.38097">
<ele>1251.8</ele>
<time>2026-04-22T10:31:04-07:00</time>
</trkpt>
<trkpt lat="38.25006" lon="-120.38106">
<ele>1250.7</ele>
<time>2026-04-22T10:31:05-07:00</time>
</trkpt>
<trkpt lat="38.24995" lon="-120.38117">
<ele>1250.3</ele>
<time>2026-04-22T10:31:06-07:00</time>
</trkpt>
<trkpt lat="38.2498" lon="-120.3814">
<ele>1247.4</ele>
<time>2026-04-22T10:31:07-07:00</time>
</trkpt>
<trkpt lat="38.24964" lon="-120.38157">
<ele>1246.5</ele>
<time>2026-04-22T10:31:08-07:00</time>
</trkpt>
<trkpt lat="38.24947" lon="-120.38163">
<ele>1246.9</ele>
<time>2026-04-22T10:31:09-07:00</time>
</trkpt>
<trkpt lat="38.24936" lon="-120.38172">
<ele>1245.6</ele>
<time>2026-04-22T10:31:10-07:00</time>
</trkpt>
<trkpt lat="38.24921" lon="-120.38188">
<ele>1242.1</ele>
<time>2026-04-22T10:31:11-07:00</time>
</trkpt>
<trkpt lat="38.24913" lon="-120.38193">
<ele>1242.7</ele>
<time>2026-04-22T10:31:12-07:00</time>
</trkpt>
<trkpt lat="38.24898" lon="-120.38195">
<ele>1242.6</ele>
<time>2026-04-22T10:31:13-07:00</time>
</trkpt>
<trkpt lat="38.24886" lon="-120.38202">
<ele>1242.8</ele>
<time>2026-04-22T10:31:14-07:00</time>
</trkpt>
<trkpt lat="38.24868" lon="-120.38208">
<ele>1242.4</ele>
<time>2026-04-22T10:31:15-07:00</time>
</trkpt>
<trkpt lat="38.24862" lon="-120.38206">
<ele>1242.4</ele>
<time>2026-04-22T10:31:16-07:00</time>
</trkpt>
<trkpt lat="38.24857" lon="-120.38208">
<ele>1242.4</ele>
<time>2026-04-22T10:31:17-07:00</time>
</trkpt>
<trkpt lat="38.24848" lon="-120.38207">
<ele>1242.7</ele>
<time>2026-04-22T10:31:18-07:00</time>
</trkpt>
<trkpt lat="38.2483" lon="-120.38217">
<ele>1242.5</ele>
<time>2026-04-22T10:31:19-07:00</time>
</trkpt>
<trkpt lat="38.24822" lon="-120.38219">
<ele>1242.7</ele>
<time>2026-04-22T10:31:20-07:00</time>
</trkpt>
<trkpt lat="38.24806" lon="-120.38217">
<ele>1243</ele>
<time>2026-04-22T10:31:21-07:00</time>
</trkpt>
<trkpt lat="38.24799" lon="-120.38226">
<ele>1243.3</ele>
<time>2026-04-22T10:31:22-07:00</time>
</trkpt>
<trkpt lat="38.24786" lon="-120.38234">
<ele>1243.5</ele>
<time>2026-04-22T10:31:23-07:00</time>
</trkpt>
<trkpt lat="38.24767" lon="-120.38224">
<ele>1243.6</ele>
<time>2026-04-22T10:31:24-07:00</time>
</trkpt>
<trkpt lat="38.24767" lon="-120.38199">
<ele>1242.4</ele>
<time>2026-04-22T10:31:25-07:00</time>
</trkpt>
<trkpt lat="38.24759" lon="-120.38195">
<ele>1241.6</ele>
<time>2026-04-22T10:31:26-07:00</time>
</trkpt>
<trkpt lat="38.24745" lon="-120.38195">
<ele>1240.8</ele>
<time>2026-04-22T10:31:27-07:00</time>
</trkpt>
<trkpt lat="38.24725" lon="-120.38209">
<ele>1238.9</ele>
<time>2026-04-22T10:31:28-07:00</time>
</trkpt>
<trkpt lat="38.24709" lon="-120.38204">
<ele>1237.1</ele>
<time>2026-04-22T10:31:29-07:00</time>
</trkpt>
<trkpt lat="38.24671" lon="-120.38204">
<ele>1234.3</ele>
<time>2026-04-22T10:31:30-07:00</time>
</trkpt>
<trkpt lat="38.24644" lon="-120.38217">
<ele>1235</ele>
<time>2026-04-22T10:31:31-07:00</time>
</trkpt>
<trkpt lat="38.24627" lon="-120.38233">
<ele>1236.6</ele>
<time>2026-04-22T10:31:32-07:00</time>
</trkpt>
<trkpt lat="38.24617" lon="-120.3824">
<ele>1236.4</ele>
<time>2026-04-22T10:31:33-07:00</time>
</trkpt>
<trkpt lat="38.24583" lon="-120.38226">
<ele>1236.2</ele>
<time>2026-04-22T10:31:34-07:00</time>
</trkpt>
<trkpt lat="38.24542" lon="-120.38197">
<ele>1236.3</ele>
<time>2026-04-22T10:31:35-07:00</time>
</trkpt>
<trkpt lat="38.24516" lon="-120.38185">
<ele>1237</ele>
<time>2026-04-22T10:31:36-07:00</time>
</trkpt>
<trkpt lat="38.24503" lon="-120.38181">
<ele>1237.5</ele>
<time>2026-04-22T10:31:37-07:00</time>
</trkpt>
<trkpt lat="38.24481" lon="-120.38168">
<ele>1238.5</ele>
<time>2026-04-22T10:31:38-07:00</time>
</trkpt>
<trkpt lat="38.24463" lon="-120.38171">
<ele>1239.1</ele>
<time>2026-04-22T10:31:39-07:00</time>
</trkpt>
<trkpt lat="38.24449" lon="-120.38163">
<ele>1238.6</ele>
<time>2026-04-22T10:31:40-07:00</time>
</trkpt>
<trkpt lat="38.24437" lon="-120.38153">
<ele>1237.5</ele>
<time>2026-04-22T10:31:41-07:00</time>
</trkpt>
<trkpt lat="38.24405" lon="-120.38143">
<ele>1237.5</ele>
<time>2026-04-22T10:31:42-07:00</time>
</trkpt>
<trkpt lat="38.24381" lon="-120.3814">
<ele>1238.4</ele>
<time>2026-04-22T10:31:43-07:00</time>
</trkpt>
<trkpt lat="38.24369" lon="-120.38144">
<ele>1239.1</ele>
<time>2026-04-22T10:31:44-07:00</time>
</trkpt>
<trkpt lat="38.24354" lon="-120.38138">
<ele>1238.4</ele>
<time>2026-04-22T10:31:45-07:00</time>
</trkpt>
<trkpt lat="38.24342" lon="-120.38145">
<ele>1240.3</ele>
<time>2026-04-22T10:31:46-07:00</time>
</trkpt>
<trkpt lat="38.24331" lon="-120.38147">
<ele>1240.9</ele>
<time>2026-04-22T10:31:47-07:00</time>
</trkpt>
<trkpt lat="38.24316" lon="-120.38142">
<ele>1241.1</ele>
<time>2026-04-22T10:31:48-07:00</time>
</trkpt>
<trkpt lat="38.24295" lon="-120.3814">
<ele>1241.6</ele>
<time>2026-04-22T10:31:49-07:00</time>
</trkpt>
<trkpt lat="38.24279" lon="-120.38142">
<ele>1241.6</ele>
<time>2026-04-22T10:31:50-07:00</time>
</trkpt>
<trkpt lat="38.24264" lon="-120.3814">
<ele>1241.8</ele>
<time>2026-04-22T10:31:51-07:00</time>
</trkpt>
<trkpt lat="38.24244" lon="-120.38147">
<ele>1241.7</ele>
<time>2026-04-22T10:31:52-07:00</time>
</trkpt>
<trkpt lat="38.24219" lon="-120.38151">
<ele>1240.7</ele>
<time>2026-04-22T10:31:53-07:00</time>
</trkpt>
<trkpt lat="38.2421" lon="-120.38165">
<ele>1239.4</ele>
<time>2026-04-22T10:31:54-07:00</time>
</trkpt>
<trkpt lat="38.24217" lon="-120.38184">
<ele>1238</ele>
<time>2026-04-22T10:31:55-07:00</time>
</trkpt>
<trkpt lat="38.24216" lon="-120.38193">
<ele>1237.6</ele>
<time>2026-04-22T10:31:56-07:00</time>
</trkpt>
<trkpt lat="38.24205" lon="-120.38223">
<ele>1236.4</ele>
<time>2026-04-22T10:31:57-07:00</time>
</trkpt>
<trkpt lat="38.24204" lon="-120.38259">
<ele>1234.4</ele>
<time>2026-04-22T10:31:58-07:00</time>
</trkpt>
<trkpt lat="38.24197" lon="-120.38263">
<ele>1234.8</ele>
<time>2026-04-22T10:31:59-07:00</time>
</trkpt>
<trkpt lat="38.24189" lon="-120.38265">
<ele>1234.2</ele>
<time>2026-04-22T10:32:00-07:00</time>
</trkpt>
<trkpt lat="38.24167" lon="-120.38277">
<ele>1233.5</ele>
<time>2026-04-22T10:32:01-07:00</time>
</trkpt>
<trkpt lat="38.24161" lon="-120.38282">
<ele>1233.6</ele>
<time>2026-04-22T10:32:02-07:00</time>
</trkpt>
<trkpt lat="38.24143" lon="-120.38291">
<ele>1233.7</ele>
<time>2026-04-22T10:32:03-07:00</time>
</trkpt>
<trkpt lat="38.24136" lon="-120.383">
<ele>1233.4</ele>
<time>2026-04-22T10:32:04-07:00</time>
</trkpt>
<trkpt lat="38.24124" lon="-120.38327">
<ele>1231</ele>
<time>2026-04-22T10:32:05-07:00</time>
</trkpt>
<trkpt lat="38.2409" lon="-120.38313">
<ele>1230.3</ele>
<time>2026-04-22T10:32:06-07:00</time>
</trkpt>
<trkpt lat="38.2408" lon="-120.38316">
<ele>1230.7</ele>
<time>2026-04-22T10:32:07-07:00</time>
</trkpt>
<trkpt lat="38.24067" lon="-120.38325">
<ele>1229.8</ele>
<time>2026-04-22T10:32:08-07:00</time>
</trkpt>
<trkpt lat="38.24063" lon="-120.38342">
<ele>1227.5</ele>
<time>2026-04-22T10:32:09-07:00</time>
</trkpt>
<trkpt lat="38.24058" lon="-120.38348">
<ele>1228.2</ele>
<time>2026-04-22T10:32:10-07:00</time>
</trkpt>
<trkpt lat="38.24056" lon="-120.38368">
<ele>1230.8</ele>
<time>2026-04-22T10:32:11-07:00</time>
</trkpt>
<trkpt lat="38.24039" lon="-120.38388">
<ele>1228.9</ele>
<time>2026-04-22T10:32:12-07:00</time>
</trkpt>
<trkpt lat="38.24024" lon="-120.38397">
<ele>1231.1</ele>
<time>2026-04-22T10:32:13-07:00</time>
</trkpt>
<trkpt lat="38.24018" lon="-120.38395">
<ele>1230.9</ele>
<time>2026-04-22T10:32:14-07:00</time>
</trkpt>
<trkpt lat="38.24011" lon="-120.38386">
<ele>1228.9</ele>
<time>2026-04-22T10:32:15-07:00</time>
</trkpt>
<trkpt lat="38.23991" lon="-120.38374">
<ele>1230.3</ele>
<time>2026-04-22T10:32:16-07:00</time>
</trkpt>
<trkpt lat="38.23982" lon="-120.38371">
<ele>1231.7</ele>
<time>2026-04-22T10:32:17-07:00</time>
</trkpt>
<trkpt lat="38.23969" lon="-120.38368">
<ele>1233.2</ele>
<time>2026-04-22T10:32:18-07:00</time>
</trkpt>
<trkpt lat="38.23952" lon="-120.38371">
<ele>1236.1</ele>
<time>2026-04-22T10:32:19-07:00</time>
</trkpt>
<trkpt lat="38.23943" lon="-120.38369">
<ele>1235.2</ele>
<time>2026-04-22T10:32:20-07:00</time>
</trkpt>
<trkpt lat="38.23932" lon="-120.38371">
<ele>1236.8</ele>
<time>2026-04-22T10:32:21-07:00</time>
</trkpt>
<trkpt lat="38.23894" lon="-120.38365">
<ele>1236.6</ele>
<time>2026-04-22T10:32:22-07:00</time>
</trkpt>
<trkpt lat="38.23852" lon="-120.38371">
<ele>1238.8</ele>
<time>2026-04-22T10:32:23-07:00</time>
</trkpt>
<trkpt lat="38.23812" lon="-120.38371">
<ele>1237.6</ele>
<time>2026-04-22T10:32:24-07:00</time>
</trkpt>
<trkpt lat="38.23787" lon="-120.3839">
<ele>1239.6</ele>
<time>2026-04-22T10:32:25-07:00</time>
</trkpt>
<trkpt lat="38.2378" lon="-120.38389">
<ele>1239.6</ele>
<time>2026-04-22T10:32:26-07:00</time>
</trkpt>
<trkpt lat="38.2378" lon="-120.38398">
<ele>1239.6</ele>
<time>2026-04-22T10:32:27-07:00</time>
</trkpt>
<trkpt lat="38.23784" lon="-120.38405">
<ele>1240.5</ele>
<time>2026-04-22T10:32:28-07:00</time>
</trkpt>
<trkpt lat="38.23783" lon="-120.38418">
<ele>1242.7</ele>
<time>2026-04-22T10:32:29-07:00</time>
</trkpt>
<trkpt lat="38.23735" lon="-120.38546">
<ele>1245.6</ele>
<time>2026-04-22T10:32:30-07:00</time>
</trkpt>
<trkpt lat="38.23701" lon="-120.38597">
<ele>1240.7</ele>
<time>2026-04-22T10:32:31-07:00</time>
</trkpt>
<trkpt lat="38.2368" lon="-120.38642">
<ele>1243.3</ele>
<time>2026-04-22T10:32:32-07:00</time>
</trkpt>
<trkpt lat="38.23637" lon="-120.38695">
<ele>1240.9</ele>
<time>2026-04-22T10:32:33-07:00</time>
</trkpt>
<trkpt lat="38.23626" lon="-120.38705">
<ele>1240.1</ele>
<time>2026-04-22T10:32:34-07:00</time>
</trkpt>
<trkpt lat="38.23617" lon="-120.3871">
<ele>1238.4</ele>
<time>2026-04-22T10:32:35-07:00</time>
</trkpt>
<trkpt lat="38.23594" lon="-120.38716">
<ele>1234.5</ele>
<time>2026-04-22T10:32:36-07:00</time>
</trkpt>
<trkpt lat="38.23579" lon="-120.38722">
<ele>1231.4</ele>
<time>2026-04-22T10:32:37-07:00</time>
</trkpt>
<trkpt lat="38.23558" lon="-120.38737">
<ele>1229.4</ele>
<time>2026-04-22T10:32:38-07:00</time>
</trkpt>
<trkpt lat="38.23543" lon="-120.38745">
<ele>1230.7</ele>
<time>2026-04-22T10:32:39-07:00</time>
</trkpt>
<trkpt lat="38.23523" lon="-120.38761">
<ele>1233.6</ele>
<time>2026-04-22T10:32:40-07:00</time>
</trkpt>
<trkpt lat="38.23509" lon="-120.38793">
<ele>1238.2</ele>
<time>2026-04-22T10:32:41-07:00</time>
</trkpt>
<trkpt lat="38.235" lon="-120.38821">
<ele>1239.7</ele>
<time>2026-04-22T10:32:42-07:00</time>
</trkpt>
<trkpt lat="38.23496" lon="-120.38836">
<ele>1242.8</ele>
<time>2026-04-22T10:32:43-07:00</time>
</trkpt>
<trkpt lat="38.23496" lon="-120.38853">
<ele>1245.3</ele>
<time>2026-04-22T10:32:44-07:00</time>
</trkpt>
<trkpt lat="38.23492" lon="-120.38872">
<ele>1247.2</ele>
<time>2026-04-22T10:32:45-07:00</time>
</trkpt>
<trkpt lat="38.23482" lon="-120.38875">
<ele>1247.5</ele>
<time>2026-04-22T10:32:46-07:00</time>
</trkpt>
<trkpt lat="38.23473" lon="-120.38868">
<ele>1249.6</ele>
<time>2026-04-22T10:32:47-07:00</time>
</trkpt>
<trkpt lat="38.23462" lon="-120.38863">
<ele>1252.9</ele>
<time>2026-04-22T10:32:48-07:00</time>
</trkpt>
<trkpt lat="38.23431" lon="-120.38855">
<ele>1255.7</ele>
<time>2026-04-22T10:32:49-07:00</time>
</trkpt>
<trkpt lat="38.23391" lon="-120.38833">
<ele>1254.1</ele>
<time>2026-04-22T10:32:50-07:00</time>
</trkpt>
<trkpt lat="38.23328" lon="-120.38794">
<ele>1252.9</ele>
<time>2026-04-22T10:32:51-07:00</time>
</trkpt>
<trkpt lat="38.2329" lon="-120.38764">
<ele>1258.2</ele>
<time>2026-04-22T10:32:52-07:00</time>
</trkpt>
<trkpt lat="38.23283" lon="-120.388">
<ele>1256.7</ele>
<time>2026-04-22T10:32:53-07:00</time>
</trkpt>
<trkpt lat="38.23271" lon="-120.38818">
<ele>1256.4</ele>
<time>2026-04-22T10:32:54-07:00</time>
</trkpt>
<trkpt lat="38.23258" lon="-120.3883">
<ele>1255.5</ele>
<time>2026-04-22T10:32:55-07:00</time>
</trkpt>
<trkpt lat="38.23243" lon="-120.38836">
<ele>1257.6</ele>
<time>2026-04-22T10:32:56-07:00</time>
</trkpt>
<trkpt lat="38.23229" lon="-120.38833">
<ele>1257.3</ele>
<time>2026-04-22T10:32:57-07:00</time>
</trkpt>
<trkpt lat="38.2321" lon="-120.38819">
<ele>1258.1</ele>
<time>2026-04-22T10:32:58-07:00</time>
</trkpt>
<trkpt lat="38.23188" lon="-120.38808">
<ele>1260.1</ele>
<time>2026-04-22T10:32:59-07:00</time>
</trkpt>
<trkpt lat="38.2316" lon="-120.38788">
<ele>1259.8</ele>
<time>2026-04-22T10:33:00-07:00</time>
</trkpt>
<trkpt lat="38.23131" lon="-120.38767">
<ele>1257.4</ele>
<time>2026-04-22T10:33:01-07:00</time>
</trkpt>
<trkpt lat="38.23062" lon="-120.3873">
<ele>1255.2</ele>
<time>2026-04-22T10:33:02-07:00</time>
</trkpt>
<trkpt lat="38.23086" lon="-120.38754">
<ele>1262.6</ele>
<time>2026-04-22T10:33:03-07:00</time>
</trkpt>
<trkpt lat="38.23096" lon="-120.38767">
<ele>1264.7</ele>
<time>2026-04-22T10:33:04-07:00</time>
</trkpt>
<trkpt lat="38.2311" lon="-120.3879">
<ele>1271.8</ele>
<time>2026-04-22T10:33:05-07:00</time>
</trkpt>
<trkpt lat="38.23132" lon="-120.38816">
<ele>1276.1</ele>
<time>2026-04-22T10:33:06-07:00</time>
</trkpt>
<trkpt lat="38.23168" lon="-120.38866">
<ele>1281.4</ele>
<time>2026-04-22T10:33:07-07:00</time>
</trkpt>
<trkpt lat="38.23203" lon="-120.38891">
<ele>1281.1</ele>
<time>2026-04-22T10:33:08-07:00</time>
</trkpt>
<trkpt lat="38.23221" lon="-120.38929">
<ele>1279.1</ele>
<time>2026-04-22T10:33:09-07:00</time>
</trkpt>
<trkpt lat="38.23237" lon="-120.3893">
<ele>1278.5</ele>
<time>2026-04-22T10:33:10-07:00</time>
</trkpt>
<trkpt lat="38.2327" lon="-120.38863">
<ele>1268</ele>
<time>2026-04-22T10:33:11-07:00</time>
</trkpt>
<trkpt lat="38.23281" lon="-120.38836">
<ele>1261.7</ele>
<time>2026-04-22T10:33:12-07:00</time>
</trkpt>
<trkpt lat="38.23285" lon="-120.38818">
<ele>1258</ele>
<time>2026-04-22T10:33:13-07:00</time>
</trkpt>
<trkpt lat="38.23288" lon="-120.38801">
<ele>1257.6</ele>
<time>2026-04-22T10:33:14-07:00</time>
</trkpt>
<trkpt lat="38.23287" lon="-120.38783">
<ele>1258.2</ele>
<time>2026-04-22T10:33:15-07:00</time>
</trkpt>
<trkpt lat="38.23288" lon="-120.38773">
<ele>1259</ele>
<time>2026-04-22T10:33:16-07:00</time>
</trkpt>
<trkpt lat="38.23288" lon="-120.38768">
<ele>1258.2</ele>
<time>2026-04-22T10:33:17-07:00</time>
</trkpt>
<trkpt lat="38.2329" lon="-120.38765">
<ele>1258.2</ele>
<time>2026-04-22T10:33:18-07:00</time>
</trkpt>
<trkpt lat="38.23304" lon="-120.38771">
<ele>1258.8</ele>
<time>2026-04-22T10:33:19-07:00</time>
</trkpt>
<trkpt lat="38.23328" lon="-120.38794">
<ele>1252.9</ele>
<time>2026-04-22T10:33:20-07:00</time>
</trkpt>
<trkpt lat="38.23391" lon="-120.38833">
<ele>1254.1</ele>
<time>2026-04-22T10:33:21-07:00</time>
</trkpt>
<trkpt lat="38.23431" lon="-120.38855">
<ele>1255.7</ele>
<time>2026-04-22T10:33:22-07:00</time>
</trkpt>
<trkpt lat="38.23462" lon="-120.38863">
<ele>1252.9</ele>
<time>2026-04-22T10:33:23-07:00</time>
</trkpt>
<trkpt lat="38.23473" lon="-120.38868">
<ele>1249.6</ele>
<time>2026-04-22T10:33:24-07:00</time>
</trkpt>
<trkpt lat="38.23482" lon="-120.38875">
<ele>1247.5</ele>
<time>2026-04-22T10:33:25-07:00</time>
</trkpt>
<trkpt lat="38.23498" lon="-120.3888">
<ele>1246.9</ele>
<time>2026-04-22T10:33:26-07:00</time>
</trkpt>
<trkpt lat="38.23508" lon="-120.38876">
<ele>1245.8</ele>
<time>2026-04-22T10:33:27-07:00</time>
</trkpt>
<trkpt lat="38.23525" lon="-120.38863">
<ele>1243.8</ele>
<time>2026-04-22T10:33:28-07:00</time>
</trkpt>
<trkpt lat="38.23521" lon="-120.3884">
<ele>1238.7</ele>
<time>2026-04-22T10:33:29-07:00</time>
</trkpt>
<trkpt lat="38.23525" lon="-120.38815">
<ele>1235.3</ele>
<time>2026-04-22T10:33:30-07:00</time>
</trkpt>
<trkpt lat="38.2354" lon="-120.38784">
<ele>1230.4</ele>
<time>2026-04-22T10:33:31-07:00</time>
</trkpt>
<trkpt lat="38.23576" lon="-120.38736">
<ele>1229.8</ele>
<time>2026-04-22T10:33:32-07:00</time>
</trkpt>
<trkpt lat="38.23606" lon="-120.38733">
<ele>1232.9</ele>
<time>2026-04-22T10:33:33-07:00</time>
</trkpt>
<trkpt lat="38.23652" lon="-120.38742">
<ele>1237.3</ele>
<time>2026-04-22T10:33:34-07:00</time>
</trkpt>
<trkpt lat="38.23663" lon="-120.38742">
<ele>1239</ele>
<time>2026-04-22T10:33:35-07:00</time>
</trkpt>
<trkpt lat="38.23675" lon="-120.38739">
<ele>1242.2</ele>
<time>2026-04-22T10:33:36-07:00</time>
</trkpt>
<trkpt lat="38.23692" lon="-120.38702">
<ele>1244.8</ele>
<time>2026-04-22T10:33:37-07:00</time>
</trkpt>
<trkpt lat="38.23707" lon="-120.3869">
<ele>1244.5</ele>
<time>2026-04-22T10:33:38-07:00</time>
</trkpt>
<trkpt lat="38.23713" lon="-120.38683">
<ele>1244.9</ele>
<time>2026-04-22T10:33:39-07:00</time>
</trkpt>
<trkpt lat="38.23717" lon="-120.38675">
<ele>1246</ele>
<time>2026-04-22T10:33:40-07:00</time>
</trkpt>
<trkpt lat="38.23751" lon="-120.38656">
<ele>1251.6</ele>
<time>2026-04-22T10:33:41-07:00</time>
</trkpt>
<trkpt lat="38.23754" lon="-120.3865">
<ele>1251.6</ele>
<time>2026-04-22T10:33:42-07:00</time>
</trkpt>
<trkpt lat="38.23758" lon="-120.38634">
<ele>1252.5</ele>
<time>2026-04-22T10:33:43-07:00</time>
</trkpt>
<trkpt lat="38.23769" lon="-120.38629">
<ele>1256.3</ele>
<time>2026-04-22T10:33:44-07:00</time>
</trkpt>
<trkpt lat="38.23776" lon="-120.3862">
<ele>1256.2</ele>
<time>2026-04-22T10:33:45-07:00</time>
</trkpt>
<trkpt lat="38.23792" lon="-120.38609">
<ele>1260.2</ele>
<time>2026-04-22T10:33:46-07:00</time>
</trkpt>
<trkpt lat="38.23816" lon="-120.38578">
<ele>1262.8</ele>
<time>2026-04-22T10:33:47-07:00</time>
</trkpt>
<trkpt lat="38.23821" lon="-120.38575">
<ele>1262.8</ele>
<time>2026-04-22T10:33:48-07:00</time>
</trkpt>
<trkpt lat="38.23825" lon="-120.38576">
<ele>1264.4</ele>
<time>2026-04-22T10:33:49-07:00</time>
</trkpt>
<trkpt lat="38.23828" lon="-120.3858">
<ele>1264.4</ele>
<time>2026-04-22T10:33:50-07:00</time>
</trkpt>
<trkpt lat="38.23828" lon="-120.38587">
<ele>1265.5</ele>
<time>2026-04-22T10:33:51-07:00</time>
</trkpt>
<trkpt lat="38.23818" lon="-120.38623">
<ele>1268.1</ele>
<time>2026-04-22T10:33:52-07:00</time>
</trkpt>
<trkpt lat="38.23819" lon="-120.3863">
<ele>1268.7</ele>
<time>2026-04-22T10:33:53-07:00</time>
</trkpt>
<trkpt lat="38.23821" lon="-120.38632">
<ele>1268.7</ele>
<time>2026-04-22T10:33:54-07:00</time>
</trkpt>
<trkpt lat="38.23825" lon="-120.3863">
<ele>1271</ele>
<time>2026-04-22T10:33:55-07:00</time>
</trkpt>
<trkpt lat="38.23848" lon="-120.38608">
<ele>1271.7</ele>
<time>2026-04-22T10:33:56-07:00</time>
</trkpt>
<trkpt lat="38.23856" lon="-120.38603">
<ele>1273.3</ele>
<time>2026-04-22T10:33:57-07:00</time>
</trkpt>
<trkpt lat="38.23859" lon="-120.38607">
<ele>1273.3</ele>
<time>2026-04-22T10:33:58-07:00</time>
</trkpt>
<trkpt lat="38.23859" lon="-120.38617">
<ele>1274.9</ele>
<time>2026-04-22T10:33:59-07:00</time>
</trkpt>
<trkpt lat="38.23856" lon="-120.3863">
<ele>1277.7</ele>
<time>2026-04-22T10:34:00-07:00</time>
</trkpt>
<trkpt lat="38.23856" lon="-120.38645">
<ele>1279.1</ele>
<time>2026-04-22T10:34:01-07:00</time>
</trkpt>
<trkpt lat="38.23852" lon="-120.3866">
<ele>1281.2</ele>
<time>2026-04-22T10:34:02-07:00</time>
</trkpt>
<trkpt lat="38.23854" lon="-120.38667">
<ele>1282.2</ele>
<time>2026-04-22T10:34:03-07:00</time>
</trkpt>
<trkpt lat="38.2386" lon="-120.38673">
<ele>1282.2</ele>
<time>2026-04-22T10:34:04-07:00</time>
</trkpt>
<trkpt lat="38.23874" lon="-120.38665">
<ele>1286.7</ele>
<time>2026-04-22T10:34:05-07:00</time>
</trkpt>
<trkpt lat="38.23895" lon="-120.38646">
<ele>1288.5</ele>
<time>2026-04-22T10:34:06-07:00</time>
</trkpt>
<trkpt lat="38.23907" lon="-120.38639">
<ele>1291.1</ele>
<time>2026-04-22T10:34:07-07:00</time>
</trkpt>
<trkpt lat="38.2391" lon="-120.38639">
<ele>1293.1</ele>
<time>2026-04-22T10:34:08-07:00</time>
</trkpt>
<trkpt lat="38.23912" lon="-120.38643">
<ele>1293.1</ele>
<time>2026-04-22T10:34:09-07:00</time>
</trkpt>
<trkpt lat="38.23904" lon="-120.38659">
<ele>1295.3</ele>
<time>2026-04-22T10:34:10-07:00</time>
</trkpt>
<trkpt lat="38.23898" lon="-120.38685">
<ele>1296.5</ele>
<time>2026-04-22T10:34:11-07:00</time>
</trkpt>
<trkpt lat="38.23898" lon="-120.38707">
<ele>1300.6</ele>
<time>2026-04-22T10:34:12-07:00</time>
</trkpt>
<trkpt lat="38.23901" lon="-120.38712">
<ele>1303.8</ele>
<time>2026-04-22T10:34:13-07:00</time>
</trkpt>
<trkpt lat="38.23904" lon="-120.38709">
<ele>1303.8</ele>
<time>2026-04-22T10:34:14-07:00</time>
</trkpt>
<trkpt lat="38.23917" lon="-120.38681">
<ele>1304.6</ele>
<time>2026-04-22T10:34:15-07:00</time>
</trkpt>
<trkpt lat="38.23928" lon="-120.38676">
<ele>1307</ele>
<time>2026-04-22T10:34:16-07:00</time>
</trkpt>
<trkpt lat="38.23937" lon="-120.38677">
<ele>1309.1</ele>
<time>2026-04-22T10:34:17-07:00</time>
</trkpt>
<trkpt lat="38.23957" lon="-120.38686">
<ele>1314.8</ele>
<time>2026-04-22T10:34:18-07:00</time>
</trkpt>
<trkpt lat="38.23966" lon="-120.38692">
<ele>1315.8</ele>
<time>2026-04-22T10:34:19-07:00</time>
</trkpt>
<trkpt lat="38.23973" lon="-120.387">
<ele>1318.8</ele>
<time>2026-04-22T10:34:20-07:00</time>
</trkpt>
<trkpt lat="38.23973" lon="-120.38709">
<ele>1321</ele>
<time>2026-04-22T10:34:21-07:00</time>
</trkpt>
<trkpt lat="38.23964" lon="-120.38718">
<ele>1322.4</ele>
<time>2026-04-22T10:34:22-07:00</time>
</trkpt>
<trkpt lat="38.23961" lon="-120.38728">
<ele>1322.9</ele>
<time>2026-04-22T10:34:23-07:00</time>
</trkpt>
<trkpt lat="38.23962" lon="-120.38738">
<ele>1324.6</ele>
<time>2026-04-22T10:34:24-07:00</time>
</trkpt>
<trkpt lat="38.23966" lon="-120.38742">
<ele>1327.5</ele>
<time>2026-04-22T10:34:25-07:00</time>
</trkpt>
<trkpt lat="38.23981" lon="-120.38744">
<ele>1328.8</ele>
<time>2026-04-22T10:34:26-07:00</time>
</trkpt>
<trkpt lat="38.23993" lon="-120.38742">
<ele>1328</ele>
<time>2026-04-22T10:34:27-07:00</time>
</trkpt>
<trkpt lat="38.24013" lon="-120.3875">
<ele>1326.3</ele>
<time>2026-04-22T10:34:28-07:00</time>
</trkpt>
<trkpt lat="38.24057" lon="-120.38756">
<ele>1324.7</ele>
<time>2026-04-22T10:34:29-07:00</time>
</trkpt>
<trkpt lat="38.24063" lon="-120.38755">
<ele>1324.7</ele>
<time>2026-04-22T10:34:30-07:00</time>
</trkpt>
<trkpt lat="38.24077" lon="-120.38745">
<ele>1321.7</ele>
<time>2026-04-22T10:34:31-07:00</time>
</trkpt>
<trkpt lat="38.2409" lon="-120.3874">
<ele>1319.9</ele>
<time>2026-04-22T10:34:32-07:00</time>
</trkpt>
<trkpt lat="38.24107" lon="-120.38742">
<ele>1317.8</ele>
<time>2026-04-22T10:34:33-07:00</time>
</trkpt>
<trkpt lat="38.2414" lon="-120.38731">
<ele>1317.5</ele>
<time>2026-04-22T10:34:34-07:00</time>
</trkpt>
<trkpt lat="38.24181" lon="-120.38733">
<ele>1318.8</ele>
<time>2026-04-22T10:34:35-07:00</time>
</trkpt>
<trkpt lat="38.2423" lon="-120.38742">
<ele>1321</ele>
<time>2026-04-22T10:34:36-07:00</time>
</trkpt>
<trkpt lat="38.24274" lon="-120.38747">
<ele>1328.3</ele>
<time>2026-04-22T10:34:37-07:00</time>
</trkpt>
<trkpt lat="38.24308" lon="-120.38748">
<ele>1334.4</ele>
<time>2026-04-22T10:34:38-07:00</time>
</trkpt>
<trkpt lat="38.24331" lon="-120.38736">
<ele>1334</ele>
<time>2026-04-22T10:34:39-07:00</time>
</trkpt>
<trkpt lat="38.24351" lon="-120.3872">
<ele>1330.9</ele>
<time>2026-04-22T10:34:40-07:00</time>
</trkpt>
<trkpt lat="38.24378" lon="-120.38726">
<ele>1331.3</ele>
<time>2026-04-22T10:34:41-07:00</time>
</trkpt>
<trkpt lat="38.24398" lon="-120.38738">
<ele>1332.5</ele>
<time>2026-04-22T10:34:42-07:00</time>
</trkpt>
<trkpt lat="38.24411" lon="-120.3875">
<ele>1334</ele>
<time>2026-04-22T10:34:43-07:00</time>
</trkpt>
<trkpt lat="38.24416" lon="-120.38752">
<ele>1333.6</ele>
<time>2026-04-22T10:34:44-07:00</time>
</trkpt>
<trkpt lat="38.24425" lon="-120.38751">
<ele>1335</ele>
<time>2026-04-22T10:34:45-07:00</time>
</trkpt>
<trkpt lat="38.24436" lon="-120.38747">
<ele>1339.7</ele>
<time>2026-04-22T10:34:46-07:00</time>
</trkpt>
<trkpt lat="38.24441" lon="-120.38749">
<ele>1339.7</ele>
<time>2026-04-22T10:34:47-07:00</time>
</trkpt>
<trkpt lat="38.24456" lon="-120.38765">
<ele>1343.9</ele>
<time>2026-04-22T10:34:48-07:00</time>
</trkpt>
<trkpt lat="38.24466" lon="-120.38766">
<ele>1345.9</ele>
<time>2026-04-22T10:34:49-07:00</time>
</trkpt>
<trkpt lat="38.24472" lon="-120.38763">
<ele>1345.9</ele>
<time>2026-04-22T10:34:50-07:00</time>
</trkpt>
<trkpt lat="38.24481" lon="-120.38763">
<ele>1347.2</ele>
<time>2026-04-22T10:34:51-07:00</time>
</trkpt>
<trkpt lat="38.24489" lon="-120.38768">
<ele>1348.5</ele>
<time>2026-04-22T10:34:52-07:00</time>
</trkpt>
<trkpt lat="38.24496" lon="-120.3877">
<ele>1348.9</ele>
<time>2026-04-22T10:34:53-07:00</time>
</trkpt>
<trkpt lat="38.24504" lon="-120.3877">
<ele>1351.3</ele>
<time>2026-04-22T10:34:54-07:00</time>
</trkpt>
<trkpt lat="38.24528" lon="-120.38775">
<ele>1354.1</ele>
<time>2026-04-22T10:34:55-07:00</time>
</trkpt>
<trkpt lat="38.24537" lon="-120.38781">
<ele>1355.8</ele>
<time>2026-04-22T10:34:56-07:00</time>
</trkpt>
<trkpt lat="38.24553" lon="-120.38797">
<ele>1358.5</ele>
<time>2026-04-22T10:34:57-07:00</time>
</trkpt>
<trkpt lat="38.24563" lon="-120.38803">
<ele>1359.8</ele>
<time>2026-04-22T10:34:58-07:00</time>
</trkpt>
<trkpt lat="38.24575" lon="-120.38801">
<ele>1360.7</ele>
<time>2026-04-22T10:34:59-07:00</time>
</trkpt>
<trkpt lat="38.24602" lon="-120.38808">
<ele>1359.3</ele>
<time>2026-04-22T10:35:00-07:00</time>
</trkpt>
<trkpt lat="38.24613" lon="-120.388">
<ele>1356.8</ele>
<time>2026-04-22T10:35:01-07:00</time>
</trkpt>
<trkpt lat="38.24619" lon="-120.38789">
<ele>1355.4</ele>
<time>2026-04-22T10:35:02-07:00</time>
</trkpt>
<trkpt lat="38.24622" lon="-120.38787">
<ele>1352.4</ele>
<time>2026-04-22T10:35:03-07:00</time>
</trkpt>
<trkpt lat="38.24629" lon="-120.38789">
<ele>1353.6</ele>
<time>2026-04-22T10:35:04-07:00</time>
</trkpt>
<trkpt lat="38.24635" lon="-120.38795">
<ele>1351.5</ele>
<time>2026-04-22T10:35:05-07:00</time>
</trkpt>
<trkpt lat="38.2464" lon="-120.38815">
<ele>1346.1</ele>
<time>2026-04-22T10:35:06-07:00</time>
</trkpt>
<trkpt lat="38.24644" lon="-120.38814">
<ele>1347</ele>
<time>2026-04-22T10:35:07-07:00</time>
</trkpt>
<trkpt lat="38.24649" lon="-120.38808">
<ele>1342.4</ele>
<time>2026-04-22T10:35:08-07:00</time>
</trkpt>
<trkpt lat="38.24664" lon="-120.38801">
<ele>1339.3</ele>
<time>2026-04-22T10:35:09-07:00</time>
</trkpt>
<trkpt lat="38.24696" lon="-120.38766">
<ele>1336.5</ele>
<time>2026-04-22T10:35:10-07:00</time>
</trkpt>
<trkpt lat="38.24704" lon="-120.38761">
<ele>1335.4</ele>
<time>2026-04-22T10:35:11-07:00</time>
</trkpt>
<trkpt lat="38.24711" lon="-120.38759">
<ele>1337.9</ele>
<time>2026-04-22T10:35:12-07:00</time>
</trkpt>
<trkpt lat="38.24721" lon="-120.38759">
<ele>1337.8</ele>
<time>2026-04-22T10:35:13-07:00</time>
</trkpt>
<trkpt lat="38.24743" lon="-120.3875">
<ele>1335</ele>
<time>2026-04-22T10:35:14-07:00</time>
</trkpt>
<trkpt lat="38.24762" lon="-120.38718">
<ele>1338.3</ele>
<time>2026-04-22T10:35:15-07:00</time>
</trkpt>
<trkpt lat="38.24767" lon="-120.38713">
<ele>1338.3</ele>
<time>2026-04-22T10:35:16-07:00</time>
</trkpt>
<trkpt lat="38.24774" lon="-120.38711">
<ele>1336.7</ele>
<time>2026-04-22T10:35:17-07:00</time>
</trkpt>
<trkpt lat="38.24783" lon="-120.38712">
<ele>1335.3</ele>
<time>2026-04-22T10:35:18-07:00</time>
</trkpt>
<trkpt lat="38.24799" lon="-120.3872">
<ele>1332</ele>
<time>2026-04-22T10:35:19-07:00</time>
</trkpt>
<trkpt lat="38.24809" lon="-120.38721">
<ele>1331.1</ele>
<time>2026-04-22T10:35:20-07:00</time>
</trkpt>
<trkpt lat="38.24824" lon="-120.38718">
<ele>1330.6</ele>
<time>2026-04-22T10:35:21-07:00</time>
</trkpt>
<trkpt lat="38.2483" lon="-120.38719">
<ele>1329.9</ele>
<time>2026-04-22T10:35:22-07:00</time>
</trkpt>
<trkpt lat="38.24841" lon="-120.38728">
<ele>1328.3</ele>
<time>2026-04-22T10:35:23-07:00</time>
</trkpt>
<trkpt lat="38.24862" lon="-120.38731">
<ele>1327.2</ele>
<time>2026-04-22T10:35:24-07:00</time>
</trkpt>
<trkpt lat="38.24869" lon="-120.38737">
<ele>1327.4</ele>
<time>2026-04-22T10:35:25-07:00</time>
</trkpt>
<trkpt lat="38.24891" lon="-120.38742">
<ele>1325.9</ele>
<time>2026-04-22T10:35:26-07:00</time>
</trkpt>
<trkpt lat="38.24906" lon="-120.3874">
<ele>1325.9</ele>
<time>2026-04-22T10:35:27-07:00</time>
</trkpt>
<trkpt lat="38.2491" lon="-120.38745">
<ele>1324.3</ele>
<time>2026-04-22T10:35:28-07:00</time>
</trkpt>
<trkpt lat="38.24921" lon="-120.38752">
<ele>1322.1</ele>
<time>2026-04-22T10:35:29-07:00</time>
</trkpt>
<trkpt lat="38.24939" lon="-120.38752">
<ele>1325.1</ele>
<time>2026-04-22T10:35:30-07:00</time>
</trkpt>
<trkpt lat="38.24957" lon="-120.3876">
<ele>1325.9</ele>
<time>2026-04-22T10:35:31-07:00</time>
</trkpt>
<trkpt lat="38.24969" lon="-120.3876">
<ele>1327.4</ele>
<time>2026-04-22T10:35:32-07:00</time>
</trkpt>
<trkpt lat="38.25001" lon="-120.38767">
<ele>1331.8</ele>
<time>2026-04-22T10:35:33-07:00</time>
</trkpt>
<trkpt lat="38.25009" lon="-120.38775">
<ele>1333</ele>
<time>2026-04-22T10:35:34-07:00</time>
</trkpt>
<trkpt lat="38.25014" lon="-120.38775">
<ele>1334.6</ele>
<time>2026-04-22T10:35:35-07:00</time>
</trkpt>
<trkpt lat="38.25018" lon="-120.38773">
<ele>1334.6</ele>
<time>2026-04-22T10:35:36-07:00</time>
</trkpt>
<trkpt lat="38.25024" lon="-120.38765">
<ele>1334</ele>
<time>2026-04-22T10:35:37-07:00</time>
</trkpt>
<trkpt lat="38.25036" lon="-120.38763">
<ele>1333.8</ele>
<time>2026-04-22T10:35:38-07:00</time>
</trkpt>
<trkpt lat="38.25045" lon="-120.38757">
<ele>1332.6</ele>
<time>2026-04-22T10:35:39-07:00</time>
</trkpt>
<trkpt lat="38.25056" lon="-120.38754">
<ele>1332.1</ele>
<time>2026-04-22T10:35:40-07:00</time>
</trkpt>
<trkpt lat="38.25079" lon="-120.38766">
<ele>1332.3</ele>
<time>2026-04-22T10:35:41-07:00</time>
</trkpt>
<trkpt lat="38.25085" lon="-120.38774">
<ele>1332.2</ele>
<time>2026-04-22T10:35:42-07:00</time>
</trkpt>
<trkpt lat="38.25088" lon="-120.38772">
<ele>1332.2</ele>
<time>2026-04-22T10:35:43-07:00</time>
</trkpt>
<trkpt lat="38.25092" lon="-120.3875">
<ele>1327.8</ele>
<time>2026-04-22T10:35:44-07:00</time>
</trkpt>
<trkpt lat="38.25092" lon="-120.38735">
<ele>1325.5</ele>
<time>2026-04-22T10:35:45-07:00</time>
</trkpt>
<trkpt lat="38.25099" lon="-120.38731">
<ele>1321.1</ele>
<time>2026-04-22T10:35:46-07:00</time>
</trkpt>
<trkpt lat="38.25113" lon="-120.38733">
<ele>1320.1</ele>
<time>2026-04-22T10:35:47-07:00</time>
</trkpt>
<trkpt lat="38.25107" lon="-120.38721">
<ele>1316.3</ele>
<time>2026-04-22T10:35:48-07:00</time>
</trkpt>
<trkpt lat="38.25114" lon="-120.38716">
<ele>1314.2</ele>
<time>2026-04-22T10:35:49-07:00</time>
</trkpt>
<trkpt lat="38.25125" lon="-120.38715">
<ele>1312.5</ele>
<time>2026-04-22T10:35:50-07:00</time>
</trkpt>
<trkpt lat="38.25126" lon="-120.38711">
<ele>1309.3</ele>
<time>2026-04-22T10:35:51-07:00</time>
</trkpt>
<trkpt lat="38.2511" lon="-120.38689">
<ele>1307</ele>
<time>2026-04-22T10:35:52-07:00</time>
</trkpt>
<trkpt lat="38.25126" lon="-120.38685">
<ele>1299.9</ele>
<time>2026-04-22T10:35:53-07:00</time>
</trkpt>
<trkpt lat="38.25141" lon="-120.38688">
<ele>1299.5</ele>
<time>2026-04-22T10:35:54-07:00</time>
</trkpt>
<trkpt lat="38.25146" lon="-120.38683">
<ele>1296.3</ele>
<time>2026-04-22T10:35:55-07:00</time>
</trkpt>
<trkpt lat="38.25133" lon="-120.38658">
<ele>1291.2</ele>
<time>2026-04-22T10:35:56-07:00</time>
</trkpt>
<trkpt lat="38.25119" lon="-120.38645">
<ele>1288.9</ele>
<time>2026-04-22T10:35:57-07:00</time>
</trkpt>
<trkpt lat="38.25114" lon="-120.38635">
<ele>1285.7</ele>
<time>2026-04-22T10:35:58-07:00</time>
</trkpt>
<trkpt lat="38.25118" lon="-120.38628">
<ele>1282.4</ele>
<time>2026-04-22T10:35:59-07:00</time>
</trkpt>
<trkpt lat="38.25124" lon="-120.38628">
<ele>1280.6</ele>
<time>2026-04-22T10:36:00-07:00</time>
</trkpt>
<trkpt lat="38.2513" lon="-120.38622">
<ele>1278.7</ele>
<time>2026-04-22T10:36:01-07:00</time>
</trkpt>
<trkpt lat="38.25148" lon="-120.38626">
<ele>1276.5</ele>
<time>2026-04-22T10:36:02-07:00</time>
</trkpt>
<trkpt lat="38.25157" lon="-120.38626">
<ele>1274</ele>
<time>2026-04-22T10:36:03-07:00</time>
</trkpt>
<trkpt lat="38.25152" lon="-120.38616">
<ele>1270.7</ele>
<time>2026-04-22T10:36:04-07:00</time>
</trkpt>
<trkpt lat="38.25133" lon="-120.38598">
<ele>1269.7</ele>
<time>2026-04-22T10:36:05-07:00</time>
</trkpt>
<trkpt lat="38.25132" lon="-120.38588">
<ele>1266.6</ele>
<time>2026-04-22T10:36:06-07:00</time>
</trkpt>
<trkpt lat="38.25141" lon="-120.38584">
<ele>1264.2</ele>
<time>2026-04-22T10:36:07-07:00</time>
</trkpt>
<trkpt lat="38.25146" lon="-120.38584">
<ele>1264.2</ele>
<time>2026-04-22T10:36:08-07:00</time>
</trkpt>
<trkpt lat="38.25157" lon="-120.38594">
<ele>1264.5</ele>
<time>2026-04-22T10:36:09-07:00</time>
</trkpt>
<trkpt lat="38.25182" lon="-120.38603">
<ele>1261</ele>
<time>2026-04-22T10:36:10-07:00</time>
</trkpt>
<trkpt lat="38.25224" lon="-120.38603">
<ele>1252.4</ele>
<time>2026-04-22T10:36:11-07:00</time>
</trkpt>
<trkpt lat="38.2524" lon="-120.38609">
<ele>1250.2</ele>
<time>2026-04-22T10:36:12-07:00</time>
</trkpt>
<trkpt lat="38.25233" lon="-120.38584">
<ele>1244.1</ele>
<time>2026-04-22T10:36:13-07:00</time>
</trkpt>
<trkpt lat="38.25212" lon="-120.38567">
<ele>1241.7</ele>
<time>2026-04-22T10:36:14-07:00</time>
</trkpt>
<trkpt lat="38.25193" lon="-120.3854">
<ele>1234.6</ele>
<time>2026-04-22T10:36:15-07:00</time>
</trkpt>
<trkpt lat="38.25179" lon="-120.38512">
<ele>1229.1</ele>
<time>2026-04-22T10:36:16-07:00</time>
</trkpt>
<trkpt lat="38.25156" lon="-120.38487">
<ele>1228.3</ele>
<time>2026-04-22T10:36:17-07:00</time>
</trkpt>
<trkpt lat="38.25143" lon="-120.38466">
<ele>1222.9</ele>
<time>2026-04-22T10:36:18-07:00</time>
</trkpt>
<trkpt lat="38.25126" lon="-120.38462">
<ele>1219.4</ele>
<time>2026-04-22T10:36:19-07:00</time>
</trkpt>
<trkpt lat="38.25117" lon="-120.38453">
<ele>1215.2</ele>
<time>2026-04-22T10:36:20-07:00</time>
</trkpt>
<trkpt lat="38.25121" lon="-120.38447">
<ele>1216</ele>
<time>2026-04-22T10:36:21-07:00</time>
</trkpt>
<trkpt lat="38.2513" lon="-120.38446">
<ele>1216.1</ele>
<time>2026-04-22T10:36:22-07:00</time>
</trkpt>
<trkpt lat="38.2515" lon="-120.38434">
<ele>1208.2</ele>
<time>2026-04-22T10:36:23-07:00</time>
</trkpt>
<trkpt lat="38.25162" lon="-120.38435">
<ele>1207.1</ele>
<time>2026-04-22T10:36:24-07:00</time>
</trkpt>
<trkpt lat="38.25177" lon="-120.38444">
<ele>1206.4</ele>
<time>2026-04-22T10:36:25-07:00</time>
</trkpt>
<trkpt lat="38.25174" lon="-120.38431">
<ele>1205.5</ele>
<time>2026-04-22T10:36:26-07:00</time>
</trkpt>
<trkpt lat="38.25175" lon="-120.38422">
<ele>1203</ele>
<time>2026-04-22T10:36:27-07:00</time>
</trkpt>
<trkpt lat="38.25186" lon="-120.3843">
<ele>1201.7</ele>
<time>2026-04-22T10:36:28-07:00</time>
</trkpt>
<trkpt lat="38.25193" lon="-120.38431">
<ele>1201.7</ele>
<time>2026-04-22T10:36:29-07:00</time>
</trkpt>
<trkpt lat="38.252" lon="-120.38424">
<ele>1197.6</ele>
<time>2026-04-22T10:36:30-07:00</time>
</trkpt>
<trkpt lat="38.25195" lon="-120.38409">
<ele>1196</ele>
<time>2026-04-22T10:36:31-07:00</time>
</trkpt>
<trkpt lat="38.25195" lon="-120.38392">
<ele>1192.9</ele>
<time>2026-04-22T10:36:32-07:00</time>
</trkpt>
<trkpt lat="38.25211" lon="-120.38383">
<ele>1190.2</ele>
<time>2026-04-22T10:36:33-07:00</time>
</trkpt>
<trkpt lat="38.25217" lon="-120.38372">
<ele>1187.9</ele>
<time>2026-04-22T10:36:34-07:00</time>
</trkpt>
<trkpt lat="38.25238" lon="-120.38374">
<ele>1184.5</ele>
<time>2026-04-22T10:36:35-07:00</time>
</trkpt>
<trkpt lat="38.2526" lon="-120.38397">
<ele>1180.9</ele>
<time>2026-04-22T10:36:36-07:00</time>
</trkpt>
<trkpt lat="38.25302" lon="-120.3842">
<ele>1177.6</ele>
<time>2026-04-22T10:36:37-07:00</time>
</trkpt>
<trkpt lat="38.2533" lon="-120.38449">
<ele>1172.3</ele>
<time>2026-04-22T10:36:38-07:00</time>
</trkpt>
<trkpt lat="38.25334" lon="-120.38483">
<ele>1175.6</ele>
<time>2026-04-22T10:36:39-07:00</time>
</trkpt>
<trkpt lat="38.25348" lon="-120.38516">
<ele>1177</ele>
<time>2026-04-22T10:36:40-07:00</time>
</trkpt>
<trkpt lat="38.2537" lon="-120.38528">
<ele>1180</ele>
<time>2026-04-22T10:36:41-07:00</time>
</trkpt>
<trkpt lat="38.25416" lon="-120.38529">
<ele>1188.9</ele>
<time>2026-04-22T10:36:42-07:00</time>
</trkpt>
<trkpt lat="38.25466" lon="-120.38571">
<ele>1197.8</ele>
<time>2026-04-22T10:36:43-07:00</time>
</trkpt>
<trkpt lat="38.25578" lon="-120.38649">
<ele>1209.6</ele>
<time>2026-04-22T10:36:44-07:00</time>
</trkpt>
<trkpt lat="38.25653" lon="-120.38662">
<ele>1199.1</ele>
<time>2026-04-22T10:36:45-07:00</time>
</trkpt>
<trkpt lat="38.25598" lon="-120.38653">
<ele>1207</ele>
<time>2026-04-22T10:36:46-07:00</time>
</trkpt>
<trkpt lat="38.25556" lon="-120.38634">
<ele>1204.8</ele>
<time>2026-04-22T10:36:47-07:00</time>
</trkpt>
<trkpt lat="38.25417" lon="-120.38531">
<ele>1189.4</ele>
<time>2026-04-22T10:36:48-07:00</time>
</trkpt>
<trkpt lat="38.25379" lon="-120.38528">
<ele>1182.6</ele>
<time>2026-04-22T10:36:49-07:00</time>
</trkpt>
<trkpt lat="38.25347" lon="-120.38516">
<ele>1177</ele>
<time>2026-04-22T10:36:50-07:00</time>
</trkpt>
<trkpt lat="38.2532" lon="-120.38434">
<ele>1173.4</ele>
<time>2026-04-22T10:36:51-07:00</time>
</trkpt>
<trkpt lat="38.25283" lon="-120.38407">
<ele>1179.1</ele>
<time>2026-04-22T10:36:52-07:00</time>
</trkpt>
<trkpt lat="38.25257" lon="-120.38396">
<ele>1182.6</ele>
<time>2026-04-22T10:36:53-07:00</time>
</trkpt>
<trkpt lat="38.25238" lon="-120.38374">
<ele>1184.5</ele>
<time>2026-04-22T10:36:54-07:00</time>
</trkpt>
<trkpt lat="38.25222" lon="-120.38372">
<ele>1187.9</ele>
<time>2026-04-22T10:36:55-07:00</time>
</trkpt>
<trkpt lat="38.25213" lon="-120.38369">
<ele>1186.4</ele>
<time>2026-04-22T10:36:56-07:00</time>
</trkpt>
<trkpt lat="38.25208" lon="-120.38364">
<ele>1187.3</ele>
<time>2026-04-22T10:36:57-07:00</time>
</trkpt>
<trkpt lat="38.25165" lon="-120.38364">
<ele>1186.4</ele>
<time>2026-04-22T10:36:58-07:00</time>
</trkpt>
<trkpt lat="38.2513" lon="-120.38359">
<ele>1182.5</ele>
<time>2026-04-22T10:36:59-07:00</time>
</trkpt>
<trkpt lat="38.25104" lon="-120.38347">
<ele>1178.2</ele>
<time>2026-04-22T10:37:00-07:00</time>
</trkpt>
<trkpt lat="38.25083" lon="-120.38348">
<ele>1179.3</ele>
<time>2026-04-22T10:37:01-07:00</time>
</trkpt>
<trkpt lat="38.25076" lon="-120.38342">
<ele>1178.9</ele>
<time>2026-04-22T10:37:02-07:00</time>
</trkpt>
<trkpt lat="38.25078" lon="-120.38333">
<ele>1178.7</ele>
<time>2026-04-22T10:37:03-07:00</time>
</trkpt>
<trkpt lat="38.25089" lon="-120.38325">
<ele>1176.9</ele>
<time>2026-04-22T10:37:04-07:00</time>
</trkpt>
<trkpt lat="38.25116" lon="-120.38315">
<ele>1173.3</ele>
<time>2026-04-22T10:37:05-07:00</time>
</trkpt>
<trkpt lat="38.25132" lon="-120.38303">
<ele>1178.7</ele>
<time>2026-04-22T10:37:06-07:00</time>
</trkpt>
<trkpt lat="38.25215" lon="-120.38259">
<ele>1173.9</ele>
<time>2026-04-22T10:37:07-07:00</time>
</trkpt>
<trkpt lat="38.25351" lon="-120.38219">
<ele>1192.5</ele>
<time>2026-04-22T10:37:08-07:00</time>
</trkpt>
<trkpt lat="38.25367" lon="-120.38216">
<ele>1190.6</ele>
<time>2026-04-22T10:37:09-07:00</time>
</trkpt>
<trkpt lat="38.25378" lon="-120.38209">
<ele>1191.5</ele>
<time>2026-04-22T10:37:10-07:00</time>
</trkpt>
<trkpt lat="38.25381" lon="-120.38196">
<ele>1189.2</ele>
<time>2026-04-22T10:37:11-07:00</time>
</trkpt>
<trkpt lat="38.25374" lon="-120.38171">
<ele>1195.5</ele>
<time>2026-04-22T10:37:12-07:00</time>
</trkpt>
<trkpt lat="38.25374" lon="-120.3815">
<ele>1195.8</ele>
<time>2026-04-22T10:37:13-07:00</time>
</trkpt>
<trkpt lat="38.25368" lon="-120.38131">
<ele>1203.1</ele>
<time>2026-04-22T10:37:14-07:00</time>
</trkpt>
<trkpt lat="38.2536" lon="-120.38071">
<ele>1214</ele>
<time>2026-04-22T10:37:15-07:00</time>
</trkpt>
<trkpt lat="38.25347" lon="-120.38035">
<ele>1216.7</ele>
<time>2026-04-22T10:37:16-07:00</time>
</trkpt>
<trkpt lat="38.25358" lon="-120.38023">
<ele>1220.3</ele>
<time>2026-04-22T10:37:17-07:00</time>
</trkpt>
<trkpt lat="38.25394" lon="-120.37998">
<ele>1226.3</ele>
<time>2026-04-22T10:37:18-07:00</time>
</trkpt>
<trkpt lat="38.25406" lon="-120.37996">
<ele>1225.8</ele>
<time>2026-04-22T10:37:19-07:00</time>
</trkpt>
<trkpt lat="38.25448" lon="-120.37997">
<ele>1228.7</ele>
<time>2026-04-22T10:37:20-07:00</time>
</trkpt>
<trkpt lat="38.25456" lon="-120.37992">
<ele>1227.7</ele>
<time>2026-04-22T10:37:21-07:00</time>
</trkpt>
<trkpt lat="38.25477" lon="-120.37972">
<ele>1231.3</ele>
<time>2026-04-22T10:37:22-07:00</time>
</trkpt>
<trkpt lat="38.25499" lon="-120.37943">
<ele>1231.3</ele>
<time>2026-04-22T10:37:23-07:00</time>
</trkpt>
<trkpt lat="38.25504" lon="-120.37927">
<ele>1228</ele>
<time>2026-04-22T10:37:24-07:00</time>
</trkpt>
<trkpt lat="38.25504" lon="-120.37898">
<ele>1226.7</ele>
<time>2026-04-22T10:37:25-07:00</time>
</trkpt>
<trkpt lat="38.25502" lon="-120.37878">
<ele>1223</ele>
<time>2026-04-22T10:37:26-07:00</time>
</trkpt>
<trkpt lat="38.25492" lon="-120.37861">
<ele>1221.2</ele>
<time>2026-04-22T10:37:27-07:00</time>
</trkpt>
<trkpt lat="38.25459" lon="-120.37828">
<ele>1225.7</ele>
<time>2026-04-22T10:37:28-07:00</time>
</trkpt>
<trkpt lat="38.25451" lon="-120.37813">
<ele>1224.2</ele>
<time>2026-04-22T10:37:29-07:00</time>
</trkpt>
<trkpt lat="38.25444" lon="-120.37794">
<ele>1224.9</ele>
<time>2026-04-22T10:37:30-07:00</time>
</trkpt>
<trkpt lat="38.25448" lon="-120.37792">
<ele>1226.7</ele>
<time>2026-04-22T10:37:31-07:00</time>
</trkpt>
<trkpt lat="38.25456" lon="-120.37793">
<ele>1227.3</ele>
<time>2026-04-22T10:37:32-07:00</time>
</trkpt>
<trkpt lat="38.25466" lon="-120.37796">
<ele>1227.7</ele>
<time>2026-04-22T10:37:33-07:00</time>
</trkpt>
<trkpt lat="38.25472" lon="-120.378">
<ele>1225.9</ele>
<time>2026-04-22T10:37:34-07:00</time>
</trkpt>
<trkpt lat="38.25482" lon="-120.37798">
<ele>1226.1</ele>
<time>2026-04-22T10:37:35-07:00</time>
</trkpt>
<trkpt lat="38.25495" lon="-120.37791">
<ele>1228.2</ele>
<time>2026-04-22T10:37:36-07:00</time>
</trkpt>
<trkpt lat="38.25507" lon="-120.37782">
<ele>1229.3</ele>
<time>2026-04-22T10:37:37-07:00</time>
</trkpt>
<trkpt lat="38.25513" lon="-120.3777">
<ele>1228.8</ele>
<time>2026-04-22T10:37:38-07:00</time>
</trkpt>
<trkpt lat="38.2551" lon="-120.37736">
<ele>1231.3</ele>
<time>2026-04-22T10:37:39-07:00</time>
</trkpt>
<trkpt lat="38.25495" lon="-120.37691">
<ele>1237.4</ele>
<time>2026-04-22T10:37:40-07:00</time>
</trkpt>
<trkpt lat="38.2551" lon="-120.37659">
<ele>1236</ele>
<time>2026-04-22T10:37:41-07:00</time>
</trkpt>
<trkpt lat="38.25509" lon="-120.37617">
<ele>1237.7</ele>
<time>2026-04-22T10:37:42-07:00</time>
</trkpt>
<trkpt lat="38.25535" lon="-120.37581">
<ele>1234.4</ele>
<time>2026-04-22T10:37:43-07:00</time>
</trkpt>
<trkpt lat="38.25548" lon="-120.37572">
<ele>1232.9</ele>
<time>2026-04-22T10:37:44-07:00</time>
</trkpt>
<trkpt lat="38.25555" lon="-120.37564">
<ele>1232.3</ele>
<time>2026-04-22T10:37:45-07:00</time>
</trkpt>
<trkpt lat="38.2556" lon="-120.37549">
<ele>1230.7</ele>
<time>2026-04-22T10:37:46-07:00</time>
</trkpt>
<trkpt lat="38.25636" lon="-120.37463">
<ele>1222.4</ele>
<time>2026-04-22T10:37:47-07:00</time>
</trkpt>
<trkpt lat="38.25638" lon="-120.37445">
<ele>1220.7</ele>
<time>2026-04-22T10:37:48-07:00</time>
</trkpt>
<trkpt lat="38.25633" lon="-120.37421">
<ele>1217.1</ele>
<time>2026-04-22T10:37:49-07:00</time>
</trkpt>
<trkpt lat="38.25624" lon="-120.3741">
<ele>1215.6</ele>
<time>2026-04-22T10:37:50-07:00</time>
</trkpt>
<trkpt lat="38.25606" lon="-120.37398">
<ele>1212.6</ele>
<time>2026-04-22T10:37:51-07:00</time>
</trkpt>
<trkpt lat="38.25589" lon="-120.37391">
<ele>1211.1</ele>
<time>2026-04-22T10:37:52-07:00</time>
</trkpt>
<trkpt lat="38.25562" lon="-120.37391">
<ele>1206.5</ele>
<time>2026-04-22T10:37:53-07:00</time>
</trkpt>
<trkpt lat="38.25556" lon="-120.37383">
<ele>1204.2</ele>
<time>2026-04-22T10:37:54-07:00</time>
</trkpt>
<trkpt lat="38.25565" lon="-120.37327">
<ele>1201.1</ele>
<time>2026-04-22T10:37:55-07:00</time>
</trkpt>
<trkpt lat="38.25569" lon="-120.37314">
<ele>1201.1</ele>
<time>2026-04-22T10:37:56-07:00</time>
</trkpt>
<trkpt lat="38.2558" lon="-120.37311">
<ele>1202.2</ele>
<time>2026-04-22T10:37:57-07:00</time>
</trkpt>
<trkpt lat="38.25592" lon="-120.37311">
<ele>1201.9</ele>
<time>2026-04-22T10:37:58-07:00</time>
</trkpt>
<trkpt lat="38.2566" lon="-120.37301">
<ele>1198.9</ele>
<time>2026-04-22T10:37:59-07:00</time>
</trkpt>
<trkpt lat="38.25665" lon="-120.37294">
<ele>1200.4</ele>
<time>2026-04-22T10:38:00-07:00</time>
</trkpt>
<trkpt lat="38.25669" lon="-120.37283">
<ele>1199.8</ele>
<time>2026-04-22T10:38:01-07:00</time>
</trkpt>
<trkpt lat="38.25665" lon="-120.37276">
<ele>1201.4</ele>
<time>2026-04-22T10:38:02-07:00</time>
</trkpt>
<trkpt lat="38.25645" lon="-120.37256">
<ele>1204.2</ele>
<time>2026-04-22T10:38:03-07:00</time>
</trkpt>
<trkpt lat="38.2558" lon="-120.37211">
<ele>1212</ele>
<time>2026-04-22T10:38:04-07:00</time>
</trkpt>
<trkpt lat="38.25565" lon="-120.3719">
<ele>1211.8</ele>
<time>2026-04-22T10:38:05-07:00</time>
</trkpt>
<trkpt lat="38.25527" lon="-120.3713">
<ele>1215.7</ele>
<time>2026-04-22T10:38:06-07:00</time>
</trkpt>
<trkpt lat="38.25515" lon="-120.37108">
<ele>1210.9</ele>
<time>2026-04-22T10:38:07-07:00</time>
</trkpt>
<trkpt lat="38.25501" lon="-120.3709">
<ele>1207.9</ele>
<time>2026-04-22T10:38:08-07:00</time>
</trkpt>
<trkpt lat="38.25488" lon="-120.37081">
<ele>1206</ele>
<time>2026-04-22T10:38:09-07:00</time>
</trkpt>
<trkpt lat="38.25474" lon="-120.37074">
<ele>1204.1</ele>
<time>2026-04-22T10:38:10-07:00</time>
</trkpt>
<trkpt lat="38.25457" lon="-120.37041">
<ele>1203.6</ele>
<time>2026-04-22T10:38:11-07:00</time>
</trkpt>
<trkpt lat="38.25461" lon="-120.3702">
<ele>1202.2</ele>
<time>2026-04-22T10:38:12-07:00</time>
</trkpt>
<trkpt lat="38.25468" lon="-120.3701">
<ele>1199.7</ele>
<time>2026-04-22T10:38:13-07:00</time>
</trkpt>
<trkpt lat="38.25475" lon="-120.37005">
<ele>1198.3</ele>
<time>2026-04-22T10:38:14-07:00</time>
</trkpt>
<trkpt lat="38.25489" lon="-120.37005">
<ele>1197.6</ele>
<time>2026-04-22T10:38:15-07:00</time>
</trkpt>
<trkpt lat="38.25504" lon="-120.37011">
<ele>1195</ele>
<time>2026-04-22T10:38:16-07:00</time>
</trkpt>
<trkpt lat="38.25517" lon="-120.37012">
<ele>1194.5</ele>
<time>2026-04-22T10:38:17-07:00</time>
</trkpt>
<trkpt lat="38.25531" lon="-120.37011">
<ele>1192.3</ele>
<time>2026-04-22T10:38:18-07:00</time>
</trkpt>
<trkpt lat="38.25565" lon="-120.36996">
<ele>1188.9</ele>
<time>2026-04-22T10:38:19-07:00</time>
</trkpt>
<trkpt lat="38.25573" lon="-120.36995">
<ele>1188.9</ele>
<time>2026-04-22T10:38:20-07:00</time>
</trkpt>
<trkpt lat="38.25586" lon="-120.36998">
<ele>1189.1</ele>
<time>2026-04-22T10:38:21-07:00</time>
</trkpt>
<trkpt lat="38.25612" lon="-120.37019">
<ele>1188.6</ele>
<time>2026-04-22T10:38:22-07:00</time>
</trkpt>
<trkpt lat="38.25645" lon="-120.37029">
<ele>1189.4</ele>
<time>2026-04-22T10:38:23-07:00</time>
</trkpt>
<trkpt lat="38.25669" lon="-120.37042">
<ele>1188</ele>
<time>2026-04-22T10:38:24-07:00</time>
</trkpt>
<trkpt lat="38.25695" lon="-120.3706">
<ele>1184.3</ele>
<time>2026-04-22T10:38:25-07:00</time>
</trkpt>
<trkpt lat="38.25715" lon="-120.37064">
<ele>1183.3</ele>
<time>2026-04-22T10:38:26-07:00</time>
</trkpt>
<trkpt lat="38.25735" lon="-120.3706">
<ele>1181.7</ele>
<time>2026-04-22T10:38:27-07:00</time>
</trkpt>
<trkpt lat="38.25757" lon="-120.37048">
<ele>1180.1</ele>
<time>2026-04-22T10:38:28-07:00</time>
</trkpt>
<trkpt lat="38.25786" lon="-120.37025">
<ele>1176.7</ele>
<time>2026-04-22T10:38:29-07:00</time>
</trkpt>
<trkpt lat="38.258" lon="-120.36997">
<ele>1173.5</ele>
<time>2026-04-22T10:38:30-07:00</time>
</trkpt>
<trkpt lat="38.25806" lon="-120.36972">
<ele>1168.9</ele>
<time>2026-04-22T10:38:31-07:00</time>
</trkpt>
<trkpt lat="38.25808" lon="-120.36931">
<ele>1166.7</ele>
<time>2026-04-22T10:38:32-07:00</time>
</trkpt>
<trkpt lat="38.25804" lon="-120.36899">
<ele>1168.9</ele>
<time>2026-04-22T10:38:33-07:00</time>
</trkpt>
<trkpt lat="38.25806" lon="-120.36887">
<ele>1162.9</ele>
<time>2026-04-22T10:38:34-07:00</time>
</trkpt>
<trkpt lat="38.2581" lon="-120.36877">
<ele>1164.7</ele>
<time>2026-04-22T10:38:35-07:00</time>
</trkpt>
<trkpt lat="38.25817" lon="-120.36876">
<ele>1167.2</ele>
<time>2026-04-22T10:38:36-07:00</time>
</trkpt>
<trkpt lat="38.25838" lon="-120.36881">
<ele>1166.9</ele>
<time>2026-04-22T10:38:37-07:00</time>
</trkpt>
<trkpt lat="38.25845" lon="-120.36876">
<ele>1169</ele>
<time>2026-04-22T10:38:38-07:00</time>
</trkpt>
<trkpt lat="38.25848" lon="-120.36866">
<ele>1171</ele>
<time>2026-04-22T10:38:39-07:00</time>
</trkpt>
<trkpt lat="38.2584" lon="-120.36863">
<ele>1172.3</ele>
<time>2026-04-22T10:38:40-07:00</time>
</trkpt>
<trkpt lat="38.25833" lon="-120.36854">
<ele>1174.6</ele>
<time>2026-04-22T10:38:41-07:00</time>
</trkpt>
<trkpt lat="38.25831" lon="-120.36844">
<ele>1176.9</ele>
<time>2026-04-22T10:38:42-07:00</time>
</trkpt>
<trkpt lat="38.2584" lon="-120.3684">
<ele>1179.1</ele>
<time>2026-04-22T10:38:43-07:00</time>
</trkpt>
<trkpt lat="38.25845" lon="-120.36828">
<ele>1178.3</ele>
<time>2026-04-22T10:38:44-07:00</time>
</trkpt>
<trkpt lat="38.25842" lon="-120.36819">
<ele>1183.2</ele>
<time>2026-04-22T10:38:45-07:00</time>
</trkpt>
<trkpt lat="38.25836" lon="-120.36815">
<ele>1183.2</ele>
<time>2026-04-22T10:38:46-07:00</time>
</trkpt>
<trkpt lat="38.25831" lon="-120.36808">
<ele>1185.4</ele>
<time>2026-04-22T10:38:47-07:00</time>
</trkpt>
<trkpt lat="38.2583" lon="-120.36796">
<ele>1189</ele>
<time>2026-04-22T10:38:48-07:00</time>
</trkpt>
<trkpt lat="38.25835" lon="-120.36784">
<ele>1189.6</ele>
<time>2026-04-22T10:38:49-07:00</time>
</trkpt>
<trkpt lat="38.25835" lon="-120.36776">
<ele>1190.6</ele>
<time>2026-04-22T10:38:50-07:00</time>
</trkpt>
<trkpt lat="38.2582" lon="-120.36744">
<ele>1196.3</ele>
<time>2026-04-22T10:38:51-07:00</time>
</trkpt>
<trkpt lat="38.25819" lon="-120.36705">
<ele>1200.7</ele>
<time>2026-04-22T10:38:52-07:00</time>
</trkpt>
<trkpt lat="38.25817" lon="-120.36692">
<ele>1202.6</ele>
<time>2026-04-22T10:38:53-07:00</time>
</trkpt>
<trkpt lat="38.25811" lon="-120.36677">
<ele>1202.9</ele>
<time>2026-04-22T10:38:54-07:00</time>
</trkpt>
<trkpt lat="38.25803" lon="-120.36664">
<ele>1202.5</ele>
<time>2026-04-22T10:38:55-07:00</time>
</trkpt>
<trkpt lat="38.25795" lon="-120.36639">
<ele>1201.3</ele>
<time>2026-04-22T10:38:56-07:00</time>
</trkpt>
<trkpt lat="38.25792" lon="-120.36612">
<ele>1200.9</ele>
<time>2026-04-22T10:38:57-07:00</time>
</trkpt>
<trkpt lat="38.25794" lon="-120.36593">
<ele>1199.9</ele>
<time>2026-04-22T10:38:58-07:00</time>
</trkpt>
<trkpt lat="38.25789" lon="-120.36567">
<ele>1198.3</ele>
<time>2026-04-22T10:38:59-07:00</time>
</trkpt>
<trkpt lat="38.25793" lon="-120.3654">
<ele>1195.6</ele>
<time>2026-04-22T10:39:00-07:00</time>
</trkpt>
<trkpt lat="38.25793" lon="-120.36512">
<ele>1194.1</ele>
<time>2026-04-22T10:39:01-07:00</time>
</trkpt>
<trkpt lat="38.25795" lon="-120.365">
<ele>1193</ele>
<time>2026-04-22T10:39:02-07:00</time>
</trkpt>
<trkpt lat="38.25808" lon="-120.36475">
<ele>1194</ele>
<time>2026-04-22T10:39:03-07:00</time>
</trkpt>
<trkpt lat="38.25841" lon="-120.36438">
<ele>1198.9</ele>
<time>2026-04-22T10:39:04-07:00</time>
</trkpt>
<trkpt lat="38.25853" lon="-120.36427">
<ele>1200.5</ele>
<time>2026-04-22T10:39:05-07:00</time>
</trkpt>
<trkpt lat="38.2586" lon="-120.36414">
<ele>1204.2</ele>
<time>2026-04-22T10:39:06-07:00</time>
</trkpt>
<trkpt lat="38.25864" lon="-120.36393">
<ele>1205.8</ele>
<time>2026-04-22T10:39:07-07:00</time>
</trkpt>
<trkpt lat="38.25855" lon="-120.3638">
<ele>1207.4</ele>
<time>2026-04-22T10:39:08-07:00</time>
</trkpt>
<trkpt lat="38.25837" lon="-120.36375">
<ele>1210.9</ele>
<time>2026-04-22T10:39:09-07:00</time>
</trkpt>
<trkpt lat="38.25815" lon="-120.36355">
<ele>1215.5</ele>
<time>2026-04-22T10:39:10-07:00</time>
</trkpt>
<trkpt lat="38.25813" lon="-120.36345">
<ele>1218.1</ele>
<time>2026-04-22T10:39:11-07:00</time>
</trkpt>
<trkpt lat="38.25815" lon="-120.36331">
<ele>1219.6</ele>
<time>2026-04-22T10:39:12-07:00</time>
</trkpt>
<trkpt lat="38.25829" lon="-120.36312">
<ele>1220.6</ele>
<time>2026-04-22T10:39:13-07:00</time>
</trkpt>
<trkpt lat="38.25857" lon="-120.36262">
<ele>1220.9</ele>
<time>2026-04-22T10:39:14-07:00</time>
</trkpt>
<trkpt lat="38.2586" lon="-120.36214">
<ele>1225</ele>
<time>2026-04-22T10:39:15-07:00</time>
</trkpt>
<trkpt lat="38.25857" lon="-120.36192">
<ele>1225.1</ele>
<time>2026-04-22T10:39:16-07:00</time>
</trkpt>
<trkpt lat="38.25849" lon="-120.36169">
<ele>1227</ele>
<time>2026-04-22T10:39:17-07:00</time>
</trkpt>
<trkpt lat="38.2585" lon="-120.36145">
<ele>1229.2</ele>
<time>2026-04-22T10:39:18-07:00</time>
</trkpt>
<trkpt lat="38.25858" lon="-120.36118">
<ele>1231.5</ele>
<time>2026-04-22T10:39:19-07:00</time>
</trkpt>
<trkpt lat="38.25871" lon="-120.3609">
<ele>1234</ele>
<time>2026-04-22T10:39:20-07:00</time>
</trkpt>
<trkpt lat="38.25889" lon="-120.36071">
<ele>1233.8</ele>
<time>2026-04-22T10:39:21-07:00</time>
</trkpt>
<trkpt lat="38.25902" lon="-120.36053">
<ele>1233.5</ele>
<time>2026-04-22T10:39:22-07:00</time>
</trkpt>
<trkpt lat="38.25912" lon="-120.36027">
<ele>1232.2</ele>
<time>2026-04-22T10:39:23-07:00</time>
</trkpt>
<trkpt lat="38.2592" lon="-120.35987">
<ele>1226.3</ele>
<time>2026-04-22T10:39:24-07:00</time>
</trkpt>
<trkpt lat="38.25912" lon="-120.3595">
<ele>1223.7</ele>
<time>2026-04-22T10:39:25-07:00</time>
</trkpt>
<trkpt lat="38.25913" lon="-120.3594">
<ele>1222.6</ele>
<time>2026-04-22T10:39:26-07:00</time>
</trkpt>
<trkpt lat="38.2592" lon="-120.3593">
<ele>1218.2</ele>
<time>2026-04-22T10:39:27-07:00</time>
</trkpt>
<trkpt lat="38.25924" lon="-120.35919">
<ele>1216.9</ele>
<time>2026-04-22T10:39:28-07:00</time>
</trkpt>
<trkpt lat="38.25918" lon="-120.35885">
<ele>1209.2</ele>
<time>2026-04-22T10:39:29-07:00</time>
</trkpt>
<trkpt lat="38.25924" lon="-120.35864">
<ele>1212.5</ele>
<time>2026-04-22T10:39:30-07:00</time>
</trkpt>
<trkpt lat="38.25936" lon="-120.35852">
<ele>1209.3</ele>
<time>2026-04-22T10:39:31-07:00</time>
</trkpt>
<trkpt lat="38.2597" lon="-120.35805">
<ele>1210.3</ele>
<time>2026-04-22T10:39:32-07:00</time>
</trkpt>
<trkpt lat="38.25981" lon="-120.35797">
<ele>1209.5</ele>
<time>2026-04-22T10:39:33-07:00</time>
</trkpt>
<trkpt lat="38.25983" lon="-120.35782">
<ele>1208.9</ele>
<time>2026-04-22T10:39:34-07:00</time>
</trkpt>
<trkpt lat="38.25982" lon="-120.3577">
<ele>1208.2</ele>
<time>2026-04-22T10:39:35-07:00</time>
</trkpt>
<trkpt lat="38.25986" lon="-120.35756">
<ele>1205.8</ele>
<time>2026-04-22T10:39:36-07:00</time>
</trkpt>
<trkpt lat="38.25987" lon="-120.35737">
<ele>1202.4</ele>
<time>2026-04-22T10:39:37-07:00</time>
</trkpt>
<trkpt lat="38.25992" lon="-120.35722">
<ele>1197.3</ele>
<time>2026-04-22T10:39:38-07:00</time>
</trkpt>
<trkpt lat="38.25992" lon="-120.35706">
<ele>1196</ele>
<time>2026-04-22T10:39:39-07:00</time>
</trkpt>
<trkpt lat="38.26001" lon="-120.357">
<ele>1192.6</ele>
<time>2026-04-22T10:39:40-07:00</time>
</trkpt>
<trkpt lat="38.26007" lon="-120.35707">
<ele>1193.8</ele>
<time>2026-04-22T10:39:41-07:00</time>
</trkpt>
<trkpt lat="38.26014" lon="-120.35706">
<ele>1191.7</ele>
<time>2026-04-22T10:39:42-07:00</time>
</trkpt>
<trkpt lat="38.2603" lon="-120.35686">
<ele>1187.9</ele>
<time>2026-04-22T10:39:43-07:00</time>
</trkpt>
<trkpt lat="38.26048" lon="-120.35671">
<ele>1186.5</ele>
<time>2026-04-22T10:39:44-07:00</time>
</trkpt>
<trkpt lat="38.26075" lon="-120.35666">
<ele>1183.6</ele>
<time>2026-04-22T10:39:45-07:00</time>
</trkpt>
<trkpt lat="38.2608" lon="-120.35662">
<ele>1183.6</ele>
<time>2026-04-22T10:39:46-07:00</time>
</trkpt>
<trkpt lat="38.26086" lon="-120.35647">
<ele>1183.7</ele>
<time>2026-04-22T10:39:47-07:00</time>
</trkpt>
<trkpt lat="38.26094" lon="-120.35636">
<ele>1183.5</ele>
<time>2026-04-22T10:39:48-07:00</time>
</trkpt>
<trkpt lat="38.26115" lon="-120.35622">
<ele>1183.5</ele>
<time>2026-04-22T10:39:49-07:00</time>
</trkpt>
<trkpt lat="38.26122" lon="-120.35604">
<ele>1186.1</ele>
<time>2026-04-22T10:39:50-07:00</time>
</trkpt>
<trkpt lat="38.26124" lon="-120.35591">
<ele>1188.7</ele>
<time>2026-04-22T10:39:51-07:00</time>
</trkpt>
<trkpt lat="38.2614" lon="-120.35566">
<ele>1189.5</ele>
<time>2026-04-22T10:39:52-07:00</time>
</trkpt>
<trkpt lat="38.26142" lon="-120.35553">
<ele>1189.7</ele>
<time>2026-04-22T10:39:53-07:00</time>
</trkpt>
<trkpt lat="38.26141" lon="-120.35522">
<ele>1188.7</ele>
<time>2026-04-22T10:39:54-07:00</time>
</trkpt>
<trkpt lat="38.26131" lon="-120.35477">
<ele>1192</ele>
<time>2026-04-22T10:39:55-07:00</time>
</trkpt>
<trkpt lat="38.26131" lon="-120.35466">
<ele>1192.4</ele>
<time>2026-04-22T10:39:56-07:00</time>
</trkpt>
<trkpt lat="38.26138" lon="-120.35449">
<ele>1193</ele>
<time>2026-04-22T10:39:57-07:00</time>
</trkpt>
<trkpt lat="38.26159" lon="-120.3543">
<ele>1189.4</ele>
<time>2026-04-22T10:39:58-07:00</time>
</trkpt>
<trkpt lat="38.26174" lon="-120.35419">
<ele>1187.5</ele>
<time>2026-04-22T10:39:59-07:00</time>
</trkpt>
<trkpt lat="38.26197" lon="-120.35415">
<ele>1186.4</ele>
<time>2026-04-22T10:40:00-07:00</time>
</trkpt>
<trkpt lat="38.26211" lon="-120.35424">
<ele>1184.8</ele>
<time>2026-04-22T10:40:01-07:00</time>
</trkpt>
<trkpt lat="38.26224" lon="-120.35422">
<ele>1184.9</ele>
<time>2026-04-22T10:40:02-07:00</time>
</trkpt>
<trkpt lat="38.26259" lon="-120.35397">
<ele>1185.6</ele>
<time>2026-04-22T10:40:03-07:00</time>
</trkpt>
<trkpt lat="38.26271" lon="-120.35384">
<ele>1183.6</ele>
<time>2026-04-22T10:40:04-07:00</time>
</trkpt>
<trkpt lat="38.26294" lon="-120.35334">
<ele>1182.3</ele>
<time>2026-04-22T10:40:05-07:00</time>
</trkpt>
<trkpt lat="38.26319" lon="-120.35309">
<ele>1177.6</ele>
<time>2026-04-22T10:40:06-07:00</time>
</trkpt>
<trkpt lat="38.26336" lon="-120.35308">
<ele>1177.7</ele>
<time>2026-04-22T10:40:07-07:00</time>
</trkpt>
<trkpt lat="38.26365" lon="-120.35322">
<ele>1180.6</ele>
<time>2026-04-22T10:40:08-07:00</time>
</trkpt>
<trkpt lat="38.264" lon="-120.35334">
<ele>1181.4</ele>
<time>2026-04-22T10:40:09-07:00</time>
</trkpt>
<trkpt lat="38.26477" lon="-120.35347">
<ele>1181.6</ele>
<time>2026-04-22T10:40:10-07:00</time>
</trkpt>
<trkpt lat="38.26491" lon="-120.35344">
<ele>1182.2</ele>
<time>2026-04-22T10:40:11-07:00</time>
</trkpt>
<trkpt lat="38.26509" lon="-120.3533">
<ele>1185.4</ele>
<time>2026-04-22T10:40:12-07:00</time>
</trkpt>
<trkpt lat="38.26572" lon="-120.35224">
<ele>1186.4</ele>
<time>2026-04-22T10:40:13-07:00</time>
</trkpt>
<trkpt lat="38.26577" lon="-120.35184">
<ele>1188.3</ele>
<time>2026-04-22T10:40:14-07:00</time>
</trkpt>
<trkpt lat="38.26609" lon="-120.35066">
<ele>1188.9</ele>
<time>2026-04-22T10:40:15-07:00</time>
</trkpt>
<trkpt lat="38.26607" lon="-120.35046">
<ele>1189</ele>
<time>2026-04-22T10:40:16-07:00</time>
</trkpt>
<trkpt lat="38.266" lon="-120.35022">
<ele>1189.9</ele>
<time>2026-04-22T10:40:17-07:00</time>
</trkpt>
<trkpt lat="38.26589" lon="-120.34996">
<ele>1190.8</ele>
<time>2026-04-22T10:40:18-07:00</time>
</trkpt>
<trkpt lat="38.26578" lon="-120.34947">
<ele>1190.8</ele>
<time>2026-04-22T10:40:19-07:00</time>
</trkpt>
<trkpt lat="38.26579" lon="-120.3492">
<ele>1192.1</ele>
<time>2026-04-22T10:40:20-07:00</time>
</trkpt>
<trkpt lat="38.26583" lon="-120.34904">
<ele>1193.7</ele>
<time>2026-04-22T10:40:21-07:00</time>
</trkpt>
<trkpt lat="38.26609" lon="-120.34856">
<ele>1193.1</ele>
<time>2026-04-22T10:40:22-07:00</time>
</trkpt>
<trkpt lat="38.26616" lon="-120.34851">
<ele>1194.7</ele>
<time>2026-04-22T10:40:23-07:00</time>
</trkpt>
<trkpt lat="38.26644" lon="-120.34846">
<ele>1194.3</ele>
<time>2026-04-22T10:40:24-07:00</time>
</trkpt>
<trkpt lat="38.26653" lon="-120.3484">
<ele>1195.3</ele>
<time>2026-04-22T10:40:25-07:00</time>
</trkpt>
<trkpt lat="38.26659" lon="-120.34832">
<ele>1194.1</ele>
<time>2026-04-22T10:40:26-07:00</time>
</trkpt>
<trkpt lat="38.2672" lon="-120.34812">
<ele>1198.3</ele>
<time>2026-04-22T10:40:27-07:00</time>
</trkpt>
<trkpt lat="38.26739" lon="-120.34801">
<ele>1198</ele>
<time>2026-04-22T10:40:28-07:00</time>
</trkpt>
<trkpt lat="38.268" lon="-120.34754">
<ele>1203.5</ele>
<time>2026-04-22T10:40:29-07:00</time>
</trkpt>
<trkpt lat="38.26813" lon="-120.34741">
<ele>1204</ele>
<time>2026-04-22T10:40:30-07:00</time>
</trkpt>
<trkpt lat="38.26818" lon="-120.34727">
<ele>1204.7</ele>
<time>2026-04-22T10:40:31-07:00</time>
</trkpt>
<trkpt lat="38.26818" lon="-120.34712">
<ele>1204.9</ele>
<time>2026-04-22T10:40:32-07:00</time>
</trkpt>
<trkpt lat="38.26804" lon="-120.34695">
<ele>1208.7</ele>
<time>2026-04-22T10:40:33-07:00</time>
</trkpt>
<trkpt lat="38.2675" lon="-120.34663">
<ele>1209.1</ele>
<time>2026-04-22T10:40:34-07:00</time>
</trkpt>
<trkpt lat="38.26727" lon="-120.34656">
<ele>1209.7</ele>
<time>2026-04-22T10:40:35-07:00</time>
</trkpt>
<trkpt lat="38.26656" lon="-120.34601">
<ele>1210</ele>
<time>2026-04-22T10:40:36-07:00</time>
</trkpt>
<trkpt lat="38.26648" lon="-120.34586">
<ele>1210.6</ele>
<time>2026-04-22T10:40:37-07:00</time>
</trkpt>
<trkpt lat="38.26638" lon="-120.34541">
<ele>1209.3</ele>
<time>2026-04-22T10:40:38-07:00</time>
</trkpt>
<trkpt lat="38.2663" lon="-120.34519">
<ele>1206.2</ele>
<time>2026-04-22T10:40:39-07:00</time>
</trkpt>
<trkpt lat="38.26614" lon="-120.34495">
<ele>1205</ele>
<time>2026-04-22T10:40:40-07:00</time>
</trkpt>
<trkpt lat="38.26607" lon="-120.34488">
<ele>1203.4</ele>
<time>2026-04-22T10:40:41-07:00</time>
</trkpt>
<trkpt lat="38.26594" lon="-120.34485">
<ele>1203.1</ele>
<time>2026-04-22T10:40:42-07:00</time>
</trkpt>
<trkpt lat="38.26578" lon="-120.34487">
<ele>1201.1</ele>
<time>2026-04-22T10:40:43-07:00</time>
</trkpt>
<trkpt lat="38.26547" lon="-120.34499">
<ele>1199.1</ele>
<time>2026-04-22T10:40:44-07:00</time>
</trkpt>
<trkpt lat="38.26516" lon="-120.34502">
<ele>1195.9</ele>
<time>2026-04-22T10:40:45-07:00</time>
</trkpt>
<trkpt lat="38.26509" lon="-120.34498">
<ele>1194.3</ele>
<time>2026-04-22T10:40:46-07:00</time>
</trkpt>
<trkpt lat="38.26505" lon="-120.34488">
<ele>1193.6</ele>
<time>2026-04-22T10:40:47-07:00</time>
</trkpt>
<trkpt lat="38.26507" lon="-120.34473">
<ele>1192.9</ele>
<time>2026-04-22T10:40:48-07:00</time>
</trkpt>
<trkpt lat="38.26482" lon="-120.34463">
<ele>1190.2</ele>
<time>2026-04-22T10:40:49-07:00</time>
</trkpt>
<trkpt lat="38.26475" lon="-120.34456">
<ele>1188.8</ele>
<time>2026-04-22T10:40:50-07:00</time>
</trkpt>
<trkpt lat="38.26477" lon="-120.34444">
<ele>1188.4</ele>
<time>2026-04-22T10:40:51-07:00</time>
</trkpt>
<trkpt lat="38.26485" lon="-120.34434">
<ele>1188.4</ele>
<time>2026-04-22T10:40:52-07:00</time>
</trkpt>
<trkpt lat="38.26518" lon="-120.34374">
<ele>1185.5</ele>
<time>2026-04-22T10:40:53-07:00</time>
</trkpt>
<trkpt lat="38.26521" lon="-120.34358">
<ele>1184</ele>
<time>2026-04-22T10:40:54-07:00</time>
</trkpt>
<trkpt lat="38.2652" lon="-120.34313">
<ele>1182.7</ele>
<time>2026-04-22T10:40:55-07:00</time>
</trkpt>
<trkpt lat="38.26525" lon="-120.3428">
<ele>1182.8</ele>
<time>2026-04-22T10:40:56-07:00</time>
</trkpt>
<trkpt lat="38.26531" lon="-120.34277">
<ele>1181.9</ele>
<time>2026-04-22T10:40:57-07:00</time>
</trkpt>
<trkpt lat="38.2654" lon="-120.34255">
<ele>1182.2</ele>
<time>2026-04-22T10:40:58-07:00</time>
</trkpt>
<trkpt lat="38.26549" lon="-120.34248">
<ele>1182.4</ele>
<time>2026-04-22T10:40:59-07:00</time>
</trkpt>
<trkpt lat="38.2656" lon="-120.34256">
<ele>1181.7</ele>
<time>2026-04-22T10:41:00-07:00</time>
</trkpt>
<trkpt lat="38.26618" lon="-120.34259">
<ele>1182.4</ele>
<time>2026-04-22T10:41:01-07:00</time>
</trkpt>
<trkpt lat="38.26638" lon="-120.34271">
<ele>1183.6</ele>
<time>2026-04-22T10:41:02-07:00</time>
</trkpt>
<trkpt lat="38.26648" lon="-120.34284">
<ele>1183.1</ele>
<time>2026-04-22T10:41:03-07:00</time>
</trkpt>
</trkseg>
</trk>
</gpx>
